<?xml version='1.0' encoding='UTF-8'?><gpx version="1.1" creator="JPX - https://github.com/jenetics/jpx" xmlns="http://www.topografix.com/GPX/1/1"><trk><trkseg><trkpt lat="41.98194888865087" lon="12.307109646196787"><ele>35.0</ele><time>2026-04-18T15:11:59.998Z</time></trkpt><trkpt lat="41.98209415824384" lon="12.307084873393036"><ele>35.0</ele><time>2026-04-18T15:12:01.998Z</time></trkpt><trkpt lat="41.98219190162602" lon="12.307081660807446"><ele>35.0</ele><time>2026-04-18T15:12:02.998Z</time></trkpt><trkpt lat="41.98228679081181" lon="12.307080400173104"><ele>35.0</ele><time>2026-04-18T15:12:03.998Z</time></trkpt><trkpt lat="41.98239384544366" lon="12.307075772050537"><ele>35.0</ele><time>2026-04-18T15:12:04.998Z</time></trkpt><trkpt lat="41.98250913797656" lon="12.307067714793098"><ele>35.25</ele><time>2026-04-18T15:12:05.998Z</time></trkpt><trkpt lat="41.98263199199532" lon="12.3070693514351"><ele>35.5</ele><time>2026-04-18T15:12:06.998Z</time></trkpt><trkpt lat="41.982758359373996" lon="12.307066678759528"><ele>35.75</ele><time>2026-04-18T15:12:07.998Z</time></trkpt><trkpt lat="41.98288661958277" lon="12.307061542770011"><ele>36.0</ele><time>2026-04-18T15:12:08.998Z</time></trkpt><trkpt lat="41.98301680218483" lon="12.307058012969012"><ele>36.0</ele><time>2026-04-18T15:12:09.997Z</time></trkpt><trkpt lat="41.98314472472441" lon="12.307050969395352"><ele>36.0</ele><time>2026-04-18T15:12:10.997Z</time></trkpt><trkpt lat="41.98327447263216" lon="12.307054909766654"><ele>36.0</ele><time>2026-04-18T15:12:11.997Z</time></trkpt><trkpt lat="41.98340331183236" lon="12.30704863482362"><ele>36.0</ele><time>2026-04-18T15:12:12.997Z</time></trkpt><trkpt lat="41.983529748184495" lon="12.307040604127236"><ele>36.0</ele><time>2026-04-18T15:12:13.997Z</time></trkpt><trkpt lat="41.98365459521107" lon="12.30703373833618"><ele>36.0</ele><time>2026-04-18T15:12:14.997Z</time></trkpt><trkpt lat="41.98378047050382" lon="12.307032820385185"><ele>36.0</ele><time>2026-04-18T15:12:15.997Z</time></trkpt><trkpt lat="41.98391958618933" lon="12.30702540897983"><ele>36.0</ele><time>2026-04-18T15:12:16.997Z</time></trkpt><trkpt lat="41.984077205255126" lon="12.30702316523826"><ele>36.0</ele><time>2026-04-18T15:12:17.997Z</time></trkpt><trkpt lat="41.9842416260881" lon="12.307014312631484"><ele>36.0</ele><time>2026-04-18T15:12:18.997Z</time></trkpt><trkpt lat="41.98443038037443" lon="12.307005982960465"><ele>36.0</ele><time>2026-04-18T15:12:19.997Z</time></trkpt><trkpt lat="41.984614311728855" lon="12.306998840171776"><ele>36.0</ele><time>2026-04-18T15:12:20.997Z</time></trkpt><trkpt lat="41.98481262450289" lon="12.306990272033447"><ele>36.0</ele><time>2026-04-18T15:12:21.997Z</time></trkpt><trkpt lat="41.98501639099921" lon="12.3069856855182"><ele>36.0</ele><time>2026-04-18T15:12:22.997Z</time></trkpt><trkpt lat="41.985223717789424" lon="12.306974418351329"><ele>36.333333333333336</ele><time>2026-04-18T15:12:23.997Z</time></trkpt><trkpt lat="41.985430435900255" lon="12.306968155912042"><ele>36.66666666666667</ele><time>2026-04-18T15:12:24.997Z</time></trkpt><trkpt lat="41.98563660692765" lon="12.306971290712143"><ele>37.0</ele><time>2026-04-18T15:12:25.997Z</time></trkpt><trkpt lat="41.985845433904906" lon="12.306984036072697"><ele>37.0</ele><time>2026-04-18T15:12:26.997Z</time></trkpt><trkpt lat="41.986052185935016" lon="12.307000551962695"><ele>37.0</ele><time>2026-04-18T15:12:27.997Z</time></trkpt><trkpt lat="41.986256323763854" lon="12.307027907812554"><ele>37.0</ele><time>2026-04-18T15:12:28.997Z</time></trkpt><trkpt lat="41.98646450648442" lon="12.307057792842993"><ele>37.0</ele><time>2026-04-18T15:12:29.997Z</time></trkpt><trkpt lat="41.986682657022534" lon="12.307081275013463"><ele>37.0</ele><time>2026-04-18T15:12:30.997Z</time></trkpt><trkpt lat="41.98690200460234" lon="12.3071071595563"><ele>37.0</ele><time>2026-04-18T15:12:31.997Z</time></trkpt><trkpt lat="41.98712537181885" lon="12.307141316031133"><ele>37.0</ele><time>2026-04-18T15:12:32.997Z</time></trkpt><trkpt lat="41.987352498393975" lon="12.307174795332246"><ele>37.0</ele><time>2026-04-18T15:12:33.997Z</time></trkpt><trkpt lat="41.987581493023775" lon="12.307207410473623"><ele>37.0</ele><time>2026-04-18T15:12:34.997Z</time></trkpt><trkpt lat="41.98781358906946" lon="12.307235956195234"><ele>37.0</ele><time>2026-04-18T15:12:35.997Z</time></trkpt><trkpt lat="41.98805320095564" lon="12.307266204283307"><ele>38.0</ele><time>2026-04-18T15:12:36.997Z</time></trkpt><trkpt lat="41.988293306849926" lon="12.307301531083365"><ele>39.0</ele><time>2026-04-18T15:12:37.997Z</time></trkpt><trkpt lat="41.988537881536125" lon="12.307331797561973"><ele>39.0</ele><time>2026-04-18T15:12:38.997Z</time></trkpt><trkpt lat="41.988789043751936" lon="12.307360417427802"><ele>39.0</ele><time>2026-04-18T15:12:39.997Z</time></trkpt><trkpt lat="41.98902526717418" lon="12.307385493292134"><ele>39.0</ele><time>2026-04-18T15:12:40.997Z</time></trkpt><trkpt lat="41.98925171845434" lon="12.30741677599061"><ele>39.0</ele><time>2026-04-18T15:12:41.997Z</time></trkpt><trkpt lat="41.989471508928325" lon="12.30744597204701"><ele>39.0</ele><time>2026-04-18T15:12:42.997Z</time></trkpt><trkpt lat="41.989679080384775" lon="12.307473736153144"><ele>39.0</ele><time>2026-04-18T15:12:43.997Z</time></trkpt><trkpt lat="41.98987686485048" lon="12.307509229170824"><ele>39.0</ele><time>2026-04-18T15:12:44.997Z</time></trkpt><trkpt lat="41.990059851471536" lon="12.307550980998183"><ele>39.0</ele><time>2026-04-18T15:12:45.997Z</time></trkpt><trkpt lat="41.99023668268208" lon="12.30759675477709"><ele>40.0</ele><time>2026-04-18T15:12:46.997Z</time></trkpt><trkpt lat="41.99041291773748" lon="12.30765920546998"><ele>41.0</ele><time>2026-04-18T15:12:47.996Z</time></trkpt><trkpt lat="41.990586596557726" lon="12.307748484367444"><ele>42.0</ele><time>2026-04-18T15:12:48.996Z</time></trkpt><trkpt lat="41.99075845766004" lon="12.307859938392372"><ele>40.5</ele><time>2026-04-18T15:12:49.996Z</time></trkpt><trkpt lat="41.99112685083508" lon="12.30810235384627"><ele>39.0</ele><time>2026-04-18T15:12:51.996Z</time></trkpt><trkpt lat="41.99132422476826" lon="12.30823236759902"><ele>39.0</ele><time>2026-04-18T15:12:52.996Z</time></trkpt><trkpt lat="41.99152294724159" lon="12.308361183656489"><ele>39.0</ele><time>2026-04-18T15:12:53.996Z</time></trkpt><trkpt lat="41.99173078933988" lon="12.30849902614626"><ele>38.5</ele><time>2026-04-18T15:12:54.996Z</time></trkpt><trkpt lat="41.991941329712304" lon="12.30863589872344"><ele>38.0</ele><time>2026-04-18T15:12:55.996Z</time></trkpt><trkpt lat="41.992137959383236" lon="12.308784681554963"><ele>38.0</ele><time>2026-04-18T15:12:56.996Z</time></trkpt><trkpt lat="41.99234081827592" lon="12.30889562214613"><ele>38.0</ele><time>2026-04-18T15:12:57.996Z</time></trkpt><trkpt lat="41.992535630844635" lon="12.309026460688067"><ele>38.0</ele><time>2026-04-18T15:12:58.996Z</time></trkpt><trkpt lat="41.99272486176964" lon="12.309159538785723"><ele>38.33333333333333</ele><time>2026-04-18T15:12:59.996Z</time></trkpt><trkpt lat="41.992909896304724" lon="12.309310385211186"><ele>38.666666666666664</ele><time>2026-04-18T15:13:00.996Z</time></trkpt><trkpt lat="41.99307902704913" lon="12.309467340073747"><ele>39.0</ele><time>2026-04-18T15:13:01.996Z</time></trkpt><trkpt lat="41.993236006532186" lon="12.309643833038383"><ele>39.0</ele><time>2026-04-18T15:13:02.996Z</time></trkpt><trkpt lat="41.99338280846729" lon="12.309848508952326"><ele>39.0</ele><time>2026-04-18T15:13:03.996Z</time></trkpt><trkpt lat="41.99353694349242" lon="12.310064447496922"><ele>39.0</ele><time>2026-04-18T15:13:04.996Z</time></trkpt><trkpt lat="41.993693662125395" lon="12.310287946128733"><ele>39.0</ele><time>2026-04-18T15:13:05.996Z</time></trkpt><trkpt lat="41.99383990873027" lon="12.310496372919992"><ele>39.0</ele><time>2026-04-18T15:13:06.999Z</time></trkpt><trkpt lat="41.99397538776747" lon="12.310685973444295"><ele>39.0</ele><time>2026-04-18T15:13:07.999Z</time></trkpt><trkpt lat="41.99410186479203" lon="12.31086438776699"><ele>39.0</ele><time>2026-04-18T15:13:08.999Z</time></trkpt><trkpt lat="41.99422933514468" lon="12.311030290212482"><ele>39.0</ele><time>2026-04-18T15:13:09.999Z</time></trkpt><trkpt lat="41.9943721978176" lon="12.311177416713795"><ele>39.0</ele><time>2026-04-18T15:13:10.999Z</time></trkpt><trkpt lat="41.9945329786994" lon="12.311308522127627"><ele>39.333333333333336</ele><time>2026-04-18T15:13:11.999Z</time></trkpt><trkpt lat="41.99471239700276" lon="12.311432172063297"><ele>39.66666666666667</ele><time>2026-04-18T15:13:12.999Z</time></trkpt><trkpt lat="41.994907692767356" lon="12.31155569416093"><ele>40.0</ele><time>2026-04-18T15:13:13.999Z</time></trkpt><trkpt lat="41.99511166152827" lon="12.311685417047885"><ele>40.0</ele><time>2026-04-18T15:13:14.999Z</time></trkpt><trkpt lat="41.99532275767849" lon="12.31182302839777"><ele>40.0</ele><time>2026-04-18T15:13:15.999Z</time></trkpt><trkpt lat="41.99553795492447" lon="12.311955412795857"><ele>40.0</ele><time>2026-04-18T15:13:16.999Z</time></trkpt><trkpt lat="41.995762472618615" lon="12.312094420206092"><ele>40.0</ele><time>2026-04-18T15:13:17.999Z</time></trkpt><trkpt lat="41.99599370402549" lon="12.31223350868396"><ele>40.5</ele><time>2026-04-18T15:13:18.999Z</time></trkpt><trkpt lat="41.99623401904091" lon="12.312378987273243"><ele>41.0</ele><time>2026-04-18T15:13:19.999Z</time></trkpt><trkpt lat="41.996483249948554" lon="12.31253250016362"><ele>42.0</ele><time>2026-04-18T15:13:20.999Z</time></trkpt><trkpt lat="41.996739968468944" lon="12.312689569598184"><ele>43.0</ele><time>2026-04-18T15:13:21.999Z</time></trkpt><trkpt lat="41.99700137580299" lon="12.312852930870532"><ele>43.0</ele><time>2026-04-18T15:13:22.999Z</time></trkpt><trkpt lat="41.997272583001596" lon="12.313016864759568"><ele>43.0</ele><time>2026-04-18T15:13:23.999Z</time></trkpt><trkpt lat="41.99754971073101" lon="12.313184499773705"><ele>43.0</ele><time>2026-04-18T15:13:24.999Z</time></trkpt><trkpt lat="41.997832126679754" lon="12.313359094221505"><ele>43.0</ele><time>2026-04-18T15:13:25.999Z</time></trkpt><trkpt lat="41.99810412963161" lon="12.313524285376847"><ele>44.5</ele><time>2026-04-18T15:13:26.999Z</time></trkpt><trkpt lat="41.998354191164985" lon="12.313676727795428"><ele>46.0</ele><time>2026-04-18T15:13:27.999Z</time></trkpt><trkpt lat="41.99859122750768" lon="12.31382812159195"><ele>45.0</ele><time>2026-04-18T15:13:28.999Z</time></trkpt><trkpt lat="41.99882310511147" lon="12.31397048100788"><ele>44.0</ele><time>2026-04-18T15:13:29.999Z</time></trkpt><trkpt lat="41.99904495718983" lon="12.314105798498838"><ele>44.5</ele><time>2026-04-18T15:13:30.999Z</time></trkpt><trkpt lat="41.999266927074494" lon="12.314241070615504"><ele>45.0</ele><time>2026-04-18T15:13:31.999Z</time></trkpt><trkpt lat="41.99949614298211" lon="12.314380876571366"><ele>45.0</ele><time>2026-04-18T15:13:32.999Z</time></trkpt><trkpt lat="41.99972952924732" lon="12.314523875534187"><ele>45.0</ele><time>2026-04-18T15:13:33.999Z</time></trkpt><trkpt lat="41.99996764961265" lon="12.314671654477612"><ele>44.5</ele><time>2026-04-18T15:13:34.999Z</time></trkpt><trkpt lat="42.00020522831521" lon="12.314823827900607"><ele>44.0</ele><time>2026-04-18T15:13:35.999Z</time></trkpt><trkpt lat="42.000444616002554" lon="12.314977459206455"><ele>44.0</ele><time>2026-04-18T15:13:36.999Z</time></trkpt><trkpt lat="42.00068588146558" lon="12.315128382907652"><ele>44.0</ele><time>2026-04-18T15:13:37.999Z</time></trkpt><trkpt lat="42.00092736487745" lon="12.315265979340007"><ele>47.0</ele><time>2026-04-18T15:13:38.999Z</time></trkpt><trkpt lat="42.0011490459939" lon="12.315387213271253"><ele>50.0</ele><time>2026-04-18T15:13:39.999Z</time></trkpt><trkpt lat="42.00135906800978" lon="12.3154914880166"><ele>50.0</ele><time>2026-04-18T15:13:40.999Z</time></trkpt><trkpt lat="42.0015563661381" lon="12.315586416991733"><ele>50.0</ele><time>2026-04-18T15:13:41.999Z</time></trkpt><trkpt lat="42.001733891265935" lon="12.315662092062057"><ele>50.0</ele><time>2026-04-18T15:13:42.999Z</time></trkpt><trkpt lat="42.00189250568509" lon="12.3157158135338"><ele>50.0</ele><time>2026-04-18T15:13:43.999Z</time></trkpt><trkpt lat="42.00204338700998" lon="12.31573621236904"><ele>50.0</ele><time>2026-04-18T15:13:44.999Z</time></trkpt><trkpt lat="42.00220380834677" lon="12.315740531524977"><ele>50.0</ele><time>2026-04-18T15:13:45.999Z</time></trkpt><trkpt lat="42.00236802157266" lon="12.315738845575895"><ele>50.333333333333336</ele><time>2026-04-18T15:13:46.999Z</time></trkpt><trkpt lat="42.002534139198346" lon="12.315683250064136"><ele>50.66666666666667</ele><time>2026-04-18T15:13:47.999Z</time></trkpt><trkpt lat="42.002711055036706" lon="12.315605867574046"><ele>51.0</ele><time>2026-04-18T15:13:48.999Z</time></trkpt><trkpt lat="42.00289952640748" lon="12.315517438918063"><ele>52.66666666666667</ele><time>2026-04-18T15:13:49.999Z</time></trkpt><trkpt lat="42.00309371323363" lon="12.315413654764809"><ele>54.333333333333336</ele><time>2026-04-18T15:13:50.999Z</time></trkpt><trkpt lat="42.003295765156196" lon="12.315294582389008"><ele>56.0</ele><time>2026-04-18T15:13:51.999Z</time></trkpt><trkpt lat="42.00350108252384" lon="12.315143539037928"><ele>56.0</ele><time>2026-04-18T15:13:52.999Z</time></trkpt><trkpt lat="42.00371854237171" lon="12.314986787235213"><ele>56.0</ele><time>2026-04-18T15:13:53.999Z</time></trkpt><trkpt lat="42.00394591470167" lon="12.314834635909913"><ele>63.5</ele><time>2026-04-18T15:13:54.999Z</time></trkpt><trkpt lat="42.004167972690865" lon="12.314677332947756"><ele>71.0</ele><time>2026-04-18T15:13:55.999Z</time></trkpt><trkpt lat="42.00440199813278" lon="12.314517136954038"><ele>71.0</ele><time>2026-04-18T15:13:56.999Z</time></trkpt><trkpt lat="42.004641936439945" lon="12.314352796815278"><ele>71.0</ele><time>2026-04-18T15:13:57.999Z</time></trkpt><trkpt lat="42.00488948242496" lon="12.31417569119861"><ele>73.0</ele><time>2026-04-18T15:13:58.999Z</time></trkpt><trkpt lat="42.005130792367694" lon="12.313995231190868"><ele>75.0</ele><time>2026-04-18T15:13:59.999Z</time></trkpt><trkpt lat="42.00535211971437" lon="12.313828299930426"><ele>75.0</ele><time>2026-04-18T15:14:00.998Z</time></trkpt><trkpt lat="42.00556129518173" lon="12.313665607577175"><ele>75.0</ele><time>2026-04-18T15:14:01.998Z</time></trkpt><trkpt lat="42.00576472573416" lon="12.313502099281802"><ele>70.66666666666667</ele><time>2026-04-18T15:14:02.998Z</time></trkpt><trkpt lat="42.00595797091565" lon="12.313361106121254"><ele>66.33333333333334</ele><time>2026-04-18T15:14:03.998Z</time></trkpt><trkpt lat="42.00616652418337" lon="12.313241236873873"><ele>62.0</ele><time>2026-04-18T15:14:04.998Z</time></trkpt><trkpt lat="42.00639195863421" lon="12.313139943971942"><ele>62.5</ele><time>2026-04-18T15:14:05.998Z</time></trkpt><trkpt lat="42.00661686931645" lon="12.313049967637234"><ele>63.0</ele><time>2026-04-18T15:14:06.998Z</time></trkpt><trkpt lat="42.006834092915106" lon="12.312967591613694"><ele>63.0</ele><time>2026-04-18T15:14:07.998Z</time></trkpt><trkpt lat="42.00703301378554" lon="12.312920663344682"><ele>63.0</ele><time>2026-04-18T15:14:08.998Z</time></trkpt><trkpt lat="42.00721983796623" lon="12.312878122792165"><ele>63.0</ele><time>2026-04-18T15:14:09.998Z</time></trkpt><trkpt lat="42.00740592231217" lon="12.312856751231683"><ele>62.66666666666667</ele><time>2026-04-18T15:14:10.998Z</time></trkpt><trkpt lat="42.007583501889464" lon="12.312844094668606"><ele>62.333333333333336</ele><time>2026-04-18T15:14:11.998Z</time></trkpt><trkpt lat="42.00775579254002" lon="12.312824432934162"><ele>62.0</ele><time>2026-04-18T15:14:12.998Z</time></trkpt><trkpt lat="42.00792048176174" lon="12.312786993116628"><ele>62.0</ele><time>2026-04-18T15:14:13.998Z</time></trkpt><trkpt lat="42.00809767127286" lon="12.312717896156245"><ele>62.0</ele><time>2026-04-18T15:14:14.998Z</time></trkpt><trkpt lat="42.008292785914485" lon="12.312623235176986"><ele>62.0</ele><time>2026-04-18T15:14:15.998Z</time></trkpt><trkpt lat="42.008496357341365" lon="12.312514900538535"><ele>62.5</ele><time>2026-04-18T15:14:16.998Z</time></trkpt><trkpt lat="42.00871404375125" lon="12.312399328842805"><ele>63.0</ele><time>2026-04-18T15:14:17.998Z</time></trkpt><trkpt lat="42.00894311851229" lon="12.312280828506918"><ele>65.0</ele><time>2026-04-18T15:14:18.998Z</time></trkpt><trkpt lat="42.00917903423527" lon="12.31215944776684"><ele>67.0</ele><time>2026-04-18T15:14:19.998Z</time></trkpt><trkpt lat="42.00940505552497" lon="12.312043767782237"><ele>67.0</ele><time>2026-04-18T15:14:20.998Z</time></trkpt><trkpt lat="42.009612751137176" lon="12.311945030978137"><ele>67.0</ele><time>2026-04-18T15:14:21.998Z</time></trkpt><trkpt lat="42.00980145116179" lon="12.311860681524916"><ele>67.0</ele><time>2026-04-18T15:14:22.998Z</time></trkpt><trkpt lat="42.00998227870251" lon="12.31179010971889"><ele>66.66666666666666</ele><time>2026-04-18T15:14:23.998Z</time></trkpt><trkpt lat="42.01016317409313" lon="12.311736566365498"><ele>66.33333333333333</ele><time>2026-04-18T15:14:24.998Z</time></trkpt><trkpt lat="42.01034597648555" lon="12.311699139605617"><ele>66.0</ele><time>2026-04-18T15:14:25.998Z</time></trkpt><trkpt lat="42.01051822814404" lon="12.311668901709877"><ele>66.0</ele><time>2026-04-18T15:14:26.998Z</time></trkpt><trkpt lat="42.01067244932175" lon="12.311632223383423"><ele>66.0</ele><time>2026-04-18T15:14:27.998Z</time></trkpt><trkpt lat="42.01081390308656" lon="12.311597019943294"><ele>66.0</ele><time>2026-04-18T15:14:28.998Z</time></trkpt><trkpt lat="42.01094551869932" lon="12.311559629231148"><ele>66.0</ele><time>2026-04-18T15:14:29.998Z</time></trkpt><trkpt lat="42.011066947814506" lon="12.311520323881373"><ele>66.2</ele><time>2026-04-18T15:14:30.998Z</time></trkpt><trkpt lat="42.01117527003962" lon="12.31148021885134"><ele>66.39999999999999</ele><time>2026-04-18T15:14:31.998Z</time></trkpt><trkpt lat="42.011279889373526" lon="12.311439152846468"><ele>66.6</ele><time>2026-04-18T15:14:32.998Z</time></trkpt><trkpt lat="42.011373456965444" lon="12.311402385851988"><ele>66.8</ele><time>2026-04-18T15:14:33.998Z</time></trkpt><trkpt lat="42.0114667227291" lon="12.311366805115709"><ele>67.0</ele><time>2026-04-18T15:14:34.998Z</time></trkpt><trkpt lat="42.011556905684884" lon="12.3113239401909"><ele>68.6</ele><time>2026-04-18T15:14:35.998Z</time></trkpt><trkpt lat="42.01163963723116" lon="12.311279336845727"><ele>70.2</ele><time>2026-04-18T15:14:36.998Z</time></trkpt><trkpt lat="42.01172177278015" lon="12.31123046857403"><ele>71.8</ele><time>2026-04-18T15:14:37.998Z</time></trkpt><trkpt lat="42.01180291955669" lon="12.311178703711528"><ele>73.4</ele><time>2026-04-18T15:14:38.998Z</time></trkpt><trkpt lat="42.01188420610741" lon="12.311127666552652"><ele>75.0</ele><time>2026-04-18T15:14:39.998Z</time></trkpt><trkpt lat="42.01196852670611" lon="12.311076870855933"><ele>75.2</ele><time>2026-04-18T15:14:40.997Z</time></trkpt><trkpt lat="42.012060071079524" lon="12.311028503855859"><ele>75.4</ele><time>2026-04-18T15:14:41.997Z</time></trkpt><trkpt lat="42.01216223455486" lon="12.310983830003158"><ele>75.6</ele><time>2026-04-18T15:14:42.997Z</time></trkpt><trkpt lat="42.012255539375765" lon="12.310935609767574"><ele>75.8</ele><time>2026-04-18T15:14:43.997Z</time></trkpt><trkpt lat="42.0123625462748" lon="12.310868666248153"><ele>76.0</ele><time>2026-04-18T15:14:44.997Z</time></trkpt><trkpt lat="42.0124719707193" lon="12.310793065511813"><ele>76.5</ele><time>2026-04-18T15:14:45.997Z</time></trkpt><trkpt lat="42.01258548657923" lon="12.310704672614744"><ele>77.0</ele><time>2026-04-18T15:14:46.997Z</time></trkpt><trkpt lat="42.012697888335964" lon="12.310594587952973"><ele>77.5</ele><time>2026-04-18T15:14:47.997Z</time></trkpt><trkpt lat="42.01280542110312" lon="12.310472200082593"><ele>78.0</ele><time>2026-04-18T15:14:48.997Z</time></trkpt><trkpt lat="42.01292040174471" lon="12.310352260186512"><ele>78.0</ele><time>2026-04-18T15:14:49.997Z</time></trkpt><trkpt lat="42.01304191831623" lon="12.310232553389161"><ele>78.0</ele><time>2026-04-18T15:14:50.997Z</time></trkpt><trkpt lat="42.01316345687313" lon="12.310107283965563"><ele>78.0</ele><time>2026-04-18T15:14:51.997Z</time></trkpt><trkpt lat="42.0132834241146" lon="12.309978445610238"><ele>77.66666666666667</ele><time>2026-04-18T15:14:52.997Z</time></trkpt><trkpt lat="42.013407269936586" lon="12.309848673567451"><ele>77.33333333333334</ele><time>2026-04-18T15:14:53.997Z</time></trkpt><trkpt lat="42.01352404324437" lon="12.309716774869846"><ele>77.0</ele><time>2026-04-18T15:14:54.997Z</time></trkpt><trkpt lat="42.013632725087895" lon="12.309596082995263"><ele>77.0</ele><time>2026-04-18T15:14:55.997Z</time></trkpt><trkpt lat="42.01373615879514" lon="12.309483071893704"><ele>77.0</ele><time>2026-04-18T15:14:56.997Z</time></trkpt><trkpt lat="42.0138408884679" lon="12.309375509759217"><ele>77.0</ele><time>2026-04-18T15:14:57.997Z</time></trkpt><trkpt lat="42.01395019402749" lon="12.30927560922785"><ele>77.0</ele><time>2026-04-18T15:14:58.997Z</time></trkpt><trkpt lat="42.01406598075847" lon="12.309184234377204"><ele>78.0</ele><time>2026-04-18T15:14:59.997Z</time></trkpt><trkpt lat="42.0141967131951" lon="12.309113008581301"><ele>79.0</ele><time>2026-04-18T15:15:00.997Z</time></trkpt><trkpt lat="42.01433555968426" lon="12.30906289259786"><ele>80.0</ele><time>2026-04-18T15:15:01.997Z</time></trkpt><trkpt lat="42.014482495998436" lon="12.309030704853702"><ele>81.0</ele><time>2026-04-18T15:15:02.997Z</time></trkpt><trkpt lat="42.01463739916155" lon="12.309010957617712"><ele>81.0</ele><time>2026-04-18T15:15:03.997Z</time></trkpt><trkpt lat="42.01479763566124" lon="12.309006808307814"><ele>81.0</ele><time>2026-04-18T15:15:04.997Z</time></trkpt><trkpt lat="42.014963704934445" lon="12.309001099668157"><ele>81.0</ele><time>2026-04-18T15:15:05.997Z</time></trkpt><trkpt lat="42.01513616030224" lon="12.308992548080816"><ele>80.0</ele><time>2026-04-18T15:15:06.997Z</time></trkpt><trkpt lat="42.01531417108271" lon="12.308986729186067"><ele>79.0</ele><time>2026-04-18T15:15:07.997Z</time></trkpt><trkpt lat="42.01550359021347" lon="12.308979930183723"><ele>78.0</ele><time>2026-04-18T15:15:08.997Z</time></trkpt><trkpt lat="42.01569666944734" lon="12.30896996672807"><ele>79.33333333333333</ele><time>2026-04-18T15:15:09.997Z</time></trkpt><trkpt lat="42.01590349536061" lon="12.308962390813194"><ele>80.66666666666666</ele><time>2026-04-18T15:15:10.997Z</time></trkpt><trkpt lat="42.01611407988147" lon="12.308953518476086"><ele>82.0</ele><time>2026-04-18T15:15:11.997Z</time></trkpt><trkpt lat="42.01632744968303" lon="12.308940824419558"><ele>82.0</ele><time>2026-04-18T15:15:12.999Z</time></trkpt><trkpt lat="42.01653544034532" lon="12.30892651949432"><ele>82.0</ele><time>2026-04-18T15:15:13.999Z</time></trkpt><trkpt lat="42.01674735203562" lon="12.308924224229573"><ele>82.0</ele><time>2026-04-18T15:15:14.999Z</time></trkpt><trkpt lat="42.01696433702314" lon="12.30894450477022"><ele>83.66666666666666</ele><time>2026-04-18T15:15:15.999Z</time></trkpt><trkpt lat="42.01718273298627" lon="12.30899081676609"><ele>85.33333333333333</ele><time>2026-04-18T15:15:16.999Z</time></trkpt><trkpt lat="42.017392110612285" lon="12.309065760897552"><ele>87.0</ele><time>2026-04-18T15:15:17.999Z</time></trkpt><trkpt lat="42.01758282921684" lon="12.309158799913284"><ele>87.66666666666667</ele><time>2026-04-18T15:15:18.999Z</time></trkpt><trkpt lat="42.01775446702141" lon="12.30924777459843"><ele>88.33333333333334</ele><time>2026-04-18T15:15:19.999Z</time></trkpt><trkpt lat="42.0179114241939" lon="12.309330284323243"><ele>89.0</ele><time>2026-04-18T15:15:20.999Z</time></trkpt><trkpt lat="42.0180616189395" lon="12.309401750092555"><ele>89.0</ele><time>2026-04-18T15:15:21.999Z</time></trkpt><trkpt lat="42.01821422089626" lon="12.309469980607208"><ele>89.0</ele><time>2026-04-18T15:15:22.999Z</time></trkpt><trkpt lat="42.018364734796606" lon="12.309542770267091"><ele>89.0</ele><time>2026-04-18T15:15:23.999Z</time></trkpt><trkpt lat="42.018511067385354" lon="12.309619787709483"><ele>90.33333333333334</ele><time>2026-04-18T15:15:24.999Z</time></trkpt><trkpt lat="42.018655317001155" lon="12.309700060834576"><ele>91.66666666666667</ele><time>2026-04-18T15:15:25.999Z</time></trkpt><trkpt lat="42.01880407340709" lon="12.309770027483955"><ele>93.0</ele><time>2026-04-18T15:15:26.999Z</time></trkpt><trkpt lat="42.018950547301266" lon="12.309840101634382"><ele>95.0</ele><time>2026-04-18T15:15:27.999Z</time></trkpt><trkpt lat="42.01910221113923" lon="12.309894439959306"><ele>97.0</ele><time>2026-04-18T15:15:28.999Z</time></trkpt><trkpt lat="42.01925454351014" lon="12.309955051740655"><ele>99.0</ele><time>2026-04-18T15:15:29.999Z</time></trkpt><trkpt lat="42.01941015476264" lon="12.310014550567702"><ele>99.33333333333334</ele><time>2026-04-18T15:15:30.999Z</time></trkpt><trkpt lat="42.01956806024055" lon="12.310062807111832"><ele>99.66666666666667</ele><time>2026-04-18T15:15:31.999Z</time></trkpt><trkpt lat="42.01972499128053" lon="12.31011620218027"><ele>100.0</ele><time>2026-04-18T15:15:32.999Z</time></trkpt><trkpt lat="42.019879347873854" lon="12.31017756133809"><ele>102.33333333333334</ele><time>2026-04-18T15:15:33.999Z</time></trkpt><trkpt lat="42.020035943904894" lon="12.310240396320925"><ele>104.66666666666666</ele><time>2026-04-18T15:15:34.999Z</time></trkpt><trkpt lat="42.02020080399605" lon="12.310307221973432"><ele>107.0</ele><time>2026-04-18T15:15:35.999Z</time></trkpt><trkpt lat="42.02037223379928" lon="12.31037156079488"><ele>107.0</ele><time>2026-04-18T15:15:36.999Z</time></trkpt><trkpt lat="42.02055354302508" lon="12.310446548769976"><ele>107.0</ele><time>2026-04-18T15:15:37.999Z</time></trkpt><trkpt lat="42.02072897593726" lon="12.310520422367505"><ele>107.0</ele><time>2026-04-18T15:15:38.999Z</time></trkpt><trkpt lat="42.02090206393364" lon="12.310600437672194"><ele>107.0</ele><time>2026-04-18T15:15:39.999Z</time></trkpt><trkpt lat="42.02107144192734" lon="12.310678502740476"><ele>107.0</ele><time>2026-04-18T15:15:40.999Z</time></trkpt><trkpt lat="42.02124950782315" lon="12.310759393592367"><ele>107.0</ele><time>2026-04-18T15:15:41.999Z</time></trkpt><trkpt lat="42.02142397519792" lon="12.310838039989983"><ele>107.0</ele><time>2026-04-18T15:15:42.999Z</time></trkpt><trkpt lat="42.02159055272174" lon="12.310923588515076"><ele>107.0</ele><time>2026-04-18T15:15:43.999Z</time></trkpt><trkpt lat="42.02174258296918" lon="12.310993999207586"><ele>107.0</ele><time>2026-04-18T15:15:44.999Z</time></trkpt><trkpt lat="42.021875406345025" lon="12.311087907382127"><ele>107.33333333333333</ele><time>2026-04-18T15:15:45.999Z</time></trkpt><trkpt lat="42.02200443403393" lon="12.31118220524255"><ele>107.66666666666666</ele><time>2026-04-18T15:15:46.999Z</time></trkpt><trkpt lat="42.02214239259988" lon="12.311292607323178"><ele>108.0</ele><time>2026-04-18T15:15:47.999Z</time></trkpt><trkpt lat="42.02225243627242" lon="12.311462557378515"><ele>108.33333333333334</ele><time>2026-04-18T15:15:48.999Z</time></trkpt><trkpt lat="42.02235310396022" lon="12.31163286535157"><ele>108.66666666666667</ele><time>2026-04-18T15:15:49.999Z</time></trkpt><trkpt lat="42.02243793065934" lon="12.31181475214926"><ele>109.0</ele><time>2026-04-18T15:15:50.999Z</time></trkpt><trkpt lat="42.022505745000025" lon="12.312015155011062"><ele>110.33333333333334</ele><time>2026-04-18T15:15:51.999Z</time></trkpt><trkpt lat="42.02257626127587" lon="12.312225544604697"><ele>111.66666666666666</ele><time>2026-04-18T15:15:52.999Z</time></trkpt><trkpt lat="42.022617466254104" lon="12.312445204885623"><ele>113.0</ele><time>2026-04-18T15:15:53.999Z</time></trkpt><trkpt lat="42.0226451066598" lon="12.312659101204334"><ele>113.33333333333333</ele><time>2026-04-18T15:15:54.999Z</time></trkpt><trkpt lat="42.02265700244978" lon="12.312866568041128"><ele>113.66666666666666</ele><time>2026-04-18T15:15:55.999Z</time></trkpt><trkpt lat="42.02265416600666" lon="12.31307533248156"><ele>114.0</ele><time>2026-04-18T15:15:56.999Z</time></trkpt><trkpt lat="42.022650533190976" lon="12.313267561483755"><ele>114.25</ele><time>2026-04-18T15:15:57.998Z</time></trkpt><trkpt lat="42.022645850978286" lon="12.313443274827875"><ele>114.5</ele><time>2026-04-18T15:15:58.998Z</time></trkpt><trkpt lat="42.022648612402364" lon="12.313618680205991"><ele>114.75</ele><time>2026-04-18T15:15:59.998Z</time></trkpt><trkpt lat="42.02265823991667" lon="12.313798869679621"><ele>115.0</ele><time>2026-04-18T15:16:00.998Z</time></trkpt><trkpt lat="42.022676819418756" lon="12.313991703066138"><ele>117.0</ele><time>2026-04-18T15:16:01.998Z</time></trkpt><trkpt lat="42.022718380014744" lon="12.314197025814764"><ele>119.0</ele><time>2026-04-18T15:16:02.998Z</time></trkpt><trkpt lat="42.02277152716668" lon="12.314407027280891"><ele>121.0</ele><time>2026-04-18T15:16:03.998Z</time></trkpt><trkpt lat="42.02282591035841" lon="12.314629577573852"><ele>123.0</ele><time>2026-04-18T15:16:04.998Z</time></trkpt><trkpt lat="42.022879154651896" lon="12.314862200001157"><ele>125.0</ele><time>2026-04-18T15:16:05.998Z</time></trkpt><trkpt lat="42.022931196491186" lon="12.315085016443016"><ele>127.0</ele><time>2026-04-18T15:16:06.998Z</time></trkpt><trkpt lat="42.022973586345366" lon="12.31528436102269"><ele>127.0</ele><time>2026-04-18T15:16:07.998Z</time></trkpt><trkpt lat="42.023010750630604" lon="12.315468063843452"><ele>127.0</ele><time>2026-04-18T15:16:08.998Z</time></trkpt><trkpt lat="42.023052775192575" lon="12.315654337122044"><ele>127.0</ele><time>2026-04-18T15:16:09.998Z</time></trkpt><trkpt lat="42.02310090750208" lon="12.31583876692363"><ele>127.0</ele><time>2026-04-18T15:16:10.998Z</time></trkpt><trkpt lat="42.023145490685465" lon="12.316024038056431"><ele>128.0</ele><time>2026-04-18T15:16:11.998Z</time></trkpt><trkpt lat="42.023188588761066" lon="12.316209322611764"><ele>129.0</ele><time>2026-04-18T15:16:12.998Z</time></trkpt><trkpt lat="42.02323470712481" lon="12.31639297537729"><ele>130.0</ele><time>2026-04-18T15:16:13.998Z</time></trkpt><trkpt lat="42.023296421420625" lon="12.316566228807401"><ele>131.0</ele><time>2026-04-18T15:16:14.998Z</time></trkpt><trkpt lat="42.023375714910564" lon="12.316715206339216"><ele>131.0</ele><time>2026-04-18T15:16:15.998Z</time></trkpt><trkpt lat="42.02346157768436" lon="12.31684451269796"><ele>131.0</ele><time>2026-04-18T15:16:16.998Z</time></trkpt><trkpt lat="42.02354754231037" lon="12.31694447862924"><ele>131.0</ele><time>2026-04-18T15:16:17.998Z</time></trkpt><trkpt lat="42.02365269268216" lon="12.317019825658093"><ele>131.0</ele><time>2026-04-18T15:16:18.998Z</time></trkpt><trkpt lat="42.023776372210115" lon="12.317087658872454"><ele>131.0</ele><time>2026-04-18T15:16:19.998Z</time></trkpt><trkpt lat="42.0239143872227" lon="12.317132649893386"><ele>131.0</ele><time>2026-04-18T15:16:20.998Z</time></trkpt><trkpt lat="42.02404318379166" lon="12.317179563204908"><ele>131.0</ele><time>2026-04-18T15:16:21.998Z</time></trkpt><trkpt lat="42.024172778495696" lon="12.317218752863715"><ele>131.0</ele><time>2026-04-18T15:16:22.998Z</time></trkpt><trkpt lat="42.024295000321494" lon="12.317267105697102"><ele>132.5</ele><time>2026-04-18T15:16:23.998Z</time></trkpt><trkpt lat="42.024413786633325" lon="12.317335173358622"><ele>134.0</ele><time>2026-04-18T15:16:24.998Z</time></trkpt><trkpt lat="42.024552207712304" lon="12.317321718252382"><ele>135.5</ele><time>2026-04-18T15:16:25.998Z</time></trkpt><trkpt lat="42.024674701825354" lon="12.317371954895355"><ele>137.0</ele><time>2026-04-18T15:16:26.998Z</time></trkpt><trkpt lat="42.024804261826205" lon="12.31740604144073"><ele>137.0</ele><time>2026-04-18T15:16:27.998Z</time></trkpt><trkpt lat="42.02494505946661" lon="12.317439917727103"><ele>137.0</ele><time>2026-04-18T15:16:28.998Z</time></trkpt><trkpt lat="42.02509024790102" lon="12.317476300758125"><ele>137.0</ele><time>2026-04-18T15:16:29.998Z</time></trkpt><trkpt lat="42.025238673194906" lon="12.31751975151782"><ele>137.0</ele><time>2026-04-18T15:16:30.998Z</time></trkpt><trkpt lat="42.02539390363745" lon="12.317564075235556"><ele>136.66666666666666</ele><time>2026-04-18T15:16:31.998Z</time></trkpt><trkpt lat="42.02554749203577" lon="12.317605635462662"><ele>136.33333333333334</ele><time>2026-04-18T15:16:32.998Z</time></trkpt><trkpt lat="42.0256905722735" lon="12.317647485188312"><ele>136.0</ele><time>2026-04-18T15:16:33.998Z</time></trkpt><trkpt lat="42.025837642391224" lon="12.317686113922374"><ele>136.0</ele><time>2026-04-18T15:16:34.998Z</time></trkpt><trkpt lat="42.025987710120084" lon="12.317703256317564"><ele>136.0</ele><time>2026-04-18T15:16:35.998Z</time></trkpt><trkpt lat="42.02614309647792" lon="12.31772773263822"><ele>136.0</ele><time>2026-04-18T15:16:36.998Z</time></trkpt><trkpt lat="42.02630319824852" lon="12.317705738772503"><ele>136.0</ele><time>2026-04-18T15:16:37.997Z</time></trkpt><trkpt lat="42.0264650745988" lon="12.317671189726873"><ele>136.0</ele><time>2026-04-18T15:16:38.997Z</time></trkpt><trkpt lat="42.026623774679145" lon="12.317616336427543"><ele>136.0</ele><time>2026-04-18T15:16:39.997Z</time></trkpt><trkpt lat="42.0267818748498" lon="12.317556817764357"><ele>137.33333333333334</ele><time>2026-04-18T15:16:40.997Z</time></trkpt><trkpt lat="42.02693391799161" lon="12.317483044921364"><ele>138.66666666666666</ele><time>2026-04-18T15:16:41.997Z</time></trkpt><trkpt lat="42.02708620207157" lon="12.317411505567227"><ele>140.0</ele><time>2026-04-18T15:16:42.997Z</time></trkpt><trkpt lat="42.02723824018331" lon="12.317348475784593"><ele>140.0</ele><time>2026-04-18T15:16:43.997Z</time></trkpt><trkpt lat="42.02738015697326" lon="12.317282889298145"><ele>140.0</ele><time>2026-04-18T15:16:44.997Z</time></trkpt><trkpt lat="42.02751384035545" lon="12.31721386638082"><ele>140.0</ele><time>2026-04-18T15:16:45.997Z</time></trkpt><trkpt lat="42.02764374492992" lon="12.317150810429329"><ele>140.0</ele><time>2026-04-18T15:16:46.997Z</time></trkpt><trkpt lat="42.02777402173413" lon="12.31709207560982"><ele>141.25</ele><time>2026-04-18T15:16:47.997Z</time></trkpt><trkpt lat="42.0279037263554" lon="12.317032465652966"><ele>142.5</ele><time>2026-04-18T15:16:48.997Z</time></trkpt><trkpt lat="42.02803165254393" lon="12.316961486947436"><ele>143.75</ele><time>2026-04-18T15:16:49.997Z</time></trkpt><trkpt lat="42.0281608554603" lon="12.316887982980003"><ele>145.0</ele><time>2026-04-18T15:16:50.997Z</time></trkpt><trkpt lat="42.02829509523313" lon="12.316820563065185"><ele>144.0</ele><time>2026-04-18T15:16:51.997Z</time></trkpt><trkpt lat="42.02843546697134" lon="12.31675540748698"><ele>143.0</ele><time>2026-04-18T15:16:52.997Z</time></trkpt><trkpt lat="42.028580649136515" lon="12.316693818974636"><ele>142.0</ele><time>2026-04-18T15:16:53.997Z</time></trkpt><trkpt lat="42.02873187418123" lon="12.316639949015865"><ele>142.0</ele><time>2026-04-18T15:16:54.997Z</time></trkpt><trkpt lat="42.028888788723144" lon="12.31657414585725"><ele>142.0</ele><time>2026-04-18T15:16:55.997Z</time></trkpt><trkpt lat="42.02904972923028" lon="12.316504188958815"><ele>142.0</ele><time>2026-04-18T15:16:56.997Z</time></trkpt><trkpt lat="42.02921872375957" lon="12.316434494158502"><ele>141.33333333333334</ele><time>2026-04-18T15:16:57.997Z</time></trkpt><trkpt lat="42.02939378308173" lon="12.316369113278888"><ele>140.66666666666666</ele><time>2026-04-18T15:16:58.997Z</time></trkpt><trkpt lat="42.029588484806744" lon="12.316311564320264"><ele>140.0</ele><time>2026-04-18T15:16:59.997Z</time></trkpt><trkpt lat="42.029784575308334" lon="12.316243810608952"><ele>138.0</ele><time>2026-04-18T15:17:00.997Z</time></trkpt><trkpt lat="42.03000786210381" lon="12.316196216284158"><ele>136.0</ele><time>2026-04-18T15:17:01.997Z</time></trkpt><trkpt lat="42.03024646438664" lon="12.316125025254083"><ele>136.0</ele><time>2026-04-18T15:17:02.997Z</time></trkpt><trkpt lat="42.030487951717994" lon="12.316055902506983"><ele>136.0</ele><time>2026-04-18T15:17:03.997Z</time></trkpt><trkpt lat="42.03072366141252" lon="12.315986232080277"><ele>136.0</ele><time>2026-04-18T15:17:04.997Z</time></trkpt><trkpt lat="42.03094054728856" lon="12.315914699840912"><ele>136.0</ele><time>2026-04-18T15:17:05.997Z</time></trkpt><trkpt lat="42.03115432468416" lon="12.315863454270918"><ele>136.0</ele><time>2026-04-18T15:17:06.997Z</time></trkpt><trkpt lat="42.031370397542574" lon="12.315819081260056"><ele>136.0</ele><time>2026-04-18T15:17:07.997Z</time></trkpt><trkpt lat="42.03158803252462" lon="12.315798759064334"><ele>136.0</ele><time>2026-04-18T15:17:08.997Z</time></trkpt><trkpt lat="42.03181469069839" lon="12.31578973158581"><ele>136.0</ele><time>2026-04-18T15:17:09.997Z</time></trkpt><trkpt lat="42.03204798009694" lon="12.31578604197359"><ele>137.5</ele><time>2026-04-18T15:17:10.997Z</time></trkpt><trkpt lat="42.03228325652696" lon="12.315777636532264"><ele>139.0</ele><time>2026-04-18T15:17:11.997Z</time></trkpt><trkpt lat="42.03251271632075" lon="12.315773827112404"><ele>139.33333333333334</ele><time>2026-04-18T15:17:12.997Z</time></trkpt><trkpt lat="42.032733091827" lon="12.315778915913938"><ele>139.66666666666666</ele><time>2026-04-18T15:17:13.997Z</time></trkpt><trkpt lat="42.03295549602411" lon="12.315777329643906"><ele>140.0</ele><time>2026-04-18T15:17:14.997Z</time></trkpt><trkpt lat="42.03316010891199" lon="12.315776057020576"><ele>140.33333333333331</ele><time>2026-04-18T15:17:15.997Z</time></trkpt><trkpt lat="42.033364761853925" lon="12.315777141419009"><ele>140.66666666666666</ele><time>2026-04-18T15:17:16.997Z</time></trkpt><trkpt lat="42.03357570710732" lon="12.315769437089935"><ele>141.0</ele><time>2026-04-18T15:17:17.999Z</time></trkpt><trkpt lat="42.033789642618544" lon="12.315735045705955"><ele>141.0</ele><time>2026-04-18T15:17:18.999Z</time></trkpt><trkpt lat="42.034007417759426" lon="12.315665143700064"><ele>141.0</ele><time>2026-04-18T15:17:19.999Z</time></trkpt><trkpt lat="42.03421749014571" lon="12.315584663719962"><ele>141.0</ele><time>2026-04-18T15:17:20.999Z</time></trkpt><trkpt lat="42.034409777701335" lon="12.315520450164206"><ele>140.0</ele><time>2026-04-18T15:17:21.999Z</time></trkpt><trkpt lat="42.0345849886323" lon="12.315473720006434"><ele>139.0</ele><time>2026-04-18T15:17:22.999Z</time></trkpt><trkpt lat="42.034747814786726" lon="12.31543438897203"><ele>138.0</ele><time>2026-04-18T15:17:23.999Z</time></trkpt><trkpt lat="42.03490231630478" lon="12.31539800237831"><ele>138.5</ele><time>2026-04-18T15:17:24.999Z</time></trkpt><trkpt lat="42.0350482681099" lon="12.3153655201816"><ele>139.0</ele><time>2026-04-18T15:17:25.999Z</time></trkpt><trkpt lat="42.035181873209865" lon="12.315333350993763"><ele>139.5</ele><time>2026-04-18T15:17:26.999Z</time></trkpt><trkpt lat="42.03531000952475" lon="12.315301963236642"><ele>140.0</ele><time>2026-04-18T15:17:27.999Z</time></trkpt><trkpt lat="42.03544065337399" lon="12.315276134402202"><ele>140.0</ele><time>2026-04-18T15:17:28.999Z</time></trkpt><trkpt lat="42.03556838487873" lon="12.31525563076186"><ele>140.0</ele><time>2026-04-18T15:17:29.999Z</time></trkpt><trkpt lat="42.03568612293618" lon="12.315250045347176"><ele>140.0</ele><time>2026-04-18T15:17:30.999Z</time></trkpt><trkpt lat="42.03578528185043" lon="12.315245534570629"><ele>140.0</ele><time>2026-04-18T15:17:31.999Z</time></trkpt><trkpt lat="42.035873710381246" lon="12.31524195052038"><ele>140.0</ele><time>2026-04-18T15:17:32.999Z</time></trkpt><trkpt lat="42.035953634023436" lon="12.315240051825485"><ele>140.16666666666666</ele><time>2026-04-18T15:17:33.999Z</time></trkpt><trkpt lat="42.036026928693914" lon="12.315243606592418"><ele>140.33333333333331</ele><time>2026-04-18T15:17:34.999Z</time></trkpt><trkpt lat="42.03611217674266" lon="12.315244292476226"><ele>140.5</ele><time>2026-04-18T15:17:35.999Z</time></trkpt><trkpt lat="42.03620027567454" lon="12.315242538255"><ele>140.66666666666666</ele><time>2026-04-18T15:17:36.999Z</time></trkpt><trkpt lat="42.036273043997966" lon="12.315244654069312"><ele>140.83333333333334</ele><time>2026-04-18T15:17:37.999Z</time></trkpt><trkpt lat="42.03633739509156" lon="12.315252243031082"><ele>141.0</ele><time>2026-04-18T15:17:38.999Z</time></trkpt><trkpt lat="42.03642874996583" lon="12.315257770325164"><ele>141.0</ele><time>2026-04-18T15:17:40.999Z</time></trkpt><trkpt lat="42.036499573473584" lon="12.315270147935925"><ele>141.0</ele><time>2026-04-18T15:18:01.998Z</time></trkpt><trkpt lat="42.03658834689309" lon="12.315270774669338"><ele>141.0</ele><time>2026-04-18T15:18:03.998Z</time></trkpt><trkpt lat="42.036653004059126" lon="12.315248208466656"><ele>141.0</ele><time>2026-04-18T15:18:04.998Z</time></trkpt><trkpt lat="42.03678312941347" lon="12.315204801022363"><ele>141.0</ele><time>2026-04-18T15:18:06.998Z</time></trkpt><trkpt lat="42.03686349281371" lon="12.31519851413545"><ele>141.0</ele><time>2026-04-18T15:18:07.998Z</time></trkpt><trkpt lat="42.03696020240469" lon="12.315193347529872"><ele>141.25</ele><time>2026-04-18T15:18:08.998Z</time></trkpt><trkpt lat="42.037062012266226" lon="12.315206838557037"><ele>141.5</ele><time>2026-04-18T15:18:09.998Z</time></trkpt><trkpt lat="42.03717440315826" lon="12.315255751154499"><ele>141.75</ele><time>2026-04-18T15:18:10.998Z</time></trkpt><trkpt lat="42.03731459599299" lon="12.31529946807693"><ele>142.0</ele><time>2026-04-18T15:18:11.998Z</time></trkpt><trkpt lat="42.03745799971034" lon="12.315358427661108"><ele>142.33333333333334</ele><time>2026-04-18T15:18:12.998Z</time></trkpt><trkpt lat="42.03762150176611" lon="12.315427785783223"><ele>142.66666666666666</ele><time>2026-04-18T15:18:13.998Z</time></trkpt><trkpt lat="42.03780434606637" lon="12.315504585953077"><ele>143.0</ele><time>2026-04-18T15:18:14.998Z</time></trkpt><trkpt lat="42.037997431726076" lon="12.315584381938093"><ele>143.0</ele><time>2026-04-18T15:18:15.998Z</time></trkpt><trkpt lat="42.0381886065023" lon="12.315660559403765"><ele>143.0</ele><time>2026-04-18T15:18:16.998Z</time></trkpt><trkpt lat="42.03838248013644" lon="12.315730554743427"><ele>143.0</ele><time>2026-04-18T15:18:17.998Z</time></trkpt><trkpt lat="42.03858478966237" lon="12.315808283294658"><ele>142.0</ele><time>2026-04-18T15:18:18.998Z</time></trkpt><trkpt lat="42.03878567172965" lon="12.315885478351362"><ele>141.0</ele><time>2026-04-18T15:18:19.998Z</time></trkpt><trkpt lat="42.03899734707029" lon="12.315966711076326"><ele>140.0</ele><time>2026-04-18T15:18:20.998Z</time></trkpt><trkpt lat="42.03921262579335" lon="12.316049181735234"><ele>140.0</ele><time>2026-04-18T15:18:21.998Z</time></trkpt><trkpt lat="42.0394287995975" lon="12.316132068638241"><ele>140.0</ele><time>2026-04-18T15:18:22.998Z</time></trkpt><trkpt lat="42.039638787924176" lon="12.316190990253038"><ele>140.0</ele><time>2026-04-18T15:18:23.998Z</time></trkpt><trkpt lat="42.039845566969234" lon="12.316269643804533"><ele>140.33333333333331</ele><time>2026-04-18T15:18:24.998Z</time></trkpt><trkpt lat="42.04005446877109" lon="12.316350962989434"><ele>140.66666666666666</ele><time>2026-04-18T15:18:25.998Z</time></trkpt><trkpt lat="42.0402656542977" lon="12.316424365682785"><ele>141.0</ele><time>2026-04-18T15:18:26.998Z</time></trkpt><trkpt lat="42.040472167966506" lon="12.316525679955921"><ele>141.33333333333334</ele><time>2026-04-18T15:18:27.998Z</time></trkpt><trkpt lat="42.04068135053636" lon="12.316617600733112"><ele>141.66666666666669</ele><time>2026-04-18T15:18:28.998Z</time></trkpt><trkpt lat="42.04089623729643" lon="12.316714260446817"><ele>142.0</ele><time>2026-04-18T15:18:29.998Z</time></trkpt><trkpt lat="42.04111071137425" lon="12.31681214695402"><ele>142.33333333333334</ele><time>2026-04-18T15:18:30.998Z</time></trkpt><trkpt lat="42.041304131691426" lon="12.316901319325527"><ele>142.66666666666666</ele><time>2026-04-18T15:18:31.998Z</time></trkpt><trkpt lat="42.041489332558726" lon="12.316986754973279"><ele>143.0</ele><time>2026-04-18T15:18:32.998Z</time></trkpt><trkpt lat="42.0416566141271" lon="12.317063673101316"><ele>143.0</ele><time>2026-04-18T15:18:33.998Z</time></trkpt><trkpt lat="42.04181447983968" lon="12.317136561569747"><ele>143.0</ele><time>2026-04-18T15:18:34.998Z</time></trkpt><trkpt lat="42.041971757907596" lon="12.317209137304667"><ele>143.0</ele><time>2026-04-18T15:18:35.998Z</time></trkpt><trkpt lat="42.04213348232667" lon="12.317284084236556"><ele>143.0</ele><time>2026-04-18T15:18:36.998Z</time></trkpt><trkpt lat="42.04231014270254" lon="12.317342239076275"><ele>143.0</ele><time>2026-04-18T15:18:37.998Z</time></trkpt><trkpt lat="42.04249441288312" lon="12.317425691234513"><ele>143.0</ele><time>2026-04-18T15:18:38.998Z</time></trkpt><trkpt lat="42.04269108520003" lon="12.317504686854148"><ele>143.5</ele><time>2026-04-18T15:18:39.998Z</time></trkpt><trkpt lat="42.042907735386564" lon="12.31757094312638"><ele>144.0</ele><time>2026-04-18T15:18:40.998Z</time></trkpt><trkpt lat="42.043133178661975" lon="12.31764809815459"><ele>143.5</ele><time>2026-04-18T15:18:41.998Z</time></trkpt><trkpt lat="42.04337760422841" lon="12.31771400092945"><ele>143.0</ele><time>2026-04-18T15:18:42.997Z</time></trkpt><trkpt lat="42.043614435490305" lon="12.317780056412559"><ele>143.0</ele><time>2026-04-18T15:18:43.997Z</time></trkpt><trkpt lat="42.043861711328276" lon="12.317849658229646"><ele>143.0</ele><time>2026-04-18T15:18:44.997Z</time></trkpt><trkpt lat="42.044112724882325" lon="12.317915640651664"><ele>143.0</ele><time>2026-04-18T15:18:45.997Z</time></trkpt><trkpt lat="42.04436887906569" lon="12.317982444346768"><ele>143.0</ele><time>2026-04-18T15:18:46.997Z</time></trkpt><trkpt lat="42.04462369856414" lon="12.318047587082797"><ele>143.5</ele><time>2026-04-18T15:18:47.997Z</time></trkpt><trkpt lat="42.04486633822827" lon="12.318113390890844"><ele>144.0</ele><time>2026-04-18T15:18:48.997Z</time></trkpt><trkpt lat="42.04511098243083" lon="12.318156359282908"><ele>143.0</ele><time>2026-04-18T15:18:49.997Z</time></trkpt><trkpt lat="42.04535001257143" lon="12.318242811783321"><ele>142.0</ele><time>2026-04-18T15:18:50.997Z</time></trkpt><trkpt lat="42.04558932125477" lon="12.318307536843466"><ele>141.0</ele><time>2026-04-18T15:18:51.997Z</time></trkpt><trkpt lat="42.045823520415205" lon="12.318370511597928"><ele>140.0</ele><time>2026-04-18T15:18:52.997Z</time></trkpt><trkpt lat="42.0460546936842" lon="12.318431370472553"><ele>140.0</ele><time>2026-04-18T15:18:53.997Z</time></trkpt><trkpt lat="42.04626980401889" lon="12.31848755291373"><ele>140.0</ele><time>2026-04-18T15:18:54.997Z</time></trkpt><trkpt lat="42.04648503186356" lon="12.318521371931482"><ele>140.0</ele><time>2026-04-18T15:18:55.997Z</time></trkpt><trkpt lat="42.04669438194629" lon="12.318580742799906"><ele>140.33333333333331</ele><time>2026-04-18T15:18:56.997Z</time></trkpt><trkpt lat="42.046891033507556" lon="12.318638253221549"><ele>140.66666666666666</ele><time>2026-04-18T15:18:57.997Z</time></trkpt><trkpt lat="42.04708154222618" lon="12.318691220849228"><ele>141.0</ele><time>2026-04-18T15:18:58.997Z</time></trkpt><trkpt lat="42.047260412342695" lon="12.31874302781072"><ele>141.0</ele><time>2026-04-18T15:18:59.997Z</time></trkpt><trkpt lat="42.047436299933764" lon="12.31878366421233"><ele>141.0</ele><time>2026-04-18T15:19:00.997Z</time></trkpt><trkpt lat="42.0476035101928" lon="12.318834957705212"><ele>141.0</ele><time>2026-04-18T15:19:01.997Z</time></trkpt><trkpt lat="42.047771113456655" lon="12.318876858829725"><ele>141.33333333333334</ele><time>2026-04-18T15:19:02.997Z</time></trkpt><trkpt lat="42.04793015908811" lon="12.31893412560863"><ele>141.66666666666669</ele><time>2026-04-18T15:19:03.997Z</time></trkpt><trkpt lat="42.04807008486839" lon="12.318997810407113"><ele>142.0</ele><time>2026-04-18T15:19:04.997Z</time></trkpt><trkpt lat="42.04819174347962" lon="12.319084781458024"><ele>142.0</ele><time>2026-04-18T15:19:05.997Z</time></trkpt><trkpt lat="42.04829207578648" lon="12.319193134803847"><ele>142.0</ele><time>2026-04-18T15:19:06.997Z</time></trkpt><trkpt lat="42.048405480270816" lon="12.319323520942017"><ele>142.0</ele><time>2026-04-18T15:19:07.997Z</time></trkpt><trkpt lat="42.04853487705702" lon="12.319478382453205"><ele>142.0</ele><time>2026-04-18T15:19:08.997Z</time></trkpt><trkpt lat="42.048683160960465" lon="12.31965760637629"><ele>142.0</ele><time>2026-04-18T15:19:09.997Z</time></trkpt><trkpt lat="42.04882863184404" lon="12.319830955654428"><ele>142.0</ele><time>2026-04-18T15:19:10.997Z</time></trkpt><trkpt lat="42.04898160731062" lon="12.320012600720316"><ele>142.66666666666669</ele><time>2026-04-18T15:19:11.997Z</time></trkpt><trkpt lat="42.04913880536963" lon="12.320199183217502"><ele>143.33333333333334</ele><time>2026-04-18T15:19:12.997Z</time></trkpt><trkpt lat="42.04930804852647" lon="12.32040042805803"><ele>144.0</ele><time>2026-04-18T15:19:13.997Z</time></trkpt><trkpt lat="42.04948041163107" lon="12.320605381422041"><ele>144.0</ele><time>2026-04-18T15:19:14.997Z</time></trkpt><trkpt lat="42.04964042188505" lon="12.320795646267419"><ele>144.0</ele><time>2026-04-18T15:19:15.997Z</time></trkpt><trkpt lat="42.049804617558486" lon="12.320988088585805"><ele>144.0</ele><time>2026-04-18T15:19:16.997Z</time></trkpt><trkpt lat="42.0499817853333" lon="12.321154979115935"><ele>143.66666666666666</ele><time>2026-04-18T15:19:17.997Z</time></trkpt><trkpt lat="42.050129273982535" lon="12.321332603311792"><ele>143.33333333333331</ele><time>2026-04-18T15:19:18.997Z</time></trkpt><trkpt lat="42.050268202939414" lon="12.321498163540175"><ele>143.0</ele><time>2026-04-18T15:19:19.997Z</time></trkpt><trkpt lat="42.05040758966375" lon="12.321641065843123"><ele>143.0</ele><time>2026-04-18T15:19:20.997Z</time></trkpt><trkpt lat="42.050563183911" lon="12.321768484704673"><ele>143.0</ele><time>2026-04-18T15:19:21.997Z</time></trkpt><trkpt lat="42.05072978680854" lon="12.321853704819867"><ele>143.0</ele><time>2026-04-18T15:19:22.997Z</time></trkpt><trkpt lat="42.05091372713617" lon="12.32190181770377"><ele>143.0</ele><time>2026-04-18T15:19:23.999Z</time></trkpt><trkpt lat="42.051107743961204" lon="12.321922415105348"><ele>143.0</ele><time>2026-04-18T15:19:24.999Z</time></trkpt><trkpt lat="42.05131099423839" lon="12.321948841510528"><ele>143.0</ele><time>2026-04-18T15:19:25.999Z</time></trkpt><trkpt lat="42.05152178407066" lon="12.321975263506006"><ele>143.33333333333331</ele><time>2026-04-18T15:19:26.999Z</time></trkpt><trkpt lat="42.05172403628092" lon="12.321996981152852"><ele>143.66666666666666</ele><time>2026-04-18T15:19:27.999Z</time></trkpt><trkpt lat="42.051917173649265" lon="12.32202212193563"><ele>144.0</ele><time>2026-04-18T15:19:28.999Z</time></trkpt><trkpt lat="42.05211859034879" lon="12.32205064630511"><ele>144.0</ele><time>2026-04-18T15:19:29.999Z</time></trkpt><trkpt lat="42.05232573333438" lon="12.32207112320204"><ele>144.0</ele><time>2026-04-18T15:19:30.999Z</time></trkpt><trkpt lat="42.05254036111296" lon="12.322099826641166"><ele>144.0</ele><time>2026-04-18T15:19:31.999Z</time></trkpt><trkpt lat="42.05276471035004" lon="12.322127644815586"><ele>145.5</ele><time>2026-04-18T15:19:32.999Z</time></trkpt><trkpt lat="42.052997255725344" lon="12.322157980952372"><ele>147.0</ele><time>2026-04-18T15:19:33.999Z</time></trkpt><trkpt lat="42.05323028364178" lon="12.32218439611939"><ele>147.0</ele><time>2026-04-18T15:19:34.999Z</time></trkpt><trkpt lat="42.05346414147783" lon="12.322209764055662"><ele>147.0</ele><time>2026-04-18T15:19:35.999Z</time></trkpt><trkpt lat="42.05369517817148" lon="12.322242682204807"><ele>147.0</ele><time>2026-04-18T15:19:36.999Z</time></trkpt><trkpt lat="42.0539418552494" lon="12.322263065654154"><ele>147.0</ele><time>2026-04-18T15:19:37.999Z</time></trkpt><trkpt lat="42.05418691357206" lon="12.322266520591548"><ele>147.5</ele><time>2026-04-18T15:19:38.999Z</time></trkpt><trkpt lat="42.05445355691885" lon="12.322300173317528"><ele>148.0</ele><time>2026-04-18T15:19:39.999Z</time></trkpt><trkpt lat="42.0547245492444" lon="12.322339805190277"><ele>148.0</ele><time>2026-04-18T15:19:40.999Z</time></trkpt><trkpt lat="42.05497887013049" lon="12.322374644131896"><ele>148.0</ele><time>2026-04-18T15:19:41.999Z</time></trkpt><trkpt lat="42.05521199148516" lon="12.322406003237498"><ele>148.0</ele><time>2026-04-18T15:19:42.999Z</time></trkpt><trkpt lat="42.05544018566718" lon="12.322436937090595"><ele>148.0</ele><time>2026-04-18T15:19:43.999Z</time></trkpt><trkpt lat="42.05566523549244" lon="12.322469864261157"><ele>148.0</ele><time>2026-04-18T15:19:44.999Z</time></trkpt><trkpt lat="42.05587693914712" lon="12.322493163520363"><ele>148.0</ele><time>2026-04-18T15:19:45.999Z</time></trkpt><trkpt lat="42.056077038246784" lon="12.322512077489206"><ele>148.0</ele><time>2026-04-18T15:19:46.999Z</time></trkpt><trkpt lat="42.056265884311514" lon="12.322536083530268"><ele>148.0</ele><time>2026-04-18T15:19:47.999Z</time></trkpt><trkpt lat="42.056446825670584" lon="12.322562125809307"><ele>148.0</ele><time>2026-04-18T15:19:48.999Z</time></trkpt><trkpt lat="42.056628360573384" lon="12.322583655608543"><ele>148.0</ele><time>2026-04-18T15:19:49.999Z</time></trkpt><trkpt lat="42.05680311322795" lon="12.322602714515229"><ele>148.0</ele><time>2026-04-18T15:19:50.999Z</time></trkpt><trkpt lat="42.05696670790118" lon="12.322626850243363"><ele>148.0</ele><time>2026-04-18T15:19:51.999Z</time></trkpt><trkpt lat="42.05712355732947" lon="12.322654930140695"><ele>148.0</ele><time>2026-04-18T15:19:52.999Z</time></trkpt><trkpt lat="42.057281338311476" lon="12.322691126033481"><ele>148.0</ele><time>2026-04-18T15:19:53.999Z</time></trkpt><trkpt lat="42.05742920411653" lon="12.32275531915228"><ele>148.0</ele><time>2026-04-18T15:19:54.999Z</time></trkpt><trkpt lat="42.057577709048026" lon="12.322862532975815"><ele>148.0</ele><time>2026-04-18T15:19:55.999Z</time></trkpt><trkpt lat="42.057729433046305" lon="12.322998791522913"><ele>148.66666666666669</ele><time>2026-04-18T15:19:56.999Z</time></trkpt><trkpt lat="42.05787813554488" lon="12.323152689189227"><ele>149.33333333333334</ele><time>2026-04-18T15:19:57.999Z</time></trkpt><trkpt lat="42.0580576501829" lon="12.323098486466478"><ele>150.0</ele><time>2026-04-18T15:19:58.999Z</time></trkpt><trkpt lat="42.058225725721734" lon="12.323200575950299"><ele>150.0</ele><time>2026-04-18T15:19:59.999Z</time></trkpt><trkpt lat="42.05840277522445" lon="12.323302765330935"><ele>150.0</ele><time>2026-04-18T15:20:00.999Z</time></trkpt><trkpt lat="42.0585806282061" lon="12.323412227219526"><ele>150.0</ele><time>2026-04-18T15:20:01.999Z</time></trkpt><trkpt lat="42.05876007896295" lon="12.323530899631082"><ele>150.0</ele><time>2026-04-18T15:20:02.999Z</time></trkpt><trkpt lat="42.05894177118208" lon="12.323638236958834"><ele>150.0</ele><time>2026-04-18T15:20:03.999Z</time></trkpt><trkpt lat="42.05910499779593" lon="12.323745243558003"><ele>150.0</ele><time>2026-04-18T15:20:04.999Z</time></trkpt><trkpt lat="42.05926721579067" lon="12.323846579250674"><ele>152.0</ele><time>2026-04-18T15:20:05.999Z</time></trkpt><trkpt lat="42.059437383310325" lon="12.323941091668004"><ele>154.0</ele><time>2026-04-18T15:20:06.998Z</time></trkpt><trkpt lat="42.05959838377234" lon="12.324053413441707"><ele>156.0</ele><time>2026-04-18T15:20:07.998Z</time></trkpt><trkpt lat="42.059755295178746" lon="12.324150582880014"><ele>156.0</ele><time>2026-04-18T15:20:08.998Z</time></trkpt><trkpt lat="42.059909868387194" lon="12.32423564406678"><ele>156.0</ele><time>2026-04-18T15:20:09.998Z</time></trkpt><trkpt lat="42.06006552594631" lon="12.324325478270937"><ele>156.0</ele><time>2026-04-18T15:20:10.998Z</time></trkpt><trkpt lat="42.060213687434306" lon="12.324413675361352"><ele>157.0</ele><time>2026-04-18T15:20:11.998Z</time></trkpt><trkpt lat="42.0603495048815" lon="12.324493017342881"><ele>158.0</ele><time>2026-04-18T15:20:12.998Z</time></trkpt><trkpt lat="42.060477282105396" lon="12.324571814150934"><ele>159.0</ele><time>2026-04-18T15:20:13.998Z</time></trkpt><trkpt lat="42.06059274214893" lon="12.324640338710344"><ele>160.0</ele><time>2026-04-18T15:20:14.998Z</time></trkpt><trkpt lat="42.06069918965554" lon="12.324703224304058"><ele>159.5</ele><time>2026-04-18T15:20:15.998Z</time></trkpt><trkpt lat="42.0608151734814" lon="12.324753627563489"><ele>159.0</ele><time>2026-04-18T15:20:16.998Z</time></trkpt><trkpt lat="42.06093444407666" lon="12.324773042412154"><ele>158.5</ele><time>2026-04-18T15:20:17.998Z</time></trkpt><trkpt lat="42.06105725845949" lon="12.324753836567972"><ele>158.0</ele><time>2026-04-18T15:20:18.998Z</time></trkpt><trkpt lat="42.0611749083748" lon="12.324692712313153"><ele>158.0</ele><time>2026-04-18T15:20:19.998Z</time></trkpt><trkpt lat="42.061276041894565" lon="12.324540858047046"><ele>158.0</ele><time>2026-04-18T15:20:20.998Z</time></trkpt><trkpt lat="42.06139121284213" lon="12.324407848570416"><ele>158.0</ele><time>2026-04-18T15:20:21.998Z</time></trkpt><trkpt lat="42.061529365435746" lon="12.324284480643747"><ele>158.0</ele><time>2026-04-18T15:20:22.998Z</time></trkpt><trkpt lat="42.06165461797737" lon="12.324172760251983"><ele>158.0</ele><time>2026-04-18T15:20:23.998Z</time></trkpt><trkpt lat="42.06176840483085" lon="12.3240721423194"><ele>158.0</ele><time>2026-04-18T15:20:24.998Z</time></trkpt><trkpt lat="42.06188077648744" lon="12.323976033617171"><ele>158.0</ele><time>2026-04-18T15:20:25.998Z</time></trkpt><trkpt lat="42.061986787112275" lon="12.323889618932602"><ele>158.25</ele><time>2026-04-18T15:20:26.998Z</time></trkpt><trkpt lat="42.062095380357874" lon="12.323803035281328"><ele>158.5</ele><time>2026-04-18T15:20:27.998Z</time></trkpt><trkpt lat="42.0622054354063" lon="12.323720687412482"><ele>158.75</ele><time>2026-04-18T15:20:28.998Z</time></trkpt><trkpt lat="42.062322296108405" lon="12.323641122991676"><ele>159.0</ele><time>2026-04-18T15:20:29.998Z</time></trkpt><trkpt lat="42.06244915170216" lon="12.32356429841053"><ele>159.0</ele><time>2026-04-18T15:20:30.998Z</time></trkpt><trkpt lat="42.0625858369758" lon="12.323493826485365"><ele>159.0</ele><time>2026-04-18T15:20:31.998Z</time></trkpt><trkpt lat="42.06272651629395" lon="12.323416309621164"><ele>159.0</ele><time>2026-04-18T15:20:32.998Z</time></trkpt><trkpt lat="42.062860402650074" lon="12.323338241076982"><ele>159.0</ele><time>2026-04-18T15:20:33.998Z</time></trkpt><trkpt lat="42.06297717423113" lon="12.323274051255057"><ele>159.0</ele><time>2026-04-18T15:20:34.998Z</time></trkpt><trkpt lat="42.06308262397807" lon="12.323214392512172"><ele>159.0</ele><time>2026-04-18T15:20:35.998Z</time></trkpt><trkpt lat="42.063185574847225" lon="12.32316205324777"><ele>159.0</ele><time>2026-04-18T15:20:36.998Z</time></trkpt><trkpt lat="42.06329738000326" lon="12.323122107660625"><ele>159.0</ele><time>2026-04-18T15:20:37.998Z</time></trkpt><trkpt lat="42.063415678160624" lon="12.323103220109298"><ele>159.0</ele><time>2026-04-18T15:20:38.998Z</time></trkpt><trkpt lat="42.063540570276835" lon="12.323113703020041"><ele>159.0</ele><time>2026-04-18T15:20:39.998Z</time></trkpt><trkpt lat="42.063667397711" lon="12.323158977885866"><ele>159.0</ele><time>2026-04-18T15:20:40.998Z</time></trkpt><trkpt lat="42.06378761533865" lon="12.32322582711702"><ele>159.0</ele><time>2026-04-18T15:20:41.998Z</time></trkpt><trkpt lat="42.0638976422376" lon="12.323322567730928"><ele>159.0</ele><time>2026-04-18T15:20:42.998Z</time></trkpt><trkpt lat="42.06398634405331" lon="12.323434584559156"><ele>159.0</ele><time>2026-04-18T15:20:43.998Z</time></trkpt><trkpt lat="42.064046264095765" lon="12.32355342497035"><ele>159.0</ele><time>2026-04-18T15:20:44.998Z</time></trkpt><trkpt lat="42.06410505649317" lon="12.323688111850958"><ele>159.0</ele><time>2026-04-18T15:20:45.998Z</time></trkpt><trkpt lat="42.064156350333526" lon="12.323840991324662"><ele>158.25</ele><time>2026-04-18T15:20:46.998Z</time></trkpt><trkpt lat="42.064184370914276" lon="12.324014956329819"><ele>157.5</ele><time>2026-04-18T15:20:47.998Z</time></trkpt><trkpt lat="42.064179553618104" lon="12.32417564284261"><ele>156.75</ele><time>2026-04-18T15:20:48.998Z</time></trkpt><trkpt lat="42.06416212286409" lon="12.324336802265508"><ele>156.0</ele><time>2026-04-18T15:20:49.998Z</time></trkpt><trkpt lat="42.0641297619684" lon="12.324495808478028"><ele>156.0</ele><time>2026-04-18T15:20:50.998Z</time></trkpt><trkpt lat="42.06407497633338" lon="12.324645725857517"><ele>156.0</ele><time>2026-04-18T15:20:51.997Z</time></trkpt><trkpt lat="42.06400136864138" lon="12.324794770040416"><ele>156.0</ele><time>2026-04-18T15:20:52.997Z</time></trkpt><trkpt lat="42.063909853894884" lon="12.324928944641963"><ele>156.0</ele><time>2026-04-18T15:20:53.997Z</time></trkpt><trkpt lat="42.063807947228845" lon="12.32504972797732"><ele>155.75</ele><time>2026-04-18T15:20:54.997Z</time></trkpt><trkpt lat="42.06370115480925" lon="12.325174734742363"><ele>155.5</ele><time>2026-04-18T15:20:55.997Z</time></trkpt><trkpt lat="42.063604096360734" lon="12.325287686748496"><ele>155.25</ele><time>2026-04-18T15:20:56.997Z</time></trkpt><trkpt lat="42.0635047695107" lon="12.325405564765772"><ele>155.0</ele><time>2026-04-18T15:20:57.997Z</time></trkpt><trkpt lat="42.06340489138559" lon="12.325523425314312"><ele>155.25</ele><time>2026-04-18T15:20:58.997Z</time></trkpt><trkpt lat="42.0633052877632" lon="12.325644120557993"><ele>155.5</ele><time>2026-04-18T15:20:59.997Z</time></trkpt><trkpt lat="42.06320310901557" lon="12.32576494729428"><ele>155.75</ele><time>2026-04-18T15:21:00.997Z</time></trkpt><trkpt lat="42.06310280884426" lon="12.325880988098346"><ele>156.0</ele><time>2026-04-18T15:21:01.997Z</time></trkpt><trkpt lat="42.06300107753666" lon="12.325997934082658"><ele>156.0</ele><time>2026-04-18T15:21:02.997Z</time></trkpt><trkpt lat="42.06290176177563" lon="12.326113755515559"><ele>156.0</ele><time>2026-04-18T15:21:03.997Z</time></trkpt><trkpt lat="42.06280504064106" lon="12.326230717760614"><ele>156.0</ele><time>2026-04-18T15:21:04.997Z</time></trkpt><trkpt lat="42.062713115629066" lon="12.326341008263432"><ele>156.0</ele><time>2026-04-18T15:21:05.997Z</time></trkpt><trkpt lat="42.06263103325802" lon="12.32643343674335"><ele>156.0</ele><time>2026-04-18T15:21:06.997Z</time></trkpt><trkpt lat="42.062555653290595" lon="12.326514553679994"><ele>156.0</ele><time>2026-04-18T15:21:07.997Z</time></trkpt><trkpt lat="42.062482451040005" lon="12.326595007111989"><ele>156.0</ele><time>2026-04-18T15:21:08.997Z</time></trkpt><trkpt lat="42.06241769211313" lon="12.326667655230873"><ele>156.0</ele><time>2026-04-18T15:21:09.997Z</time></trkpt><trkpt lat="42.06236315634831" lon="12.326740845209384"><ele>156.0</ele><time>2026-04-18T15:21:10.997Z</time></trkpt><trkpt lat="42.06231828023402" lon="12.326814570376852"><ele>156.0</ele><time>2026-04-18T15:21:11.997Z</time></trkpt><trkpt lat="42.062283588611955" lon="12.326887902872347"><ele>156.0</ele><time>2026-04-18T15:21:12.997Z</time></trkpt><trkpt lat="42.06227117330097" lon="12.32706385449425"><ele>156.0</ele><time>2026-04-18T15:21:14.997Z</time></trkpt><trkpt lat="42.06227905694567" lon="12.327161367530964"><ele>156.0</ele><time>2026-04-18T15:21:15.997Z</time></trkpt><trkpt lat="42.06237230498443" lon="12.327245918925144"><ele>156.0</ele><time>2026-04-18T15:21:16.997Z</time></trkpt><trkpt lat="42.062441996853345" lon="12.327330105275344"><ele>156.0</ele><time>2026-04-18T15:21:17.997Z</time></trkpt><trkpt lat="42.06251544937259" lon="12.32740729748126"><ele>156.0</ele><time>2026-04-18T15:21:18.997Z</time></trkpt><trkpt lat="42.06258980100642" lon="12.327486892097246"><ele>156.0</ele><time>2026-04-18T15:21:19.997Z</time></trkpt><trkpt lat="42.06266916937398" lon="12.327559611515492"><ele>156.0</ele><time>2026-04-18T15:21:20.997Z</time></trkpt><trkpt lat="42.062743318097326" lon="12.327620848801912"><ele>156.0</ele><time>2026-04-18T15:21:21.997Z</time></trkpt><trkpt lat="42.0628186740875" lon="12.327688063370342"><ele>156.0</ele><time>2026-04-18T15:21:22.997Z</time></trkpt><trkpt lat="42.062894361459556" lon="12.327755018905947"><ele>156.0</ele><time>2026-04-18T15:21:23.997Z</time></trkpt><trkpt lat="42.0629691821028" lon="12.327819434786836"><ele>156.0</ele><time>2026-04-18T15:21:24.997Z</time></trkpt><trkpt lat="42.06304314878108" lon="12.327893781990223"><ele>156.0</ele><time>2026-04-18T15:21:25.997Z</time></trkpt><trkpt lat="42.063121060556284" lon="12.327963880863223"><ele>156.0</ele><time>2026-04-18T15:21:26.997Z</time></trkpt><trkpt lat="42.06320037863152" lon="12.328033079655414"><ele>156.0</ele><time>2026-04-18T15:21:27.997Z</time></trkpt><trkpt lat="42.06327681131589" lon="12.328098282520758"><ele>156.25</ele><time>2026-04-18T15:21:28.997Z</time></trkpt><trkpt lat="42.06334925083981" lon="12.328168489397713"><ele>156.5</ele><time>2026-04-18T15:21:29.999Z</time></trkpt><trkpt lat="42.06343970990167" lon="12.328251565410064"><ele>156.75</ele><time>2026-04-18T15:21:30.999Z</time></trkpt><trkpt lat="42.06354896778146" lon="12.328341602765002"><ele>157.0</ele><time>2026-04-18T15:21:31.999Z</time></trkpt><trkpt lat="42.063671641783564" lon="12.328447368634151"><ele>157.0</ele><time>2026-04-18T15:21:32.999Z</time></trkpt><trkpt lat="42.06379355280069" lon="12.328549619545296"><ele>157.0</ele><time>2026-04-18T15:21:33.999Z</time></trkpt><trkpt lat="42.06391018991743" lon="12.328656499497148"><ele>157.0</ele><time>2026-04-18T15:21:34.999Z</time></trkpt><trkpt lat="42.06401368504111" lon="12.328754604072937"><ele>157.0</ele><time>2026-04-18T15:21:35.999Z</time></trkpt><trkpt lat="42.06410235741657" lon="12.328841738884364"><ele>157.0</ele><time>2026-04-18T15:21:36.999Z</time></trkpt><trkpt lat="42.06419144812248" lon="12.32892164090782"><ele>157.0</ele><time>2026-04-18T15:21:37.999Z</time></trkpt><trkpt lat="42.0642699719828" lon="12.328995704952094"><ele>157.0</ele><time>2026-04-18T15:21:38.999Z</time></trkpt><trkpt lat="42.06434684548284" lon="12.329067880402881"><ele>157.0</ele><time>2026-04-18T15:21:39.999Z</time></trkpt><trkpt lat="42.06441782077092" lon="12.329134990742057"><ele>157.0</ele><time>2026-04-18T15:21:40.999Z</time></trkpt><trkpt lat="42.06449188398532" lon="12.329203648553076"><ele>157.0</ele><time>2026-04-18T15:21:41.999Z</time></trkpt><trkpt lat="42.06456597116021" lon="12.329270156364704"><ele>157.0</ele><time>2026-04-18T15:21:42.999Z</time></trkpt><trkpt lat="42.06464408365837" lon="12.329337063130412"><ele>157.0</ele><time>2026-04-18T15:21:43.999Z</time></trkpt><trkpt lat="42.06471823369452" lon="12.329404117455045"><ele>157.0</ele><time>2026-04-18T15:21:44.999Z</time></trkpt><trkpt lat="42.06478154348334" lon="12.329468192593202"><ele>157.0</ele><time>2026-04-18T15:21:45.999Z</time></trkpt><trkpt lat="42.06483959934174" lon="12.329523017251164"><ele>157.0</ele><time>2026-04-18T15:21:46.999Z</time></trkpt><trkpt lat="42.06489480488826" lon="12.329570816894993"><ele>157.33333333333334</ele><time>2026-04-18T15:21:47.999Z</time></trkpt><trkpt lat="42.06495362250428" lon="12.329625195186221"><ele>157.66666666666669</ele><time>2026-04-18T15:21:48.999Z</time></trkpt><trkpt lat="42.06501731471124" lon="12.329678237879188"><ele>158.0</ele><time>2026-04-18T15:21:49.999Z</time></trkpt><trkpt lat="42.0650803674986" lon="12.329737496819543"><ele>158.33333333333334</ele><time>2026-04-18T15:21:50.999Z</time></trkpt><trkpt lat="42.06514443328257" lon="12.329801415009973"><ele>158.66666666666666</ele><time>2026-04-18T15:21:51.999Z</time></trkpt><trkpt lat="42.065213412246074" lon="12.329864405281068"><ele>159.0</ele><time>2026-04-18T15:21:52.999Z</time></trkpt><trkpt lat="42.0652904164225" lon="12.329923812512154"><ele>159.33333333333334</ele><time>2026-04-18T15:21:53.999Z</time></trkpt><trkpt lat="42.06535659571455" lon="12.330008550934126"><ele>159.66666666666666</ele><time>2026-04-18T15:21:54.999Z</time></trkpt><trkpt lat="42.06543667628947" lon="12.330056974223034"><ele>160.0</ele><time>2026-04-18T15:21:55.999Z</time></trkpt><trkpt lat="42.065509522661635" lon="12.330126601806809"><ele>160.33333333333331</ele><time>2026-04-18T15:21:56.999Z</time></trkpt><trkpt lat="42.06558025474111" lon="12.330193387954285"><ele>160.66666666666666</ele><time>2026-04-18T15:21:57.999Z</time></trkpt><trkpt lat="42.06565591219337" lon="12.330262024017818"><ele>161.0</ele><time>2026-04-18T15:21:58.999Z</time></trkpt><trkpt lat="42.06572986426268" lon="12.33033104904938"><ele>161.20000000000002</ele><time>2026-04-18T15:21:59.999Z</time></trkpt><trkpt lat="42.065805956652156" lon="12.330403991440301"><ele>161.4</ele><time>2026-04-18T15:22:00.999Z</time></trkpt><trkpt lat="42.06588384783608" lon="12.33048305835359"><ele>161.6</ele><time>2026-04-18T15:22:01.999Z</time></trkpt><trkpt lat="42.06596639665607" lon="12.330559788194071"><ele>161.8</ele><time>2026-04-18T15:22:02.999Z</time></trkpt><trkpt lat="42.066054009127605" lon="12.33064866926237"><ele>162.0</ele><time>2026-04-18T15:22:03.999Z</time></trkpt><trkpt lat="42.06614238786928" lon="12.330735809610152"><ele>162.0</ele><time>2026-04-18T15:22:04.999Z</time></trkpt><trkpt lat="42.066241408831594" lon="12.33081774657395"><ele>162.0</ele><time>2026-04-18T15:22:05.998Z</time></trkpt><trkpt lat="42.06633755863022" lon="12.33090406004961"><ele>162.0</ele><time>2026-04-18T15:22:06.998Z</time></trkpt><trkpt lat="42.06643374534984" lon="12.330982049853816"><ele>162.0</ele><time>2026-04-18T15:22:07.998Z</time></trkpt><trkpt lat="42.06651434591901" lon="12.331049048091089"><ele>162.0</ele><time>2026-04-18T15:22:08.998Z</time></trkpt><trkpt lat="42.066594937156594" lon="12.33112295397315"><ele>162.0</ele><time>2026-04-18T15:22:09.998Z</time></trkpt><trkpt lat="42.066676452758294" lon="12.331197142174691"><ele>162.0</ele><time>2026-04-18T15:22:10.998Z</time></trkpt><trkpt lat="42.06676096429102" lon="12.3312707864577"><ele>162.0</ele><time>2026-04-18T15:22:11.998Z</time></trkpt><trkpt lat="42.066842726597784" lon="12.33134146988888"><ele>162.0</ele><time>2026-04-18T15:22:12.998Z</time></trkpt><trkpt lat="42.0669283524083" lon="12.331420264510509"><ele>162.0</ele><time>2026-04-18T15:22:13.998Z</time></trkpt><trkpt lat="42.06700015032217" lon="12.331494181606454"><ele>161.8</ele><time>2026-04-18T15:22:14.998Z</time></trkpt><trkpt lat="42.067078214049026" lon="12.33156122769174"><ele>161.6</ele><time>2026-04-18T15:22:15.998Z</time></trkpt><trkpt lat="42.06715357046895" lon="12.331633532898257"><ele>161.4</ele><time>2026-04-18T15:22:16.998Z</time></trkpt><trkpt lat="42.067229017677775" lon="12.33170901443008"><ele>161.20000000000002</ele><time>2026-04-18T15:22:17.998Z</time></trkpt><trkpt lat="42.06730946408512" lon="12.331785303779641"><ele>161.0</ele><time>2026-04-18T15:22:18.998Z</time></trkpt><trkpt lat="42.067392863346164" lon="12.331860520952917"><ele>161.0</ele><time>2026-04-18T15:22:19.998Z</time></trkpt><trkpt lat="42.06747769746677" lon="12.331937129198662"><ele>161.0</ele><time>2026-04-18T15:22:20.998Z</time></trkpt><trkpt lat="42.06756299784603" lon="12.332013904262068"><ele>161.0</ele><time>2026-04-18T15:22:21.998Z</time></trkpt><trkpt lat="42.067649414488734" lon="12.332088894602665"><ele>161.0</ele><time>2026-04-18T15:22:22.998Z</time></trkpt><trkpt lat="42.06771876258789" lon="12.332151601499241"><ele>161.0</ele><time>2026-04-18T15:22:23.998Z</time></trkpt><trkpt lat="42.06778981200894" lon="12.332215779531229"><ele>161.0</ele><time>2026-04-18T15:22:24.998Z</time></trkpt><trkpt lat="42.06786650122472" lon="12.332281402454512"><ele>161.0</ele><time>2026-04-18T15:22:25.998Z</time></trkpt><trkpt lat="42.0679415171268" lon="12.332347689333643"><ele>161.0</ele><time>2026-04-18T15:22:26.998Z</time></trkpt><trkpt lat="42.06801820532893" lon="12.332415314411378"><ele>161.0</ele><time>2026-04-18T15:22:27.998Z</time></trkpt><trkpt lat="42.06808784680403" lon="12.332483413434865"><ele>161.0</ele><time>2026-04-18T15:22:28.998Z</time></trkpt><trkpt lat="42.06814938605517" lon="12.332545437712318"><ele>161.0</ele><time>2026-04-18T15:22:29.998Z</time></trkpt><trkpt lat="42.06821034361717" lon="12.332601833349958"><ele>161.0</ele><time>2026-04-18T15:22:30.998Z</time></trkpt><trkpt lat="42.068261604322366" lon="12.332651905091252"><ele>161.0</ele><time>2026-04-18T15:22:31.998Z</time></trkpt><trkpt lat="42.06831939383209" lon="12.332704899836484"><ele>161.0</ele><time>2026-04-18T15:22:32.998Z</time></trkpt><trkpt lat="42.06837844733552" lon="12.332757242783202"><ele>161.0</ele><time>2026-04-18T15:22:33.998Z</time></trkpt><trkpt lat="42.06843615218517" lon="12.332804866487303"><ele>161.0</ele><time>2026-04-18T15:22:34.998Z</time></trkpt><trkpt lat="42.06850384506967" lon="12.332857275503878"><ele>161.0</ele><time>2026-04-18T15:22:35.998Z</time></trkpt><trkpt lat="42.06857173572655" lon="12.33291886200434"><ele>161.0</ele><time>2026-04-18T15:22:36.998Z</time></trkpt><trkpt lat="42.068634981430534" lon="12.332983195820017"><ele>161.5</ele><time>2026-04-18T15:22:37.998Z</time></trkpt><trkpt lat="42.068703000291165" lon="12.333056098916776"><ele>162.0</ele><time>2026-04-18T15:22:38.998Z</time></trkpt><trkpt lat="42.068776237691914" lon="12.33312973992293"><ele>162.5</ele><time>2026-04-18T15:22:39.998Z</time></trkpt><trkpt lat="42.06884755765525" lon="12.333196112904742"><ele>163.0</ele><time>2026-04-18T15:22:40.998Z</time></trkpt><trkpt lat="42.068918811972836" lon="12.333264390631644"><ele>163.5</ele><time>2026-04-18T15:22:41.998Z</time></trkpt><trkpt lat="42.068982582213856" lon="12.33332735893392"><ele>164.0</ele><time>2026-04-18T15:22:42.998Z</time></trkpt><trkpt lat="42.06905027726531" lon="12.33339146545334"><ele>164.33333333333331</ele><time>2026-04-18T15:22:43.998Z</time></trkpt><trkpt lat="42.06911527262409" lon="12.333454525431433"><ele>164.66666666666666</ele><time>2026-04-18T15:22:44.998Z</time></trkpt><trkpt lat="42.06918140743947" lon="12.333517308591759"><ele>165.0</ele><time>2026-04-18T15:22:45.998Z</time></trkpt><trkpt lat="42.06923910520498" lon="12.333566918040221"><ele>165.33333333333334</ele><time>2026-04-18T15:22:46.998Z</time></trkpt><trkpt lat="42.0693412979443" lon="12.333654025888512"><ele>165.66666666666669</ele><time>2026-04-18T15:22:48.998Z</time></trkpt><trkpt lat="42.0694194987285" lon="12.333727841780737"><ele>166.0</ele><time>2026-04-18T15:22:50.998Z</time></trkpt><trkpt lat="42.069479544761826" lon="12.333809360170163"><ele>166.0</ele><time>2026-04-18T15:22:53.998Z</time></trkpt><trkpt lat="42.069552851036995" lon="12.333879727182946"><ele>166.0</ele><time>2026-04-18T15:22:55.997Z</time></trkpt><trkpt lat="42.06962637524609" lon="12.33393259360889"><ele>166.0</ele><time>2026-04-18T15:22:56.998Z</time></trkpt><trkpt lat="42.06968634591805" lon="12.33399443541031"><ele>166.0</ele><time>2026-04-18T15:22:57.998Z</time></trkpt><trkpt lat="42.06976924002143" lon="12.334069000583707"><ele>166.0</ele><time>2026-04-18T15:22:58.998Z</time></trkpt><trkpt lat="42.06986107734557" lon="12.334146955568173"><ele>167.25</ele><time>2026-04-18T15:22:59.998Z</time></trkpt><trkpt lat="42.06996984964191" lon="12.334240689063465"><ele>168.5</ele><time>2026-04-18T15:23:00.998Z</time></trkpt><trkpt lat="42.070069034635345" lon="12.334324985120729"><ele>169.75</ele><time>2026-04-18T15:23:01.998Z</time></trkpt><trkpt lat="42.07017261854851" lon="12.334430491881955"><ele>171.0</ele><time>2026-04-18T15:23:02.998Z</time></trkpt><trkpt lat="42.070281437886344" lon="12.334537189362706"><ele>171.0</ele><time>2026-04-18T15:23:03.998Z</time></trkpt><trkpt lat="42.07039269569652" lon="12.334653123414816"><ele>171.0</ele><time>2026-04-18T15:23:04.998Z</time></trkpt><trkpt lat="42.07051241441813" lon="12.334767239204078"><ele>171.0</ele><time>2026-04-18T15:23:05.998Z</time></trkpt><trkpt lat="42.07065239448439" lon="12.33486693280253"><ele>171.0</ele><time>2026-04-18T15:23:06.998Z</time></trkpt><trkpt lat="42.070791192556364" lon="12.334987455132294"><ele>171.33333333333334</ele><time>2026-04-18T15:23:07.998Z</time></trkpt><trkpt lat="42.070926074941596" lon="12.335111899548362"><ele>171.66666666666669</ele><time>2026-04-18T15:23:08.998Z</time></trkpt><trkpt lat="42.071050606697476" lon="12.335225580587434"><ele>172.0</ele><time>2026-04-18T15:23:09.998Z</time></trkpt><trkpt lat="42.071178526509975" lon="12.335333826653201"><ele>172.0</ele><time>2026-04-18T15:23:10.998Z</time></trkpt><trkpt lat="42.07130193617153" lon="12.335440215259192"><ele>172.0</ele><time>2026-04-18T15:23:11.998Z</time></trkpt><trkpt lat="42.07142429846647" lon="12.335549324853158"><ele>172.0</ele><time>2026-04-18T15:23:12.998Z</time></trkpt><trkpt lat="42.07154765782124" lon="12.33566336037828"><ele>172.0</ele><time>2026-04-18T15:23:13.998Z</time></trkpt><trkpt lat="42.071674968313005" lon="12.335777549055331"><ele>173.75</ele><time>2026-04-18T15:23:14.998Z</time></trkpt><trkpt lat="42.07180441293068" lon="12.335892839353253"><ele>175.5</ele><time>2026-04-18T15:23:15.998Z</time></trkpt><trkpt lat="42.07192078344711" lon="12.336009740308858"><ele>177.25</ele><time>2026-04-18T15:23:16.998Z</time></trkpt><trkpt lat="42.072030110263064" lon="12.336115237448341"><ele>179.0</ele><time>2026-04-18T15:23:17.998Z</time></trkpt><trkpt lat="42.072136813831605" lon="12.336211552821563"><ele>179.0</ele><time>2026-04-18T15:23:18.998Z</time></trkpt><trkpt lat="42.072242826104755" lon="12.33630395431746"><ele>179.0</ele><time>2026-04-18T15:23:19.998Z</time></trkpt><trkpt lat="42.07235134465069" lon="12.336396604271503"><ele>179.0</ele><time>2026-04-18T15:23:20.998Z</time></trkpt><trkpt lat="42.07245788396753" lon="12.33649286687396"><ele>179.0</ele><time>2026-04-18T15:23:21.998Z</time></trkpt><trkpt lat="42.072566674556775" lon="12.336591937529159"><ele>179.75</ele><time>2026-04-18T15:23:22.998Z</time></trkpt><trkpt lat="42.07267669184407" lon="12.336695182891397"><ele>180.5</ele><time>2026-04-18T15:23:23.998Z</time></trkpt><trkpt lat="42.07278658761642" lon="12.336795728215249"><ele>181.25</ele><time>2026-04-18T15:23:24.998Z</time></trkpt><trkpt lat="42.07289614745117" lon="12.336883811962721"><ele>182.0</ele><time>2026-04-18T15:23:25.998Z</time></trkpt><trkpt lat="42.073001215510374" lon="12.336970123673764"><ele>182.0</ele><time>2026-04-18T15:23:26.998Z</time></trkpt><trkpt lat="42.073104939648246" lon="12.337066095498038"><ele>182.0</ele><time>2026-04-18T15:23:27.998Z</time></trkpt><trkpt lat="42.07320209400655" lon="12.337167241387577"><ele>182.0</ele><time>2026-04-18T15:23:28.998Z</time></trkpt><trkpt lat="42.07329711784449" lon="12.337256889860054"><ele>182.0</ele><time>2026-04-18T15:23:29.998Z</time></trkpt><trkpt lat="42.07339951189069" lon="12.337346227351144"><ele>182.75</ele><time>2026-04-18T15:23:30.998Z</time></trkpt><trkpt lat="42.07350515003368" lon="12.33743815279745"><ele>183.5</ele><time>2026-04-18T15:23:31.998Z</time></trkpt><trkpt lat="42.073613912714166" lon="12.337533010806467"><ele>184.25</ele><time>2026-04-18T15:23:32.998Z</time></trkpt><trkpt lat="42.07371990131424" lon="12.337622642345307"><ele>185.0</ele><time>2026-04-18T15:23:33.998Z</time></trkpt><trkpt lat="42.073822231341225" lon="12.337708268395877"><ele>185.0</ele><time>2026-04-18T15:23:35Z</time></trkpt><trkpt lat="42.07392326424977" lon="12.337786170787455"><ele>185.0</ele><time>2026-04-18T15:23:36Z</time></trkpt><trkpt lat="42.07402243646682" lon="12.337855382796345"><ele>185.0</ele><time>2026-04-18T15:23:37Z</time></trkpt><trkpt lat="42.074121351764845" lon="12.337922026481694"><ele>185.0</ele><time>2026-04-18T15:23:38Z</time></trkpt><trkpt lat="42.074226073214525" lon="12.33798622622171"><ele>187.0</ele><time>2026-04-18T15:23:39Z</time></trkpt><trkpt lat="42.07432386415613" lon="12.338053135994937"><ele>189.0</ele><time>2026-04-18T15:23:40Z</time></trkpt><trkpt lat="42.0744274475076" lon="12.338121252908538"><ele>191.0</ele><time>2026-04-18T15:23:41Z</time></trkpt><trkpt lat="42.07453536942538" lon="12.338188839243921"><ele>193.0</ele><time>2026-04-18T15:23:42Z</time></trkpt><trkpt lat="42.07463676077883" lon="12.338250929886772"><ele>193.0</ele><time>2026-04-18T15:23:43Z</time></trkpt><trkpt lat="42.07472709518543" lon="12.338302030518856"><ele>193.0</ele><time>2026-04-18T15:23:44Z</time></trkpt><trkpt lat="42.07482251845482" lon="12.338353638256233"><ele>193.0</ele><time>2026-04-18T15:23:45Z</time></trkpt><trkpt lat="42.07491748860307" lon="12.338415871428724"><ele>193.0</ele><time>2026-04-18T15:23:46Z</time></trkpt><trkpt lat="42.07502293866271" lon="12.338475915517852"><ele>193.0</ele><time>2026-04-18T15:23:47Z</time></trkpt><trkpt lat="42.07512588327167" lon="12.338530639180858"><ele>193.25</ele><time>2026-04-18T15:23:48Z</time></trkpt><trkpt lat="42.07527648338276" lon="12.338525567821197"><ele>193.5</ele><time>2026-04-18T15:23:49Z</time></trkpt><trkpt lat="42.07538266792268" lon="12.338556730351335"><ele>193.75</ele><time>2026-04-18T15:23:50Z</time></trkpt><trkpt lat="42.075487597535584" lon="12.338589840890773"><ele>194.0</ele><time>2026-04-18T15:23:51Z</time></trkpt><trkpt lat="42.07559414424452" lon="12.338625452680157"><ele>194.0</ele><time>2026-04-18T15:23:52Z</time></trkpt><trkpt lat="42.07570063222853" lon="12.33865647562292"><ele>194.0</ele><time>2026-04-18T15:23:53Z</time></trkpt><trkpt lat="42.075806263080636" lon="12.338676215325771"><ele>194.0</ele><time>2026-04-18T15:23:54Z</time></trkpt><trkpt lat="42.07591098100249" lon="12.3387025090681"><ele>194.0</ele><time>2026-04-18T15:23:55Z</time></trkpt><trkpt lat="42.07601541627523" lon="12.338744493934255"><ele>194.0</ele><time>2026-04-18T15:23:56Z</time></trkpt><trkpt lat="42.07610554524972" lon="12.338772204739017"><ele>194.39999999999998</ele><time>2026-04-18T15:23:57Z</time></trkpt><trkpt lat="42.07620150297751" lon="12.33879867845785"><ele>194.8</ele><time>2026-04-18T15:23:58Z</time></trkpt><trkpt lat="42.07629847683216" lon="12.338824939055518"><ele>195.2</ele><time>2026-04-18T15:23:59Z</time></trkpt><trkpt lat="42.07639008326198" lon="12.338856445051473"><ele>195.60000000000002</ele><time>2026-04-18T15:24:00Z</time></trkpt><trkpt lat="42.076486589016646" lon="12.338882495130443"><ele>196.0</ele><time>2026-04-18T15:24:01Z</time></trkpt><trkpt lat="42.07658812730217" lon="12.338914092457097"><ele>197.4</ele><time>2026-04-18T15:24:02Z</time></trkpt><trkpt lat="42.076692415152685" lon="12.338944690061785"><ele>198.8</ele><time>2026-04-18T15:24:03Z</time></trkpt><trkpt lat="42.07679869131725" lon="12.338975412348614"><ele>200.20000000000002</ele><time>2026-04-18T15:24:04Z</time></trkpt><trkpt lat="42.076903197093074" lon="12.3390115851394"><ele>201.60000000000002</ele><time>2026-04-18T15:24:05Z</time></trkpt><trkpt lat="42.07700804474401" lon="12.339047400358456"><ele>203.0</ele><time>2026-04-18T15:24:06Z</time></trkpt><trkpt lat="42.07711199400327" lon="12.33908091918145"><ele>203.0</ele><time>2026-04-18T15:24:07Z</time></trkpt><trkpt lat="42.07721666403097" lon="12.339112122062094"><ele>203.0</ele><time>2026-04-18T15:24:08Z</time></trkpt><trkpt lat="42.07732435963169" lon="12.33914211121942"><ele>203.0</ele><time>2026-04-18T15:24:09Z</time></trkpt><trkpt lat="42.077434597579455" lon="12.33917314908692"><ele>203.0</ele><time>2026-04-18T15:24:10Z</time></trkpt><trkpt lat="42.077555079883766" lon="12.339199145939165"><ele>203.8</ele><time>2026-04-18T15:24:11Z</time></trkpt><trkpt lat="42.077679783320704" lon="12.339239441238318"><ele>204.60000000000002</ele><time>2026-04-18T15:24:12Z</time></trkpt><trkpt lat="42.07777430035943" lon="12.339265943074707"><ele>205.39999999999998</ele><time>2026-04-18T15:24:12.999Z</time></trkpt><trkpt lat="42.07787015777748" lon="12.339293976689513"><ele>206.2</ele><time>2026-04-18T15:24:13.999Z</time></trkpt><trkpt lat="42.07797725665263" lon="12.33932675538533"><ele>207.0</ele><time>2026-04-18T15:24:14.999Z</time></trkpt><trkpt lat="42.078082317089105" lon="12.33935805725494"><ele>207.0</ele><time>2026-04-18T15:24:15.999Z</time></trkpt><trkpt lat="42.07818944069464" lon="12.33938734120296"><ele>207.0</ele><time>2026-04-18T15:24:16.999Z</time></trkpt><trkpt lat="42.07829749114109" lon="12.339419872760333"><ele>207.0</ele><time>2026-04-18T15:24:17.999Z</time></trkpt><trkpt lat="42.078407045260896" lon="12.339451595951777"><ele>207.0</ele><time>2026-04-18T15:24:18.999Z</time></trkpt><trkpt lat="42.07851885740173" lon="12.33948484672608"><ele>207.0</ele><time>2026-04-18T15:24:19.999Z</time></trkpt><trkpt lat="42.07862680246953" lon="12.339518523347087"><ele>207.8</ele><time>2026-04-18T15:24:20.999Z</time></trkpt><trkpt lat="42.07873629613045" lon="12.339548721814214"><ele>208.6</ele><time>2026-04-18T15:24:21.999Z</time></trkpt><trkpt lat="42.078833726880084" lon="12.339575123580387"><ele>209.4</ele><time>2026-04-18T15:24:22.999Z</time></trkpt><trkpt lat="42.07891947042446" lon="12.339607875990527"><ele>210.20000000000002</ele><time>2026-04-18T15:24:23.999Z</time></trkpt><trkpt lat="42.07901403715908" lon="12.339636112065001"><ele>211.0</ele><time>2026-04-18T15:24:24.999Z</time></trkpt><trkpt lat="42.07911660288442" lon="12.339670022533573"><ele>211.8</ele><time>2026-04-18T15:24:25.999Z</time></trkpt><trkpt lat="42.07922380507604" lon="12.339727242370444"><ele>212.60000000000002</ele><time>2026-04-18T15:24:26.999Z</time></trkpt><trkpt lat="42.079319656289" lon="12.33980694815557"><ele>213.4</ele><time>2026-04-18T15:24:27.999Z</time></trkpt><trkpt lat="42.0794025584849" lon="12.33988696170416"><ele>214.2</ele><time>2026-04-18T15:24:28.999Z</time></trkpt><trkpt lat="42.079485353556876" lon="12.339980303470009"><ele>215.0</ele><time>2026-04-18T15:24:29.999Z</time></trkpt><trkpt lat="42.07956813607737" lon="12.340074041531402"><ele>215.0</ele><time>2026-04-18T15:24:30.999Z</time></trkpt><trkpt lat="42.079644886092176" lon="12.340175790220256"><ele>215.0</ele><time>2026-04-18T15:24:31.999Z</time></trkpt><trkpt lat="42.07972573243264" lon="12.340270221134187"><ele>215.0</ele><time>2026-04-18T15:24:32.999Z</time></trkpt><trkpt lat="42.07979538814989" lon="12.340375110810633"><ele>215.0</ele><time>2026-04-18T15:24:33.999Z</time></trkpt><trkpt lat="42.07986546716399" lon="12.340461414811294"><ele>215.0</ele><time>2026-04-18T15:24:34.999Z</time></trkpt><trkpt lat="42.07993627781436" lon="12.340548572483888"><ele>216.0</ele><time>2026-04-18T15:24:35.999Z</time></trkpt><trkpt lat="42.080022991784666" lon="12.340655284957954"><ele>217.0</ele><time>2026-04-18T15:24:36.999Z</time></trkpt><trkpt lat="42.08011408504768" lon="12.340738102572539"><ele>218.0</ele><time>2026-04-18T15:24:37.999Z</time></trkpt><trkpt lat="42.08018103964742" lon="12.340849782785826"><ele>219.0</ele><time>2026-04-18T15:24:38.999Z</time></trkpt><trkpt lat="42.08025202270509" lon="12.340937136225538"><ele>220.0</ele><time>2026-04-18T15:24:39.999Z</time></trkpt><trkpt lat="42.08035988044338" lon="12.341069927140168"><ele>220.0</ele><time>2026-04-18T15:24:40.999Z</time></trkpt><trkpt lat="42.08045086896756" lon="12.34117790837605"><ele>220.0</ele><time>2026-04-18T15:24:41.999Z</time></trkpt><trkpt lat="42.0805402723778" lon="12.341307168292941"><ele>220.0</ele><time>2026-04-18T15:24:42.999Z</time></trkpt><trkpt lat="42.08063651370421" lon="12.341424520303756"><ele>220.0</ele><time>2026-04-18T15:24:43.999Z</time></trkpt><trkpt lat="42.08073760498111" lon="12.34153553696707"><ele>222.75</ele><time>2026-04-18T15:24:44.999Z</time></trkpt><trkpt lat="42.080859435667406" lon="12.341623988664823"><ele>225.5</ele><time>2026-04-18T15:24:45.999Z</time></trkpt><trkpt lat="42.08099310646337" lon="12.341687951158692"><ele>228.25</ele><time>2026-04-18T15:24:46.999Z</time></trkpt><trkpt lat="42.08113028676395" lon="12.341721215284643"><ele>231.0</ele><time>2026-04-18T15:24:47.999Z</time></trkpt><trkpt lat="42.08126051234616" lon="12.341718914481763"><ele>231.0</ele><time>2026-04-18T15:24:48.999Z</time></trkpt><trkpt lat="42.08137231264224" lon="12.341699602952348"><ele>231.0</ele><time>2026-04-18T15:24:49.999Z</time></trkpt><trkpt lat="42.08148025557586" lon="12.341667909520064"><ele>231.0</ele><time>2026-04-18T15:24:50.999Z</time></trkpt><trkpt lat="42.08158458371967" lon="12.34162415985645"><ele>231.0</ele><time>2026-04-18T15:24:51.999Z</time></trkpt><trkpt lat="42.081685960956364" lon="12.341541691012958"><ele>232.0</ele><time>2026-04-18T15:24:52.999Z</time></trkpt><trkpt lat="42.08178968880037" lon="12.341429697510595"><ele>233.0</ele><time>2026-04-18T15:24:53.999Z</time></trkpt><trkpt lat="42.081888213706485" lon="12.341309827041476"><ele>234.0</ele><time>2026-04-18T15:24:54.999Z</time></trkpt><trkpt lat="42.08197891606923" lon="12.341166273078679"><ele>235.0</ele><time>2026-04-18T15:24:55.999Z</time></trkpt><trkpt lat="42.08205464945188" lon="12.341030635286339"><ele>235.0</ele><time>2026-04-18T15:24:56.999Z</time></trkpt><trkpt lat="42.08213117749432" lon="12.3409191082684"><ele>235.0</ele><time>2026-04-18T15:24:57.999Z</time></trkpt><trkpt lat="42.08220881463037" lon="12.340811153457366"><ele>235.0</ele><time>2026-04-18T15:24:58.999Z</time></trkpt><trkpt lat="42.08228875074226" lon="12.340701704047202"><ele>235.0</ele><time>2026-04-18T15:24:59.999Z</time></trkpt><trkpt lat="42.082381136132426" lon="12.340625121198915"><ele>235.0</ele><time>2026-04-18T15:25:00.999Z</time></trkpt><trkpt lat="42.08248099956841" lon="12.340567934416192"><ele>236.75</ele><time>2026-04-18T15:25:01.999Z</time></trkpt><trkpt lat="42.082605892682345" lon="12.340556603542112"><ele>238.5</ele><time>2026-04-18T15:25:02.999Z</time></trkpt><trkpt lat="42.08272467740659" lon="12.34056741664612"><ele>240.25</ele><time>2026-04-18T15:25:03.999Z</time></trkpt><trkpt lat="42.082840160863064" lon="12.340626511046233"><ele>242.0</ele><time>2026-04-18T15:25:04.999Z</time></trkpt><trkpt lat="42.08293583849739" lon="12.340724390873493"><ele>242.0</ele><time>2026-04-18T15:25:05.998Z</time></trkpt><trkpt lat="42.08301115969597" lon="12.340847889411755"><ele>242.0</ele><time>2026-04-18T15:25:06.998Z</time></trkpt><trkpt lat="42.08306500341969" lon="12.34097322671572"><ele>242.0</ele><time>2026-04-18T15:25:07.998Z</time></trkpt><trkpt lat="42.08310792228673" lon="12.341098232692774"><ele>242.0</ele><time>2026-04-18T15:25:08.998Z</time></trkpt><trkpt lat="42.0831499764358" lon="12.341217053748759"><ele>242.0</ele><time>2026-04-18T15:25:09.998Z</time></trkpt><trkpt lat="42.08319305758847" lon="12.341325909721967"><ele>242.6</ele><time>2026-04-18T15:25:10.998Z</time></trkpt><trkpt lat="42.083237906747364" lon="12.34142521412146"><ele>243.2</ele><time>2026-04-18T15:25:11.998Z</time></trkpt><trkpt lat="42.08328690371551" lon="12.341524051943189"><ele>243.8</ele><time>2026-04-18T15:25:12.998Z</time></trkpt><trkpt lat="42.08334790049716" lon="12.34162015416416"><ele>244.4</ele><time>2026-04-18T15:25:13.998Z</time></trkpt><trkpt lat="42.08342220977212" lon="12.341714227920114"><ele>245.0</ele><time>2026-04-18T15:25:14.998Z</time></trkpt><trkpt lat="42.083504174914786" lon="12.341791196258516"><ele>245.4</ele><time>2026-04-18T15:25:15.998Z</time></trkpt><trkpt lat="42.08359392939279" lon="12.341858383645924"><ele>245.8</ele><time>2026-04-18T15:25:16.998Z</time></trkpt><trkpt lat="42.08368333931539" lon="12.341898939167516"><ele>246.2</ele><time>2026-04-18T15:25:17.998Z</time></trkpt><trkpt lat="42.08377080831122" lon="12.34189933091694"><ele>246.6</ele><time>2026-04-18T15:25:18.998Z</time></trkpt><trkpt lat="42.083860015252824" lon="12.34185461332368"><ele>247.0</ele><time>2026-04-18T15:25:19.998Z</time></trkpt><trkpt lat="42.08395921639278" lon="12.341784079968052"><ele>247.0</ele><time>2026-04-18T15:25:20.998Z</time></trkpt><trkpt lat="42.08405754408701" lon="12.341708997266963"><ele>247.0</ele><time>2026-04-18T15:25:21.998Z</time></trkpt><trkpt lat="42.084142157338505" lon="12.341644533132833"><ele>247.0</ele><time>2026-04-18T15:25:22.998Z</time></trkpt><trkpt lat="42.084220187154685" lon="12.34158550893234"><ele>247.0</ele><time>2026-04-18T15:25:23.998Z</time></trkpt><trkpt lat="42.08430176121192" lon="12.341530438795282"><ele>247.0</ele><time>2026-04-18T15:25:24.998Z</time></trkpt><trkpt lat="42.08438038553284" lon="12.341492274095438"><ele>247.8</ele><time>2026-04-18T15:25:25.998Z</time></trkpt><trkpt lat="42.08446096476952" lon="12.341477779539952"><ele>248.6</ele><time>2026-04-18T15:25:26.998Z</time></trkpt><trkpt lat="42.08454432457895" lon="12.341484911774632"><ele>249.40000000000003</ele><time>2026-04-18T15:25:27.998Z</time></trkpt><trkpt lat="42.084630717049556" lon="12.341505342248176"><ele>250.20000000000002</ele><time>2026-04-18T15:25:28.998Z</time></trkpt><trkpt lat="42.08472839501434" lon="12.34154482851623"><ele>251.0</ele><time>2026-04-18T15:25:29.998Z</time></trkpt><trkpt lat="42.08484594744311" lon="12.341622326656541"><ele>252.0</ele><time>2026-04-18T15:25:30.998Z</time></trkpt><trkpt lat="42.08499142264545" lon="12.341696656688157"><ele>253.0</ele><time>2026-04-18T15:25:31.998Z</time></trkpt><trkpt lat="42.08515763578592" lon="12.341760814604397"><ele>254.0</ele><time>2026-04-18T15:25:32.998Z</time></trkpt><trkpt lat="42.08533750508992" lon="12.341866184563544"><ele>254.0</ele><time>2026-04-18T15:25:33.998Z</time></trkpt><trkpt lat="42.08551682374998" lon="12.341958910088833"><ele>254.0</ele><time>2026-04-18T15:25:34.998Z</time></trkpt><trkpt lat="42.08570068414866" lon="12.342052403054218"><ele>254.0</ele><time>2026-04-18T15:25:35.998Z</time></trkpt><trkpt lat="42.08589069980789" lon="12.34214479424385"><ele>256.33333333333337</ele><time>2026-04-18T15:25:36.998Z</time></trkpt><trkpt lat="42.08608279509091" lon="12.342240075666531"><ele>258.6666666666667</ele><time>2026-04-18T15:25:37.998Z</time></trkpt><trkpt lat="42.086282199515665" lon="12.34234045797385"><ele>261.0</ele><time>2026-04-18T15:25:38.998Z</time></trkpt><trkpt lat="42.086479769660734" lon="12.342448584597665"><ele>261.6666666666667</ele><time>2026-04-18T15:25:40Z</time></trkpt><trkpt lat="42.08667803288044" lon="12.342550524345244"><ele>262.33333333333337</ele><time>2026-04-18T15:25:41Z</time></trkpt><trkpt lat="42.08687387409176" lon="12.342652333105011"><ele>263.0</ele><time>2026-04-18T15:25:42Z</time></trkpt><trkpt lat="42.08704538146371" lon="12.342741460088895"><ele>263.0</ele><time>2026-04-18T15:25:43Z</time></trkpt><trkpt lat="42.087211851834674" lon="12.34282355400283"><ele>263.0</ele><time>2026-04-18T15:25:44Z</time></trkpt><trkpt lat="42.08738081335067" lon="12.342907246552546"><ele>263.0</ele><time>2026-04-18T15:25:45Z</time></trkpt><trkpt lat="42.087557858398206" lon="12.342993150354271"><ele>265.33333333333337</ele><time>2026-04-18T15:25:46Z</time></trkpt><trkpt lat="42.087732284240325" lon="12.34308082311127"><ele>267.6666666666667</ele><time>2026-04-18T15:25:47Z</time></trkpt><trkpt lat="42.087913973526526" lon="12.343170451238068"><ele>270.0</ele><time>2026-04-18T15:25:48Z</time></trkpt><trkpt lat="42.0881073601126" lon="12.343242037810398"><ele>270.0</ele><time>2026-04-18T15:25:49Z</time></trkpt><trkpt lat="42.08831232272854" lon="12.343305171416612"><ele>270.0</ele><time>2026-04-18T15:25:50Z</time></trkpt><trkpt lat="42.08852092579705" lon="12.343363261738434"><ele>270.0</ele><time>2026-04-18T15:25:51Z</time></trkpt><trkpt lat="42.088723503730336" lon="12.343413201473274"><ele>270.0</ele><time>2026-04-18T15:25:52Z</time></trkpt><trkpt lat="42.08891453545181" lon="12.343471549424658"><ele>270.0</ele><time>2026-04-18T15:25:53Z</time></trkpt><trkpt lat="42.08908763300855" lon="12.343527160448456"><ele>270.0</ele><time>2026-04-18T15:25:54Z</time></trkpt><trkpt lat="42.08924921209845" lon="12.343575185766003"><ele>269.75</ele><time>2026-04-18T15:25:55Z</time></trkpt><trkpt lat="42.089405075926194" lon="12.343629187314404"><ele>269.5</ele><time>2026-04-18T15:25:56Z</time></trkpt><trkpt lat="42.08954860405439" lon="12.34369060155504"><ele>269.25</ele><time>2026-04-18T15:25:57Z</time></trkpt><trkpt lat="42.089670968661245" lon="12.343769749928812"><ele>269.0</ele><time>2026-04-18T15:25:58Z</time></trkpt><trkpt lat="42.0897971921393" lon="12.343864796341173"><ele>269.0</ele><time>2026-04-18T15:25:59Z</time></trkpt><trkpt lat="42.08991838931164" lon="12.343990942933798"><ele>269.0</ele><time>2026-04-18T15:26:00Z</time></trkpt><trkpt lat="42.0900396190194" lon="12.344141172558006"><ele>269.0</ele><time>2026-04-18T15:26:01Z</time></trkpt><trkpt lat="42.09015556171624" lon="12.34432129576428"><ele>269.6666666666667</ele><time>2026-04-18T15:26:02Z</time></trkpt><trkpt lat="42.09026793938879" lon="12.34450617017911"><ele>270.3333333333333</ele><time>2026-04-18T15:26:03Z</time></trkpt><trkpt lat="42.09037437018242" lon="12.34468436552254"><ele>271.0</ele><time>2026-04-18T15:26:04Z</time></trkpt><trkpt lat="42.09047638272656" lon="12.344841804924776"><ele>271.0</ele><time>2026-04-18T15:26:05Z</time></trkpt><trkpt lat="42.090593518210724" lon="12.344972614360831"><ele>271.0</ele><time>2026-04-18T15:26:06Z</time></trkpt><trkpt lat="42.090718172342186" lon="12.345080189618129"><ele>271.0</ele><time>2026-04-18T15:26:07Z</time></trkpt><trkpt lat="42.09084803423633" lon="12.34516386384977"><ele>271.0</ele><time>2026-04-18T15:26:08Z</time></trkpt><trkpt lat="42.090976459015614" lon="12.345232435537234"><ele>272.75</ele><time>2026-04-18T15:26:09Z</time></trkpt><trkpt lat="42.09111332861947" lon="12.345284272784497"><ele>274.5</ele><time>2026-04-18T15:26:10Z</time></trkpt><trkpt lat="42.09125971367999" lon="12.345323063289218"><ele>276.25</ele><time>2026-04-18T15:26:11Z</time></trkpt><trkpt lat="42.09141546958757" lon="12.345352404969368"><ele>278.0</ele><time>2026-04-18T15:26:12Z</time></trkpt><trkpt lat="42.0915742030985" lon="12.345385192803164"><ele>279.5</ele><time>2026-04-18T15:26:13Z</time></trkpt><trkpt lat="42.09172296473983" lon="12.345417469736356"><ele>281.0</ele><time>2026-04-18T15:26:14Z</time></trkpt><trkpt lat="42.09184548599203" lon="12.34543076375271"><ele>282.5</ele><time>2026-04-18T15:26:15Z</time></trkpt><trkpt lat="42.0919503681719" lon="12.345427799530132"><ele>284.0</ele><time>2026-04-18T15:26:16Z</time></trkpt><trkpt lat="42.09204733001649" lon="12.345436059000555"><ele>284.0</ele><time>2026-04-18T15:26:17Z</time></trkpt><trkpt lat="42.09212056012497" lon="12.345468789843958"><ele>284.0</ele><time>2026-04-18T15:26:18Z</time></trkpt><trkpt lat="42.092144738308896" lon="12.345557484993593"><ele>284.0</ele><time>2026-04-18T15:26:20Z</time></trkpt><trkpt lat="42.09208231889864" lon="12.345633201347779"><ele>284.0</ele><time>2026-04-18T15:26:22.999Z</time></trkpt><trkpt lat="42.0919839927232" lon="12.345741934105874"><ele>284.0</ele><time>2026-04-18T15:26:24.999Z</time></trkpt><trkpt lat="42.09193403866086" lon="12.345838068734974"><ele>284.0</ele><time>2026-04-18T15:26:25.999Z</time></trkpt><trkpt lat="42.091867895149015" lon="12.345956803298767"><ele>283.5</ele><time>2026-04-18T15:26:26.999Z</time></trkpt><trkpt lat="42.091791542002596" lon="12.346081150825757"><ele>283.0</ele><time>2026-04-18T15:26:27.999Z</time></trkpt><trkpt lat="42.09171868355355" lon="12.34621773116858"><ele>282.5</ele><time>2026-04-18T15:26:28.999Z</time></trkpt><trkpt lat="42.09164745677135" lon="12.346379359394744"><ele>282.0</ele><time>2026-04-18T15:26:29.999Z</time></trkpt><trkpt lat="42.09158474297344" lon="12.346553292683904"><ele>281.3333333333333</ele><time>2026-04-18T15:26:30.999Z</time></trkpt><trkpt lat="42.09153785492162" lon="12.346731062997694"><ele>280.66666666666663</ele><time>2026-04-18T15:26:31.999Z</time></trkpt><trkpt lat="42.09151758720389" lon="12.346938104991873"><ele>280.0</ele><time>2026-04-18T15:26:32.999Z</time></trkpt><trkpt lat="42.09151517541872" lon="12.347150081762091"><ele>281.25</ele><time>2026-04-18T15:26:33.999Z</time></trkpt><trkpt lat="42.091509601144054" lon="12.347337177407129"><ele>282.5</ele><time>2026-04-18T15:26:34.999Z</time></trkpt><trkpt lat="42.09146190001173" lon="12.347478506971706"><ele>283.75</ele><time>2026-04-18T15:26:35.999Z</time></trkpt><trkpt lat="42.09140109688015" lon="12.34761923707408"><ele>285.0</ele><time>2026-04-18T15:26:36.999Z</time></trkpt><trkpt lat="42.09133697181297" lon="12.347756673425678"><ele>285.0</ele><time>2026-04-18T15:26:37.999Z</time></trkpt><trkpt lat="42.09127671993754" lon="12.347908657823314"><ele>285.0</ele><time>2026-04-18T15:26:38.999Z</time></trkpt><trkpt lat="42.09122904045018" lon="12.34798533727527"><ele>285.0</ele><time>2026-04-18T15:26:39.999Z</time></trkpt><trkpt lat="42.091193349378145" lon="12.348063198439876"><ele>285.0</ele><time>2026-04-18T15:26:40.999Z</time></trkpt><trkpt lat="42.091151144947965" lon="12.348181974181108"><ele>285.0</ele><time>2026-04-18T15:26:42.999Z</time></trkpt><trkpt lat="42.0911397846498" lon="12.348279788102479"><ele>285.0</ele><time>2026-04-18T15:26:44.999Z</time></trkpt><trkpt lat="42.091099141942195" lon="12.34838172671283"><ele>285.4</ele><time>2026-04-18T15:26:48.999Z</time></trkpt><trkpt lat="42.091071530514405" lon="12.348482475842534"><ele>285.8</ele><time>2026-04-18T15:26:51.999Z</time></trkpt><trkpt lat="42.091163070508074" lon="12.348629647629485"><ele>286.2</ele><time>2026-04-18T15:26:53.999Z</time></trkpt><trkpt lat="42.09121141381985" lon="12.348730432241823"><ele>286.6</ele><time>2026-04-18T15:26:54.999Z</time></trkpt><trkpt lat="42.091261075049175" lon="12.348845224123446"><ele>287.0</ele><time>2026-04-18T15:26:55.999Z</time></trkpt><trkpt lat="42.091306154410326" lon="12.348971708448847"><ele>287.0</ele><time>2026-04-18T15:26:56.999Z</time></trkpt><trkpt lat="42.091350146580126" lon="12.349121264647941"><ele>287.0</ele><time>2026-04-18T15:26:57.999Z</time></trkpt><trkpt lat="42.09139497535282" lon="12.349289372618667"><ele>287.0</ele><time>2026-04-18T15:26:58.999Z</time></trkpt><trkpt lat="42.09144067352717" lon="12.349456609112012"><ele>287.0</ele><time>2026-04-18T15:26:59.999Z</time></trkpt><trkpt lat="42.09148977944433" lon="12.349640352995575"><ele>286.33333333333337</ele><time>2026-04-18T15:27:00.999Z</time></trkpt><trkpt lat="42.09154280290773" lon="12.349839884550981"><ele>285.6666666666667</ele><time>2026-04-18T15:27:01.999Z</time></trkpt><trkpt lat="42.09159569525641" lon="12.350056118451073"><ele>285.0</ele><time>2026-04-18T15:27:02.999Z</time></trkpt><trkpt lat="42.09164154201721" lon="12.350253313983306"><ele>286.75</ele><time>2026-04-18T15:27:03.999Z</time></trkpt><trkpt lat="42.09168344754923" lon="12.350426398371141"><ele>288.5</ele><time>2026-04-18T15:27:04.999Z</time></trkpt><trkpt lat="42.091726513893725" lon="12.350598478030898"><ele>290.25</ele><time>2026-04-18T15:27:05.999Z</time></trkpt><trkpt lat="42.09177368565833" lon="12.350777741891143"><ele>292.0</ele><time>2026-04-18T15:27:06.999Z</time></trkpt><trkpt lat="42.091809015519544" lon="12.350963679034306"><ele>293.0</ele><time>2026-04-18T15:27:07.999Z</time></trkpt><trkpt lat="42.09183592733907" lon="12.351155415804312"><ele>294.0</ele><time>2026-04-18T15:27:08.999Z</time></trkpt><trkpt lat="42.09184881325442" lon="12.351356016464171"><ele>295.0</ele><time>2026-04-18T15:27:09.999Z</time></trkpt><trkpt lat="42.091837985486464" lon="12.351564354812625"><ele>296.0</ele><time>2026-04-18T15:27:10.999Z</time></trkpt><trkpt lat="42.09181350968725" lon="12.351772310900742"><ele>296.25</ele><time>2026-04-18T15:27:11.999Z</time></trkpt><trkpt lat="42.091772477658495" lon="12.351959640523674"><ele>296.5</ele><time>2026-04-18T15:27:12.999Z</time></trkpt><trkpt lat="42.09171631407311" lon="12.352132987625874"><ele>296.75</ele><time>2026-04-18T15:27:13.999Z</time></trkpt><trkpt lat="42.09165419681454" lon="12.3523049802039"><ele>297.0</ele><time>2026-04-18T15:27:14.999Z</time></trkpt><trkpt lat="42.091583543721505" lon="12.352452696546239"><ele>295.0</ele><time>2026-04-18T15:27:15.999Z</time></trkpt><trkpt lat="42.091514619151674" lon="12.352581350389245"><ele>293.0</ele><time>2026-04-18T15:27:16.998Z</time></trkpt><trkpt lat="42.09144844444921" lon="12.352721671804069"><ele>291.0</ele><time>2026-04-18T15:27:17.998Z</time></trkpt><trkpt lat="42.091379145082215" lon="12.352851051113465"><ele>289.0</ele><time>2026-04-18T15:27:18.998Z</time></trkpt><trkpt lat="42.09130158526134" lon="12.352980615183773"><ele>291.0</ele><time>2026-04-18T15:27:19.998Z</time></trkpt><trkpt lat="42.09123069223162" lon="12.353110445481953"><ele>293.0</ele><time>2026-04-18T15:27:20.998Z</time></trkpt><trkpt lat="42.09116282941668" lon="12.353248520893183"><ele>295.0</ele><time>2026-04-18T15:27:21.998Z</time></trkpt><trkpt lat="42.09109106322983" lon="12.353384402749858"><ele>297.0</ele><time>2026-04-18T15:27:22.998Z</time></trkpt><trkpt lat="42.091022252496224" lon="12.353520859345092"><ele>297.0</ele><time>2026-04-18T15:27:23.998Z</time></trkpt><trkpt lat="42.0909731079955" lon="12.353676342982308"><ele>297.0</ele><time>2026-04-18T15:27:24.998Z</time></trkpt><trkpt lat="42.09092846654477" lon="12.353827120118135"><ele>297.0</ele><time>2026-04-18T15:27:25.998Z</time></trkpt><trkpt lat="42.09089908794482" lon="12.353972532427603"><ele>297.0</ele><time>2026-04-18T15:27:26.998Z</time></trkpt><trkpt lat="42.09088207441605" lon="12.35412506929296"><ele>297.75</ele><time>2026-04-18T15:27:27.998Z</time></trkpt><trkpt lat="42.090881347387075" lon="12.354285847035708"><ele>298.5</ele><time>2026-04-18T15:27:28.998Z</time></trkpt><trkpt lat="42.090875967276126" lon="12.354456245344178"><ele>299.25</ele><time>2026-04-18T15:27:29.998Z</time></trkpt><trkpt lat="42.09087028886938" lon="12.354631761151316"><ele>300.0</ele><time>2026-04-18T15:27:30.998Z</time></trkpt><trkpt lat="42.090872497001655" lon="12.354812464519119"><ele>300.5</ele><time>2026-04-18T15:27:31.998Z</time></trkpt><trkpt lat="42.09088323281266" lon="12.35499407646048"><ele>301.0</ele><time>2026-04-18T15:27:32.998Z</time></trkpt><trkpt lat="42.09090096472443" lon="12.355176303656364"><ele>301.5</ele><time>2026-04-18T15:27:33.998Z</time></trkpt><trkpt lat="42.09093181965902" lon="12.355335349104898"><ele>302.0</ele><time>2026-04-18T15:27:34.998Z</time></trkpt><trkpt lat="42.090984179522394" lon="12.355500659989175"><ele>301.25</ele><time>2026-04-18T15:27:35.998Z</time></trkpt><trkpt lat="42.091051758147124" lon="12.355667708399928"><ele>300.5</ele><time>2026-04-18T15:27:36.998Z</time></trkpt><trkpt lat="42.091106691818815" lon="12.355842333514818"><ele>299.75</ele><time>2026-04-18T15:27:37.998Z</time></trkpt><trkpt lat="42.09115317008652" lon="12.356011823630428"><ele>299.0</ele><time>2026-04-18T15:27:38.998Z</time></trkpt><trkpt lat="42.091198375110864" lon="12.356157608276938"><ele>299.0</ele><time>2026-04-18T15:27:39.998Z</time></trkpt><trkpt lat="42.091248160611656" lon="12.356304793886592"><ele>299.0</ele><time>2026-04-18T15:27:40.998Z</time></trkpt><trkpt lat="42.091301166279166" lon="12.35645690752934"><ele>299.0</ele><time>2026-04-18T15:27:41.998Z</time></trkpt><trkpt lat="42.091351679195824" lon="12.356616177680221"><ele>299.0</ele><time>2026-04-18T15:27:42.998Z</time></trkpt><trkpt lat="42.09140592939401" lon="12.356772945456916"><ele>299.5</ele><time>2026-04-18T15:27:43.998Z</time></trkpt><trkpt lat="42.09145384178574" lon="12.356918207089578"><ele>300.0</ele><time>2026-04-18T15:27:45Z</time></trkpt><trkpt lat="42.09150360434331" lon="12.357067598693472"><ele>300.5</ele><time>2026-04-18T15:27:46Z</time></trkpt><trkpt lat="42.09155039050875" lon="12.357218486853283"><ele>301.0</ele><time>2026-04-18T15:27:47Z</time></trkpt><trkpt lat="42.09159180818013" lon="12.357370250491279"><ele>302.0</ele><time>2026-04-18T15:27:48Z</time></trkpt><trkpt lat="42.09162862328804" lon="12.357523777581017"><ele>303.0</ele><time>2026-04-18T15:27:49Z</time></trkpt><trkpt lat="42.09166037174181" lon="12.357687078156644"><ele>304.0</ele><time>2026-04-18T15:27:50Z</time></trkpt><trkpt lat="42.09168566628983" lon="12.357858639579662"><ele>305.0</ele><time>2026-04-18T15:27:51Z</time></trkpt><trkpt lat="42.09170508835446" lon="12.358036323793755"><ele>305.5</ele><time>2026-04-18T15:27:52Z</time></trkpt><trkpt lat="42.0917153618445" lon="12.358227887215198"><ele>306.0</ele><time>2026-04-18T15:27:53Z</time></trkpt><trkpt lat="42.091724428189394" lon="12.358425537595625"><ele>306.5</ele><time>2026-04-18T15:27:54Z</time></trkpt><trkpt lat="42.091734466408525" lon="12.358619289841897"><ele>307.0</ele><time>2026-04-18T15:27:55Z</time></trkpt><trkpt lat="42.09174473682746" lon="12.358814577761203"><ele>305.3333333333333</ele><time>2026-04-18T15:27:56Z</time></trkpt><trkpt lat="42.09175479204819" lon="12.359015425196409"><ele>303.6666666666667</ele><time>2026-04-18T15:27:57Z</time></trkpt><trkpt lat="42.09176561534866" lon="12.359226088880968"><ele>302.0</ele><time>2026-04-18T15:27:58Z</time></trkpt><trkpt lat="42.091771930532296" lon="12.359439177435704"><ele>302.0</ele><time>2026-04-18T15:27:59Z</time></trkpt><trkpt lat="42.09177656957036" lon="12.359653862506752"><ele>302.0</ele><time>2026-04-18T15:28:00Z</time></trkpt><trkpt lat="42.09177970612838" lon="12.359871818719826"><ele>302.0</ele><time>2026-04-18T15:28:01Z</time></trkpt><trkpt lat="42.091785541966814" lon="12.360086285492109"><ele>302.0</ele><time>2026-04-18T15:28:02Z</time></trkpt><trkpt lat="42.091793386461454" lon="12.360300136727316"><ele>302.0</ele><time>2026-04-18T15:28:03Z</time></trkpt><trkpt lat="42.091803839660024" lon="12.360496913744162"><ele>302.0</ele><time>2026-04-18T15:28:04Z</time></trkpt><trkpt lat="42.091811420834595" lon="12.360688803617313"><ele>302.0</ele><time>2026-04-18T15:28:05Z</time></trkpt><trkpt lat="42.09182106939082" lon="12.36088276246606"><ele>302.0</ele><time>2026-04-18T15:28:06Z</time></trkpt><trkpt lat="42.09183483285161" lon="12.361085352293715"><ele>302.0</ele><time>2026-04-18T15:28:07Z</time></trkpt><trkpt lat="42.091845168732" lon="12.361284264094587"><ele>302.0</ele><time>2026-04-18T15:28:08Z</time></trkpt><trkpt lat="42.09185482769515" lon="12.361490872612869"><ele>300.6666666666667</ele><time>2026-04-18T15:28:09Z</time></trkpt><trkpt lat="42.091862367510224" lon="12.361706732732802"><ele>299.3333333333333</ele><time>2026-04-18T15:28:10Z</time></trkpt><trkpt lat="42.091871798640085" lon="12.3619299920478"><ele>298.0</ele><time>2026-04-18T15:28:11Z</time></trkpt><trkpt lat="42.09188024256636" lon="12.362154395092535"><ele>295.3333333333333</ele><time>2026-04-18T15:28:12Z</time></trkpt><trkpt lat="42.09188614854524" lon="12.362365210447733"><ele>292.6666666666667</ele><time>2026-04-18T15:28:13Z</time></trkpt><trkpt lat="42.09189182097074" lon="12.362579146591257"><ele>290.0</ele><time>2026-04-18T15:28:14Z</time></trkpt><trkpt lat="42.091900462365345" lon="12.362795860769788"><ele>290.0</ele><time>2026-04-18T15:28:15Z</time></trkpt><trkpt lat="42.0919124249905" lon="12.363013338410065"><ele>290.0</ele><time>2026-04-18T15:28:16Z</time></trkpt><trkpt lat="42.09192203055861" lon="12.363225045586063"><ele>290.0</ele><time>2026-04-18T15:28:17Z</time></trkpt><trkpt lat="42.091931536952565" lon="12.363425738116016"><ele>290.33333333333337</ele><time>2026-04-18T15:28:18Z</time></trkpt><trkpt lat="42.091941920996724" lon="12.363628729539935"><ele>290.6666666666667</ele><time>2026-04-18T15:28:19Z</time></trkpt><trkpt lat="42.09195792592213" lon="12.363831948534397"><ele>291.0</ele><time>2026-04-18T15:28:20Z</time></trkpt><trkpt lat="42.09198377957979" lon="12.364036531559242"><ele>291.3333333333333</ele><time>2026-04-18T15:28:21Z</time></trkpt><trkpt lat="42.09202184377843" lon="12.364250795836703"><ele>291.66666666666663</ele><time>2026-04-18T15:28:22Z</time></trkpt><trkpt lat="42.09206983421576" lon="12.364471205463886"><ele>292.0</ele><time>2026-04-18T15:28:23Z</time></trkpt><trkpt lat="42.09212005329555" lon="12.364683741989431"><ele>289.66666666666663</ele><time>2026-04-18T15:28:24Z</time></trkpt><trkpt lat="42.09216548511572" lon="12.364890985023436"><ele>287.3333333333333</ele><time>2026-04-18T15:28:25Z</time></trkpt><trkpt lat="42.09220920711195" lon="12.365083104531353"><ele>285.0</ele><time>2026-04-18T15:28:26Z</time></trkpt><trkpt lat="42.092255293847636" lon="12.365267938267245"><ele>285.0</ele><time>2026-04-18T15:28:27Z</time></trkpt><trkpt lat="42.09229972245978" lon="12.365446694669933"><ele>285.0</ele><time>2026-04-18T15:28:28Z</time></trkpt><trkpt lat="42.092343521338066" lon="12.365628096298002"><ele>285.0</ele><time>2026-04-18T15:28:29Z</time></trkpt><trkpt lat="42.09238388682377" lon="12.365806922765529"><ele>285.0</ele><time>2026-04-18T15:28:30Z</time></trkpt><trkpt lat="42.09242229585953" lon="12.365983805761289"><ele>285.75</ele><time>2026-04-18T15:28:31Z</time></trkpt><trkpt lat="42.09245853072717" lon="12.36616455176742"><ele>286.5</ele><time>2026-04-18T15:28:31.999Z</time></trkpt><trkpt lat="42.092487610029714" lon="12.366342261369397"><ele>287.25</ele><time>2026-04-18T15:28:32.999Z</time></trkpt><trkpt lat="42.09251091570277" lon="12.366521437433237"><ele>288.0</ele><time>2026-04-18T15:28:33.999Z</time></trkpt><trkpt lat="42.09253094607118" lon="12.366703484939801"><ele>288.0</ele><time>2026-04-18T15:28:34.999Z</time></trkpt><trkpt lat="42.092554183596874" lon="12.366877441618197"><ele>288.0</ele><time>2026-04-18T15:28:35.999Z</time></trkpt><trkpt lat="42.092581922607394" lon="12.367056667811077"><ele>288.0</ele><time>2026-04-18T15:28:36.999Z</time></trkpt><trkpt lat="42.09259826725955" lon="12.367230712803782"><ele>288.0</ele><time>2026-04-18T15:28:37.999Z</time></trkpt><trkpt lat="42.092605751009536" lon="12.36740086360507"><ele>288.0</ele><time>2026-04-18T15:28:38.999Z</time></trkpt><trkpt lat="42.09259314025731" lon="12.367571766371695"><ele>288.0</ele><time>2026-04-18T15:28:39.999Z</time></trkpt><trkpt lat="42.09255583463727" lon="12.367755079504681"><ele>288.0</ele><time>2026-04-18T15:28:40.999Z</time></trkpt><trkpt lat="42.09247791646751" lon="12.367933347234338"><ele>288.0</ele><time>2026-04-18T15:28:41.999Z</time></trkpt><trkpt lat="42.09239351906318" lon="12.368115105107528"><ele>285.3333333333333</ele><time>2026-04-18T15:28:42.999Z</time></trkpt><trkpt lat="42.09227705618538" lon="12.368280880167239"><ele>282.66666666666663</ele><time>2026-04-18T15:28:43.999Z</time></trkpt><trkpt lat="42.09214318726059" lon="12.368430623156843"><ele>280.0</ele><time>2026-04-18T15:28:44.999Z</time></trkpt><trkpt lat="42.09208842837935" lon="12.368562733002257"><ele>280.0</ele><time>2026-04-18T15:28:46.999Z</time></trkpt><trkpt lat="42.09201194447474" lon="12.368670774440709"><ele>280.0</ele><time>2026-04-18T15:28:47.999Z</time></trkpt><trkpt lat="42.091933612959934" lon="12.368751037852151"><ele>280.0</ele><time>2026-04-18T15:28:48.999Z</time></trkpt><trkpt lat="42.09186682493968" lon="12.368835949802865"><ele>280.0</ele><time>2026-04-18T15:28:49.999Z</time></trkpt><trkpt lat="42.09180393500882" lon="12.368913300587552"><ele>280.0</ele><time>2026-04-18T15:28:50.999Z</time></trkpt><trkpt lat="42.09174937027514" lon="12.368980653572477"><ele>279.0</ele><time>2026-04-18T15:28:51.999Z</time></trkpt><trkpt lat="42.0916716852307" lon="12.369091907865666"><ele>278.0</ele><time>2026-04-18T15:28:53.999Z</time></trkpt><trkpt lat="42.09176233690826" lon="12.36928921947056"><ele>277.0</ele><time>2026-04-18T15:28:56.999Z</time></trkpt><trkpt lat="42.09183029283429" lon="12.369348715820244"><ele>276.0</ele><time>2026-04-18T15:28:57.999Z</time></trkpt><trkpt lat="42.09190894616705" lon="12.369433239404986"><ele>276.0</ele><time>2026-04-18T15:28:58.999Z</time></trkpt><trkpt lat="42.09195690374978" lon="12.369501331026058"><ele>276.0</ele><time>2026-04-18T15:28:59.999Z</time></trkpt><trkpt lat="42.09205556996999" lon="12.36959554528514"><ele>276.0</ele><time>2026-04-18T15:29:01.999Z</time></trkpt><trkpt lat="42.09210335087599" lon="12.369664376284756"><ele>276.0</ele><time>2026-04-18T15:29:03.999Z</time></trkpt><trkpt lat="42.092198246243306" lon="12.369688235775854"><ele>276.0</ele><time>2026-04-18T15:29:06.999Z</time></trkpt><trkpt lat="42.09224882572782" lon="12.369613840621337"><ele>276.0</ele><time>2026-04-18T15:29:07.999Z</time></trkpt><trkpt lat="42.09231290072639" lon="12.36951302846748"><ele>276.0</ele><time>2026-04-18T15:29:08.999Z</time></trkpt><trkpt lat="42.09238668520347" lon="12.369396125999947"><ele>276.0</ele><time>2026-04-18T15:29:09.999Z</time></trkpt><trkpt lat="42.09247004183394" lon="12.369263121377532"><ele>276.0</ele><time>2026-04-18T15:29:10.999Z</time></trkpt><trkpt lat="42.092576301251206" lon="12.3691052430223"><ele>276.0</ele><time>2026-04-18T15:29:11.999Z</time></trkpt><trkpt lat="42.09268164256874" lon="12.36895028814263"><ele>278.5</ele><time>2026-04-18T15:29:12.999Z</time></trkpt><trkpt lat="42.0927634901027" lon="12.368834336124504"><ele>281.0</ele><time>2026-04-18T15:29:13.999Z</time></trkpt><trkpt lat="42.09284462758392" lon="12.36870913260573"><ele>283.5</ele><time>2026-04-18T15:29:14.999Z</time></trkpt><trkpt lat="42.092944534530474" lon="12.3685627255892"><ele>286.0</ele><time>2026-04-18T15:29:15.999Z</time></trkpt><trkpt lat="42.09306045856047" lon="12.368425298338547"><ele>286.0</ele><time>2026-04-18T15:29:16.999Z</time></trkpt><trkpt lat="42.09317879672036" lon="12.368299252351886"><ele>286.0</ele><time>2026-04-18T15:29:17.999Z</time></trkpt><trkpt lat="42.09330277083019" lon="12.368194429241747"><ele>286.0</ele><time>2026-04-18T15:29:18.999Z</time></trkpt><trkpt lat="42.093448127432985" lon="12.368073696786643"><ele>288.3333333333333</ele><time>2026-04-18T15:29:19.999Z</time></trkpt><trkpt lat="42.09359327294643" lon="12.367957083421114"><ele>290.6666666666667</ele><time>2026-04-18T15:29:20.999Z</time></trkpt><trkpt lat="42.09373551304915" lon="12.367861725181923"><ele>293.0</ele><time>2026-04-18T15:29:21.999Z</time></trkpt><trkpt lat="42.09388078331147" lon="12.367785101602779"><ele>293.0</ele><time>2026-04-18T15:29:22.999Z</time></trkpt><trkpt lat="42.09403880225279" lon="12.367717677520593"><ele>293.0</ele><time>2026-04-18T15:29:23.999Z</time></trkpt><trkpt lat="42.09421057575256" lon="12.36765781271147"><ele>293.0</ele><time>2026-04-18T15:29:24.999Z</time></trkpt><trkpt lat="42.09439071913499" lon="12.367603738588581"><ele>295.33333333333337</ele><time>2026-04-18T15:29:25.999Z</time></trkpt><trkpt lat="42.09456954840004" lon="12.367551028556926"><ele>297.6666666666667</ele><time>2026-04-18T15:29:26.999Z</time></trkpt><trkpt lat="42.09476023537017" lon="12.367506843420193"><ele>300.0</ele><time>2026-04-18T15:29:27.999Z</time></trkpt><trkpt lat="42.09495344693594" lon="12.367477964917873"><ele>301.6666666666667</ele><time>2026-04-18T15:29:28.999Z</time></trkpt><trkpt lat="42.09515844256211" lon="12.36745835186163"><ele>303.33333333333337</ele><time>2026-04-18T15:29:29.998Z</time></trkpt><trkpt lat="42.09536953697388" lon="12.367449476509329"><ele>305.0</ele><time>2026-04-18T15:29:30.998Z</time></trkpt><trkpt lat="42.09558342243143" lon="12.3674564507368"><ele>305.6666666666667</ele><time>2026-04-18T15:29:31.998Z</time></trkpt><trkpt lat="42.095792285115934" lon="12.36747353414227"><ele>306.3333333333333</ele><time>2026-04-18T15:29:32.998Z</time></trkpt><trkpt lat="42.09601831478481" lon="12.367504711952503"><ele>307.0</ele><time>2026-04-18T15:29:33.998Z</time></trkpt><trkpt lat="42.09623972387238" lon="12.36755147221008"><ele>307.0</ele><time>2026-04-18T15:29:34.998Z</time></trkpt><trkpt lat="42.0964749454171" lon="12.36761267047892"><ele>307.0</ele><time>2026-04-18T15:29:35.998Z</time></trkpt><trkpt lat="42.096717586262876" lon="12.367683332933854"><ele>302.0</ele><time>2026-04-18T15:29:36.998Z</time></trkpt><trkpt lat="42.09696104413792" lon="12.367748965608369"><ele>297.0</ele><time>2026-04-18T15:29:37.998Z</time></trkpt><trkpt lat="42.0972121833941" lon="12.367814405052846"><ele>294.5</ele><time>2026-04-18T15:29:38.998Z</time></trkpt><trkpt lat="42.09745581069863" lon="12.367868946215632"><ele>292.0</ele><time>2026-04-18T15:29:39.998Z</time></trkpt><trkpt lat="42.09769872091796" lon="12.367905878403706"><ele>292.0</ele><time>2026-04-18T15:29:40.998Z</time></trkpt><trkpt lat="42.09793687189519" lon="12.367918342058786"><ele>292.0</ele><time>2026-04-18T15:29:41.998Z</time></trkpt><trkpt lat="42.09815814991882" lon="12.367925691935659"><ele>290.0</ele><time>2026-04-18T15:29:42.998Z</time></trkpt><trkpt lat="42.09837999385654" lon="12.367908069626884"><ele>288.0</ele><time>2026-04-18T15:29:43.998Z</time></trkpt><trkpt lat="42.09860270565309" lon="12.367848231218526"><ele>286.0</ele><time>2026-04-18T15:29:44.998Z</time></trkpt><trkpt lat="42.09883582230056" lon="12.367758770582183"><ele>286.0</ele><time>2026-04-18T15:29:45.998Z</time></trkpt><trkpt lat="42.099066571626025" lon="12.367661286163857"><ele>286.0</ele><time>2026-04-18T15:29:46.998Z</time></trkpt><trkpt lat="42.099294310814145" lon="12.36755373337304"><ele>286.3333333333333</ele><time>2026-04-18T15:29:47.998Z</time></trkpt><trkpt lat="42.099504824093756" lon="12.367437484582853"><ele>286.6666666666667</ele><time>2026-04-18T15:29:48.998Z</time></trkpt><trkpt lat="42.09970359068376" lon="12.367313950184386"><ele>287.0</ele><time>2026-04-18T15:29:50Z</time></trkpt><trkpt lat="42.09990723373613" lon="12.367174129644345"><ele>284.5</ele><time>2026-04-18T15:29:51Z</time></trkpt><trkpt lat="42.10011750467739" lon="12.367039967902507"><ele>282.0</ele><time>2026-04-18T15:29:52Z</time></trkpt><trkpt lat="42.10033061883637" lon="12.366904513159602"><ele>282.0</ele><time>2026-04-18T15:29:53Z</time></trkpt><trkpt lat="42.10056673542933" lon="12.366753001780003"><ele>282.0</ele><time>2026-04-18T15:29:54Z</time></trkpt><trkpt lat="42.10080554226025" lon="12.366595996801886"><ele>283.0</ele><time>2026-04-18T15:29:55Z</time></trkpt><trkpt lat="42.10106367273693" lon="12.36643658061205"><ele>284.0</ele><time>2026-04-18T15:29:56Z</time></trkpt><trkpt lat="42.10133278155563" lon="12.366281137456784"><ele>278.5</ele><time>2026-04-18T15:29:57Z</time></trkpt><trkpt lat="42.10161035287206" lon="12.366127634433607"><ele>273.0</ele><time>2026-04-18T15:29:58Z</time></trkpt><trkpt lat="42.101893725491124" lon="12.365968730509037"><ele>273.0</ele><time>2026-04-18T15:29:59Z</time></trkpt><trkpt lat="42.10217906040902" lon="12.365804625426131"><ele>273.0</ele><time>2026-04-18T15:30:00Z</time></trkpt><trkpt lat="42.102465031475695" lon="12.365639216706736"><ele>273.0</ele><time>2026-04-18T15:30:01Z</time></trkpt><trkpt lat="42.102746419354276" lon="12.365482920344697"><ele>273.0</ele><time>2026-04-18T15:30:02Z</time></trkpt><trkpt lat="42.103018080671546" lon="12.365331125868208"><ele>270.5</ele><time>2026-04-18T15:30:03Z</time></trkpt><trkpt lat="42.10329402478652" lon="12.365174679865795"><ele>268.0</ele><time>2026-04-18T15:30:04Z</time></trkpt><trkpt lat="42.10357396533855" lon="12.36501858175467"><ele>268.0</ele><time>2026-04-18T15:30:05Z</time></trkpt><trkpt lat="42.10385539203831" lon="12.364863016362206"><ele>268.0</ele><time>2026-04-18T15:30:06Z</time></trkpt><trkpt lat="42.104130341737935" lon="12.364710154967685"><ele>264.0</ele><time>2026-04-18T15:30:07Z</time></trkpt><trkpt lat="42.10440802747158" lon="12.364555339342658"><ele>260.0</ele><time>2026-04-18T15:30:08Z</time></trkpt><trkpt lat="42.104685614989194" lon="12.364395863522622"><ele>257.5</ele><time>2026-04-18T15:30:09Z</time></trkpt><trkpt lat="42.104951485717926" lon="12.364251198186818"><ele>255.0</ele><time>2026-04-18T15:30:10Z</time></trkpt><trkpt lat="42.105225870852586" lon="12.364119602243717"><ele>255.0</ele><time>2026-04-18T15:30:11Z</time></trkpt><trkpt lat="42.10550709171137" lon="12.364000893360023"><ele>255.0</ele><time>2026-04-18T15:30:12Z</time></trkpt><trkpt lat="42.10579648617322" lon="12.363898923809806"><ele>253.0</ele><time>2026-04-18T15:30:13Z</time></trkpt><trkpt lat="42.106086178655076" lon="12.363817836143788"><ele>251.0</ele><time>2026-04-18T15:30:14Z</time></trkpt><trkpt lat="42.10638265239268" lon="12.363755400935394"><ele>249.0</ele><time>2026-04-18T15:30:15Z</time></trkpt><trkpt lat="42.106683649765216" lon="12.363717496296218"><ele>247.0</ele><time>2026-04-18T15:30:16Z</time></trkpt><trkpt lat="42.10698524258209" lon="12.36371090375132"><ele>247.0</ele><time>2026-04-18T15:30:17Z</time></trkpt><trkpt lat="42.107295022284035" lon="12.36371735732692"><ele>247.0</ele><time>2026-04-18T15:30:18Z</time></trkpt><trkpt lat="42.10761369556802" lon="12.36373277900701"><ele>244.5</ele><time>2026-04-18T15:30:19Z</time></trkpt><trkpt lat="42.107938345400996" lon="12.363742666055273"><ele>242.0</ele><time>2026-04-18T15:30:20Z</time></trkpt><trkpt lat="42.1082646609287" lon="12.363749019254675"><ele>240.5</ele><time>2026-04-18T15:30:21Z</time></trkpt><trkpt lat="42.10859163113012" lon="12.363752718609621"><ele>239.0</ele><time>2026-04-18T15:30:22Z</time></trkpt><trkpt lat="42.10892020651644" lon="12.363758616148361"><ele>237.0</ele><time>2026-04-18T15:30:23Z</time></trkpt><trkpt lat="42.10924437944059" lon="12.363769052273662"><ele>235.0</ele><time>2026-04-18T15:30:24Z</time></trkpt><trkpt lat="42.109570631146106" lon="12.363780148849465"><ele>235.0</ele><time>2026-04-18T15:30:25Z</time></trkpt><trkpt lat="42.10989382450803" lon="12.363787309255052"><ele>235.0</ele><time>2026-04-18T15:30:26Z</time></trkpt><trkpt lat="42.110216869268385" lon="12.363792646767417"><ele>233.5</ele><time>2026-04-18T15:30:27Z</time></trkpt><trkpt lat="42.1105424549304" lon="12.363800694817959"><ele>232.0</ele><time>2026-04-18T15:30:28Z</time></trkpt><trkpt lat="42.11086705635491" lon="12.363804060367904"><ele>229.0</ele><time>2026-04-18T15:30:29Z</time></trkpt><trkpt lat="42.11118898641777" lon="12.363814385957102"><ele>226.0</ele><time>2026-04-18T15:30:30Z</time></trkpt><trkpt lat="42.1115137946017" lon="12.363823593524078"><ele>223.5</ele><time>2026-04-18T15:30:31Z</time></trkpt><trkpt lat="42.11183663066392" lon="12.363830511981023"><ele>221.0</ele><time>2026-04-18T15:30:32Z</time></trkpt><trkpt lat="42.11216023028444" lon="12.363833992134273"><ele>220.0</ele><time>2026-04-18T15:30:33Z</time></trkpt><trkpt lat="42.11248375101999" lon="12.36384023047093"><ele>219.0</ele><time>2026-04-18T15:30:34Z</time></trkpt><trkpt lat="42.112802517533304" lon="12.363850431405156"><ele>219.0</ele><time>2026-04-18T15:30:35Z</time></trkpt><trkpt lat="42.113124071141115" lon="12.363858158357324"><ele>219.0</ele><time>2026-04-18T15:30:36Z</time></trkpt><trkpt lat="42.113444219606976" lon="12.363861046300691"><ele>218.0</ele><time>2026-04-18T15:30:37Z</time></trkpt><trkpt lat="42.11376455812222" lon="12.363864504287118"><ele>217.0</ele><time>2026-04-18T15:30:38Z</time></trkpt><trkpt lat="42.11408397431159" lon="12.36387031162926"><ele>216.0</ele><time>2026-04-18T15:30:39Z</time></trkpt><trkpt lat="42.11440076078901" lon="12.36388377813377"><ele>215.0</ele><time>2026-04-18T15:30:40Z</time></trkpt><trkpt lat="42.11472211272601" lon="12.363891370843549"><ele>214.5</ele><time>2026-04-18T15:30:41Z</time></trkpt><trkpt lat="42.115040091739324" lon="12.363898261888265"><ele>214.0</ele><time>2026-04-18T15:30:42Z</time></trkpt><trkpt lat="42.11536247493444" lon="12.3638984702238"><ele>214.0</ele><time>2026-04-18T15:30:43Z</time></trkpt><trkpt lat="42.115685336078315" lon="12.363901305702882"><ele>214.0</ele><time>2026-04-18T15:30:43.999Z</time></trkpt><trkpt lat="42.11600969008764" lon="12.363911337489078"><ele>213.5</ele><time>2026-04-18T15:30:44.999Z</time></trkpt><trkpt lat="42.11633387191983" lon="12.363923945133077"><ele>213.0</ele><time>2026-04-18T15:30:45.999Z</time></trkpt><trkpt lat="42.11666231309478" lon="12.363930857226208"><ele>212.5</ele><time>2026-04-18T15:30:46.999Z</time></trkpt><trkpt lat="42.11699019598198" lon="12.363933362261541"><ele>212.0</ele><time>2026-04-18T15:30:47.999Z</time></trkpt><trkpt lat="42.117320975587695" lon="12.363935224427216"><ele>212.5</ele><time>2026-04-18T15:30:48.999Z</time></trkpt><trkpt lat="42.11765489725473" lon="12.363933204280217"><ele>213.0</ele><time>2026-04-18T15:30:49.999Z</time></trkpt><trkpt lat="42.11798634943053" lon="12.36392828634393"><ele>213.5</ele><time>2026-04-18T15:30:50.999Z</time></trkpt><trkpt lat="42.11832177482984" lon="12.363932452321164"><ele>214.0</ele><time>2026-04-18T15:30:51.999Z</time></trkpt><trkpt lat="42.118657695168096" lon="12.363939112984102"><ele>214.0</ele><time>2026-04-18T15:30:52.999Z</time></trkpt><trkpt lat="42.11899304764955" lon="12.363950807464441"><ele>214.0</ele><time>2026-04-18T15:30:53.999Z</time></trkpt><trkpt lat="42.11932979946694" lon="12.36395922929341"><ele>214.0</ele><time>2026-04-18T15:30:54.999Z</time></trkpt><trkpt lat="42.119661778000726" lon="12.363968388578018"><ele>214.0</ele><time>2026-04-18T15:30:55.999Z</time></trkpt><trkpt lat="42.11999635057201" lon="12.363981781262845"><ele>216.0</ele><time>2026-04-18T15:30:56.999Z</time></trkpt><trkpt lat="42.12032858156412" lon="12.363998590767725"><ele>218.0</ele><time>2026-04-18T15:30:57.999Z</time></trkpt><trkpt lat="42.12065642796395" lon="12.364018936623276"><ele>217.5</ele><time>2026-04-18T15:30:58.999Z</time></trkpt><trkpt lat="42.12098521635712" lon="12.364030719046742"><ele>217.0</ele><time>2026-04-18T15:30:59.999Z</time></trkpt><trkpt lat="42.12129100382671" lon="12.364044365796895"><ele>218.5</ele><time>2026-04-18T15:31:00.999Z</time></trkpt><trkpt lat="42.121577551718474" lon="12.364051581811228"><ele>220.0</ele><time>2026-04-18T15:31:01.999Z</time></trkpt><trkpt lat="42.121854725876766" lon="12.364037985051965"><ele>220.0</ele><time>2026-04-18T15:31:02.999Z</time></trkpt><trkpt lat="42.12213572694078" lon="12.36399988660453"><ele>220.0</ele><time>2026-04-18T15:31:03.999Z</time></trkpt><trkpt lat="42.12241866737903" lon="12.36394816911028"><ele>220.0</ele><time>2026-04-18T15:31:04.999Z</time></trkpt><trkpt lat="42.122702507735546" lon="12.363884045574972"><ele>220.0</ele><time>2026-04-18T15:31:05.999Z</time></trkpt><trkpt lat="42.12297480837856" lon="12.363797327099684"><ele>221.5</ele><time>2026-04-18T15:31:06.999Z</time></trkpt><trkpt lat="42.12323134109372" lon="12.363688119378999"><ele>223.0</ele><time>2026-04-18T15:31:07.999Z</time></trkpt><trkpt lat="42.12348282991286" lon="12.363565293890609"><ele>223.0</ele><time>2026-04-18T15:31:08.999Z</time></trkpt><trkpt lat="42.12373655477524" lon="12.36343651402674"><ele>223.0</ele><time>2026-04-18T15:31:09.999Z</time></trkpt><trkpt lat="42.123986778578676" lon="12.36330984317935"><ele>225.0</ele><time>2026-04-18T15:31:10.999Z</time></trkpt><trkpt lat="42.1242368294572" lon="12.363184412001017"><ele>227.0</ele><time>2026-04-18T15:31:11.999Z</time></trkpt><trkpt lat="42.12447648766783" lon="12.363061574702025"><ele>227.0</ele><time>2026-04-18T15:31:12.999Z</time></trkpt><trkpt lat="42.12470079346447" lon="12.362949074820067"><ele>227.0</ele><time>2026-04-18T15:31:13.999Z</time></trkpt><trkpt lat="42.12492711751843" lon="12.362837435930135"><ele>227.0</ele><time>2026-04-18T15:31:14.999Z</time></trkpt><trkpt lat="42.125154724818465" lon="12.362720919401536"><ele>227.0</ele><time>2026-04-18T15:31:15.999Z</time></trkpt><trkpt lat="42.12539081709732" lon="12.362599113206207"><ele>227.0</ele><time>2026-04-18T15:31:16.999Z</time></trkpt><trkpt lat="42.125626691478985" lon="12.362471345973834"><ele>227.0</ele><time>2026-04-18T15:31:17.999Z</time></trkpt><trkpt lat="42.12587195476566" lon="12.362343526233275"><ele>227.5</ele><time>2026-04-18T15:31:18.999Z</time></trkpt><trkpt lat="42.1261152969907" lon="12.362219769186838"><ele>228.0</ele><time>2026-04-18T15:31:19.999Z</time></trkpt><trkpt lat="42.12636206197738" lon="12.362086708953324"><ele>228.5</ele><time>2026-04-18T15:31:20.999Z</time></trkpt><trkpt lat="42.126606848858906" lon="12.361947999797799"><ele>229.0</ele><time>2026-04-18T15:31:21.999Z</time></trkpt><trkpt lat="42.12686069327856" lon="12.361782000771207"><ele>229.0</ele><time>2026-04-18T15:31:22.999Z</time></trkpt><trkpt lat="42.127106443149735" lon="12.361590803120412"><ele>229.0</ele><time>2026-04-18T15:31:23.999Z</time></trkpt><trkpt lat="42.1273457692933" lon="12.361378117499852"><ele>228.0</ele><time>2026-04-18T15:31:24.999Z</time></trkpt><trkpt lat="42.12757748713063" lon="12.361147880444648"><ele>227.0</ele><time>2026-04-18T15:31:25.999Z</time></trkpt><trkpt lat="42.127799910592216" lon="12.360900499076086"><ele>227.0</ele><time>2026-04-18T15:31:26.999Z</time></trkpt><trkpt lat="42.12801107839334" lon="12.360626533230398"><ele>227.0</ele><time>2026-04-18T15:31:27.999Z</time></trkpt><trkpt lat="42.1282082539656" lon="12.360335910902222"><ele>228.5</ele><time>2026-04-18T15:31:28.999Z</time></trkpt><trkpt lat="42.12839692607639" lon="12.360025491432793"><ele>230.0</ele><time>2026-04-18T15:31:29.999Z</time></trkpt><trkpt lat="42.12857441848906" lon="12.359699591408733"><ele>230.0</ele><time>2026-04-18T15:31:30.999Z</time></trkpt><trkpt lat="42.12875194799153" lon="12.359365196709016"><ele>230.0</ele><time>2026-04-18T15:31:31.999Z</time></trkpt><trkpt lat="42.12893910621894" lon="12.359031638249395"><ele>232.0</ele><time>2026-04-18T15:31:32.999Z</time></trkpt><trkpt lat="42.12913819744204" lon="12.358718477026638"><ele>234.0</ele><time>2026-04-18T15:31:33.999Z</time></trkpt><trkpt lat="42.12934687475805" lon="12.358416230970903"><ele>234.0</ele><time>2026-04-18T15:31:34.999Z</time></trkpt><trkpt lat="42.129570391636186" lon="12.358131828007968"><ele>234.0</ele><time>2026-04-18T15:31:35.999Z</time></trkpt><trkpt lat="42.12980485436737" lon="12.357867814983853"><ele>236.5</ele><time>2026-04-18T15:31:36.999Z</time></trkpt><trkpt lat="42.13005346884542" lon="12.357625246357784"><ele>239.0</ele><time>2026-04-18T15:31:37.999Z</time></trkpt><trkpt lat="42.130310229670684" lon="12.357402189492646"><ele>237.5</ele><time>2026-04-18T15:31:38.999Z</time></trkpt><trkpt lat="42.13057234317404" lon="12.357192623056951"><ele>236.0</ele><time>2026-04-18T15:31:39.999Z</time></trkpt><trkpt lat="42.13083665982837" lon="12.356985376322633"><ele>239.5</ele><time>2026-04-18T15:31:40.999Z</time></trkpt><trkpt lat="42.131101249442565" lon="12.35678032028581"><ele>243.0</ele><time>2026-04-18T15:31:41.999Z</time></trkpt><trkpt lat="42.13136217144033" lon="12.356574932247897"><ele>247.0</ele><time>2026-04-18T15:31:42.999Z</time></trkpt><trkpt lat="42.13162055306661" lon="12.356371900187993"><ele>251.0</ele><time>2026-04-18T15:31:43.999Z</time></trkpt><trkpt lat="42.131876893133956" lon="12.35617599170363"><ele>251.0</ele><time>2026-04-18T15:31:44.999Z</time></trkpt><trkpt lat="42.132115154252006" lon="12.35599433621616"><ele>251.0</ele><time>2026-04-18T15:31:45.998Z</time></trkpt><trkpt lat="42.13233936555563" lon="12.355819867170457"><ele>254.0</ele><time>2026-04-18T15:31:46.998Z</time></trkpt><trkpt lat="42.13256244710255" lon="12.35564427838059"><ele>257.0</ele><time>2026-04-18T15:31:47.998Z</time></trkpt><trkpt lat="42.13278146706858" lon="12.355470203447506"><ele>259.5</ele><time>2026-04-18T15:31:48.998Z</time></trkpt><trkpt lat="42.13300426469943" lon="12.355295525375128"><ele>262.0</ele><time>2026-04-18T15:31:49.998Z</time></trkpt><trkpt lat="42.13322880107055" lon="12.355124184961912"><ele>263.5</ele><time>2026-04-18T15:31:50.998Z</time></trkpt><trkpt lat="42.133457348266305" lon="12.354952368281829"><ele>265.0</ele><time>2026-04-18T15:31:51.998Z</time></trkpt><trkpt lat="42.13368841265738" lon="12.354774900123795"><ele>267.5</ele><time>2026-04-18T15:31:52.998Z</time></trkpt><trkpt lat="42.13392472568616" lon="12.354590855038998"><ele>270.0</ele><time>2026-04-18T15:31:53.998Z</time></trkpt><trkpt lat="42.134166317263634" lon="12.354408122890307"><ele>270.0</ele><time>2026-04-18T15:31:55Z</time></trkpt><trkpt lat="42.13441147314762" lon="12.354217158113295"><ele>270.0</ele><time>2026-04-18T15:31:56Z</time></trkpt><trkpt lat="42.13465651326782" lon="12.354029316877197"><ele>276.0</ele><time>2026-04-18T15:31:57Z</time></trkpt><trkpt lat="42.134899395074214" lon="12.353847644801284"><ele>282.0</ele><time>2026-04-18T15:31:58Z</time></trkpt><trkpt lat="42.13513945670862" lon="12.353663469796892"><ele>282.0</ele><time>2026-04-18T15:31:59.001Z</time></trkpt><trkpt lat="42.13537904570284" lon="12.353478020890138"><ele>282.0</ele><time>2026-04-18T15:32:00Z</time></trkpt><trkpt lat="42.13562157950341" lon="12.353291200494873"><ele>282.0</ele><time>2026-04-18T15:32:01.001Z</time></trkpt><trkpt lat="42.13586305636024" lon="12.353116373007785"><ele>282.0</ele><time>2026-04-18T15:32:02.001Z</time></trkpt><trkpt lat="42.136107276678906" lon="12.352954344552204"><ele>282.0</ele><time>2026-04-18T15:32:03.001Z</time></trkpt><trkpt lat="42.13635870133593" lon="12.352805397316802"><ele>282.0</ele><time>2026-04-18T15:32:04.001Z</time></trkpt><trkpt lat="42.13661592956121" lon="12.352671696491607"><ele>279.5</ele><time>2026-04-18T15:32:05.001Z</time></trkpt><trkpt lat="42.13688086372409" lon="12.352565755556924"><ele>277.0</ele><time>2026-04-18T15:32:06.001Z</time></trkpt><trkpt lat="42.13716305886048" lon="12.352475990434877"><ele>272.0</ele><time>2026-04-18T15:32:07.001Z</time></trkpt><trkpt lat="42.1374510046" lon="12.35239847846076"><ele>267.0</ele><time>2026-04-18T15:32:08.001Z</time></trkpt><trkpt lat="42.13773690503802" lon="12.352327616180643"><ele>267.0</ele><time>2026-04-18T15:32:09.001Z</time></trkpt><trkpt lat="42.13803040174186" lon="12.352253135659033"><ele>267.0</ele><time>2026-04-18T15:32:10.001Z</time></trkpt><trkpt lat="42.1383257371125" lon="12.352176198464726"><ele>262.0</ele><time>2026-04-18T15:32:11Z</time></trkpt><trkpt lat="42.13862755863204" lon="12.352099149171526"><ele>257.0</ele><time>2026-04-18T15:32:12Z</time></trkpt><trkpt lat="42.138938201426164" lon="12.35201789972386"><ele>253.0</ele><time>2026-04-18T15:32:13Z</time></trkpt><trkpt lat="42.139236708296544" lon="12.351943084326548"><ele>249.0</ele><time>2026-04-18T15:32:14Z</time></trkpt><trkpt lat="42.13951968450019" lon="12.351867077500927"><ele>249.0</ele><time>2026-04-18T15:32:15Z</time></trkpt><trkpt lat="42.13977765382217" lon="12.351799280451765"><ele>249.0</ele><time>2026-04-18T15:32:16Z</time></trkpt><trkpt lat="42.14002441790327" lon="12.35173285797473"><ele>247.0</ele><time>2026-04-18T15:32:17Z</time></trkpt><trkpt lat="42.140265134334605" lon="12.351670370315848"><ele>245.0</ele><time>2026-04-18T15:32:18Z</time></trkpt><trkpt lat="42.14049342133011" lon="12.351618406220075"><ele>244.66666666666669</ele><time>2026-04-18T15:32:19Z</time></trkpt><trkpt lat="42.140719709152094" lon="12.35155738191322"><ele>244.33333333333331</ele><time>2026-04-18T15:32:20Z</time></trkpt><trkpt lat="42.14093421809685" lon="12.351507769610338"><ele>244.0</ele><time>2026-04-18T15:32:21Z</time></trkpt><trkpt lat="42.141142665846594" lon="12.351458314107942"><ele>244.0</ele><time>2026-04-18T15:32:22Z</time></trkpt><trkpt lat="42.14134824409037" lon="12.351404959089255"><ele>244.0</ele><time>2026-04-18T15:32:23Z</time></trkpt><trkpt lat="42.14155176723182" lon="12.351353020914079"><ele>244.0</ele><time>2026-04-18T15:32:24Z</time></trkpt><trkpt lat="42.141754994482746" lon="12.35130385487631"><ele>241.0</ele><time>2026-04-18T15:32:25Z</time></trkpt><trkpt lat="42.141958585673166" lon="12.351250872886471"><ele>238.0</ele><time>2026-04-18T15:32:26Z</time></trkpt><trkpt lat="42.142161451332825" lon="12.35119909675549"><ele>235.0</ele><time>2026-04-18T15:32:27Z</time></trkpt><trkpt lat="42.1423681949568" lon="12.35114541927638"><ele>234.33333333333331</ele><time>2026-04-18T15:32:28Z</time></trkpt><trkpt lat="42.14257438451013" lon="12.35109687652847"><ele>233.66666666666669</ele><time>2026-04-18T15:32:29Z</time></trkpt><trkpt lat="42.14277969241645" lon="12.351043776213725"><ele>233.0</ele><time>2026-04-18T15:32:30Z</time></trkpt><trkpt lat="42.142990262249796" lon="12.350983639333888"><ele>233.0</ele><time>2026-04-18T15:32:31Z</time></trkpt><trkpt lat="42.14319024570274" lon="12.350928134785267"><ele>233.0</ele><time>2026-04-18T15:32:32Z</time></trkpt><trkpt lat="42.14338771495612" lon="12.350879240066282"><ele>233.0</ele><time>2026-04-18T15:32:33Z</time></trkpt><trkpt lat="42.14358805601772" lon="12.350828471184828"><ele>231.0</ele><time>2026-04-18T15:32:34Z</time></trkpt><trkpt lat="42.143777442139324" lon="12.350778885875798"><ele>229.0</ele><time>2026-04-18T15:32:35Z</time></trkpt><trkpt lat="42.14396547088805" lon="12.35072803852974"><ele>227.0</ele><time>2026-04-18T15:32:36Z</time></trkpt><trkpt lat="42.144152522145525" lon="12.350682257721163"><ele>226.33333333333334</ele><time>2026-04-18T15:32:37Z</time></trkpt><trkpt lat="42.144333027662775" lon="12.350637322428465"><ele>225.66666666666669</ele><time>2026-04-18T15:32:38Z</time></trkpt><trkpt lat="42.14451868164286" lon="12.350595630662253"><ele>225.0</ele><time>2026-04-18T15:32:39Z</time></trkpt><trkpt lat="42.144693750954325" lon="12.350551949719492"><ele>224.66666666666669</ele><time>2026-04-18T15:32:40Z</time></trkpt><trkpt lat="42.14487621052949" lon="12.350507190414433"><ele>224.33333333333334</ele><time>2026-04-18T15:32:41Z</time></trkpt><trkpt lat="42.14505231487742" lon="12.35045784806658"><ele>224.0</ele><time>2026-04-18T15:32:42Z</time></trkpt><trkpt lat="42.14523221453073" lon="12.350412072596056"><ele>223.0</ele><time>2026-04-18T15:32:43Z</time></trkpt><trkpt lat="42.145412645973316" lon="12.350371457589675"><ele>222.0</ele><time>2026-04-18T15:32:44Z</time></trkpt><trkpt lat="42.14559642231912" lon="12.350323570608765"><ele>221.0</ele><time>2026-04-18T15:32:45Z</time></trkpt><trkpt lat="42.14578630828664" lon="12.350275881915216"><ele>220.66666666666669</ele><time>2026-04-18T15:32:46Z</time></trkpt><trkpt lat="42.14596847003781" lon="12.35022671349663"><ele>220.33333333333331</ele><time>2026-04-18T15:32:47Z</time></trkpt><trkpt lat="42.14614667615504" lon="12.350179691471745"><ele>220.0</ele><time>2026-04-18T15:32:48Z</time></trkpt><trkpt lat="42.14632167946938" lon="12.350132276091243"><ele>220.0</ele><time>2026-04-18T15:32:49Z</time></trkpt><trkpt lat="42.14649438413325" lon="12.350085152179583"><ele>220.0</ele><time>2026-04-18T15:32:50Z</time></trkpt><trkpt lat="42.146668961964764" lon="12.35003663057822"><ele>220.0</ele><time>2026-04-18T15:32:51Z</time></trkpt><trkpt lat="42.14684988029197" lon="12.349983560345756"><ele>219.33333333333331</ele><time>2026-04-18T15:32:52Z</time></trkpt><trkpt lat="42.1470342018616" lon="12.349932790977478"><ele>218.66666666666669</ele><time>2026-04-18T15:32:53Z</time></trkpt><trkpt lat="42.147234384152505" lon="12.349882267588514"><ele>218.0</ele><time>2026-04-18T15:32:54Z</time></trkpt><trkpt lat="42.14745066650034" lon="12.349845027893037"><ele>217.0</ele><time>2026-04-18T15:32:55Z</time></trkpt><trkpt lat="42.14763217678644" lon="12.349798771739042"><ele>216.0</ele><time>2026-04-18T15:32:56Z</time></trkpt><trkpt lat="42.147891692497815" lon="12.34973139308585"><ele>215.0</ele><time>2026-04-18T15:32:57Z</time></trkpt><trkpt lat="42.14809004373157" lon="12.34967897798304"><ele>214.66666666666669</ele><time>2026-04-18T15:32:58Z</time></trkpt><trkpt lat="42.148295176948" lon="12.34962773168825"><ele>214.33333333333331</ele><time>2026-04-18T15:32:59Z</time></trkpt><trkpt lat="42.1484964106845" lon="12.349577269212663"><ele>214.0</ele><time>2026-04-18T15:33:00Z</time></trkpt><trkpt lat="42.14870138268463" lon="12.349521949459092"><ele>214.0</ele><time>2026-04-18T15:33:01Z</time></trkpt><trkpt lat="42.14891137135439" lon="12.349468054798635"><ele>214.0</ele><time>2026-04-18T15:33:02Z</time></trkpt><trkpt lat="42.14911894126967" lon="12.349423480509179"><ele>214.0</ele><time>2026-04-18T15:33:03Z</time></trkpt><trkpt lat="42.14933440133889" lon="12.349364639010552"><ele>212.0</ele><time>2026-04-18T15:33:04Z</time></trkpt><trkpt lat="42.14955308292125" lon="12.349291919586339"><ele>210.0</ele><time>2026-04-18T15:33:05Z</time></trkpt><trkpt lat="42.14977328302367" lon="12.349213548807139"><ele>209.5</ele><time>2026-04-18T15:33:06Z</time></trkpt><trkpt lat="42.14999265779465" lon="12.349124715569305"><ele>209.0</ele><time>2026-04-18T15:33:07Z</time></trkpt><trkpt lat="42.15021723925278" lon="12.349024159481683"><ele>209.0</ele><time>2026-04-18T15:33:08Z</time></trkpt><trkpt lat="42.15044529874264" lon="12.348913686604906"><ele>209.0</ele><time>2026-04-18T15:33:09Z</time></trkpt><trkpt lat="42.150677983061485" lon="12.348799990499435"><ele>207.5</ele><time>2026-04-18T15:33:09.999Z</time></trkpt><trkpt lat="42.15091277127414" lon="12.348674209153893"><ele>206.0</ele><time>2026-04-18T15:33:10.999Z</time></trkpt><trkpt lat="42.15114036923081" lon="12.348529781720282"><ele>206.0</ele><time>2026-04-18T15:33:11.999Z</time></trkpt><trkpt lat="42.151366352514096" lon="12.34838132047676"><ele>206.0</ele><time>2026-04-18T15:33:12.999Z</time></trkpt><trkpt lat="42.151591240198584" lon="12.348227747136747"><ele>205.0</ele><time>2026-04-18T15:33:13.999Z</time></trkpt><trkpt lat="42.151799191242006" lon="12.348075229439944"><ele>204.0</ele><time>2026-04-18T15:33:14.999Z</time></trkpt><trkpt lat="42.1519886702007" lon="12.347920188907034"><ele>204.0</ele><time>2026-04-18T15:33:15.999Z</time></trkpt><trkpt lat="42.15216731484033" lon="12.347770053757882"><ele>204.0</ele><time>2026-04-18T15:33:16.999Z</time></trkpt><trkpt lat="42.15234160540982" lon="12.347623617132886"><ele>204.0</ele><time>2026-04-18T15:33:17.999Z</time></trkpt><trkpt lat="42.1524946722475" lon="12.347474258096861"><ele>203.66666666666669</ele><time>2026-04-18T15:33:18.999Z</time></trkpt><trkpt lat="42.152649844547476" lon="12.34732629153682"><ele>203.33333333333334</ele><time>2026-04-18T15:33:19.999Z</time></trkpt><trkpt lat="42.15279621533375" lon="12.347182635559736"><ele>203.0</ele><time>2026-04-18T15:33:20.999Z</time></trkpt><trkpt lat="42.15293511667572" lon="12.347037902374701"><ele>203.0</ele><time>2026-04-18T15:33:21.999Z</time></trkpt><trkpt lat="42.153077364237184" lon="12.346881646040512"><ele>203.0</ele><time>2026-04-18T15:33:22.999Z</time></trkpt><trkpt lat="42.15321632778473" lon="12.346724491925134"><ele>203.0</ele><time>2026-04-18T15:33:23.999Z</time></trkpt><trkpt lat="42.1533544880263" lon="12.346567453297"><ele>201.66666666666669</ele><time>2026-04-18T15:33:24.999Z</time></trkpt><trkpt lat="42.15348770744226" lon="12.346415943896588"><ele>200.33333333333331</ele><time>2026-04-18T15:33:25.999Z</time></trkpt><trkpt lat="42.15360919942183" lon="12.346278737691373"><ele>199.0</ele><time>2026-04-18T15:33:26.999Z</time></trkpt><trkpt lat="42.15371534942536" lon="12.346156647392798"><ele>198.79999999999998</ele><time>2026-04-18T15:33:27.999Z</time></trkpt><trkpt lat="42.1538118771519" lon="12.346059747567974"><ele>198.6</ele><time>2026-04-18T15:33:28.999Z</time></trkpt><trkpt lat="42.15389441831724" lon="12.345978954823"><ele>198.4</ele><time>2026-04-18T15:33:29.999Z</time></trkpt><trkpt lat="42.15398085123609" lon="12.345907087260715"><ele>198.2</ele><time>2026-04-18T15:33:30.999Z</time></trkpt><trkpt lat="42.154069658134645" lon="12.345874850563057"><ele>198.0</ele><time>2026-04-18T15:33:31.999Z</time></trkpt><trkpt lat="42.15416851202255" lon="12.345869423719245"><ele>198.0</ele><time>2026-04-18T15:33:32.999Z</time></trkpt><trkpt lat="42.154276061390675" lon="12.34588898188443"><ele>198.0</ele><time>2026-04-18T15:33:33.999Z</time></trkpt><trkpt lat="42.15438241106959" lon="12.345927579393107"><ele>198.0</ele><time>2026-04-18T15:33:34.999Z</time></trkpt><trkpt lat="42.15448152673725" lon="12.345978235693586"><ele>198.0</ele><time>2026-04-18T15:33:35.999Z</time></trkpt><trkpt lat="42.15456381137178" lon="12.346052212918053"><ele>198.0</ele><time>2026-04-18T15:33:36.999Z</time></trkpt><trkpt lat="42.15461959388554" lon="12.346141974629248"><ele>198.0</ele><time>2026-04-18T15:33:37.999Z</time></trkpt><trkpt lat="42.15464880778904" lon="12.346229864554678"><ele>198.0</ele><time>2026-04-18T15:33:38.999Z</time></trkpt><trkpt lat="42.15466658845525" lon="12.34632034196704"><ele>198.0</ele><time>2026-04-18T15:33:39.999Z</time></trkpt><trkpt lat="42.154658930157254" lon="12.346506611584365"><ele>198.0</ele><time>2026-04-18T15:33:41.999Z</time></trkpt><trkpt lat="42.154663595143454" lon="12.346652028698916"><ele>198.0</ele><time>2026-04-18T15:33:42.999Z</time></trkpt><trkpt lat="42.15466383768755" lon="12.346834267398375"><ele>198.66666666666669</ele><time>2026-04-18T15:33:43.999Z</time></trkpt><trkpt lat="42.15466511865088" lon="12.347038684672198"><ele>199.33333333333334</ele><time>2026-04-18T15:33:44.999Z</time></trkpt><trkpt lat="42.154662450623356" lon="12.347251098293848"><ele>200.0</ele><time>2026-04-18T15:33:45.999Z</time></trkpt><trkpt lat="42.15466086329433" lon="12.347480625380864"><ele>200.33333333333334</ele><time>2026-04-18T15:33:46.999Z</time></trkpt><trkpt lat="42.154658010064644" lon="12.347737980111717"><ele>200.66666666666669</ele><time>2026-04-18T15:33:47.999Z</time></trkpt><trkpt lat="42.15465512665602" lon="12.348011090028603"><ele>201.0</ele><time>2026-04-18T15:33:48.999Z</time></trkpt><trkpt lat="42.15465152417774" lon="12.348291597786883"><ele>201.0</ele><time>2026-04-18T15:33:49.999Z</time></trkpt><trkpt lat="42.154648031611174" lon="12.348594134086781"><ele>201.0</ele><time>2026-04-18T15:33:50.999Z</time></trkpt><trkpt lat="42.154642671883465" lon="12.348912932082605"><ele>200.5</ele><time>2026-04-18T15:33:51.999Z</time></trkpt><trkpt lat="42.15463410686833" lon="12.349243466668446"><ele>200.0</ele><time>2026-04-18T15:33:52.999Z</time></trkpt><trkpt lat="42.154630729647394" lon="12.3495856893022"><ele>201.5</ele><time>2026-04-18T15:33:53.999Z</time></trkpt><trkpt lat="42.15462702723911" lon="12.349931348463041"><ele>203.0</ele><time>2026-04-18T15:33:54.999Z</time></trkpt><trkpt lat="42.15462095474765" lon="12.350261032231"><ele>203.5</ele><time>2026-04-18T15:33:55.999Z</time></trkpt><trkpt lat="42.15461751182109" lon="12.350606835806467"><ele>204.0</ele><time>2026-04-18T15:33:56.999Z</time></trkpt><trkpt lat="42.154612907107" lon="12.350944487328821"><ele>204.0</ele><time>2026-04-18T15:33:57.999Z</time></trkpt><trkpt lat="42.15460774770895" lon="12.351281038458303"><ele>204.0</ele><time>2026-04-18T15:33:58.999Z</time></trkpt><trkpt lat="42.15460172510399" lon="12.351615836949449"><ele>204.33333333333331</ele><time>2026-04-18T15:33:59.999Z</time></trkpt><trkpt lat="42.15459760514284" lon="12.351926792012895"><ele>204.66666666666666</ele><time>2026-04-18T15:34:01.001Z</time></trkpt><trkpt lat="42.154591095012705" lon="12.352205278687917"><ele>205.0</ele><time>2026-04-18T15:34:02.001Z</time></trkpt><trkpt lat="42.15458869123348" lon="12.352481969887771"><ele>205.0</ele><time>2026-04-18T15:34:03.001Z</time></trkpt><trkpt lat="42.15458650923624" lon="12.35276971912"><ele>205.0</ele><time>2026-04-18T15:34:04.001Z</time></trkpt><trkpt lat="42.15458353711061" lon="12.353057631748895"><ele>205.0</ele><time>2026-04-18T15:34:05.001Z</time></trkpt><trkpt lat="42.154578646423424" lon="12.353364286870486"><ele>203.5</ele><time>2026-04-18T15:34:06.001Z</time></trkpt><trkpt lat="42.154569555600894" lon="12.353676207269789"><ele>202.0</ele><time>2026-04-18T15:34:07.001Z</time></trkpt><trkpt lat="42.15454986133875" lon="12.35399734111102"><ele>202.0</ele><time>2026-04-18T15:34:08.001Z</time></trkpt><trkpt lat="42.15452615727425" lon="12.354328209737695"><ele>202.0</ele><time>2026-04-18T15:34:09.001Z</time></trkpt><trkpt lat="42.154505610995194" lon="12.35465716881495"><ele>203.0</ele><time>2026-04-18T15:34:10.001Z</time></trkpt><trkpt lat="42.15448014450185" lon="12.354968240320664"><ele>204.0</ele><time>2026-04-18T15:34:11.001Z</time></trkpt><trkpt lat="42.154458012489535" lon="12.355262254736516"><ele>203.0</ele><time>2026-04-18T15:34:12.001Z</time></trkpt><trkpt lat="42.15443427885198" lon="12.355537733601244"><ele>202.0</ele><time>2026-04-18T15:34:13.001Z</time></trkpt><trkpt lat="42.15441605296372" lon="12.35580286963549"><ele>201.0</ele><time>2026-04-18T15:34:14.001Z</time></trkpt><trkpt lat="42.154397789360466" lon="12.35605603380666"><ele>201.0</ele><time>2026-04-18T15:34:15.001Z</time></trkpt><trkpt lat="42.15438724045319" lon="12.35630381320518"><ele>201.0</ele><time>2026-04-18T15:34:16.001Z</time></trkpt><trkpt lat="42.1543758020844" lon="12.356547759351928"><ele>201.0</ele><time>2026-04-18T15:34:17.001Z</time></trkpt><trkpt lat="42.154355546699875" lon="12.356800194734447"><ele>200.66666666666669</ele><time>2026-04-18T15:34:18.001Z</time></trkpt><trkpt lat="42.15433955430264" lon="12.357049134535783"><ele>200.33333333333334</ele><time>2026-04-18T15:34:19.001Z</time></trkpt><trkpt lat="42.154313641515685" lon="12.357310677811528"><ele>200.0</ele><time>2026-04-18T15:34:20.001Z</time></trkpt><trkpt lat="42.15428731761038" lon="12.357573684401407"><ele>199.66666666666669</ele><time>2026-04-18T15:34:21.001Z</time></trkpt><trkpt lat="42.154252360476306" lon="12.357846370441282"><ele>199.33333333333331</ele><time>2026-04-18T15:34:22.001Z</time></trkpt><trkpt lat="42.1542153037523" lon="12.3581292277585"><ele>199.0</ele><time>2026-04-18T15:34:23.001Z</time></trkpt><trkpt lat="42.15417594476848" lon="12.358416777332298"><ele>198.5</ele><time>2026-04-18T15:34:24.001Z</time></trkpt><trkpt lat="42.15414093268029" lon="12.358721721918796"><ele>198.0</ele><time>2026-04-18T15:34:25.001Z</time></trkpt><trkpt lat="42.15408683303315" lon="12.359019727064393"><ele>198.0</ele><time>2026-04-18T15:34:26.001Z</time></trkpt><trkpt lat="42.15404161850805" lon="12.35933253182293"><ele>198.0</ele><time>2026-04-18T15:34:27.001Z</time></trkpt><trkpt lat="42.15400116457345" lon="12.359642837821294"><ele>197.5</ele><time>2026-04-18T15:34:28.001Z</time></trkpt><trkpt lat="42.154068180019905" lon="12.359982268752422"><ele>197.0</ele><time>2026-04-18T15:34:29Z</time></trkpt><trkpt lat="42.15405309041659" lon="12.360298695383461"><ele>200.0</ele><time>2026-04-18T15:34:30Z</time></trkpt><trkpt lat="42.15403654473958" lon="12.360614304749902"><ele>203.0</ele><time>2026-04-18T15:34:31Z</time></trkpt><trkpt lat="42.15401805761628" lon="12.360928111067263"><ele>203.0</ele><time>2026-04-18T15:34:32Z</time></trkpt><trkpt lat="42.15400000018247" lon="12.361244939963433"><ele>203.0</ele><time>2026-04-18T15:34:33Z</time></trkpt><trkpt lat="42.153986495573044" lon="12.361559897528858"><ele>202.0</ele><time>2026-04-18T15:34:34Z</time></trkpt><trkpt lat="42.15397198256821" lon="12.361863476546729"><ele>201.0</ele><time>2026-04-18T15:34:35Z</time></trkpt><trkpt lat="42.153959625066726" lon="12.362145575791427"><ele>200.0</ele><time>2026-04-18T15:34:36Z</time></trkpt><trkpt lat="42.15394524338252" lon="12.36243366175219"><ele>200.0</ele><time>2026-04-18T15:34:37Z</time></trkpt><trkpt lat="42.15393064135762" lon="12.362717036530347"><ele>200.0</ele><time>2026-04-18T15:34:38Z</time></trkpt><trkpt lat="42.15391985894475" lon="12.362999217094767"><ele>200.0</ele><time>2026-04-18T15:34:39Z</time></trkpt><trkpt lat="42.15390826827187" lon="12.36328243078702"><ele>200.0</ele><time>2026-04-18T15:34:40Z</time></trkpt><trkpt lat="42.15389277230795" lon="12.363566621267601"><ele>200.0</ele><time>2026-04-18T15:34:41Z</time></trkpt><trkpt lat="42.1538722904618" lon="12.363859052067513"><ele>200.0</ele><time>2026-04-18T15:34:42Z</time></trkpt><trkpt lat="42.153836848918935" lon="12.364143579961473"><ele>200.33333333333334</ele><time>2026-04-18T15:34:43Z</time></trkpt><trkpt lat="42.15378788054867" lon="12.364433437217476"><ele>200.66666666666669</ele><time>2026-04-18T15:34:44Z</time></trkpt><trkpt lat="42.15372566878931" lon="12.364724635499972"><ele>201.0</ele><time>2026-04-18T15:34:45Z</time></trkpt><trkpt lat="42.153652767624884" lon="12.365024943457046"><ele>201.0</ele><time>2026-04-18T15:34:46Z</time></trkpt><trkpt lat="42.1535767249932" lon="12.365329186400958"><ele>201.0</ele><time>2026-04-18T15:34:47Z</time></trkpt><trkpt lat="42.15349776123758" lon="12.365633447708213"><ele>202.5</ele><time>2026-04-18T15:34:48Z</time></trkpt><trkpt lat="42.15341871352923" lon="12.365935233873419"><ele>204.0</ele><time>2026-04-18T15:34:49Z</time></trkpt><trkpt lat="42.15333843262678" lon="12.366245633019732"><ele>204.5</ele><time>2026-04-18T15:34:50Z</time></trkpt><trkpt lat="42.15325844445716" lon="12.366559079985326"><ele>205.0</ele><time>2026-04-18T15:34:51Z</time></trkpt><trkpt lat="42.15317947268436" lon="12.366872368151014"><ele>205.0</ele><time>2026-04-18T15:34:52Z</time></trkpt><trkpt lat="42.153101064442566" lon="12.367181964557059"><ele>205.0</ele><time>2026-04-18T15:34:53Z</time></trkpt><trkpt lat="42.15302022195821" lon="12.367493355881667"><ele>205.0</ele><time>2026-04-18T15:34:54Z</time></trkpt><trkpt lat="42.15294313077861" lon="12.367791634116385"><ele>205.0</ele><time>2026-04-18T15:34:55Z</time></trkpt><trkpt lat="42.15287374583583" lon="12.368056508394728"><ele>205.0</ele><time>2026-04-18T15:34:56Z</time></trkpt><trkpt lat="42.15280774259656" lon="12.368312283694584"><ele>206.33333333333331</ele><time>2026-04-18T15:34:57Z</time></trkpt><trkpt lat="42.152740635501644" lon="12.368580312170476"><ele>207.66666666666669</ele><time>2026-04-18T15:34:58Z</time></trkpt><trkpt lat="42.15267126518559" lon="12.36885289746292"><ele>209.0</ele><time>2026-04-18T15:34:59Z</time></trkpt><trkpt lat="42.15259968719909" lon="12.369126028066642"><ele>210.5</ele><time>2026-04-18T15:35:00Z</time></trkpt><trkpt lat="42.15252862813697" lon="12.369409484884295"><ele>212.0</ele><time>2026-04-18T15:35:01Z</time></trkpt><trkpt lat="42.15246026420609" lon="12.369708611630948"><ele>212.66666666666669</ele><time>2026-04-18T15:35:02Z</time></trkpt><trkpt lat="42.152387775002154" lon="12.369996407838311"><ele>213.33333333333331</ele><time>2026-04-18T15:35:03Z</time></trkpt><trkpt lat="42.15232132873714" lon="12.370274133198203"><ele>214.0</ele><time>2026-04-18T15:35:04Z</time></trkpt><trkpt lat="42.15224416829624" lon="12.370541644013441"><ele>217.66666666666666</ele><time>2026-04-18T15:35:05Z</time></trkpt><trkpt lat="42.15216049634235" lon="12.37077741241746"><ele>221.33333333333331</ele><time>2026-04-18T15:35:06Z</time></trkpt><trkpt lat="42.15207110016701" lon="12.370965199956265"><ele>225.0</ele><time>2026-04-18T15:35:07Z</time></trkpt><trkpt lat="42.15197518649275" lon="12.371105734424654"><ele>225.0</ele><time>2026-04-18T15:35:08Z</time></trkpt><trkpt lat="42.15186174458817" lon="12.371228590939511"><ele>225.0</ele><time>2026-04-18T15:35:09Z</time></trkpt><trkpt lat="42.15172972191685" lon="12.371314183238391"><ele>225.0</ele><time>2026-04-18T15:35:10Z</time></trkpt><trkpt lat="42.15157791344594" lon="12.371376997074709"><ele>226.0</ele><time>2026-04-18T15:35:11Z</time></trkpt><trkpt lat="42.15142051009554" lon="12.37141506595122"><ele>227.0</ele><time>2026-04-18T15:35:12Z</time></trkpt><trkpt lat="42.151279689478585" lon="12.371452200897556"><ele>228.0</ele><time>2026-04-18T15:35:13Z</time></trkpt><trkpt lat="42.15114872358134" lon="12.371524268367866"><ele>229.0</ele><time>2026-04-18T15:35:14Z</time></trkpt><trkpt lat="42.151026689101265" lon="12.37162212919851"><ele>229.0</ele><time>2026-04-18T15:35:15Z</time></trkpt><trkpt lat="42.15092172977891" lon="12.371750938349825"><ele>229.0</ele><time>2026-04-18T15:35:16Z</time></trkpt><trkpt lat="42.150842988742255" lon="12.371917225592798"><ele>229.0</ele><time>2026-04-18T15:35:17Z</time></trkpt><trkpt lat="42.150790062811005" lon="12.372108271720357"><ele>229.0</ele><time>2026-04-18T15:35:18Z</time></trkpt><trkpt lat="42.15074424749002" lon="12.372308584328565"><ele>232.0</ele><time>2026-04-18T15:35:19Z</time></trkpt><trkpt lat="42.150692960350284" lon="12.372509291293513"><ele>235.0</ele><time>2026-04-18T15:35:20Z</time></trkpt><trkpt lat="42.15064269388247" lon="12.372683098077097"><ele>238.0</ele><time>2026-04-18T15:35:21Z</time></trkpt><trkpt lat="42.1505829222613" lon="12.372821988676773"><ele>241.0</ele><time>2026-04-18T15:35:21.999Z</time></trkpt><trkpt lat="42.15050466072696" lon="12.372928306173165"><ele>241.0</ele><time>2026-04-18T15:35:22.999Z</time></trkpt><trkpt lat="42.15039588374177" lon="12.37300648458422"><ele>241.0</ele><time>2026-04-18T15:35:23.999Z</time></trkpt><trkpt lat="42.15026350181997" lon="12.373056880422718"><ele>241.0</ele><time>2026-04-18T15:35:24.999Z</time></trkpt><trkpt lat="42.15011603512605" lon="12.373071867844777"><ele>241.0</ele><time>2026-04-18T15:35:25.999Z</time></trkpt><trkpt lat="42.149955645715615" lon="12.37308123278464"><ele>240.66666666666666</ele><time>2026-04-18T15:35:26.999Z</time></trkpt><trkpt lat="42.14978829178614" lon="12.37310193948741"><ele>240.33333333333331</ele><time>2026-04-18T15:35:27.999Z</time></trkpt><trkpt lat="42.14961092746646" lon="12.373134308617715"><ele>240.0</ele><time>2026-04-18T15:35:28.999Z</time></trkpt><trkpt lat="42.1494350901378" lon="12.373194942008253"><ele>240.0</ele><time>2026-04-18T15:35:29.999Z</time></trkpt><trkpt lat="42.14926788131158" lon="12.373268467058846"><ele>240.0</ele><time>2026-04-18T15:35:30.999Z</time></trkpt><trkpt lat="42.149126126593536" lon="12.37333962786394"><ele>240.0</ele><time>2026-04-18T15:35:31.999Z</time></trkpt><trkpt lat="42.1489904349809" lon="12.373414860947872"><ele>241.25</ele><time>2026-04-18T15:35:32.999Z</time></trkpt><trkpt lat="42.14887326313541" lon="12.373474582843594"><ele>242.5</ele><time>2026-04-18T15:35:33.999Z</time></trkpt><trkpt lat="42.14875741111614" lon="12.373519186434619"><ele>243.75</ele><time>2026-04-18T15:35:34.999Z</time></trkpt><trkpt lat="42.148639769475935" lon="12.373554258510485"><ele>245.0</ele><time>2026-04-18T15:35:35.999Z</time></trkpt><trkpt lat="42.14851340002049" lon="12.373552497559523"><ele>245.0</ele><time>2026-04-18T15:35:36.999Z</time></trkpt><trkpt lat="42.1483813931181" lon="12.373516620468244"><ele>245.0</ele><time>2026-04-18T15:35:37.999Z</time></trkpt><trkpt lat="42.148248143907" lon="12.37344618609783"><ele>245.0</ele><time>2026-04-18T15:35:38.999Z</time></trkpt><trkpt lat="42.14811142872754" lon="12.373372426264803"><ele>245.0</ele><time>2026-04-18T15:35:39.999Z</time></trkpt><trkpt lat="42.147972107405344" lon="12.373327252894981"><ele>246.0</ele><time>2026-04-18T15:35:40.999Z</time></trkpt><trkpt lat="42.14785435425296" lon="12.373293928682665"><ele>247.0</ele><time>2026-04-18T15:35:41.999Z</time></trkpt><trkpt lat="42.14773325512113" lon="12.373268671267484"><ele>248.0</ele><time>2026-04-18T15:35:42.999Z</time></trkpt><trkpt lat="42.14760849333433" lon="12.373261348288949"><ele>249.0</ele><time>2026-04-18T15:35:43.999Z</time></trkpt><trkpt lat="42.14748034655277" lon="12.373271452462008"><ele>250.0</ele><time>2026-04-18T15:35:44.999Z</time></trkpt><trkpt lat="42.147353417742075" lon="12.373283734934597"><ele>251.0</ele><time>2026-04-18T15:35:45.999Z</time></trkpt><trkpt lat="42.1472420222543" lon="12.373299489070448"><ele>252.0</ele><time>2026-04-18T15:35:46.999Z</time></trkpt><trkpt lat="42.147135744733525" lon="12.373320867720112"><ele>253.0</ele><time>2026-04-18T15:35:47.999Z</time></trkpt><trkpt lat="42.147035747310994" lon="12.373359648693114"><ele>253.0</ele><time>2026-04-18T15:35:48.999Z</time></trkpt><trkpt lat="42.146940078331454" lon="12.373420361260331"><ele>253.0</ele><time>2026-04-18T15:35:49.999Z</time></trkpt><trkpt lat="42.1468406067147" lon="12.373486421141052"><ele>253.0</ele><time>2026-04-18T15:35:50.999Z</time></trkpt><trkpt lat="42.1467400315799" lon="12.373563496473531"><ele>253.0</ele><time>2026-04-18T15:35:51.999Z</time></trkpt><trkpt lat="42.14663498116334" lon="12.373640282921338"><ele>254.5</ele><time>2026-04-18T15:35:52.999Z</time></trkpt><trkpt lat="42.14654051925697" lon="12.373776530928565"><ele>256.0</ele><time>2026-04-18T15:35:53.999Z</time></trkpt><trkpt lat="42.14644025448005" lon="12.373903121435333"><ele>257.5</ele><time>2026-04-18T15:35:54.999Z</time></trkpt><trkpt lat="42.14636088382308" lon="12.374028230321022"><ele>259.0</ele><time>2026-04-18T15:35:55.999Z</time></trkpt><trkpt lat="42.146277432515596" lon="12.374156531554055"><ele>259.5</ele><time>2026-04-18T15:35:56.999Z</time></trkpt><trkpt lat="42.14619261831489" lon="12.374274700519772"><ele>260.0</ele><time>2026-04-18T15:35:57.999Z</time></trkpt><trkpt lat="42.146109218372864" lon="12.374389073271699"><ele>260.5</ele><time>2026-04-18T15:35:58.999Z</time></trkpt><trkpt lat="42.146026045567346" lon="12.374505887279039"><ele>261.0</ele><time>2026-04-18T15:35:59.999Z</time></trkpt><trkpt lat="42.14594039875135" lon="12.374623015563959"><ele>262.75</ele><time>2026-04-18T15:36:00.999Z</time></trkpt><trkpt lat="42.145852754469985" lon="12.374738229969852"><ele>264.5</ele><time>2026-04-18T15:36:01.999Z</time></trkpt><trkpt lat="42.145755454844576" lon="12.37484467722169"><ele>266.25</ele><time>2026-04-18T15:36:02.999Z</time></trkpt><trkpt lat="42.14564722770969" lon="12.374951227360866"><ele>268.0</ele><time>2026-04-18T15:36:03.999Z</time></trkpt><trkpt lat="42.14554595829033" lon="12.375003483089305"><ele>269.25</ele><time>2026-04-18T15:36:04.999Z</time></trkpt><trkpt lat="42.14543645942314" lon="12.375059454629973"><ele>270.5</ele><time>2026-04-18T15:36:05.999Z</time></trkpt><trkpt lat="42.145323109606814" lon="12.375096433392288"><ele>271.75</ele><time>2026-04-18T15:36:07.001Z</time></trkpt><trkpt lat="42.145202540195434" lon="12.375118438194624"><ele>273.0</ele><time>2026-04-18T15:36:08.001Z</time></trkpt><trkpt lat="42.14507797355489" lon="12.375130407073975"><ele>273.0</ele><time>2026-04-18T15:36:09.001Z</time></trkpt><trkpt lat="42.14495217104881" lon="12.37512999146601"><ele>273.0</ele><time>2026-04-18T15:36:10.001Z</time></trkpt><trkpt lat="42.144825840416864" lon="12.375122071260888"><ele>273.0</ele><time>2026-04-18T15:36:11.001Z</time></trkpt><trkpt lat="42.14469525375816" lon="12.375111927252172"><ele>273.0</ele><time>2026-04-18T15:36:12.001Z</time></trkpt><trkpt lat="42.14456887176861" lon="12.375099214927904"><ele>274.25</ele><time>2026-04-18T15:36:13.001Z</time></trkpt><trkpt lat="42.14443774325319" lon="12.375085847136887"><ele>275.5</ele><time>2026-04-18T15:36:14.001Z</time></trkpt><trkpt lat="42.144310033273086" lon="12.375072659137627"><ele>276.75</ele><time>2026-04-18T15:36:15.001Z</time></trkpt><trkpt lat="42.1441773172003" lon="12.375086118284106"><ele>278.0</ele><time>2026-04-18T15:36:16.001Z</time></trkpt><trkpt lat="42.14403954788403" lon="12.3750850435797"><ele>279.25</ele><time>2026-04-18T15:36:17.001Z</time></trkpt><trkpt lat="42.14390288344377" lon="12.375110794852896"><ele>280.5</ele><time>2026-04-18T15:36:18.001Z</time></trkpt><trkpt lat="42.14377593217876" lon="12.375168774407323"><ele>281.75</ele><time>2026-04-18T15:36:19.001Z</time></trkpt><trkpt lat="42.1436523733829" lon="12.375251037146331"><ele>283.0</ele><time>2026-04-18T15:36:20.001Z</time></trkpt><trkpt lat="42.143544448210946" lon="12.375346911686176"><ele>283.0</ele><time>2026-04-18T15:36:21.001Z</time></trkpt><trkpt lat="42.14345844302119" lon="12.37544353747615"><ele>283.0</ele><time>2026-04-18T15:36:22.001Z</time></trkpt><trkpt lat="42.14338898036851" lon="12.37554706655741"><ele>283.0</ele><time>2026-04-18T15:36:23.001Z</time></trkpt><trkpt lat="42.14332739996023" lon="12.375635844778238"><ele>283.0</ele><time>2026-04-18T15:36:24.001Z</time></trkpt><trkpt lat="42.143263654527445" lon="12.375720311239942"><ele>283.0</ele><time>2026-04-18T15:36:25.001Z</time></trkpt><trkpt lat="42.14319393788959" lon="12.375805261664185"><ele>282.6</ele><time>2026-04-18T15:36:26.001Z</time></trkpt><trkpt lat="42.14313155894975" lon="12.37590795065574"><ele>282.20000000000005</ele><time>2026-04-18T15:36:27.001Z</time></trkpt><trkpt lat="42.143040868172584" lon="12.375974445879477"><ele>281.8</ele><time>2026-04-18T15:36:28.001Z</time></trkpt><trkpt lat="42.142938619592265" lon="12.376031775583707"><ele>281.40000000000003</ele><time>2026-04-18T15:36:29.001Z</time></trkpt><trkpt lat="42.142824162545615" lon="12.37606875035727"><ele>281.0</ele><time>2026-04-18T15:36:30.001Z</time></trkpt><trkpt lat="42.14269806790577" lon="12.376092679732876"><ele>281.0</ele><time>2026-04-18T15:36:31.001Z</time></trkpt><trkpt lat="42.14256975003563" lon="12.376089596941117"><ele>281.0</ele><time>2026-04-18T15:36:32.001Z</time></trkpt><trkpt lat="42.14245940841506" lon="12.376083560169509"><ele>281.0</ele><time>2026-04-18T15:36:33.001Z</time></trkpt><trkpt lat="42.1423567948581" lon="12.376076204015686"><ele>281.0</ele><time>2026-04-18T15:36:34Z</time></trkpt><trkpt lat="42.14225634498002" lon="12.376072496596063"><ele>281.0</ele><time>2026-04-18T15:36:35Z</time></trkpt><trkpt lat="42.14215802643976" lon="12.376078893843328"><ele>280.40000000000003</ele><time>2026-04-18T15:36:36Z</time></trkpt><trkpt lat="42.14206237760718" lon="12.376096354646064"><ele>279.8</ele><time>2026-04-18T15:36:37Z</time></trkpt><trkpt lat="42.14196221497551" lon="12.376137022448967"><ele>279.20000000000005</ele><time>2026-04-18T15:36:38Z</time></trkpt><trkpt lat="42.141856844613535" lon="12.376193515212842"><ele>278.6</ele><time>2026-04-18T15:36:39Z</time></trkpt><trkpt lat="42.14175464631869" lon="12.376256547906353"><ele>278.0</ele><time>2026-04-18T15:36:40Z</time></trkpt><trkpt lat="42.141647080010586" lon="12.376324761595313"><ele>277.6</ele><time>2026-04-18T15:36:41Z</time></trkpt><trkpt lat="42.14155340807625" lon="12.376379563099722"><ele>277.20000000000005</ele><time>2026-04-18T15:36:42Z</time></trkpt><trkpt lat="42.141457355088995" lon="12.376436805768751"><ele>276.8</ele><time>2026-04-18T15:36:43Z</time></trkpt><trkpt lat="42.14136366497698" lon="12.376500871079614"><ele>276.40000000000003</ele><time>2026-04-18T15:36:44Z</time></trkpt><trkpt lat="42.141291073702874" lon="12.376567652953323"><ele>276.0</ele><time>2026-04-18T15:36:45Z</time></trkpt><trkpt lat="42.14123868594064" lon="12.3766306506294"><ele>276.0</ele><time>2026-04-18T15:36:46Z</time></trkpt><trkpt lat="42.141189569980874" lon="12.37670552780883"><ele>276.0</ele><time>2026-04-18T15:36:47Z</time></trkpt><trkpt lat="42.14113551917772" lon="12.376807415031676"><ele>276.0</ele><time>2026-04-18T15:36:48Z</time></trkpt><trkpt lat="42.14107995671577" lon="12.3769120860275"><ele>276.0</ele><time>2026-04-18T15:36:49Z</time></trkpt><trkpt lat="42.14103556608313" lon="12.376994038454376"><ele>276.0</ele><time>2026-04-18T15:36:50Z</time></trkpt><trkpt lat="42.140985146161846" lon="12.37713845255781"><ele>275.8333333333333</ele><time>2026-04-18T15:36:52Z</time></trkpt><trkpt lat="42.14096106975626" lon="12.377224797378542"><ele>275.6666666666667</ele><time>2026-04-18T15:36:53Z</time></trkpt><trkpt lat="42.14093030763808" lon="12.37731496065257"><ele>275.5</ele><time>2026-04-18T15:36:54Z</time></trkpt><trkpt lat="42.140901526538165" lon="12.377412722461195"><ele>275.33333333333337</ele><time>2026-04-18T15:36:55Z</time></trkpt><trkpt lat="42.14086644054103" lon="12.377524528944079"><ele>275.1666666666667</ele><time>2026-04-18T15:36:56Z</time></trkpt><trkpt lat="42.140834979880744" lon="12.377639985550294"><ele>275.0</ele><time>2026-04-18T15:36:57Z</time></trkpt><trkpt lat="42.14079209191202" lon="12.37776900323825"><ele>275.0</ele><time>2026-04-18T15:36:58Z</time></trkpt><trkpt lat="42.14076335646694" lon="12.377900071256027"><ele>275.0</ele><time>2026-04-18T15:36:59Z</time></trkpt><trkpt lat="42.140742222980805" lon="12.378037547465846"><ele>275.0</ele><time>2026-04-18T15:37:00Z</time></trkpt><trkpt lat="42.14073645074203" lon="12.37817560866034"><ele>275.0</ele><time>2026-04-18T15:37:01Z</time></trkpt><trkpt lat="42.14072330936381" lon="12.378306121935532"><ele>275.0</ele><time>2026-04-18T15:37:02Z</time></trkpt><trkpt lat="42.14071803922394" lon="12.378437365249546"><ele>275.8</ele><time>2026-04-18T15:37:03Z</time></trkpt><trkpt lat="42.14070135785057" lon="12.378569519713695"><ele>276.6</ele><time>2026-04-18T15:37:04Z</time></trkpt><trkpt lat="42.14068908124058" lon="12.378699247359265"><ele>277.4</ele><time>2026-04-18T15:37:05Z</time></trkpt><trkpt lat="42.14068057775181" lon="12.378828325029348"><ele>278.2</ele><time>2026-04-18T15:37:06Z</time></trkpt><trkpt lat="42.14067563698212" lon="12.378955683610775"><ele>279.0</ele><time>2026-04-18T15:37:07Z</time></trkpt><trkpt lat="42.140666000975095" lon="12.379082870103959"><ele>280.2</ele><time>2026-04-18T15:37:08Z</time></trkpt><trkpt lat="42.14065790484383" lon="12.379208320935863"><ele>281.4</ele><time>2026-04-18T15:37:09Z</time></trkpt><trkpt lat="42.14064672682975" lon="12.379317819347275"><ele>282.6</ele><time>2026-04-18T15:37:10Z</time></trkpt><trkpt lat="42.14063779747501" lon="12.379404353052582"><ele>283.8</ele><time>2026-04-18T15:37:11Z</time></trkpt><trkpt lat="42.14061589677461" lon="12.379558620824305"><ele>285.0</ele><time>2026-04-18T15:37:13Z</time></trkpt><trkpt lat="42.14058429616016" lon="12.3796988680097"><ele>285.0</ele><time>2026-04-18T15:37:15Z</time></trkpt><trkpt lat="42.140563562026045" lon="12.379790121308119"><ele>285.0</ele><time>2026-04-18T15:37:16Z</time></trkpt><trkpt lat="42.14052869287044" lon="12.379895774762215"><ele>285.0</ele><time>2026-04-18T15:37:17Z</time></trkpt><trkpt lat="42.140474258706924" lon="12.3799733639618"><ele>285.0</ele><time>2026-04-18T15:37:18Z</time></trkpt><trkpt lat="42.1404148684445" lon="12.380032251626309"><ele>285.0</ele><time>2026-04-18T15:37:19Z</time></trkpt><trkpt lat="42.14034992945081" lon="12.380076152182497"><ele>285.0</ele><time>2026-04-18T15:37:20Z</time></trkpt><trkpt lat="42.1402753941699" lon="12.38010518126625"><ele>285.0</ele><time>2026-04-18T15:37:21Z</time></trkpt><trkpt lat="42.140199757752676" lon="12.380117713595624"><ele>285.0</ele><time>2026-04-18T15:37:22Z</time></trkpt><trkpt lat="42.1401273250368" lon="12.380125660775786"><ele>285.0</ele><time>2026-04-18T15:37:23Z</time></trkpt><trkpt lat="42.14006008063921" lon="12.380130727214956"><ele>285.0</ele><time>2026-04-18T15:37:24Z</time></trkpt><trkpt lat="42.13990588305071" lon="12.380114094840104"><ele>285.0</ele><time>2026-04-18T15:37:25.999Z</time></trkpt><trkpt lat="42.139822157986515" lon="12.380115460449518"><ele>284.6666666666667</ele><time>2026-04-18T15:37:26.999Z</time></trkpt><trkpt lat="42.1397435996834" lon="12.380131756023717"><ele>284.3333333333333</ele><time>2026-04-18T15:37:27.999Z</time></trkpt><trkpt lat="42.139658604804545" lon="12.380130068152594"><ele>284.0</ele><time>2026-04-18T15:37:28.999Z</time></trkpt><trkpt lat="42.13958077767528" lon="12.380120964630148"><ele>283.66666666666663</ele><time>2026-04-18T15:37:29.999Z</time></trkpt><trkpt lat="42.139509442480424" lon="12.380116583402225"><ele>283.3333333333333</ele><time>2026-04-18T15:37:30.999Z</time></trkpt><trkpt lat="42.13943358142561" lon="12.380110823679713"><ele>283.0</ele><time>2026-04-18T15:37:31.999Z</time></trkpt><trkpt lat="42.1393569212587" lon="12.380104093962125"><ele>283.0</ele><time>2026-04-18T15:37:32.999Z</time></trkpt><trkpt lat="42.13928211541717" lon="12.380095744061391"><ele>283.0</ele><time>2026-04-18T15:37:33.999Z</time></trkpt><trkpt lat="42.13921376707304" lon="12.38008426576767"><ele>283.0</ele><time>2026-04-18T15:37:34.999Z</time></trkpt><trkpt lat="42.13909969342124" lon="12.38006805430268"><ele>283.0</ele><time>2026-04-18T15:37:36.999Z</time></trkpt><trkpt lat="42.13901158463197" lon="12.38006750913743"><ele>283.0</ele><time>2026-04-18T15:37:38.999Z</time></trkpt><trkpt lat="42.13893164474378" lon="12.380125743874304"><ele>283.0</ele><time>2026-04-18T15:37:41.999Z</time></trkpt><trkpt lat="42.13885019486906" lon="12.380158633993943"><ele>283.16666666666663</ele><time>2026-04-18T15:37:43.999Z</time></trkpt><trkpt lat="42.138785209737364" lon="12.380260464968464"><ele>283.3333333333333</ele><time>2026-04-18T15:37:45.999Z</time></trkpt><trkpt lat="42.138740851403085" lon="12.380365616966188"><ele>283.5</ele><time>2026-04-18T15:37:47.999Z</time></trkpt><trkpt lat="42.13867515181845" lon="12.380442806726386"><ele>283.6666666666667</ele><time>2026-04-18T15:37:49.999Z</time></trkpt><trkpt lat="42.13859737381345" lon="12.380494567706373"><ele>283.83333333333337</ele><time>2026-04-18T15:37:52.999Z</time></trkpt><trkpt lat="42.13853032717815" lon="12.380514812117195"><ele>284.0</ele><time>2026-04-18T15:37:54.999Z</time></trkpt><trkpt lat="42.13843969852593" lon="12.380495761588895"><ele>284.0</ele><time>2026-04-18T15:37:56.999Z</time></trkpt><trkpt lat="42.138360873308905" lon="12.380424636999855"><ele>284.0</ele><time>2026-04-18T15:37:58.999Z</time></trkpt><trkpt lat="42.13830392138277" lon="12.38036400656448"><ele>284.0</ele><time>2026-04-18T15:38:00.999Z</time></trkpt><trkpt lat="42.13824995611299" lon="12.380308561798534"><ele>284.0</ele><time>2026-04-18T15:38:02.999Z</time></trkpt><trkpt lat="42.13819936757607" lon="12.380257504145236"><ele>284.0</ele><time>2026-04-18T15:38:04.999Z</time></trkpt><trkpt lat="42.138122124231344" lon="12.380181100274699"><ele>284.0</ele><time>2026-04-18T15:38:06.999Z</time></trkpt><trkpt lat="42.13803096305248" lon="12.380171231706006"><ele>284.0</ele><time>2026-04-18T15:38:08.999Z</time></trkpt><trkpt lat="42.137969677885366" lon="12.38026848745099"><ele>284.0</ele><time>2026-04-18T15:38:10.999Z</time></trkpt><trkpt lat="42.13792590211304" lon="12.380384325430006"><ele>284.0</ele><time>2026-04-18T15:38:13.001Z</time></trkpt><trkpt lat="42.137870490218454" lon="12.380521327583606"><ele>284.0</ele><time>2026-04-18T15:38:15.001Z</time></trkpt><trkpt lat="42.137839497029255" lon="12.38059610964177"><ele>284.0</ele><time>2026-04-18T15:38:16.001Z</time></trkpt><trkpt lat="42.137806030105125" lon="12.380687260718458"><ele>284.0</ele><time>2026-04-18T15:38:17.001Z</time></trkpt><trkpt lat="42.13777416732319" lon="12.380781909480099"><ele>284.2</ele><time>2026-04-18T15:38:18.001Z</time></trkpt><trkpt lat="42.137746790644854" lon="12.380871078727456"><ele>284.4</ele><time>2026-04-18T15:38:19.001Z</time></trkpt><trkpt lat="42.13770300700922" lon="12.381025505104793"><ele>284.6</ele><time>2026-04-18T15:38:21.001Z</time></trkpt><trkpt lat="42.13766395560145" lon="12.381170174291965"><ele>284.8</ele><time>2026-04-18T15:38:23.001Z</time></trkpt><trkpt lat="42.13758503829161" lon="12.381264718810922"><ele>285.0</ele><time>2026-04-18T15:38:25.001Z</time></trkpt><trkpt lat="42.137520174603" lon="12.381265029091479"><ele>285.0</ele><time>2026-04-18T15:38:26.001Z</time></trkpt><trkpt lat="42.13745849207437" lon="12.381284298089476"><ele>285.0</ele><time>2026-04-18T15:38:27.001Z</time></trkpt><trkpt lat="42.13738069903655" lon="12.38130859975713"><ele>285.0</ele><time>2026-04-18T15:38:28.001Z</time></trkpt><trkpt lat="42.13730747404417" lon="12.381324849962049"><ele>285.0</ele><time>2026-04-18T15:38:29.001Z</time></trkpt><trkpt lat="42.1371963303405" lon="12.38135225611331"><ele>285.0</ele><time>2026-04-18T15:38:31.001Z</time></trkpt><trkpt lat="42.13707120261403" lon="12.381390173129398"><ele>285.8333333333333</ele><time>2026-04-18T15:38:33.001Z</time></trkpt><trkpt lat="42.137004679031236" lon="12.381412912634048"><ele>286.6666666666667</ele><time>2026-04-18T15:38:34Z</time></trkpt><trkpt lat="42.13693816801717" lon="12.38143564782163"><ele>287.5</ele><time>2026-04-18T15:38:35Z</time></trkpt><trkpt lat="42.13687275725782" lon="12.381471656885184"><ele>288.33333333333337</ele><time>2026-04-18T15:38:36Z</time></trkpt><trkpt lat="42.1368002301006" lon="12.381486213108202"><ele>289.1666666666667</ele><time>2026-04-18T15:38:37Z</time></trkpt><trkpt lat="42.13668332113544" lon="12.381522691574188"><ele>290.0</ele><time>2026-04-18T15:38:39Z</time></trkpt><trkpt lat="42.136579475730265" lon="12.381544900960158"><ele>291.4</ele><time>2026-04-18T15:38:41Z</time></trkpt><trkpt lat="42.13646637254727" lon="12.381588317809632"><ele>292.8</ele><time>2026-04-18T15:38:43Z</time></trkpt><trkpt lat="42.13638793562319" lon="12.381619305659152"><ele>294.2</ele><time>2026-04-18T15:38:44Z</time></trkpt><trkpt lat="42.136294716626324" lon="12.381656518196907"><ele>295.6</ele><time>2026-04-18T15:38:45Z</time></trkpt><trkpt lat="42.13620234831133" lon="12.38169560677753"><ele>297.0</ele><time>2026-04-18T15:38:46Z</time></trkpt><trkpt lat="42.136090260407215" lon="12.381710420273313"><ele>297.0</ele><time>2026-04-18T15:38:47Z</time></trkpt><trkpt lat="42.13597307817686" lon="12.381750994066207"><ele>297.0</ele><time>2026-04-18T15:38:48Z</time></trkpt><trkpt lat="42.13584675338107" lon="12.381794733281916"><ele>297.0</ele><time>2026-04-18T15:38:49Z</time></trkpt><trkpt lat="42.13574447838345" lon="12.381826543446499"><ele>297.0</ele><time>2026-04-18T15:38:50Z</time></trkpt><trkpt lat="42.1356551227826" lon="12.381875397518575"><ele>299.0</ele><time>2026-04-18T15:38:51Z</time></trkpt><trkpt lat="42.135563008744256" lon="12.381885991821605"><ele>301.0</ele><time>2026-04-18T15:38:52Z</time></trkpt><trkpt lat="42.135469085126296" lon="12.381917706474761"><ele>303.0</ele><time>2026-04-18T15:38:53Z</time></trkpt><trkpt lat="42.13537647788957" lon="12.381953514343932"><ele>305.0</ele><time>2026-04-18T15:38:54Z</time></trkpt><trkpt lat="42.1352713406945" lon="12.381990141708359"><ele>307.0</ele><time>2026-04-18T15:38:55Z</time></trkpt><trkpt lat="42.13516715286138" lon="12.382027197631539"><ele>307.0</ele><time>2026-04-18T15:38:56Z</time></trkpt><trkpt lat="42.1350620806532" lon="12.382050436761759"><ele>307.0</ele><time>2026-04-18T15:38:57Z</time></trkpt><trkpt lat="42.13496212657401" lon="12.382082930291851"><ele>307.0</ele><time>2026-04-18T15:38:58Z</time></trkpt><trkpt lat="42.134859630931885" lon="12.38210068393258"><ele>307.0</ele><time>2026-04-18T15:38:59Z</time></trkpt><trkpt lat="42.134763804997384" lon="12.382129477136788"><ele>307.0</ele><time>2026-04-18T15:39:00Z</time></trkpt><trkpt lat="42.134668942869574" lon="12.38217840047178"><ele>306.0</ele><time>2026-04-18T15:39:01Z</time></trkpt><trkpt lat="42.13456971779257" lon="12.382211290347984"><ele>305.0</ele><time>2026-04-18T15:39:02Z</time></trkpt><trkpt lat="42.13447085496393" lon="12.382243077477245"><ele>304.0</ele><time>2026-04-18T15:39:03Z</time></trkpt><trkpt lat="42.13436576874204" lon="12.382278076045917"><ele>303.0</ele><time>2026-04-18T15:39:04Z</time></trkpt><trkpt lat="42.13426125476641" lon="12.382307014659354"><ele>302.0</ele><time>2026-04-18T15:39:05Z</time></trkpt><trkpt lat="42.13415694068646" lon="12.382342317579884"><ele>304.0</ele><time>2026-04-18T15:39:06Z</time></trkpt><trkpt lat="42.13404487581319" lon="12.382383709722976"><ele>306.0</ele><time>2026-04-18T15:39:07Z</time></trkpt><trkpt lat="42.13393670344086" lon="12.382417023348069"><ele>308.0</ele><time>2026-04-18T15:39:08Z</time></trkpt><trkpt lat="42.13382695910371" lon="12.382457578977299"><ele>310.0</ele><time>2026-04-18T15:39:09Z</time></trkpt><trkpt lat="42.13372080451561" lon="12.382503749820792"><ele>310.0</ele><time>2026-04-18T15:39:10Z</time></trkpt><trkpt lat="42.13361389637608" lon="12.382562284261923"><ele>310.0</ele><time>2026-04-18T15:39:11Z</time></trkpt><trkpt lat="42.13350879842089" lon="12.382637500423627"><ele>310.0</ele><time>2026-04-18T15:39:12Z</time></trkpt><trkpt lat="42.13340067331277" lon="12.382702950513158"><ele>310.0</ele><time>2026-04-18T15:39:13Z</time></trkpt><trkpt lat="42.13329741024568" lon="12.382776264099265"><ele>309.0</ele><time>2026-04-18T15:39:14Z</time></trkpt><trkpt lat="42.133193880159105" lon="12.382845429413736"><ele>308.0</ele><time>2026-04-18T15:39:15Z</time></trkpt><trkpt lat="42.13308998952552" lon="12.382921380604126"><ele>307.0</ele><time>2026-04-18T15:39:16Z</time></trkpt><trkpt lat="42.132979743028095" lon="12.382995373870678"><ele>306.0</ele><time>2026-04-18T15:39:17Z</time></trkpt><trkpt lat="42.132871225754926" lon="12.383062483656596"><ele>306.0</ele><time>2026-04-18T15:39:18Z</time></trkpt><trkpt lat="42.132754951085154" lon="12.383115031352"><ele>306.0</ele><time>2026-04-18T15:39:19Z</time></trkpt><trkpt lat="42.132631333975" lon="12.383149897881996"><ele>306.0</ele><time>2026-04-18T15:39:20Z</time></trkpt><trkpt lat="42.132509950361374" lon="12.383185708648918"><ele>306.0</ele><time>2026-04-18T15:39:21Z</time></trkpt><trkpt lat="42.13238029920557" lon="12.383203559426978"><ele>306.5</ele><time>2026-04-18T15:39:21.999Z</time></trkpt><trkpt lat="42.132263566357565" lon="12.383228789517894"><ele>307.0</ele><time>2026-04-18T15:39:22.999Z</time></trkpt><trkpt lat="42.13214363885496" lon="12.383255868020647"><ele>307.5</ele><time>2026-04-18T15:39:23.999Z</time></trkpt><trkpt lat="42.13202193239788" lon="12.383291555833171"><ele>308.0</ele><time>2026-04-18T15:39:24.999Z</time></trkpt><trkpt lat="42.13189809690862" lon="12.383324400506279"><ele>308.0</ele><time>2026-04-18T15:39:25.999Z</time></trkpt><trkpt lat="42.13176796966563" lon="12.383373819861422"><ele>308.0</ele><time>2026-04-18T15:39:26.999Z</time></trkpt><trkpt lat="42.131650846742055" lon="12.38342569030423"><ele>308.0</ele><time>2026-04-18T15:39:27.999Z</time></trkpt><trkpt lat="42.131533532014636" lon="12.3834804551814"><ele>308.0</ele><time>2026-04-18T15:39:28.999Z</time></trkpt><trkpt lat="42.13142411661787" lon="12.383533831535903"><ele>308.5</ele><time>2026-04-18T15:39:29.999Z</time></trkpt><trkpt lat="42.13130957601991" lon="12.383598237499609"><ele>309.0</ele><time>2026-04-18T15:39:30.999Z</time></trkpt><trkpt lat="42.13119658848233" lon="12.383663171663464"><ele>309.5</ele><time>2026-04-18T15:39:31.999Z</time></trkpt><trkpt lat="42.13107291970777" lon="12.383725411583878"><ele>310.0</ele><time>2026-04-18T15:39:32.999Z</time></trkpt><trkpt lat="42.130974695627565" lon="12.383775272333558"><ele>310.0</ele><time>2026-04-18T15:39:33.999Z</time></trkpt><trkpt lat="42.130876864746746" lon="12.383822595785128"><ele>310.0</ele><time>2026-04-18T15:39:34.999Z</time></trkpt><trkpt lat="42.13079059111923" lon="12.383869630838367"><ele>310.0</ele><time>2026-04-18T15:39:35.999Z</time></trkpt><trkpt lat="42.130718118438764" lon="12.383923162531177"><ele>310.0</ele><time>2026-04-18T15:39:36.999Z</time></trkpt><trkpt lat="42.13064770398398" lon="12.383990500736928"><ele>310.0</ele><time>2026-04-18T15:39:37.999Z</time></trkpt><trkpt lat="42.13059694041451" lon="12.384078763754278"><ele>310.0</ele><time>2026-04-18T15:39:38.999Z</time></trkpt><trkpt lat="42.130571705298955" lon="12.384189369050983"><ele>309.8</ele><time>2026-04-18T15:39:39.999Z</time></trkpt><trkpt lat="42.130592167158646" lon="12.384311711940123"><ele>309.6</ele><time>2026-04-18T15:39:40.999Z</time></trkpt><trkpt lat="42.13065524269423" lon="12.384408125990394"><ele>309.4</ele><time>2026-04-18T15:39:41.999Z</time></trkpt><trkpt lat="42.1307331895733" lon="12.384480897875871"><ele>309.2</ele><time>2026-04-18T15:39:42.999Z</time></trkpt><trkpt lat="42.130825733474275" lon="12.384531006344705"><ele>309.0</ele><time>2026-04-18T15:39:43.999Z</time></trkpt><trkpt lat="42.13092401731339" lon="12.384550310583805"><ele>309.0</ele><time>2026-04-18T15:39:44.999Z</time></trkpt><trkpt lat="42.131017843469124" lon="12.384536832605438"><ele>309.0</ele><time>2026-04-18T15:39:45.999Z</time></trkpt><trkpt lat="42.13111183799276" lon="12.384512802287835"><ele>309.0</ele><time>2026-04-18T15:39:46.999Z</time></trkpt><trkpt lat="42.13120896254224" lon="12.384506584846267"><ele>309.0</ele><time>2026-04-18T15:39:47.999Z</time></trkpt><trkpt lat="42.13130440309372" lon="12.38450860849564"><ele>309.0</ele><time>2026-04-18T15:39:48.999Z</time></trkpt><trkpt lat="42.131397185355084" lon="12.384510677824604"><ele>309.0</ele><time>2026-04-18T15:39:49.999Z</time></trkpt><trkpt lat="42.13149266331137" lon="12.384525711526543"><ele>309.0</ele><time>2026-04-18T15:39:50.999Z</time></trkpt><trkpt lat="42.13159266848937" lon="12.384546495111854"><ele>309.0</ele><time>2026-04-18T15:39:51.999Z</time></trkpt><trkpt lat="42.131689305894454" lon="12.384571357548632"><ele>309.0</ele><time>2026-04-18T15:39:52.999Z</time></trkpt><trkpt lat="42.13178438346591" lon="12.384599510925163"><ele>309.0</ele><time>2026-04-18T15:39:53.999Z</time></trkpt><trkpt lat="42.13188524943701" lon="12.384639146772653"><ele>311.6</ele><time>2026-04-18T15:39:54.999Z</time></trkpt><trkpt lat="42.13198582341892" lon="12.384683243130265"><ele>314.2</ele><time>2026-04-18T15:39:55.999Z</time></trkpt><trkpt lat="42.13209699751316" lon="12.384724565015647"><ele>316.8</ele><time>2026-04-18T15:39:56.999Z</time></trkpt><trkpt lat="42.132200842157275" lon="12.384769601675714"><ele>319.40000000000003</ele><time>2026-04-18T15:39:57.999Z</time></trkpt><trkpt lat="42.13228948807039" lon="12.384801541142275"><ele>322.0</ele><time>2026-04-18T15:39:58.999Z</time></trkpt><trkpt lat="42.13236187675726" lon="12.384832556107902"><ele>322.0</ele><time>2026-04-18T15:39:59.999Z</time></trkpt><trkpt lat="42.13242791016263" lon="12.384902106581212"><ele>322.0</ele><time>2026-04-18T15:40:00.999Z</time></trkpt><trkpt lat="42.13246947168684" lon="12.3849938472984"><ele>322.0</ele><time>2026-04-18T15:40:01.999Z</time></trkpt><trkpt lat="42.13248019861867" lon="12.385110354914437"><ele>322.0</ele><time>2026-04-18T15:40:02.999Z</time></trkpt><trkpt lat="42.132453789756525" lon="12.385216911905635"><ele>322.0</ele><time>2026-04-18T15:40:03.999Z</time></trkpt><trkpt lat="42.132396802298395" lon="12.385309641636157"><ele>322.0</ele><time>2026-04-18T15:40:04.999Z</time></trkpt><trkpt lat="42.13231497703832" lon="12.385382956040525"><ele>322.0</ele><time>2026-04-18T15:40:05.999Z</time></trkpt><trkpt lat="42.13221561202782" lon="12.385444350848754"><ele>322.0</ele><time>2026-04-18T15:40:06.999Z</time></trkpt><trkpt lat="42.13208002155867" lon="12.385472822405175"><ele>322.0</ele><time>2026-04-18T15:40:07.999Z</time></trkpt><trkpt lat="42.131926512114426" lon="12.385528705456306"><ele>322.0</ele><time>2026-04-18T15:40:08.999Z</time></trkpt><trkpt lat="42.13176164407367" lon="12.385588256409449"><ele>321.66666666666663</ele><time>2026-04-18T15:40:09.999Z</time></trkpt><trkpt lat="42.1315886726155" lon="12.385663909999593"><ele>321.3333333333333</ele><time>2026-04-18T15:40:10.999Z</time></trkpt><trkpt lat="42.13140519372792" lon="12.385736733381426"><ele>321.0</ele><time>2026-04-18T15:40:11.999Z</time></trkpt><trkpt lat="42.1312180892822" lon="12.385832838283902"><ele>323.6666666666667</ele><time>2026-04-18T15:40:12.999Z</time></trkpt><trkpt lat="42.13103188870873" lon="12.38593854459297"><ele>326.33333333333337</ele><time>2026-04-18T15:40:13.999Z</time></trkpt><trkpt lat="42.130851173176865" lon="12.386057638505612"><ele>329.0</ele><time>2026-04-18T15:40:14.998Z</time></trkpt><trkpt lat="42.13065417863459" lon="12.386179115792839"><ele>329.6666666666667</ele><time>2026-04-18T15:40:15.998Z</time></trkpt><trkpt lat="42.13047394870605" lon="12.38629648095178"><ele>330.3333333333333</ele><time>2026-04-18T15:40:16.998Z</time></trkpt><trkpt lat="42.13029358100201" lon="12.386408294344655"><ele>331.0</ele><time>2026-04-18T15:40:17.998Z</time></trkpt><trkpt lat="42.13011123293407" lon="12.386501834979505"><ele>331.66666666666663</ele><time>2026-04-18T15:40:19.001Z</time></trkpt><trkpt lat="42.129921289175265" lon="12.386569519231935"><ele>332.3333333333333</ele><time>2026-04-18T15:40:20.001Z</time></trkpt><trkpt lat="42.12975776195244" lon="12.386629839787402"><ele>333.0</ele><time>2026-04-18T15:40:21.001Z</time></trkpt><trkpt lat="42.129616523583756" lon="12.386694220974393"><ele>335.5</ele><time>2026-04-18T15:40:22.001Z</time></trkpt><trkpt lat="42.129483867493676" lon="12.386764419144003"><ele>338.0</ele><time>2026-04-18T15:40:23.001Z</time></trkpt><trkpt lat="42.12935279404901" lon="12.386855361314543"><ele>340.5</ele><time>2026-04-18T15:40:24.001Z</time></trkpt><trkpt lat="42.12924221550693" lon="12.386950871888974"><ele>343.0</ele><time>2026-04-18T15:40:25.001Z</time></trkpt><trkpt lat="42.12914348264342" lon="12.387059579421601"><ele>346.75</ele><time>2026-04-18T15:40:26.001Z</time></trkpt><trkpt lat="42.12905915010974" lon="12.387184632301972"><ele>350.5</ele><time>2026-04-18T15:40:27.001Z</time></trkpt><trkpt lat="42.12900663044095" lon="12.387319205349906"><ele>354.25</ele><time>2026-04-18T15:40:28.001Z</time></trkpt><trkpt lat="42.12897674275509" lon="12.387466819953987"><ele>358.0</ele><time>2026-04-18T15:40:29.001Z</time></trkpt><trkpt lat="42.128960234385836" lon="12.387625316660317"><ele>358.0</ele><time>2026-04-18T15:40:30.001Z</time></trkpt><trkpt lat="42.128944940984205" lon="12.387788764385613"><ele>358.0</ele><time>2026-04-18T15:40:31.001Z</time></trkpt><trkpt lat="42.128954244701085" lon="12.38797184466638"><ele>358.0</ele><time>2026-04-18T15:40:32.001Z</time></trkpt><trkpt lat="42.128964326503066" lon="12.388166395288454"><ele>358.0</ele><time>2026-04-18T15:40:33.001Z</time></trkpt><trkpt lat="42.12899075689511" lon="12.388375594143143"><ele>356.66666666666663</ele><time>2026-04-18T15:40:34Z</time></trkpt><trkpt lat="42.12902979770198" lon="12.388589958202365"><ele>355.3333333333333</ele><time>2026-04-18T15:40:35Z</time></trkpt><trkpt lat="42.12907463906917" lon="12.388808037899034"><ele>354.0</ele><time>2026-04-18T15:40:36Z</time></trkpt><trkpt lat="42.129125721849036" lon="12.38902244323078"><ele>354.0</ele><time>2026-04-18T15:40:37Z</time></trkpt><trkpt lat="42.12918046308422" lon="12.38920143331124"><ele>354.0</ele><time>2026-04-18T15:40:38Z</time></trkpt><trkpt lat="42.129228015866936" lon="12.389351212825037"><ele>354.0</ele><time>2026-04-18T15:40:39Z</time></trkpt><trkpt lat="42.12927679090362" lon="12.389502873829372"><ele>354.0</ele><time>2026-04-18T15:40:40Z</time></trkpt><trkpt lat="42.12932052019761" lon="12.389660292913883"><ele>354.25</ele><time>2026-04-18T15:40:41Z</time></trkpt><trkpt lat="42.129361447085515" lon="12.389830694401569"><ele>354.5</ele><time>2026-04-18T15:40:42Z</time></trkpt><trkpt lat="42.12940429691734" lon="12.38999103798842"><ele>354.75</ele><time>2026-04-18T15:40:43Z</time></trkpt><trkpt lat="42.1294411858349" lon="12.39017702884963"><ele>355.0</ele><time>2026-04-18T15:40:44Z</time></trkpt><trkpt lat="42.12945912419336" lon="12.390378255347697"><ele>352.66666666666663</ele><time>2026-04-18T15:40:45Z</time></trkpt><trkpt lat="42.12945662729584" lon="12.390598297922942"><ele>350.3333333333333</ele><time>2026-04-18T15:40:46Z</time></trkpt><trkpt lat="42.12943665526694" lon="12.39082749739675"><ele>348.0</ele><time>2026-04-18T15:40:47Z</time></trkpt><trkpt lat="42.12941136376019" lon="12.39106739263622"><ele>348.0</ele><time>2026-04-18T15:40:48Z</time></trkpt><trkpt lat="42.129394929979135" lon="12.391316208966206"><ele>348.0</ele><time>2026-04-18T15:40:49Z</time></trkpt><trkpt lat="42.12939193757949" lon="12.391589556904696"><ele>348.0</ele><time>2026-04-18T15:40:50Z</time></trkpt><trkpt lat="42.129392539853" lon="12.391866139658699"><ele>346.6666666666667</ele><time>2026-04-18T15:40:51Z</time></trkpt><trkpt lat="42.1293898553865" lon="12.392148930439536"><ele>345.33333333333337</ele><time>2026-04-18T15:40:52Z</time></trkpt><trkpt lat="42.12939416379725" lon="12.392413060310288"><ele>344.0</ele><time>2026-04-18T15:40:53Z</time></trkpt><trkpt lat="42.12939299677528" lon="12.392667253071773"><ele>343.6666666666667</ele><time>2026-04-18T15:40:54Z</time></trkpt><trkpt lat="42.12939327374318" lon="12.392914088701525"><ele>343.3333333333333</ele><time>2026-04-18T15:40:55Z</time></trkpt><trkpt lat="42.129399648333425" lon="12.393122118224786"><ele>343.0</ele><time>2026-04-18T15:40:56Z</time></trkpt><trkpt lat="42.12942698835862" lon="12.393302306463282"><ele>343.25</ele><time>2026-04-18T15:40:57Z</time></trkpt><trkpt lat="42.12948032843474" lon="12.393472330034964"><ele>343.5</ele><time>2026-04-18T15:40:58Z</time></trkpt><trkpt lat="42.129558684478916" lon="12.39362651380796"><ele>343.75</ele><time>2026-04-18T15:40:59Z</time></trkpt><trkpt lat="42.12966422178508" lon="12.393756748174297"><ele>344.0</ele><time>2026-04-18T15:41:00Z</time></trkpt><trkpt lat="42.129792997344964" lon="12.393870459754686"><ele>345.33333333333337</ele><time>2026-04-18T15:41:01Z</time></trkpt><trkpt lat="42.12993638606945" lon="12.393974763003314"><ele>346.6666666666667</ele><time>2026-04-18T15:41:02Z</time></trkpt><trkpt lat="42.13010596414533" lon="12.39407576844912"><ele>348.0</ele><time>2026-04-18T15:41:03Z</time></trkpt><trkpt lat="42.13028001010423" lon="12.394173922086155"><ele>348.0</ele><time>2026-04-18T15:41:04Z</time></trkpt><trkpt lat="42.13044874054837" lon="12.394249415188275"><ele>348.0</ele><time>2026-04-18T15:41:05Z</time></trkpt><trkpt lat="42.130599690649426" lon="12.394322315934156"><ele>348.0</ele><time>2026-04-18T15:41:06Z</time></trkpt><trkpt lat="42.13074252088945" lon="12.394395678568104"><ele>347.75</ele><time>2026-04-18T15:41:07Z</time></trkpt><trkpt lat="42.13086284770828" lon="12.394479002442939"><ele>347.5</ele><time>2026-04-18T15:41:08Z</time></trkpt><trkpt lat="42.13097286613458" lon="12.394594802136817"><ele>347.25</ele><time>2026-04-18T15:41:09Z</time></trkpt><trkpt lat="42.13106917365898" lon="12.394737284790525"><ele>347.0</ele><time>2026-04-18T15:41:10Z</time></trkpt><trkpt lat="42.13113922152676" lon="12.39492611503663"><ele>347.0</ele><time>2026-04-18T15:41:11Z</time></trkpt><trkpt lat="42.13123738601566" lon="12.395108135066636"><ele>347.0</ele><time>2026-04-18T15:41:12Z</time></trkpt><trkpt lat="42.13131603683925" lon="12.395307073508787"><ele>347.0</ele><time>2026-04-18T15:41:13Z</time></trkpt><trkpt lat="42.13139390860327" lon="12.395503414585402"><ele>347.0</ele><time>2026-04-18T15:41:14Z</time></trkpt><trkpt lat="42.131464012624726" lon="12.395672678572911"><ele>347.0</ele><time>2026-04-18T15:41:15Z</time></trkpt><trkpt lat="42.131532314002634" lon="12.39581737236852"><ele>347.0</ele><time>2026-04-18T15:41:16Z</time></trkpt><trkpt lat="42.131611450864064" lon="12.395948128854336"><ele>347.0</ele><time>2026-04-18T15:41:17Z</time></trkpt><trkpt lat="42.131702996975875" lon="12.396074896903928"><ele>347.33333333333337</ele><time>2026-04-18T15:41:18Z</time></trkpt><trkpt lat="42.1318080620479" lon="12.396207298798522"><ele>347.6666666666667</ele><time>2026-04-18T15:41:19Z</time></trkpt><trkpt lat="42.131922232471375" lon="12.396340747626354"><ele>348.0</ele><time>2026-04-18T15:41:20Z</time></trkpt><trkpt lat="42.132038512908174" lon="12.396488023642616"><ele>348.0</ele><time>2026-04-18T15:41:21Z</time></trkpt><trkpt lat="42.13215892090467" lon="12.396645526840896"><ele>348.0</ele><time>2026-04-18T15:41:22Z</time></trkpt><trkpt lat="42.13227871636994" lon="12.396787555505327"><ele>348.0</ele><time>2026-04-18T15:41:23Z</time></trkpt><trkpt lat="42.13239533640265" lon="12.396914103569785"><ele>348.75</ele><time>2026-04-18T15:41:23.999Z</time></trkpt><trkpt lat="42.132510399438466" lon="12.397050824593652"><ele>349.5</ele><time>2026-04-18T15:41:24.999Z</time></trkpt><trkpt lat="42.13260360022301" lon="12.397195432934605"><ele>350.25</ele><time>2026-04-18T15:41:25.999Z</time></trkpt><trkpt lat="42.13266716105368" lon="12.397343398798167"><ele>351.0</ele><time>2026-04-18T15:41:26.999Z</time></trkpt><trkpt lat="42.132697712634254" lon="12.397501003350543"><ele>351.0</ele><time>2026-04-18T15:41:27.999Z</time></trkpt><trkpt lat="42.132699328316086" lon="12.397656056449975"><ele>351.0</ele><time>2026-04-18T15:41:28.999Z</time></trkpt><trkpt lat="42.132673648849845" lon="12.397849182851852"><ele>351.0</ele><time>2026-04-18T15:41:29.999Z</time></trkpt><trkpt lat="42.132626790036404" lon="12.398034702571236"><ele>351.0</ele><time>2026-04-18T15:41:30.999Z</time></trkpt><trkpt lat="42.13256389253802" lon="12.398195547260391"><ele>350.8</ele><time>2026-04-18T15:41:31.999Z</time></trkpt><trkpt lat="42.13251183503658" lon="12.398326784660771"><ele>350.6</ele><time>2026-04-18T15:41:32.999Z</time></trkpt><trkpt lat="42.13248219102053" lon="12.398449456425697"><ele>350.4</ele><time>2026-04-18T15:41:33.999Z</time></trkpt><trkpt lat="42.13246980496947" lon="12.398577698180974"><ele>350.2</ele><time>2026-04-18T15:41:34.999Z</time></trkpt><trkpt lat="42.132488824383294" lon="12.398712715677542"><ele>350.0</ele><time>2026-04-18T15:41:35.999Z</time></trkpt><trkpt lat="42.13254882127644" lon="12.39884166681671"><ele>350.0</ele><time>2026-04-18T15:41:36.999Z</time></trkpt><trkpt lat="42.13263882742898" lon="12.398957922937607"><ele>350.0</ele><time>2026-04-18T15:41:37.999Z</time></trkpt><trkpt lat="42.13274088406805" lon="12.399066433607363"><ele>350.0</ele><time>2026-04-18T15:41:38.999Z</time></trkpt><trkpt lat="42.13281306335101" lon="12.399176377912521"><ele>350.0</ele><time>2026-04-18T15:41:39.999Z</time></trkpt><trkpt lat="42.13285954416786" lon="12.399297860076285"><ele>350.0</ele><time>2026-04-18T15:41:40.999Z</time></trkpt><trkpt lat="42.13288384166702" lon="12.399430782408592"><ele>350.0</ele><time>2026-04-18T15:41:41.999Z</time></trkpt><trkpt lat="42.13287679626676" lon="12.399579454346393"><ele>350.0</ele><time>2026-04-18T15:41:42.999Z</time></trkpt><trkpt lat="42.13284288359141" lon="12.399731441491925"><ele>350.0</ele><time>2026-04-18T15:41:43.999Z</time></trkpt><trkpt lat="42.13282590219739" lon="12.399869694875264"><ele>350.0</ele><time>2026-04-18T15:41:44.999Z</time></trkpt><trkpt lat="42.13285845880924" lon="12.399998031452002"><ele>349.75</ele><time>2026-04-18T15:41:45.999Z</time></trkpt><trkpt lat="42.13292486388319" lon="12.400117416900795"><ele>349.5</ele><time>2026-04-18T15:41:46.999Z</time></trkpt><trkpt lat="42.133007397429026" lon="12.400225727264596"><ele>349.25</ele><time>2026-04-18T15:41:47.999Z</time></trkpt><trkpt lat="42.13313830283688" lon="12.400274041005824"><ele>349.0</ele><time>2026-04-18T15:41:48.999Z</time></trkpt><trkpt lat="42.13326839198769" lon="12.400235791170276"><ele>349.0</ele><time>2026-04-18T15:41:50.999Z</time></trkpt><trkpt lat="42.13341031789831" lon="12.400165381385806"><ele>349.0</ele><time>2026-04-18T15:41:51.999Z</time></trkpt><trkpt lat="42.1335641223106" lon="12.400104105540589"><ele>349.0</ele><time>2026-04-18T15:41:52.999Z</time></trkpt><trkpt lat="42.133700978631616" lon="12.400041313415608"><ele>349.0</ele><time>2026-04-18T15:41:53.999Z</time></trkpt><trkpt lat="42.133810507132104" lon="12.399993963888027"><ele>349.0</ele><time>2026-04-18T15:41:54.999Z</time></trkpt><trkpt lat="42.13391188440573" lon="12.399951901213084"><ele>349.0</ele><time>2026-04-18T15:41:55.999Z</time></trkpt><trkpt lat="42.13401726495566" lon="12.399954627053406"><ele>349.0</ele><time>2026-04-18T15:41:56.999Z</time></trkpt><trkpt lat="42.13410455669112" lon="12.400027513668846"><ele>349.0</ele><time>2026-04-18T15:41:57.999Z</time></trkpt><trkpt lat="42.13417683048638" lon="12.400123135099367"><ele>347.5</ele><time>2026-04-18T15:41:58.999Z</time></trkpt><trkpt lat="42.134251577512686" lon="12.40025959050842"><ele>346.0</ele><time>2026-04-18T15:41:59.999Z</time></trkpt><trkpt lat="42.134341902563506" lon="12.400404617060538"><ele>344.5</ele><time>2026-04-18T15:42:00.999Z</time></trkpt><trkpt lat="42.134440615406525" lon="12.400523379718308"><ele>343.0</ele><time>2026-04-18T15:42:01.999Z</time></trkpt><trkpt lat="42.13455331475561" lon="12.400613494252656"><ele>343.0</ele><time>2026-04-18T15:42:02.999Z</time></trkpt><trkpt lat="42.13468081177527" lon="12.400688327416507"><ele>343.0</ele><time>2026-04-18T15:42:03.999Z</time></trkpt><trkpt lat="42.134829871723184" lon="12.400720781401269"><ele>343.0</ele><time>2026-04-18T15:42:04.999Z</time></trkpt><trkpt lat="42.13497200871207" lon="12.400741760191755"><ele>343.0</ele><time>2026-04-18T15:42:05.999Z</time></trkpt><trkpt lat="42.13510016962164" lon="12.400813765532376"><ele>342.75</ele><time>2026-04-18T15:42:06.999Z</time></trkpt><trkpt lat="42.13523440488337" lon="12.400902328229545"><ele>342.5</ele><time>2026-04-18T15:42:07.999Z</time></trkpt><trkpt lat="42.13535523662554" lon="12.400973292902215"><ele>342.25</ele><time>2026-04-18T15:42:08.999Z</time></trkpt><trkpt lat="42.135448472078735" lon="12.401070302464126"><ele>342.0</ele><time>2026-04-18T15:42:09.999Z</time></trkpt><trkpt lat="42.13553612411552" lon="12.401173774352934"><ele>342.0</ele><time>2026-04-18T15:42:10.999Z</time></trkpt><trkpt lat="42.13560740357935" lon="12.401312371423893"><ele>342.0</ele><time>2026-04-18T15:42:11.999Z</time></trkpt><trkpt lat="42.13564861137618" lon="12.401455633069794"><ele>342.0</ele><time>2026-04-18T15:42:12.999Z</time></trkpt><trkpt lat="42.13566324405915" lon="12.401608615631734"><ele>342.0</ele><time>2026-04-18T15:42:13.999Z</time></trkpt><trkpt lat="42.135639539132114" lon="12.401763043884145"><ele>343.25</ele><time>2026-04-18T15:42:14.999Z</time></trkpt><trkpt lat="42.13559850170772" lon="12.401895792823028"><ele>344.5</ele><time>2026-04-18T15:42:15.998Z</time></trkpt><trkpt lat="42.13553878912961" lon="12.402009073505969"><ele>345.75</ele><time>2026-04-18T15:42:16.998Z</time></trkpt><trkpt lat="42.135447188796704" lon="12.402112533498551"><ele>347.0</ele><time>2026-04-18T15:42:17.998Z</time></trkpt><trkpt lat="42.13532970964749" lon="12.402225638845891"><ele>344.5</ele><time>2026-04-18T15:42:18.998Z</time></trkpt><trkpt lat="42.135199136147875" lon="12.402353582475982"><ele>342.0</ele><time>2026-04-18T15:42:19.998Z</time></trkpt><trkpt lat="42.135087762679646" lon="12.402472730206895"><ele>339.5</ele><time>2026-04-18T15:42:20.998Z</time></trkpt><trkpt lat="42.134997396137535" lon="12.402591288642888"><ele>337.0</ele><time>2026-04-18T15:42:21.998Z</time></trkpt><trkpt lat="42.13494519519956" lon="12.402742029312328"><ele>337.0</ele><time>2026-04-18T15:42:22.998Z</time></trkpt><trkpt lat="42.134934964894335" lon="12.402914588415216"><ele>337.0</ele><time>2026-04-18T15:42:24.001Z</time></trkpt><trkpt lat="42.134931949924926" lon="12.403103611596022"><ele>337.0</ele><time>2026-04-18T15:42:25.001Z</time></trkpt><trkpt lat="42.13491345172274" lon="12.403305963626849"><ele>337.0</ele><time>2026-04-18T15:42:26.001Z</time></trkpt><trkpt lat="42.13489486677024" lon="12.403509264935913"><ele>336.0</ele><time>2026-04-18T15:42:27.001Z</time></trkpt><trkpt lat="42.13506215307366" lon="12.403758854039879"><ele>335.0</ele><time>2026-04-18T15:42:28.001Z</time></trkpt><trkpt lat="42.13507295203379" lon="12.403976595114322"><ele>334.0</ele><time>2026-04-18T15:42:29.001Z</time></trkpt><trkpt lat="42.13507861270033" lon="12.404163468646466"><ele>334.0</ele><time>2026-04-18T15:42:30.001Z</time></trkpt><trkpt lat="42.135071001063956" lon="12.404326993938163"><ele>334.0</ele><time>2026-04-18T15:42:31.001Z</time></trkpt><trkpt lat="42.135040857805386" lon="12.40448608711274"><ele>334.0</ele><time>2026-04-18T15:42:32.001Z</time></trkpt><trkpt lat="42.134984522416055" lon="12.404645882546872"><ele>334.0</ele><time>2026-04-18T15:42:33.001Z</time></trkpt><trkpt lat="42.1348917382415" lon="12.40478728683841"><ele>334.75</ele><time>2026-04-18T15:42:34.001Z</time></trkpt><trkpt lat="42.134769384967285" lon="12.404892833134014"><ele>335.5</ele><time>2026-04-18T15:42:35.001Z</time></trkpt><trkpt lat="42.134642403192025" lon="12.404977309066574"><ele>336.25</ele><time>2026-04-18T15:42:36.001Z</time></trkpt><trkpt lat="42.13454098176648" lon="12.405064040415464"><ele>337.0</ele><time>2026-04-18T15:42:37.001Z</time></trkpt><trkpt lat="42.134476995672706" lon="12.405167560633044"><ele>337.0</ele><time>2026-04-18T15:42:38.001Z</time></trkpt><trkpt lat="42.134450800320344" lon="12.405290304039502"><ele>337.0</ele><time>2026-04-18T15:42:39Z</time></trkpt><trkpt lat="42.13446300798688" lon="12.405429863914195"><ele>337.0</ele><time>2026-04-18T15:42:40Z</time></trkpt><trkpt lat="42.134515534086056" lon="12.405583709281428"><ele>337.0</ele><time>2026-04-18T15:42:41Z</time></trkpt><trkpt lat="42.134582460189606" lon="12.405738806399782"><ele>337.0</ele><time>2026-04-18T15:42:42Z</time></trkpt><trkpt lat="42.13464117845836" lon="12.405909203668278"><ele>337.0</ele><time>2026-04-18T15:42:43Z</time></trkpt><trkpt lat="42.13465613252829" lon="12.406077689588164"><ele>337.0</ele><time>2026-04-18T15:42:44Z</time></trkpt><trkpt lat="42.134645999909004" lon="12.406236041377227"><ele>337.0</ele><time>2026-04-18T15:42:45Z</time></trkpt><trkpt lat="42.13463213054579" lon="12.406386431636975"><ele>337.0</ele><time>2026-04-18T15:42:46Z</time></trkpt><trkpt lat="42.13461568082883" lon="12.406526733301957"><ele>337.0</ele><time>2026-04-18T15:42:47Z</time></trkpt><trkpt lat="42.13460184829562" lon="12.406666090086572"><ele>337.0</ele><time>2026-04-18T15:42:48Z</time></trkpt><trkpt lat="42.13459456696599" lon="12.406802763103716"><ele>337.0</ele><time>2026-04-18T15:42:49Z</time></trkpt><trkpt lat="42.134589238384905" lon="12.406936786993422"><ele>337.0</ele><time>2026-04-18T15:42:50Z</time></trkpt><trkpt lat="42.13458155515541" lon="12.407070416479034"><ele>339.0</ele><time>2026-04-18T15:42:51Z</time></trkpt><trkpt lat="42.1345693028412" lon="12.407202089738725"><ele>341.0</ele><time>2026-04-18T15:42:52Z</time></trkpt><trkpt lat="42.13454278860006" lon="12.4073382824091"><ele>343.0</ele><time>2026-04-18T15:42:53Z</time></trkpt><trkpt lat="42.13449280892694" lon="12.407468124821275"><ele>345.0</ele><time>2026-04-18T15:42:54Z</time></trkpt><trkpt lat="42.13441874930138" lon="12.407587051657183"><ele>347.0</ele><time>2026-04-18T15:42:55Z</time></trkpt><trkpt lat="42.13433019961616" lon="12.407687552858677"><ele>347.0</ele><time>2026-04-18T15:42:56Z</time></trkpt><trkpt lat="42.13422143422613" lon="12.40775425589949"><ele>347.0</ele><time>2026-04-18T15:42:57Z</time></trkpt><trkpt lat="42.13410014195332" lon="12.407799053491654"><ele>347.0</ele><time>2026-04-18T15:42:58Z</time></trkpt><trkpt lat="42.13399989536218" lon="12.407833483013814"><ele>347.0</ele><time>2026-04-18T15:42:59Z</time></trkpt><trkpt lat="42.13391714969237" lon="12.407890673367005"><ele>347.0</ele><time>2026-04-18T15:43:00Z</time></trkpt><trkpt lat="42.13386233489585" lon="12.407984849933884"><ele>348.20000000000005</ele><time>2026-04-18T15:43:01Z</time></trkpt><trkpt lat="42.13382035551826" lon="12.408099253369116"><ele>349.4</ele><time>2026-04-18T15:43:02Z</time></trkpt><trkpt lat="42.133791716282296" lon="12.408227315863746"><ele>350.6</ele><time>2026-04-18T15:43:03Z</time></trkpt><trkpt lat="42.133785645360646" lon="12.408360274333038"><ele>351.79999999999995</ele><time>2026-04-18T15:43:04Z</time></trkpt><trkpt lat="42.133808750019526" lon="12.4085010598073"><ele>353.0</ele><time>2026-04-18T15:43:05Z</time></trkpt><trkpt lat="42.13385444620792" lon="12.408639306338296"><ele>353.0</ele><time>2026-04-18T15:43:06Z</time></trkpt><trkpt lat="42.13388510783588" lon="12.408771927819965"><ele>353.0</ele><time>2026-04-18T15:43:07Z</time></trkpt><trkpt lat="42.13389600883663" lon="12.408885123424398"><ele>353.0</ele><time>2026-04-18T15:43:08Z</time></trkpt><trkpt lat="42.133897166712806" lon="12.40900620628622"><ele>353.0</ele><time>2026-04-18T15:43:09Z</time></trkpt><trkpt lat="42.13388858652902" lon="12.409136229484156"><ele>353.0</ele><time>2026-04-18T15:43:10Z</time></trkpt><trkpt lat="42.13387223415563" lon="12.409265387565082"><ele>352.5</ele><time>2026-04-18T15:43:11Z</time></trkpt><trkpt lat="42.13385963897583" lon="12.409384931543343"><ele>352.0</ele><time>2026-04-18T15:43:12Z</time></trkpt><trkpt lat="42.13385747694338" lon="12.409504387975343"><ele>351.5</ele><time>2026-04-18T15:43:13Z</time></trkpt><trkpt lat="42.13387528064107" lon="12.40961962651315"><ele>351.0</ele><time>2026-04-18T15:43:14Z</time></trkpt><trkpt lat="42.13391099116252" lon="12.409730382488252"><ele>350.5</ele><time>2026-04-18T15:43:15Z</time></trkpt><trkpt lat="42.13396958234415" lon="12.409813797482604"><ele>350.0</ele><time>2026-04-18T15:43:16Z</time></trkpt><trkpt lat="42.13403507208723" lon="12.409887455843238"><ele>352.5</ele><time>2026-04-18T15:43:17Z</time></trkpt><trkpt lat="42.134122072076984" lon="12.409945604557425"><ele>355.0</ele><time>2026-04-18T15:43:18Z</time></trkpt><trkpt lat="42.13423323942928" lon="12.409978586821902"><ele>357.5</ele><time>2026-04-18T15:43:19Z</time></trkpt><trkpt lat="42.134359126502176" lon="12.410002875821183"><ele>360.0</ele><time>2026-04-18T15:43:20Z</time></trkpt><trkpt lat="42.13448357362562" lon="12.410067342519579"><ele>360.0</ele><time>2026-04-18T15:43:21Z</time></trkpt><trkpt lat="42.13460194774957" lon="12.410087843135864"><ele>360.0</ele><time>2026-04-18T15:43:22Z</time></trkpt><trkpt lat="42.134720693959345" lon="12.41013936642187"><ele>360.0</ele><time>2026-04-18T15:43:23Z</time></trkpt><trkpt lat="42.13484265945934" lon="12.410194518686723"><ele>360.0</ele><time>2026-04-18T15:43:24Z</time></trkpt><trkpt lat="42.13496659072545" lon="12.41025707801753"><ele>360.5</ele><time>2026-04-18T15:43:25Z</time></trkpt><trkpt lat="42.135081954670724" lon="12.410322545039362"><ele>361.0</ele><time>2026-04-18T15:43:26Z</time></trkpt><trkpt lat="42.135188899532054" lon="12.410385996097201"><ele>361.5</ele><time>2026-04-18T15:43:27Z</time></trkpt><trkpt lat="42.13529322616797" lon="12.410444544866465"><ele>362.0</ele><time>2026-04-18T15:43:27.999Z</time></trkpt><trkpt lat="42.13540166837208" lon="12.410498331350675"><ele>360.6</ele><time>2026-04-18T15:43:28.999Z</time></trkpt><trkpt lat="42.13549869140583" lon="12.410546356394171"><ele>359.20000000000005</ele><time>2026-04-18T15:43:29.999Z</time></trkpt><trkpt lat="42.13559741814558" lon="12.410608586757743"><ele>357.8</ele><time>2026-04-18T15:43:30.999Z</time></trkpt><trkpt lat="42.135678823884966" lon="12.41065686112661"><ele>356.4</ele><time>2026-04-18T15:43:31.999Z</time></trkpt><trkpt lat="42.135752548761054" lon="12.410749469135178"><ele>355.0</ele><time>2026-04-18T15:43:32.999Z</time></trkpt><trkpt lat="42.135824770783664" lon="12.410852678966533"><ele>355.0</ele><time>2026-04-18T15:43:33.999Z</time></trkpt><trkpt lat="42.13588685905168" lon="12.410972714182932"><ele>355.0</ele><time>2026-04-18T15:43:34.999Z</time></trkpt><trkpt lat="42.13592698311074" lon="12.411115951917333"><ele>355.0</ele><time>2026-04-18T15:43:35.999Z</time></trkpt><trkpt lat="42.13596613128368" lon="12.411267298381876"><ele>355.0</ele><time>2026-04-18T15:43:36.999Z</time></trkpt><trkpt lat="42.13600789678633" lon="12.411402917141913"><ele>355.8</ele><time>2026-04-18T15:43:37.999Z</time></trkpt><trkpt lat="42.13601874776412" lon="12.411536725890425"><ele>356.6</ele><time>2026-04-18T15:43:38.999Z</time></trkpt><trkpt lat="42.1360342821128" lon="12.41164789306925"><ele>357.4</ele><time>2026-04-18T15:43:39.999Z</time></trkpt><trkpt lat="42.13604298346593" lon="12.411773027633798"><ele>358.2</ele><time>2026-04-18T15:43:40.999Z</time></trkpt><trkpt lat="42.13602727214234" lon="12.411912388086524"><ele>359.0</ele><time>2026-04-18T15:43:41.999Z</time></trkpt><trkpt lat="42.136001952995905" lon="12.4120758364568"><ele>359.5</ele><time>2026-04-18T15:43:42.999Z</time></trkpt><trkpt lat="42.135967721979156" lon="12.412245878049108"><ele>360.0</ele><time>2026-04-18T15:43:43.999Z</time></trkpt><trkpt lat="42.135941542887764" lon="12.412415284166045"><ele>360.5</ele><time>2026-04-18T15:43:44.999Z</time></trkpt><trkpt lat="42.13592858527382" lon="12.412581925045334"><ele>361.0</ele><time>2026-04-18T15:43:45.999Z</time></trkpt><trkpt lat="42.13593136079355" lon="12.412751118076285"><ele>361.0</ele><time>2026-04-18T15:43:46.999Z</time></trkpt><trkpt lat="42.13594204614061" lon="12.412906211920394"><ele>361.0</ele><time>2026-04-18T15:43:47.999Z</time></trkpt><trkpt lat="42.13596253126309" lon="12.413063052360938"><ele>361.0</ele><time>2026-04-18T15:43:48.999Z</time></trkpt><trkpt lat="42.13597975224981" lon="12.413216127267738"><ele>361.0</ele><time>2026-04-18T15:43:49.999Z</time></trkpt><trkpt lat="42.13595812975662" lon="12.413361529764252"><ele>361.4</ele><time>2026-04-18T15:43:50.999Z</time></trkpt><trkpt lat="42.13593442523552" lon="12.41350544878606"><ele>361.8</ele><time>2026-04-18T15:43:51.999Z</time></trkpt><trkpt lat="42.135932539614764" lon="12.41363041505083"><ele>362.2</ele><time>2026-04-18T15:43:52.999Z</time></trkpt><trkpt lat="42.13593547077845" lon="12.413754445839704"><ele>362.59999999999997</ele><time>2026-04-18T15:43:53.999Z</time></trkpt><trkpt lat="42.135964731321366" lon="12.413876439863747"><ele>363.0</ele><time>2026-04-18T15:43:54.999Z</time></trkpt><trkpt lat="42.136016960707074" lon="12.413991080934265"><ele>364.2</ele><time>2026-04-18T15:43:55.999Z</time></trkpt><trkpt lat="42.13608391639699" lon="12.414112766537638"><ele>365.4</ele><time>2026-04-18T15:43:56.999Z</time></trkpt><trkpt lat="42.13614964523638" lon="12.414222441811988"><ele>366.59999999999997</ele><time>2026-04-18T15:43:57.999Z</time></trkpt><trkpt lat="42.13621449054209" lon="12.414327603857709"><ele>367.79999999999995</ele><time>2026-04-18T15:43:58.999Z</time></trkpt><trkpt lat="42.13629378078552" lon="12.414415516318938"><ele>369.0</ele><time>2026-04-18T15:43:59.999Z</time></trkpt><trkpt lat="42.13638454242545" lon="12.414489137779489"><ele>369.0</ele><time>2026-04-18T15:44:00.999Z</time></trkpt><trkpt lat="42.13648209106038" lon="12.414561599118878"><ele>369.0</ele><time>2026-04-18T15:44:01.999Z</time></trkpt><trkpt lat="42.13656921103157" lon="12.414661411071537"><ele>369.0</ele><time>2026-04-18T15:44:02.999Z</time></trkpt><trkpt lat="42.13664924103849" lon="12.414766212070145"><ele>369.0</ele><time>2026-04-18T15:44:03.999Z</time></trkpt><trkpt lat="42.136717487735645" lon="12.414900013753416"><ele>368.25</ele><time>2026-04-18T15:44:04.999Z</time></trkpt><trkpt lat="42.1367758211521" lon="12.4150515042312"><ele>367.5</ele><time>2026-04-18T15:44:05.999Z</time></trkpt><trkpt lat="42.13683614347427" lon="12.415213582821172"><ele>366.75</ele><time>2026-04-18T15:44:06.999Z</time></trkpt><trkpt lat="42.13689472241203" lon="12.415372246179533"><ele>366.0</ele><time>2026-04-18T15:44:07.999Z</time></trkpt><trkpt lat="42.136962179693526" lon="12.415527817966577"><ele>364.75</ele><time>2026-04-18T15:44:08.999Z</time></trkpt><trkpt lat="42.13699929620649" lon="12.415690794180911"><ele>363.5</ele><time>2026-04-18T15:44:09.999Z</time></trkpt><trkpt lat="42.1370474083708" lon="12.415845907940273"><ele>362.25</ele><time>2026-04-18T15:44:10.999Z</time></trkpt><trkpt lat="42.13708809369357" lon="12.4160036736002"><ele>361.0</ele><time>2026-04-18T15:44:11.999Z</time></trkpt><trkpt lat="42.13710777479881" lon="12.416168493826845"><ele>361.0</ele><time>2026-04-18T15:44:12.999Z</time></trkpt><trkpt lat="42.13711131897625" lon="12.416353054207063"><ele>361.0</ele><time>2026-04-18T15:44:13.999Z</time></trkpt><trkpt lat="42.137110912535846" lon="12.416543350516699"><ele>361.0</ele><time>2026-04-18T15:44:14.999Z</time></trkpt><trkpt lat="42.13711484459994" lon="12.4167385877738"><ele>361.0</ele><time>2026-04-18T15:44:15.999Z</time></trkpt><trkpt lat="42.137127989256896" lon="12.416938079409844"><ele>361.0</ele><time>2026-04-18T15:44:16.999Z</time></trkpt><trkpt lat="42.13714260729019" lon="12.417125163620279"><ele>361.0</ele><time>2026-04-18T15:44:17.999Z</time></trkpt><trkpt lat="42.13715226389804" lon="12.417303516515762"><ele>361.0</ele><time>2026-04-18T15:44:18.999Z</time></trkpt><trkpt lat="42.137140447284146" lon="12.417477755102345"><ele>361.0</ele><time>2026-04-18T15:44:19.998Z</time></trkpt><trkpt lat="42.13710405516755" lon="12.417646224746507"><ele>362.0</ele><time>2026-04-18T15:44:20.998Z</time></trkpt><trkpt lat="42.13705397154862" lon="12.41782486576682"><ele>363.0</ele><time>2026-04-18T15:44:21.998Z</time></trkpt><trkpt lat="42.13700091913733" lon="12.418007618506758"><ele>364.0</ele><time>2026-04-18T15:44:22.998Z</time></trkpt><trkpt lat="42.13696970715952" lon="12.418208553538294"><ele>365.0</ele><time>2026-04-18T15:44:23.998Z</time></trkpt><trkpt lat="42.13697105965585" lon="12.418403255141222"><ele>365.0</ele><time>2026-04-18T15:44:24.998Z</time></trkpt><trkpt lat="42.136940250245885" lon="12.418594845491505"><ele>365.0</ele><time>2026-04-18T15:44:25.998Z</time></trkpt><trkpt lat="42.136928157499646" lon="12.418770039779748"><ele>365.0</ele><time>2026-04-18T15:44:26.998Z</time></trkpt><trkpt lat="42.1369184583081" lon="12.418927243437155"><ele>365.0</ele><time>2026-04-18T15:44:27.998Z</time></trkpt><trkpt lat="42.13691384568027" lon="12.419073368371054"><ele>365.8</ele><time>2026-04-18T15:44:28.998Z</time></trkpt><trkpt lat="42.13691853743785" lon="12.419204997524007"><ele>366.6</ele><time>2026-04-18T15:44:30.001Z</time></trkpt><trkpt lat="42.13694418119381" lon="12.419336233542435"><ele>367.4</ele><time>2026-04-18T15:44:31.001Z</time></trkpt><trkpt lat="42.13700075410433" lon="12.419431002364329"><ele>368.2</ele><time>2026-04-18T15:44:32.001Z</time></trkpt><trkpt lat="42.137073405682244" lon="12.41952220821855"><ele>369.0</ele><time>2026-04-18T15:44:33.001Z</time></trkpt><trkpt lat="42.137172313520985" lon="12.419598210517838"><ele>368.75</ele><time>2026-04-18T15:44:34.001Z</time></trkpt><trkpt lat="42.13726844983785" lon="12.419701465826192"><ele>368.5</ele><time>2026-04-18T15:44:35.001Z</time></trkpt><trkpt lat="42.137410656047216" lon="12.419800982344809"><ele>368.25</ele><time>2026-04-18T15:44:36.001Z</time></trkpt><trkpt lat="42.137539920928134" lon="12.41989880722469"><ele>368.0</ele><time>2026-04-18T15:44:37.001Z</time></trkpt><trkpt lat="42.13766578276931" lon="12.41998876207859"><ele>368.0</ele><time>2026-04-18T15:44:38.001Z</time></trkpt><trkpt lat="42.137810257492134" lon="12.420032453141348"><ele>368.0</ele><time>2026-04-18T15:44:39.001Z</time></trkpt><trkpt lat="42.13797095322084" lon="12.42002772151908"><ele>368.0</ele><time>2026-04-18T15:44:40.001Z</time></trkpt><trkpt lat="42.138114899825574" lon="12.42004815870791"><ele>367.0</ele><time>2026-04-18T15:44:41.001Z</time></trkpt><trkpt lat="42.138241714855035" lon="12.420054590374905"><ele>366.0</ele><time>2026-04-18T15:44:42.001Z</time></trkpt><trkpt lat="42.138345603875806" lon="12.420113005231066"><ele>365.0</ele><time>2026-04-18T15:44:43.001Z</time></trkpt><trkpt lat="42.138443118794605" lon="12.42019625127071"><ele>364.0</ele><time>2026-04-18T15:44:44.001Z</time></trkpt><trkpt lat="42.13852554464477" lon="12.420303796665074"><ele>364.0</ele><time>2026-04-18T15:44:45.001Z</time></trkpt><trkpt lat="42.13860186691604" lon="12.42042915540163"><ele>364.0</ele><time>2026-04-18T15:44:46.001Z</time></trkpt><trkpt lat="42.13866700654944" lon="12.420541669300848"><ele>364.0</ele><time>2026-04-18T15:44:47.001Z</time></trkpt><trkpt lat="42.138725613417655" lon="12.4206506994507"><ele>364.0</ele><time>2026-04-18T15:44:48.001Z</time></trkpt><trkpt lat="42.13878263819412" lon="12.420763619229804"><ele>364.0</ele><time>2026-04-18T15:44:49Z</time></trkpt><trkpt lat="42.13885061681239" lon="12.420849618419364"><ele>363.6</ele><time>2026-04-18T15:44:50Z</time></trkpt><trkpt lat="42.13890830840851" lon="12.420955347673237"><ele>363.2</ele><time>2026-04-18T15:44:51Z</time></trkpt><trkpt lat="42.13893623538242" lon="12.421088082469533"><ele>362.8</ele><time>2026-04-18T15:44:52Z</time></trkpt><trkpt lat="42.138970696570134" lon="12.421220395531302"><ele>362.40000000000003</ele><time>2026-04-18T15:44:53Z</time></trkpt><trkpt lat="42.13896992978542" lon="12.421371880227946"><ele>362.0</ele><time>2026-04-18T15:44:54Z</time></trkpt><trkpt lat="42.13897771934495" lon="12.421541316267932"><ele>362.0</ele><time>2026-04-18T15:44:55Z</time></trkpt><trkpt lat="42.13898718078092" lon="12.4217117986692"><ele>362.0</ele><time>2026-04-18T15:44:56Z</time></trkpt><trkpt lat="42.13899620934101" lon="12.421874481205606"><ele>362.0</ele><time>2026-04-18T15:44:57Z</time></trkpt><trkpt lat="42.139005477198765" lon="12.422031803753562"><ele>362.0</ele><time>2026-04-18T15:44:58Z</time></trkpt><trkpt lat="42.13901702060934" lon="12.422196688788613"><ele>360.0</ele><time>2026-04-18T15:44:59Z</time></trkpt><trkpt lat="42.13901814028652" lon="12.422359191223348"><ele>358.0</ele><time>2026-04-18T15:45:00Z</time></trkpt><trkpt lat="42.138993663789925" lon="12.422518851088494"><ele>356.0</ele><time>2026-04-18T15:45:01Z</time></trkpt><trkpt lat="42.13893249833704" lon="12.422661974280116"><ele>354.0</ele><time>2026-04-18T15:45:02Z</time></trkpt><trkpt lat="42.138842439892" lon="12.422797249721281"><ele>354.0</ele><time>2026-04-18T15:45:03Z</time></trkpt><trkpt lat="42.13874490668451" lon="12.422943204725158"><ele>354.0</ele><time>2026-04-18T15:45:04Z</time></trkpt><trkpt lat="42.13865774653115" lon="12.423080224240925"><ele>354.0</ele><time>2026-04-18T15:45:05Z</time></trkpt><trkpt lat="42.13858295456971" lon="12.423224707013572"><ele>354.0</ele><time>2026-04-18T15:45:06Z</time></trkpt><trkpt lat="42.138499335297034" lon="12.423355379782866"><ele>354.5</ele><time>2026-04-18T15:45:07Z</time></trkpt><trkpt lat="42.138414650083206" lon="12.423484716769224"><ele>355.0</ele><time>2026-04-18T15:45:08Z</time></trkpt><trkpt lat="42.138316858679396" lon="12.423609980208399"><ele>355.5</ele><time>2026-04-18T15:45:09Z</time></trkpt><trkpt lat="42.138209214219444" lon="12.423717563252618"><ele>356.0</ele><time>2026-04-18T15:45:10Z</time></trkpt><trkpt lat="42.13808921843661" lon="12.423829859583316"><ele>357.33333333333337</ele><time>2026-04-18T15:45:11Z</time></trkpt><trkpt lat="42.137965561412805" lon="12.42398193761802"><ele>358.6666666666667</ele><time>2026-04-18T15:45:12Z</time></trkpt><trkpt lat="42.13788158286135" lon="12.424167975648457"><ele>360.0</ele><time>2026-04-18T15:45:13Z</time></trkpt><trkpt lat="42.137828060240686" lon="12.42437166443785"><ele>360.0</ele><time>2026-04-18T15:45:14Z</time></trkpt><trkpt lat="42.1377904707903" lon="12.424557372590431"><ele>360.0</ele><time>2026-04-18T15:45:15Z</time></trkpt><trkpt lat="42.13774859415449" lon="12.424718665582644"><ele>360.0</ele><time>2026-04-18T15:45:16Z</time></trkpt><trkpt lat="42.13769500788777" lon="12.42486103625578"><ele>360.0</ele><time>2026-04-18T15:45:17Z</time></trkpt><trkpt lat="42.13762146008661" lon="12.425003798086406"><ele>360.25</ele><time>2026-04-18T15:45:18Z</time></trkpt><trkpt lat="42.137537276814776" lon="12.42514330402748"><ele>360.5</ele><time>2026-04-18T15:45:19Z</time></trkpt><trkpt lat="42.137449205578356" lon="12.425280082662113"><ele>360.75</ele><time>2026-04-18T15:45:20Z</time></trkpt><trkpt lat="42.137365943026765" lon="12.425413718100438"><ele>361.0</ele><time>2026-04-18T15:45:21Z</time></trkpt><trkpt lat="42.13728741776496" lon="12.42554283971658"><ele>359.25</ele><time>2026-04-18T15:45:22Z</time></trkpt><trkpt lat="42.13720704873478" lon="12.42567334525133"><ele>357.5</ele><time>2026-04-18T15:45:23Z</time></trkpt><trkpt lat="42.13712003371048" lon="12.425808365377701"><ele>355.75</ele><time>2026-04-18T15:45:24Z</time></trkpt><trkpt lat="42.13703894660798" lon="12.4259319257421"><ele>354.0</ele><time>2026-04-18T15:45:25Z</time></trkpt><trkpt lat="42.13696518774218" lon="12.426048141150307"><ele>354.0</ele><time>2026-04-18T15:45:26Z</time></trkpt><trkpt lat="42.136895110059754" lon="12.426164064064281"><ele>354.0</ele><time>2026-04-18T15:45:27Z</time></trkpt><trkpt lat="42.13682603716427" lon="12.426267272380649"><ele>354.0</ele><time>2026-04-18T15:45:28Z</time></trkpt><trkpt lat="42.136757995472735" lon="12.426381058930893"><ele>354.0</ele><time>2026-04-18T15:45:29Z</time></trkpt><trkpt lat="42.13670042687866" lon="12.426488161853944"><ele>354.0</ele><time>2026-04-18T15:45:30Z</time></trkpt><trkpt lat="42.136655203205784" lon="12.42659865243608"><ele>354.75</ele><time>2026-04-18T15:45:31Z</time></trkpt><trkpt lat="42.13661535054335" lon="12.426723914679274"><ele>355.5</ele><time>2026-04-18T15:45:32Z</time></trkpt><trkpt lat="42.13659300394557" lon="12.426862254934264"><ele>356.25</ele><time>2026-04-18T15:45:33Z</time></trkpt><trkpt lat="42.13658920843878" lon="12.427025851295628"><ele>357.0</ele><time>2026-04-18T15:45:34Z</time></trkpt><trkpt lat="42.13658858884931" lon="12.42719804170025"><ele>358.5</ele><time>2026-04-18T15:45:34.999Z</time></trkpt><trkpt lat="42.136591927352995" lon="12.427375469531063"><ele>360.0</ele><time>2026-04-18T15:45:35.999Z</time></trkpt><trkpt lat="42.1365893947354" lon="12.4275585428498"><ele>361.5</ele><time>2026-04-18T15:45:36.999Z</time></trkpt><trkpt lat="42.13660153837668" lon="12.427751907345124"><ele>363.0</ele><time>2026-04-18T15:45:37.999Z</time></trkpt><trkpt lat="42.13661141756055" lon="12.42792343375023"><ele>362.5</ele><time>2026-04-18T15:45:38.999Z</time></trkpt><trkpt lat="42.13660319179549" lon="12.428081757298179"><ele>362.0</ele><time>2026-04-18T15:45:39.999Z</time></trkpt><trkpt lat="42.13659075393936" lon="12.428243291270899"><ele>361.5</ele><time>2026-04-18T15:45:40.999Z</time></trkpt><trkpt lat="42.136585440872715" lon="12.428419328919365"><ele>361.0</ele><time>2026-04-18T15:45:41.999Z</time></trkpt><trkpt lat="42.13657346290306" lon="12.428596860278862"><ele>360.5</ele><time>2026-04-18T15:45:42.999Z</time></trkpt><trkpt lat="42.13655239468755" lon="12.42875753371149"><ele>360.0</ele><time>2026-04-18T15:45:43.999Z</time></trkpt><trkpt lat="42.13653238021585" lon="12.428919549237062"><ele>359.5</ele><time>2026-04-18T15:45:44.999Z</time></trkpt><trkpt lat="42.13650507309241" lon="12.429078324961226"><ele>359.0</ele><time>2026-04-18T15:45:45.999Z</time></trkpt><trkpt lat="42.13648664499192" lon="12.429231086046418"><ele>357.0</ele><time>2026-04-18T15:45:46.999Z</time></trkpt><trkpt lat="42.136482256190746" lon="12.429387038909839"><ele>355.0</ele><time>2026-04-18T15:45:47.999Z</time></trkpt><trkpt lat="42.13650608966863" lon="12.429548211239984"><ele>353.0</ele><time>2026-04-18T15:45:48.999Z</time></trkpt><trkpt lat="42.136568681051976" lon="12.429712056788006"><ele>351.0</ele><time>2026-04-18T15:45:49.999Z</time></trkpt><trkpt lat="42.13666524727373" lon="12.429868158598229"><ele>351.0</ele><time>2026-04-18T15:45:50.999Z</time></trkpt><trkpt lat="42.136762279932405" lon="12.430028481222703"><ele>351.0</ele><time>2026-04-18T15:45:51.999Z</time></trkpt><trkpt lat="42.1368304758183" lon="12.430197249476866"><ele>351.0</ele><time>2026-04-18T15:45:52.999Z</time></trkpt><trkpt lat="42.13688507964455" lon="12.43037086237783"><ele>351.0</ele><time>2026-04-18T15:45:53.999Z</time></trkpt><trkpt lat="42.13691146618423" lon="12.4305320908488"><ele>351.25</ele><time>2026-04-18T15:45:54.999Z</time></trkpt><trkpt lat="42.13690721813397" lon="12.430682679031587"><ele>351.5</ele><time>2026-04-18T15:45:55.999Z</time></trkpt><trkpt lat="42.13687468470266" lon="12.430815110962856"><ele>351.75</ele><time>2026-04-18T15:45:56.999Z</time></trkpt><trkpt lat="42.13679213349552" lon="12.430923753861196"><ele>352.0</ele><time>2026-04-18T15:45:57.999Z</time></trkpt><trkpt lat="42.136708985360976" lon="12.431068186923255"><ele>352.0</ele><time>2026-04-18T15:45:58.999Z</time></trkpt><trkpt lat="42.13659371421857" lon="12.431208309281256"><ele>352.0</ele><time>2026-04-18T15:45:59.999Z</time></trkpt><trkpt lat="42.136481545790545" lon="12.431378499335896"><ele>352.0</ele><time>2026-04-18T15:46:00.999Z</time></trkpt><trkpt lat="42.13638114645829" lon="12.431557254541508"><ele>351.75</ele><time>2026-04-18T15:46:01.999Z</time></trkpt><trkpt lat="42.13629368447441" lon="12.431713126398328"><ele>351.5</ele><time>2026-04-18T15:46:02.999Z</time></trkpt><trkpt lat="42.13621695460395" lon="12.431860540489838"><ele>351.25</ele><time>2026-04-18T15:46:03.999Z</time></trkpt><trkpt lat="42.13614990342745" lon="12.432002493013023"><ele>351.0</ele><time>2026-04-18T15:46:04.999Z</time></trkpt><trkpt lat="42.1360804751133" lon="12.432144261842923"><ele>350.25</ele><time>2026-04-18T15:46:05.999Z</time></trkpt><trkpt lat="42.13601036586778" lon="12.432301425019409"><ele>349.5</ele><time>2026-04-18T15:46:06.999Z</time></trkpt><trkpt lat="42.135942525486506" lon="12.432470927712162"><ele>348.75</ele><time>2026-04-18T15:46:07.999Z</time></trkpt><trkpt lat="42.13587600132454" lon="12.432654498618591"><ele>348.0</ele><time>2026-04-18T15:46:08.999Z</time></trkpt><trkpt lat="42.13580825517055" lon="12.432823569041366"><ele>348.0</ele><time>2026-04-18T15:46:09.999Z</time></trkpt><trkpt lat="42.135744496043536" lon="12.432977867756442"><ele>348.0</ele><time>2026-04-18T15:46:10.999Z</time></trkpt><trkpt lat="42.13568097108588" lon="12.433110673328388"><ele>348.0</ele><time>2026-04-18T15:46:11.999Z</time></trkpt><trkpt lat="42.13562606108784" lon="12.433213140438497"><ele>348.0</ele><time>2026-04-18T15:46:12.999Z</time></trkpt><trkpt lat="42.13557019396625" lon="12.433291671252292"><ele>348.0</ele><time>2026-04-18T15:46:13.999Z</time></trkpt><trkpt lat="42.13550459219307" lon="12.433336372897188"><ele>349.0</ele><time>2026-04-18T15:46:14.999Z</time></trkpt><trkpt lat="42.13536501140833" lon="12.433271762589257"><ele>350.0</ele><time>2026-04-18T15:46:16.999Z</time></trkpt><trkpt lat="42.135264093485524" lon="12.433250507259116"><ele>351.0</ele><time>2026-04-18T15:46:17.999Z</time></trkpt><trkpt lat="42.13514628905676" lon="12.433217326500674"><ele>352.0</ele><time>2026-04-18T15:46:18.999Z</time></trkpt><trkpt lat="42.13501314830129" lon="12.433183064286682"><ele>352.25</ele><time>2026-04-18T15:46:19.999Z</time></trkpt><trkpt lat="42.1348656057959" lon="12.43315640540623"><ele>352.5</ele><time>2026-04-18T15:46:20.999Z</time></trkpt><trkpt lat="42.134716304503804" lon="12.433136897741702"><ele>352.75</ele><time>2026-04-18T15:46:21.999Z</time></trkpt><trkpt lat="42.13456970053882" lon="12.433125972785792"><ele>353.0</ele><time>2026-04-18T15:46:22.999Z</time></trkpt><trkpt lat="42.13443559566869" lon="12.433131464533128"><ele>353.0</ele><time>2026-04-18T15:46:23.999Z</time></trkpt><trkpt lat="42.13430946093448" lon="12.433157776016447"><ele>353.0</ele><time>2026-04-18T15:46:24.998Z</time></trkpt><trkpt lat="42.13418296952643" lon="12.433207366184941"><ele>353.0</ele><time>2026-04-18T15:46:25.998Z</time></trkpt><trkpt lat="42.13404538399663" lon="12.433291824034656"><ele>353.0</ele><time>2026-04-18T15:46:26.998Z</time></trkpt><trkpt lat="42.13390012170049" lon="12.433413976477441"><ele>350.6666666666667</ele><time>2026-04-18T15:46:27.998Z</time></trkpt><trkpt lat="42.13376222304052" lon="12.43353815605692"><ele>348.3333333333333</ele><time>2026-04-18T15:46:28.998Z</time></trkpt><trkpt lat="42.13364137187133" lon="12.433652785592228"><ele>346.0</ele><time>2026-04-18T15:46:29.998Z</time></trkpt><trkpt lat="42.133521096994464" lon="12.433764787433732"><ele>346.25</ele><time>2026-04-18T15:46:30.998Z</time></trkpt><trkpt lat="42.13340083121873" lon="12.433861857191804"><ele>346.5</ele><time>2026-04-18T15:46:31.998Z</time></trkpt><trkpt lat="42.13327899614849" lon="12.433940855187002"><ele>346.75</ele><time>2026-04-18T15:46:32.998Z</time></trkpt><trkpt lat="42.1331592271744" lon="12.433996688248373"><ele>347.0</ele><time>2026-04-18T15:46:33.998Z</time></trkpt><trkpt lat="42.13302241987766" lon="12.434019052544054"><ele>343.33333333333337</ele><time>2026-04-18T15:46:34.998Z</time></trkpt><trkpt lat="42.13287380089684" lon="12.433966510326137"><ele>339.6666666666667</ele><time>2026-04-18T15:46:36.001Z</time></trkpt><trkpt lat="42.13270991519392" lon="12.433945023404558"><ele>336.0</ele><time>2026-04-18T15:46:37.001Z</time></trkpt><trkpt lat="42.13254475949959" lon="12.433904618835065"><ele>334.0</ele><time>2026-04-18T15:46:38.001Z</time></trkpt><trkpt lat="42.13238198149606" lon="12.433862817389114"><ele>332.0</ele><time>2026-04-18T15:46:39.001Z</time></trkpt><trkpt lat="42.1322086696519" lon="12.433832755141665"><ele>330.0</ele><time>2026-04-18T15:46:40.001Z</time></trkpt><trkpt lat="42.13202216842105" lon="12.433804907745847"><ele>327.6666666666667</ele><time>2026-04-18T15:46:41.001Z</time></trkpt><trkpt lat="42.1318200789868" lon="12.433777280730647"><ele>325.33333333333337</ele><time>2026-04-18T15:46:42.001Z</time></trkpt><trkpt lat="42.13163405665334" lon="12.433739234986565"><ele>323.0</ele><time>2026-04-18T15:46:43.001Z</time></trkpt><trkpt lat="42.131462270619444" lon="12.433696163846694"><ele>320.25</ele><time>2026-04-18T15:46:44.001Z</time></trkpt><trkpt lat="42.13130967935449" lon="12.433661376832442"><ele>317.5</ele><time>2026-04-18T15:46:45.001Z</time></trkpt><trkpt lat="42.13117685321562" lon="12.433632679831739"><ele>314.75</ele><time>2026-04-18T15:46:46.001Z</time></trkpt><trkpt lat="42.13104911663054" lon="12.433621340689406"><ele>312.0</ele><time>2026-04-18T15:46:47.001Z</time></trkpt><trkpt lat="42.130918905815676" lon="12.43363002122696"><ele>312.0</ele><time>2026-04-18T15:46:48.001Z</time></trkpt><trkpt lat="42.13079698873437" lon="12.433660639835209"><ele>312.0</ele><time>2026-04-18T15:46:49.001Z</time></trkpt><trkpt lat="42.130682190630374" lon="12.433717894535048"><ele>312.0</ele><time>2026-04-18T15:46:50.001Z</time></trkpt><trkpt lat="42.13056679695371" lon="12.433801803635816"><ele>312.0</ele><time>2026-04-18T15:46:51.001Z</time></trkpt><trkpt lat="42.130444625305614" lon="12.433905841602671"><ele>310.75</ele><time>2026-04-18T15:46:52.001Z</time></trkpt><trkpt lat="42.13032323966884" lon="12.434011648307989"><ele>309.5</ele><time>2026-04-18T15:46:53.001Z</time></trkpt><trkpt lat="42.13020899157334" lon="12.43409378543785"><ele>308.25</ele><time>2026-04-18T15:46:54.001Z</time></trkpt><trkpt lat="42.1300928096138" lon="12.434163000838712"><ele>307.0</ele><time>2026-04-18T15:46:55Z</time></trkpt><trkpt lat="42.129972242817644" lon="12.43421586800582"><ele>303.66666666666663</ele><time>2026-04-18T15:46:56Z</time></trkpt><trkpt lat="42.12984201800201" lon="12.434235787775433"><ele>300.3333333333333</ele><time>2026-04-18T15:46:57Z</time></trkpt><trkpt lat="42.12968670137515" lon="12.434233198373795"><ele>297.0</ele><time>2026-04-18T15:46:58Z</time></trkpt><trkpt lat="42.12951460440492" lon="12.434183168279006"><ele>297.0</ele><time>2026-04-18T15:46:59Z</time></trkpt><trkpt lat="42.12931734136812" lon="12.434165299064928"><ele>297.0</ele><time>2026-04-18T15:47:00Z</time></trkpt><trkpt lat="42.12910641114477" lon="12.434119848368498"><ele>297.0</ele><time>2026-04-18T15:47:01Z</time></trkpt><trkpt lat="42.12888215896931" lon="12.434085651099677"><ele>293.0</ele><time>2026-04-18T15:47:02Z</time></trkpt><trkpt lat="42.12863251331801" lon="12.434053650427373"><ele>289.0</ele><time>2026-04-18T15:47:03Z</time></trkpt><trkpt lat="42.1283809868354" lon="12.434012972130441"><ele>285.0</ele><time>2026-04-18T15:47:04Z</time></trkpt><trkpt lat="42.12815178811959" lon="12.433968177437505"><ele>281.0</ele><time>2026-04-18T15:47:05Z</time></trkpt><trkpt lat="42.12793077254409" lon="12.433920964159887"><ele>281.0</ele><time>2026-04-18T15:47:06Z</time></trkpt><trkpt lat="42.12769864122533" lon="12.433868913541247"><ele>281.0</ele><time>2026-04-18T15:47:07Z</time></trkpt><trkpt lat="42.12748350665192" lon="12.433800078236743"><ele>278.5</ele><time>2026-04-18T15:47:08Z</time></trkpt><trkpt lat="42.12725219668256" lon="12.433717309524603"><ele>276.0</ele><time>2026-04-18T15:47:09Z</time></trkpt><trkpt lat="42.12699702751921" lon="12.433620659304388"><ele>276.0</ele><time>2026-04-18T15:47:10Z</time></trkpt><trkpt lat="42.12674498993675" lon="12.433530282620733"><ele>276.0</ele><time>2026-04-18T15:47:11Z</time></trkpt><trkpt lat="42.12651541181194" lon="12.433451901852772"><ele>274.6666666666667</ele><time>2026-04-18T15:47:12Z</time></trkpt><trkpt lat="42.12630387048143" lon="12.433375021809502"><ele>273.33333333333337</ele><time>2026-04-18T15:47:13Z</time></trkpt><trkpt lat="42.126101425846635" lon="12.43330101324637"><ele>272.0</ele><time>2026-04-18T15:47:14Z</time></trkpt><trkpt lat="42.1259106063141" lon="12.433245511259443"><ele>271.33333333333337</ele><time>2026-04-18T15:47:15Z</time></trkpt><trkpt lat="42.12572553268486" lon="12.433202896760296"><ele>270.6666666666667</ele><time>2026-04-18T15:47:16Z</time></trkpt><trkpt lat="42.12553505165711" lon="12.433185247564463"><ele>270.0</ele><time>2026-04-18T15:47:17Z</time></trkpt><trkpt lat="42.12535146598317" lon="12.433190902179"><ele>270.0</ele><time>2026-04-18T15:47:18Z</time></trkpt><trkpt lat="42.12519146524269" lon="12.433187415954936"><ele>270.0</ele><time>2026-04-18T15:47:19Z</time></trkpt><trkpt lat="42.12505331771644" lon="12.433156815310099"><ele>270.0</ele><time>2026-04-18T15:47:20Z</time></trkpt><trkpt lat="42.12492467141202" lon="12.433101221938879"><ele>270.0</ele><time>2026-04-18T15:47:21Z</time></trkpt><trkpt lat="42.12479529072292" lon="12.433009080415307"><ele>269.6666666666667</ele><time>2026-04-18T15:47:22Z</time></trkpt><trkpt lat="42.12466641628056" lon="12.432875528650435"><ele>269.33333333333337</ele><time>2026-04-18T15:47:23Z</time></trkpt><trkpt lat="42.12453364965893" lon="12.43272511184468"><ele>269.0</ele><time>2026-04-18T15:47:24Z</time></trkpt><trkpt lat="42.124382166662464" lon="12.43256156062729"><ele>269.0</ele><time>2026-04-18T15:47:25Z</time></trkpt><trkpt lat="42.12423193266213" lon="12.432392616740259"><ele>269.0</ele><time>2026-04-18T15:47:26Z</time></trkpt><trkpt lat="42.12408291102004" lon="12.432212972806758"><ele>269.0</ele><time>2026-04-18T15:47:27Z</time></trkpt><trkpt lat="42.12393111675844" lon="12.432035499505622"><ele>266.6666666666667</ele><time>2026-04-18T15:47:28Z</time></trkpt><trkpt lat="42.12377668996866" lon="12.431853649702115"><ele>264.3333333333333</ele><time>2026-04-18T15:47:29Z</time></trkpt><trkpt lat="42.12361698110021" lon="12.43167719618988"><ele>262.0</ele><time>2026-04-18T15:47:30Z</time></trkpt><trkpt lat="42.123453143785916" lon="12.43149559953861"><ele>261.66666666666663</ele><time>2026-04-18T15:47:31Z</time></trkpt><trkpt lat="42.12328850783648" lon="12.431307140128196"><ele>261.3333333333333</ele><time>2026-04-18T15:47:32Z</time></trkpt><trkpt lat="42.12311929025874" lon="12.431115158266676"><ele>261.0</ele><time>2026-04-18T15:47:33Z</time></trkpt><trkpt lat="42.12294730473827" lon="12.430918046298604"><ele>261.0</ele><time>2026-04-18T15:47:34Z</time></trkpt><trkpt lat="42.12277302706678" lon="12.4307228189253"><ele>261.0</ele><time>2026-04-18T15:47:35Z</time></trkpt><trkpt lat="42.122595553359496" lon="12.430523583194105"><ele>261.0</ele><time>2026-04-18T15:47:36Z</time></trkpt><trkpt lat="42.122441983310466" lon="12.430313625383908"><ele>261.0</ele><time>2026-04-18T15:47:37Z</time></trkpt><trkpt lat="42.1222819287398" lon="12.430128906378341"><ele>261.0</ele><time>2026-04-18T15:47:38Z</time></trkpt><trkpt lat="42.122138951966654" lon="12.429943266484033"><ele>261.0</ele><time>2026-04-18T15:47:39Z</time></trkpt><trkpt lat="42.12200256609503" lon="12.429766492422743"><ele>261.0</ele><time>2026-04-18T15:47:39.999Z</time></trkpt><trkpt lat="42.121872997370204" lon="12.42959841590225"><ele>261.0</ele><time>2026-04-18T15:47:40.999Z</time></trkpt><trkpt lat="42.12175175224162" lon="12.42944274730586"><ele>258.6666666666667</ele><time>2026-04-18T15:47:41.999Z</time></trkpt><trkpt lat="42.121632801550874" lon="12.429306047006685"><ele>256.33333333333337</ele><time>2026-04-18T15:47:42.999Z</time></trkpt><trkpt lat="42.12149018972495" lon="12.42917397194374"><ele>254.0</ele><time>2026-04-18T15:47:43.999Z</time></trkpt><trkpt lat="42.12132990047758" lon="12.429054973577058"><ele>253.66666666666669</ele><time>2026-04-18T15:47:44.999Z</time></trkpt><trkpt lat="42.1211545928317" lon="12.42894407834461"><ele>253.33333333333331</ele><time>2026-04-18T15:47:45.999Z</time></trkpt><trkpt lat="42.120972288832306" lon="12.42883114312912"><ele>253.0</ele><time>2026-04-18T15:47:46.999Z</time></trkpt><trkpt lat="42.120801585712584" lon="12.428736222349112"><ele>251.33333333333331</ele><time>2026-04-18T15:47:47.999Z</time></trkpt><trkpt lat="42.12064210209617" lon="12.428658898085358"><ele>249.66666666666669</ele><time>2026-04-18T15:47:48.999Z</time></trkpt><trkpt lat="42.12048405840458" lon="12.428593841035756"><ele>248.0</ele><time>2026-04-18T15:47:49.999Z</time></trkpt><trkpt lat="42.12033414666888" lon="12.428537638653982"><ele>248.0</ele><time>2026-04-18T15:47:50.999Z</time></trkpt><trkpt lat="42.120195246043004" lon="12.428482192941793"><ele>248.0</ele><time>2026-04-18T15:47:51.999Z</time></trkpt><trkpt lat="42.1200687003391" lon="12.428417019599289"><ele>248.0</ele><time>2026-04-18T15:47:52.999Z</time></trkpt><trkpt lat="42.11996292335069" lon="12.428305113741631"><ele>248.0</ele><time>2026-04-18T15:47:53.999Z</time></trkpt><trkpt lat="42.11982041955596" lon="12.428184841138679"><ele>247.0</ele><time>2026-04-18T15:47:54.999Z</time></trkpt><trkpt lat="42.11968911923808" lon="12.428050017868806"><ele>246.0</ele><time>2026-04-18T15:47:55.999Z</time></trkpt><trkpt lat="42.11953356206912" lon="12.427903886202449"><ele>245.0</ele><time>2026-04-18T15:47:56.999Z</time></trkpt><trkpt lat="42.119371409201065" lon="12.427756563706737"><ele>245.0</ele><time>2026-04-18T15:47:57.999Z</time></trkpt><trkpt lat="42.119204045478995" lon="12.427596769741395"><ele>245.0</ele><time>2026-04-18T15:47:58.999Z</time></trkpt><trkpt lat="42.11902632464922" lon="12.427427322265292"><ele>245.0</ele><time>2026-04-18T15:47:59.999Z</time></trkpt><trkpt lat="42.11883100109239" lon="12.427249523448324"><ele>241.5</ele><time>2026-04-18T15:48:00.999Z</time></trkpt><trkpt lat="42.118638329987895" lon="12.42706593212168"><ele>238.0</ele><time>2026-04-18T15:48:01.999Z</time></trkpt><trkpt lat="42.11843920827828" lon="12.426872161072449"><ele>238.0</ele><time>2026-04-18T15:48:02.999Z</time></trkpt><trkpt lat="42.11825737040829" lon="12.426698184158784"><ele>238.0</ele><time>2026-04-18T15:48:03.999Z</time></trkpt><trkpt lat="42.11808590504316" lon="12.426527616930937"><ele>238.0</ele><time>2026-04-18T15:48:04.999Z</time></trkpt><trkpt lat="42.11791656911951" lon="12.426360226993225"><ele>238.0</ele><time>2026-04-18T15:48:05.999Z</time></trkpt><trkpt lat="42.1177472131774" lon="12.426190322824636"><ele>238.0</ele><time>2026-04-18T15:48:06.999Z</time></trkpt><trkpt lat="42.11757845313116" lon="12.426020708308823"><ele>238.0</ele><time>2026-04-18T15:48:07.999Z</time></trkpt><trkpt lat="42.11740786752196" lon="12.425847861146435"><ele>238.0</ele><time>2026-04-18T15:48:08.999Z</time></trkpt><trkpt lat="42.11724103558213" lon="12.425676936067154"><ele>238.0</ele><time>2026-04-18T15:48:09.999Z</time></trkpt><trkpt lat="42.11708549378694" lon="12.425523078242785"><ele>238.0</ele><time>2026-04-18T15:48:10.999Z</time></trkpt><trkpt lat="42.116937556203716" lon="12.425382098453182"><ele>238.0</ele><time>2026-04-18T15:48:11.999Z</time></trkpt><trkpt lat="42.116797670682715" lon="12.425255570651407"><ele>238.0</ele><time>2026-04-18T15:48:12.999Z</time></trkpt><trkpt lat="42.116669219478005" lon="12.42513486500308"><ele>238.0</ele><time>2026-04-18T15:48:13.999Z</time></trkpt><trkpt lat="42.116539383184204" lon="12.425019094134452"><ele>237.5</ele><time>2026-04-18T15:48:14.999Z</time></trkpt><trkpt lat="42.116423464810104" lon="12.424899434761153"><ele>237.0</ele><time>2026-04-18T15:48:15.999Z</time></trkpt><trkpt lat="42.1163284187986" lon="12.424771014175558"><ele>236.5</ele><time>2026-04-18T15:48:16.999Z</time></trkpt><trkpt lat="42.11623685531294" lon="12.42463767950569"><ele>236.0</ele><time>2026-04-18T15:48:17.999Z</time></trkpt><trkpt lat="42.116145612270195" lon="12.424498017134388"><ele>236.0</ele><time>2026-04-18T15:48:18.999Z</time></trkpt><trkpt lat="42.11604866384849" lon="12.424375856558276"><ele>236.0</ele><time>2026-04-18T15:48:19.999Z</time></trkpt><trkpt lat="42.11596451660402" lon="12.424245713839577"><ele>236.0</ele><time>2026-04-18T15:48:20.999Z</time></trkpt><trkpt lat="42.115883094174386" lon="12.42410688798228"><ele>236.0</ele><time>2026-04-18T15:48:21.999Z</time></trkpt><trkpt lat="42.11580458108451" lon="12.423963172657638"><ele>236.25</ele><time>2026-04-18T15:48:22.999Z</time></trkpt><trkpt lat="42.115705594451306" lon="12.423832035640288"><ele>236.5</ele><time>2026-04-18T15:48:23.999Z</time></trkpt><trkpt lat="42.11562735251461" lon="12.423668188705232"><ele>236.75</ele><time>2026-04-18T15:48:24.999Z</time></trkpt><trkpt lat="42.115549563581624" lon="12.423515770446814"><ele>237.0</ele><time>2026-04-18T15:48:25.999Z</time></trkpt><trkpt lat="42.115477223077605" lon="12.42337410015708"><ele>236.25</ele><time>2026-04-18T15:48:26.999Z</time></trkpt><trkpt lat="42.11539986614114" lon="12.423245742999633"><ele>235.5</ele><time>2026-04-18T15:48:27.999Z</time></trkpt><trkpt lat="42.11531318725355" lon="12.423137662872227"><ele>234.75</ele><time>2026-04-18T15:48:28.998Z</time></trkpt><trkpt lat="42.11521058827606" lon="12.423049068746536"><ele>234.0</ele><time>2026-04-18T15:48:29.998Z</time></trkpt><trkpt lat="42.11509647817351" lon="12.422988842411614"><ele>233.6</ele><time>2026-04-18T15:48:30.998Z</time></trkpt><trkpt lat="42.114979356727595" lon="12.42295212998154"><ele>233.2</ele><time>2026-04-18T15:48:31.998Z</time></trkpt><trkpt lat="42.114864383074206" lon="12.422932500971482"><ele>232.79999999999998</ele><time>2026-04-18T15:48:32.998Z</time></trkpt><trkpt lat="42.11476696849932" lon="12.422910446483188"><ele>232.39999999999998</ele><time>2026-04-18T15:48:33.998Z</time></trkpt><trkpt lat="42.11468552124558" lon="12.42288665516472"><ele>232.0</ele><time>2026-04-18T15:48:34.998Z</time></trkpt><trkpt lat="42.11462186592805" lon="12.422857313851601"><ele>232.66666666666666</ele><time>2026-04-18T15:48:35.998Z</time></trkpt><trkpt lat="42.11456338523115" lon="12.42280079883674"><ele>233.33333333333331</ele><time>2026-04-18T15:48:37.998Z</time></trkpt><trkpt lat="42.11455509876178" lon="12.422660479034793"><ele>234.0</ele><time>2026-04-18T15:48:47.001Z</time></trkpt><trkpt lat="42.11457115069225" lon="12.422577981084178"><ele>234.66666666666669</ele><time>2026-04-18T15:48:48.001Z</time></trkpt><trkpt lat="42.11459728633102" lon="12.422479317568403"><ele>235.33333333333334</ele><time>2026-04-18T15:48:49.001Z</time></trkpt><trkpt lat="42.11461461687256" lon="12.42236651360988"><ele>236.0</ele><time>2026-04-18T15:48:50.001Z</time></trkpt><trkpt lat="42.114631543285235" lon="12.422241046537117"><ele>235.8</ele><time>2026-04-18T15:48:51.001Z</time></trkpt><trkpt lat="42.11465649161741" lon="12.42210151253387"><ele>235.60000000000002</ele><time>2026-04-18T15:48:52.001Z</time></trkpt><trkpt lat="42.11467410133825" lon="12.421944848159288"><ele>235.4</ele><time>2026-04-18T15:48:53.001Z</time></trkpt><trkpt lat="42.11467246751262" lon="12.421791845295193"><ele>235.2</ele><time>2026-04-18T15:48:54.001Z</time></trkpt><trkpt lat="42.11464052080086" lon="12.42165203966764"><ele>235.0</ele><time>2026-04-18T15:48:55.001Z</time></trkpt><trkpt lat="42.114572924412236" lon="12.421524826290554"><ele>235.0</ele><time>2026-04-18T15:48:56.001Z</time></trkpt><trkpt lat="42.11447590197387" lon="12.421424061669455"><ele>235.0</ele><time>2026-04-18T15:48:57.001Z</time></trkpt><trkpt lat="42.11437981939975" lon="12.42134762416557"><ele>235.0</ele><time>2026-04-18T15:48:58Z</time></trkpt><trkpt lat="42.11430594613891" lon="12.421278096739373"><ele>235.0</ele><time>2026-04-18T15:48:59Z</time></trkpt><trkpt lat="42.114227761873465" lon="12.42119552854376"><ele>235.0</ele><time>2026-04-18T15:49:00Z</time></trkpt><trkpt lat="42.11417380950019" lon="12.421102683956288"><ele>234.66666666666666</ele><time>2026-04-18T15:49:01Z</time></trkpt><trkpt lat="42.114129452997325" lon="12.421034357835596"><ele>234.33333333333331</ele><time>2026-04-18T15:49:02Z</time></trkpt><trkpt lat="42.11408087162279" lon="12.420978930350666"><ele>234.0</ele><time>2026-04-18T15:49:03Z</time></trkpt><trkpt lat="42.11402126934128" lon="12.420931438383738"><ele>233.66666666666669</ele><time>2026-04-18T15:49:04Z</time></trkpt><trkpt lat="42.113942377017395" lon="12.42089473043466"><ele>233.33333333333334</ele><time>2026-04-18T15:49:05Z</time></trkpt><trkpt lat="42.11385688409722" lon="12.420855386476697"><ele>233.0</ele><time>2026-04-18T15:49:06Z</time></trkpt><trkpt lat="42.11376703715361" lon="12.420802750141108"><ele>232.75</ele><time>2026-04-18T15:49:07Z</time></trkpt><trkpt lat="42.11366982338303" lon="12.420742084207493"><ele>232.5</ele><time>2026-04-18T15:49:08Z</time></trkpt><trkpt lat="42.1135614691612" lon="12.420687372632337"><ele>232.25</ele><time>2026-04-18T15:49:09Z</time></trkpt><trkpt lat="42.1134551551218" lon="12.420644351644821"><ele>232.0</ele><time>2026-04-18T15:49:10Z</time></trkpt><trkpt lat="42.11334477740785" lon="12.420587021755813"><ele>232.75</ele><time>2026-04-18T15:49:11Z</time></trkpt><trkpt lat="42.11322913106365" lon="12.420539522116474"><ele>233.5</ele><time>2026-04-18T15:49:12Z</time></trkpt><trkpt lat="42.11311916228729" lon="12.420477411092865"><ele>234.25</ele><time>2026-04-18T15:49:13Z</time></trkpt><trkpt lat="42.11300858400098" lon="12.420414440309516"><ele>235.0</ele><time>2026-04-18T15:49:14Z</time></trkpt><trkpt lat="42.11290354753884" lon="12.420339638747945"><ele>233.8</ele><time>2026-04-18T15:49:15Z</time></trkpt><trkpt lat="42.11281197724221" lon="12.420253416993438"><ele>232.6</ele><time>2026-04-18T15:49:16Z</time></trkpt><trkpt lat="42.112731087107214" lon="12.420162600654201"><ele>231.39999999999998</ele><time>2026-04-18T15:49:17Z</time></trkpt><trkpt lat="42.11265757591405" lon="12.420065592075415"><ele>230.2</ele><time>2026-04-18T15:49:18Z</time></trkpt><trkpt lat="42.112592737718984" lon="12.419964788735761"><ele>229.0</ele><time>2026-04-18T15:49:19Z</time></trkpt><trkpt lat="42.11252568922947" lon="12.41985765676252"><ele>229.0</ele><time>2026-04-18T15:49:20Z</time></trkpt><trkpt lat="42.11246600899846" lon="12.419751426389615"><ele>228.99999999999997</ele><time>2026-04-18T15:49:21Z</time></trkpt><trkpt lat="42.11240561143787" lon="12.419653087674392"><ele>228.99999999999997</ele><time>2026-04-18T15:49:22Z</time></trkpt><trkpt lat="42.112343101585324" lon="12.419563059978383"><ele>229.0</ele><time>2026-04-18T15:49:23Z</time></trkpt><trkpt lat="42.11228238905822" lon="12.419475327870556"><ele>229.0</ele><time>2026-04-18T15:49:24Z</time></trkpt><trkpt lat="42.11222592485804" lon="12.419385042889587"><ele>229.79999999999998</ele><time>2026-04-18T15:49:25Z</time></trkpt><trkpt lat="42.112164901758376" lon="12.419292689540772"><ele>230.59999999999997</ele><time>2026-04-18T15:49:26Z</time></trkpt><trkpt lat="42.11210389404916" lon="12.419192897451461"><ele>231.4</ele><time>2026-04-18T15:49:27Z</time></trkpt><trkpt lat="42.11204760207099" lon="12.419070663267298"><ele>232.2</ele><time>2026-04-18T15:49:28Z</time></trkpt><trkpt lat="42.11199957159765" lon="12.418928794252054"><ele>233.0</ele><time>2026-04-18T15:49:29Z</time></trkpt><trkpt lat="42.11196627075515" lon="12.418760993769949"><ele>233.25</ele><time>2026-04-18T15:49:30Z</time></trkpt><trkpt lat="42.11194845122877" lon="12.418571243954023"><ele>233.5</ele><time>2026-04-18T15:49:31Z</time></trkpt><trkpt lat="42.11193855431936" lon="12.418368203882178"><ele>233.75</ele><time>2026-04-18T15:49:32Z</time></trkpt><trkpt lat="42.11193326002114" lon="12.418170818121006"><ele>234.0</ele><time>2026-04-18T15:49:33Z</time></trkpt><trkpt lat="42.11191775843179" lon="12.417991381614195"><ele>233.25</ele><time>2026-04-18T15:49:34Z</time></trkpt><trkpt lat="42.111895180102366" lon="12.417815226405825"><ele>232.5</ele><time>2026-04-18T15:49:35Z</time></trkpt><trkpt lat="42.11186547781674" lon="12.417640680660446"><ele>231.75</ele><time>2026-04-18T15:49:36Z</time></trkpt><trkpt lat="42.111830312159164" lon="12.417478278960955"><ele>231.0</ele><time>2026-04-18T15:49:37Z</time></trkpt><trkpt lat="42.11176837107131" lon="12.417331092215791"><ele>231.0</ele><time>2026-04-18T15:49:38Z</time></trkpt><trkpt lat="42.11168660910998" lon="12.417195057214998"><ele>231.0</ele><time>2026-04-18T15:49:39Z</time></trkpt><trkpt lat="42.111594528290475" lon="12.41707476739984"><ele>231.0</ele><time>2026-04-18T15:49:40Z</time></trkpt><trkpt lat="42.11149752231639" lon="12.41696754354083"><ele>231.0</ele><time>2026-04-18T15:49:41Z</time></trkpt><trkpt lat="42.11138596847907" lon="12.416889376304145"><ele>230.0</ele><time>2026-04-18T15:49:42Z</time></trkpt><trkpt lat="42.11126474235923" lon="12.416843375441651"><ele>229.0</ele><time>2026-04-18T15:49:42.999Z</time></trkpt><trkpt lat="42.11113865907971" lon="12.41681885045537"><ele>228.0</ele><time>2026-04-18T15:49:43.999Z</time></trkpt><trkpt lat="42.11101140716621" lon="12.416817790251866"><ele>227.0</ele><time>2026-04-18T15:49:44.999Z</time></trkpt><trkpt lat="42.11088274134949" lon="12.416844474968007"><ele>227.0</ele><time>2026-04-18T15:49:45.999Z</time></trkpt><trkpt lat="42.110750667751994" lon="12.416885845307512"><ele>227.0</ele><time>2026-04-18T15:49:46.999Z</time></trkpt><trkpt lat="42.11061248513055" lon="12.416932072692864"><ele>227.0</ele><time>2026-04-18T15:49:47.999Z</time></trkpt><trkpt lat="42.110459946032904" lon="12.416977858688758"><ele>227.0</ele><time>2026-04-18T15:49:48.999Z</time></trkpt><trkpt lat="42.110309602404335" lon="12.417024920995516"><ele>227.0</ele><time>2026-04-18T15:49:49.999Z</time></trkpt><trkpt lat="42.110152491755834" lon="12.417074744701907"><ele>227.0</ele><time>2026-04-18T15:49:50.999Z</time></trkpt><trkpt lat="42.10998682729725" lon="12.417120933171258"><ele>227.0</ele><time>2026-04-18T15:49:51.999Z</time></trkpt><trkpt lat="42.109821985091244" lon="12.417167406896253"><ele>230.66666666666669</ele><time>2026-04-18T15:49:52.999Z</time></trkpt><trkpt lat="42.10964929959063" lon="12.417225079037342"><ele>234.33333333333331</ele><time>2026-04-18T15:49:53.999Z</time></trkpt><trkpt lat="42.10947710171736" lon="12.417281105421651"><ele>238.0</ele><time>2026-04-18T15:49:54.999Z</time></trkpt><trkpt lat="42.109317992387545" lon="12.417329693747407"><ele>238.0</ele><time>2026-04-18T15:49:55.999Z</time></trkpt><trkpt lat="42.10916568181954" lon="12.417377685049651"><ele>238.0</ele><time>2026-04-18T15:49:56.999Z</time></trkpt><trkpt lat="42.10902566690587" lon="12.417406893782893"><ele>238.0</ele><time>2026-04-18T15:49:57.999Z</time></trkpt><trkpt lat="42.10888059512395" lon="12.417413403223446"><ele>238.0</ele><time>2026-04-18T15:49:58.999Z</time></trkpt><trkpt lat="42.10874020909623" lon="12.41738332230811"><ele>239.66666666666666</ele><time>2026-04-18T15:49:59.999Z</time></trkpt><trkpt lat="42.1086073104951" lon="12.417315745043377"><ele>241.33333333333331</ele><time>2026-04-18T15:50:00.999Z</time></trkpt><trkpt lat="42.10847431913303" lon="12.417223547351067"><ele>243.0</ele><time>2026-04-18T15:50:01.999Z</time></trkpt><trkpt lat="42.10833419402748" lon="12.417095161364834"><ele>243.33333333333331</ele><time>2026-04-18T15:50:02.999Z</time></trkpt><trkpt lat="42.10818417064765" lon="12.416945802634679"><ele>243.66666666666666</ele><time>2026-04-18T15:50:03.999Z</time></trkpt><trkpt lat="42.10801107948513" lon="12.416802823097644"><ele>244.0</ele><time>2026-04-18T15:50:04.999Z</time></trkpt><trkpt lat="42.107824687512924" lon="12.41666799024883"><ele>244.0</ele><time>2026-04-18T15:50:05.999Z</time></trkpt><trkpt lat="42.10762471012546" lon="12.416549145325353"><ele>244.0</ele><time>2026-04-18T15:50:06.999Z</time></trkpt><trkpt lat="42.107433200278756" lon="12.416435689149042"><ele>244.0</ele><time>2026-04-18T15:50:07.999Z</time></trkpt><trkpt lat="42.107253100108714" lon="12.41632551258392"><ele>243.33333333333331</ele><time>2026-04-18T15:50:08.999Z</time></trkpt><trkpt lat="42.10708590656517" lon="12.41622807164068"><ele>242.66666666666669</ele><time>2026-04-18T15:50:09.999Z</time></trkpt><trkpt lat="42.10690915640793" lon="12.41614531915773"><ele>242.0</ele><time>2026-04-18T15:50:10.999Z</time></trkpt><trkpt lat="42.10674099045038" lon="12.416092332868024"><ele>242.0</ele><time>2026-04-18T15:50:11.999Z</time></trkpt><trkpt lat="42.106603287389476" lon="12.416071801544794"><ele>242.0</ele><time>2026-04-18T15:50:12.999Z</time></trkpt><trkpt lat="42.106494348104874" lon="12.416059571222645"><ele>242.0</ele><time>2026-04-18T15:50:13.999Z</time></trkpt><trkpt lat="42.10640393619782" lon="12.416041081124815"><ele>242.0</ele><time>2026-04-18T15:50:14.999Z</time></trkpt><trkpt lat="42.10631482363514" lon="12.416029937510121"><ele>242.0</ele><time>2026-04-18T15:50:15.999Z</time></trkpt><trkpt lat="42.10620486702427" lon="12.41601961758865"><ele>242.75</ele><time>2026-04-18T15:50:16.999Z</time></trkpt><trkpt lat="42.10607445753318" lon="12.415989613319184"><ele>243.5</ele><time>2026-04-18T15:50:17.999Z</time></trkpt><trkpt lat="42.105938113725514" lon="12.415969292657863"><ele>244.25</ele><time>2026-04-18T15:50:18.999Z</time></trkpt><trkpt lat="42.10578717838171" lon="12.415955569697715"><ele>245.0</ele><time>2026-04-18T15:50:19.999Z</time></trkpt><trkpt lat="42.10562378076035" lon="12.415924578541542"><ele>245.33333333333334</ele><time>2026-04-18T15:50:20.999Z</time></trkpt><trkpt lat="42.105451069061246" lon="12.415903294481323"><ele>245.66666666666669</ele><time>2026-04-18T15:50:21.999Z</time></trkpt><trkpt lat="42.10527198829995" lon="12.415902135994308"><ele>246.0</ele><time>2026-04-18T15:50:22.999Z</time></trkpt><trkpt lat="42.10509567212023" lon="12.415936403439682"><ele>246.66666666666669</ele><time>2026-04-18T15:50:23.999Z</time></trkpt><trkpt lat="42.10490507551323" lon="12.415992867371429"><ele>247.33333333333334</ele><time>2026-04-18T15:50:24.999Z</time></trkpt><trkpt lat="42.10470337517326" lon="12.416062537852437"><ele>248.0</ele><time>2026-04-18T15:50:25.999Z</time></trkpt><trkpt lat="42.10449673750202" lon="12.416151690248423"><ele>248.0</ele><time>2026-04-18T15:50:26.999Z</time></trkpt><trkpt lat="42.104290017679" lon="12.416242131143754"><ele>248.0</ele><time>2026-04-18T15:50:27.999Z</time></trkpt><trkpt lat="42.10407308930195" lon="12.416339212450213"><ele>248.0</ele><time>2026-04-18T15:50:28.999Z</time></trkpt><trkpt lat="42.10384922113696" lon="12.41643447611343"><ele>251.0</ele><time>2026-04-18T15:50:29.999Z</time></trkpt><trkpt lat="42.103618373737824" lon="12.416528511913207"><ele>254.0</ele><time>2026-04-18T15:50:30.998Z</time></trkpt><trkpt lat="42.103374314958856" lon="12.41662729049292"><ele>253.5</ele><time>2026-04-18T15:50:31.998Z</time></trkpt><trkpt lat="42.10315257353854" lon="12.416721133349064"><ele>253.0</ele><time>2026-04-18T15:50:32.998Z</time></trkpt><trkpt lat="42.102936635794556" lon="12.41680964001431"><ele>253.0</ele><time>2026-04-18T15:50:33.998Z</time></trkpt><trkpt lat="42.10273195796184" lon="12.416894526240553"><ele>253.0</ele><time>2026-04-18T15:50:34.998Z</time></trkpt><trkpt lat="42.10254179707027" lon="12.416975798152734"><ele>253.0</ele><time>2026-04-18T15:50:35.998Z</time></trkpt><trkpt lat="42.102337423852234" lon="12.417062803772902"><ele>253.66666666666666</ele><time>2026-04-18T15:50:36.998Z</time></trkpt><trkpt lat="42.1021460152187" lon="12.41713230318583"><ele>254.33333333333331</ele><time>2026-04-18T15:50:37.998Z</time></trkpt><trkpt lat="42.10196759642648" lon="12.417210414419406"><ele>255.0</ele><time>2026-04-18T15:50:38.998Z</time></trkpt><trkpt lat="42.10179966576269" lon="12.41728343060668"><ele>255.0</ele><time>2026-04-18T15:50:39.998Z</time></trkpt><trkpt lat="42.10163616741867" lon="12.417359777759199"><ele>255.0</ele><time>2026-04-18T15:50:40.998Z</time></trkpt><trkpt lat="42.101485831074456" lon="12.417438327158779"><ele>255.0</ele><time>2026-04-18T15:50:41.998Z</time></trkpt><trkpt lat="42.10135969690028" lon="12.417537599755219"><ele>255.0</ele><time>2026-04-18T15:50:42.998Z</time></trkpt><trkpt lat="42.10125670110207" lon="12.417652951631858"><ele>255.0</ele><time>2026-04-18T15:50:43.998Z</time></trkpt><trkpt lat="42.101173344109206" lon="12.417801852372785"><ele>255.0</ele><time>2026-04-18T15:50:44.998Z</time></trkpt><trkpt lat="42.101097730295024" lon="12.417978906659735"><ele>255.0</ele><time>2026-04-18T15:50:45.998Z</time></trkpt><trkpt lat="42.101006342575324" lon="12.41817669724589"><ele>255.5</ele><time>2026-04-18T15:50:47Z</time></trkpt><trkpt lat="42.10092137625849" lon="12.418341371057792"><ele>256.0</ele><time>2026-04-18T15:50:48Z</time></trkpt><trkpt lat="42.100845197548495" lon="12.418488869469805"><ele>256.5</ele><time>2026-04-18T15:50:49Z</time></trkpt><trkpt lat="42.10075566770566" lon="12.418613160943815"><ele>257.0</ele><time>2026-04-18T15:50:50Z</time></trkpt><trkpt lat="42.10064711084148" lon="12.418716653980036"><ele>257.6666666666667</ele><time>2026-04-18T15:50:51Z</time></trkpt><trkpt lat="42.10050803120703" lon="12.418786164444171"><ele>258.3333333333333</ele><time>2026-04-18T15:50:52Z</time></trkpt><trkpt lat="42.10035082973591" lon="12.418801473573541"><ele>259.0</ele><time>2026-04-18T15:50:53Z</time></trkpt><trkpt lat="42.100180051793195" lon="12.418793845258676"><ele>259.0</ele><time>2026-04-18T15:50:54Z</time></trkpt><trkpt lat="42.09999753832988" lon="12.418797219887429"><ele>259.0</ele><time>2026-04-18T15:50:55Z</time></trkpt><trkpt lat="42.09980662355747" lon="12.418806490744434"><ele>259.0</ele><time>2026-04-18T15:50:56Z</time></trkpt><trkpt lat="42.099619222382366" lon="12.418811941821094"><ele>260.66666666666663</ele><time>2026-04-18T15:50:57Z</time></trkpt><trkpt lat="42.09943859812371" lon="12.418816905671626"><ele>262.3333333333333</ele><time>2026-04-18T15:50:58Z</time></trkpt><trkpt lat="42.0992718739704" lon="12.418826719852422"><ele>264.0</ele><time>2026-04-18T15:50:59Z</time></trkpt><trkpt lat="42.09911774234887" lon="12.418831591874723"><ele>266.25</ele><time>2026-04-18T15:51:00Z</time></trkpt><trkpt lat="42.098961484594724" lon="12.41883734026775"><ele>268.5</ele><time>2026-04-18T15:51:01Z</time></trkpt><trkpt lat="42.09880867145713" lon="12.418846681777366"><ele>270.75</ele><time>2026-04-18T15:51:02Z</time></trkpt><trkpt lat="42.09867551347649" lon="12.418855306132128"><ele>273.0</ele><time>2026-04-18T15:51:03Z</time></trkpt><trkpt lat="42.098545046165846" lon="12.418892472216191"><ele>273.0</ele><time>2026-04-18T15:51:04Z</time></trkpt><trkpt lat="42.09842187350566" lon="12.418982487667288"><ele>273.0</ele><time>2026-04-18T15:51:05Z</time></trkpt><trkpt lat="42.0983002516345" lon="12.41910511699212"><ele>273.0</ele><time>2026-04-18T15:51:06Z</time></trkpt><trkpt lat="42.098171233014014" lon="12.419262261186546"><ele>274.3333333333333</ele><time>2026-04-18T15:51:07Z</time></trkpt><trkpt lat="42.09804272627409" lon="12.419415500855415"><ele>275.66666666666663</ele><time>2026-04-18T15:51:08Z</time></trkpt><trkpt lat="42.097910364278526" lon="12.419576536668686"><ele>277.0</ele><time>2026-04-18T15:51:09Z</time></trkpt><trkpt lat="42.097774740810024" lon="12.419733984261258"><ele>278.5</ele><time>2026-04-18T15:51:10Z</time></trkpt><trkpt lat="42.09765967858784" lon="12.419867431737126"><ele>280.0</ele><time>2026-04-18T15:51:11Z</time></trkpt><trkpt lat="42.097559421946166" lon="12.419973201539285"><ele>281.5</ele><time>2026-04-18T15:51:12Z</time></trkpt><trkpt lat="42.09748195057953" lon="12.42006600867549"><ele>283.0</ele><time>2026-04-18T15:51:13Z</time></trkpt><trkpt lat="42.0973926344291" lon="12.42009888165868"><ele>285.0</ele><time>2026-04-18T15:51:14Z</time></trkpt><trkpt lat="42.09729229474639" lon="12.420094559287204"><ele>287.0</ele><time>2026-04-18T15:51:15Z</time></trkpt><trkpt lat="42.09718260485321" lon="12.420050169489599"><ele>289.0</ele><time>2026-04-18T15:51:16Z</time></trkpt><trkpt lat="42.097068975533816" lon="12.419974040462222"><ele>291.0</ele><time>2026-04-18T15:51:17Z</time></trkpt><trkpt lat="42.096957414167065" lon="12.419891888976613"><ele>291.0</ele><time>2026-04-18T15:51:18Z</time></trkpt><trkpt lat="42.09681596536779" lon="12.41979231702038"><ele>291.0</ele><time>2026-04-18T15:51:19Z</time></trkpt><trkpt lat="42.0966803379072" lon="12.419684971318842"><ele>291.0</ele><time>2026-04-18T15:51:20Z</time></trkpt><trkpt lat="42.09652738545151" lon="12.419580839583706"><ele>291.3333333333333</ele><time>2026-04-18T15:51:21Z</time></trkpt><trkpt lat="42.09637786911644" lon="12.419478666310553"><ele>291.66666666666663</ele><time>2026-04-18T15:51:22Z</time></trkpt><trkpt lat="42.096243864510285" lon="12.4193965655491"><ele>292.0</ele><time>2026-04-18T15:51:23Z</time></trkpt><trkpt lat="42.09610779038824" lon="12.419330189605276"><ele>292.0</ele><time>2026-04-18T15:51:24Z</time></trkpt><trkpt lat="42.0959471954897" lon="12.419296509897247"><ele>292.0</ele><time>2026-04-18T15:51:25Z</time></trkpt><trkpt lat="42.09577468486051" lon="12.419272526107825"><ele>292.0</ele><time>2026-04-18T15:51:26Z</time></trkpt><trkpt lat="42.09561008872624" lon="12.4192483255556"><ele>292.66666666666663</ele><time>2026-04-18T15:51:27Z</time></trkpt><trkpt lat="42.09543357221739" lon="12.41920011969338"><ele>293.3333333333333</ele><time>2026-04-18T15:51:28Z</time></trkpt><trkpt lat="42.09524937616095" lon="12.419157371723601"><ele>294.0</ele><time>2026-04-18T15:51:29Z</time></trkpt><trkpt lat="42.0950729462603" lon="12.419118450839726"><ele>293.6666666666667</ele><time>2026-04-18T15:51:30Z</time></trkpt><trkpt lat="42.09490159165976" lon="12.419077656637326"><ele>293.33333333333337</ele><time>2026-04-18T15:51:31Z</time></trkpt><trkpt lat="42.09472656703519" lon="12.419045738664627"><ele>293.0</ele><time>2026-04-18T15:51:32Z</time></trkpt><trkpt lat="42.09455787469718" lon="12.418999289034273"><ele>293.0</ele><time>2026-04-18T15:51:33Z</time></trkpt><trkpt lat="42.094410550204685" lon="12.418956358004925"><ele>293.0</ele><time>2026-04-18T15:51:34Z</time></trkpt><trkpt lat="42.09428257427117" lon="12.41889816594601"><ele>293.0</ele><time>2026-04-18T15:51:35Z</time></trkpt><trkpt lat="42.09415967064839" lon="12.418797882561133"><ele>293.0</ele><time>2026-04-18T15:51:36Z</time></trkpt><trkpt lat="42.094031742723864" lon="12.418678281485086"><ele>292.33333333333337</ele><time>2026-04-18T15:51:37Z</time></trkpt><trkpt lat="42.09389687101919" lon="12.418542472379887"><ele>291.6666666666667</ele><time>2026-04-18T15:51:38Z</time></trkpt><trkpt lat="42.09375281204641" lon="12.41839861024009"><ele>291.0</ele><time>2026-04-18T15:51:39Z</time></trkpt><trkpt lat="42.09360648732042" lon="12.418257818045458"><ele>291.0</ele><time>2026-04-18T15:51:39.999Z</time></trkpt><trkpt lat="42.09344415014825" lon="12.418107742091879"><ele>291.0</ele><time>2026-04-18T15:51:40.999Z</time></trkpt><trkpt lat="42.09327856719914" lon="12.417949140038962"><ele>291.0</ele><time>2026-04-18T15:51:41.999Z</time></trkpt><trkpt lat="42.09310792788271" lon="12.41777491468379"><ele>291.0</ele><time>2026-04-18T15:51:42.999Z</time></trkpt><trkpt lat="42.09293044624395" lon="12.41760713038133"><ele>291.0</ele><time>2026-04-18T15:51:43.999Z</time></trkpt><trkpt lat="42.09276257266671" lon="12.417448291555099"><ele>291.0</ele><time>2026-04-18T15:51:44.999Z</time></trkpt><trkpt lat="42.092604618893425" lon="12.417293568965128"><ele>291.0</ele><time>2026-04-18T15:51:45.999Z</time></trkpt><trkpt lat="42.09247262082422" lon="12.417165603692261"><ele>291.0</ele><time>2026-04-18T15:51:46.999Z</time></trkpt><trkpt lat="42.09234434664734" lon="12.417046933770274"><ele>291.0</ele><time>2026-04-18T15:51:47.999Z</time></trkpt><trkpt lat="42.092212890919264" lon="12.416921645952517"><ele>289.6666666666667</ele><time>2026-04-18T15:51:48.999Z</time></trkpt><trkpt lat="42.0920811588694" lon="12.416777939605726"><ele>288.33333333333337</ele><time>2026-04-18T15:51:49.999Z</time></trkpt><trkpt lat="42.09195570304917" lon="12.416642911375144"><ele>287.0</ele><time>2026-04-18T15:51:50.999Z</time></trkpt><trkpt lat="42.09184034305099" lon="12.416525075000203"><ele>287.0</ele><time>2026-04-18T15:51:51.999Z</time></trkpt><trkpt lat="42.09173047002641" lon="12.416415835929763"><ele>287.0</ele><time>2026-04-18T15:51:52.999Z</time></trkpt><trkpt lat="42.09162619780709" lon="12.416287287594056"><ele>287.0</ele><time>2026-04-18T15:51:53.999Z</time></trkpt><trkpt lat="42.091537048173095" lon="12.416129573203959"><ele>287.0</ele><time>2026-04-18T15:51:54.999Z</time></trkpt><trkpt lat="42.09145767695754" lon="12.415953077507591"><ele>287.0</ele><time>2026-04-18T15:51:55.999Z</time></trkpt><trkpt lat="42.091384791329" lon="12.415770925533835"><ele>287.0</ele><time>2026-04-18T15:51:56.999Z</time></trkpt><trkpt lat="42.09132773837708" lon="12.41560428107771"><ele>287.0</ele><time>2026-04-18T15:51:57.999Z</time></trkpt><trkpt lat="42.09127837890914" lon="12.415453864781211"><ele>287.0</ele><time>2026-04-18T15:51:58.999Z</time></trkpt><trkpt lat="42.09123049792097" lon="12.41530585817241"><ele>287.0</ele><time>2026-04-18T15:51:59.999Z</time></trkpt><trkpt lat="42.09120436011282" lon="12.415149851675855"><ele>287.0</ele><time>2026-04-18T15:52:00.999Z</time></trkpt><trkpt lat="42.091190133510736" lon="12.41497990179853"><ele>287.0</ele><time>2026-04-18T15:52:01.999Z</time></trkpt><trkpt lat="42.091190069002835" lon="12.414796579772677"><ele>287.0</ele><time>2026-04-18T15:52:02.999Z</time></trkpt><trkpt lat="42.09119167329325" lon="12.414592694382488"><ele>286.25</ele><time>2026-04-18T15:52:03.999Z</time></trkpt><trkpt lat="42.09119059561483" lon="12.414382734351879"><ele>285.5</ele><time>2026-04-18T15:52:04.999Z</time></trkpt><trkpt lat="42.09118279872242" lon="12.41418507188558"><ele>284.75</ele><time>2026-04-18T15:52:05.999Z</time></trkpt><trkpt lat="42.09119614656243" lon="12.41401905446473"><ele>284.0</ele><time>2026-04-18T15:52:06.999Z</time></trkpt><trkpt lat="42.09120512308133" lon="12.413857654526993"><ele>283.59999999999997</ele><time>2026-04-18T15:52:07.999Z</time></trkpt><trkpt lat="42.09119872911041" lon="12.413725437389536"><ele>283.2</ele><time>2026-04-18T15:52:08.999Z</time></trkpt><trkpt lat="42.09118462300558" lon="12.413604402122303"><ele>282.79999999999995</ele><time>2026-04-18T15:52:09.999Z</time></trkpt><trkpt lat="42.09117297692001" lon="12.413498817116137"><ele>282.4</ele><time>2026-04-18T15:52:10.999Z</time></trkpt><trkpt lat="42.09116017501271" lon="12.413368530159959"><ele>282.0</ele><time>2026-04-18T15:52:11.999Z</time></trkpt><trkpt lat="42.09114130631436" lon="12.413221521914915"><ele>282.0</ele><time>2026-04-18T15:52:13.999Z</time></trkpt><trkpt lat="42.091099574512135" lon="12.413046496710704"><ele>282.0</ele><time>2026-04-18T15:52:15.999Z</time></trkpt><trkpt lat="42.09107641930657" lon="12.412931159795013"><ele>282.0</ele><time>2026-04-18T15:52:16.999Z</time></trkpt><trkpt lat="42.09104199330725" lon="12.412817667814451"><ele>282.0</ele><time>2026-04-18T15:52:17.999Z</time></trkpt><trkpt lat="42.090996542242536" lon="12.41270046619494"><ele>282.0</ele><time>2026-04-18T15:52:18.999Z</time></trkpt><trkpt lat="42.09094034806466" lon="12.412578825839622"><ele>281.75</ele><time>2026-04-18T15:52:19.999Z</time></trkpt><trkpt lat="42.09087800481887" lon="12.41245206222452"><ele>281.5</ele><time>2026-04-18T15:52:20.999Z</time></trkpt><trkpt lat="42.09080600278504" lon="12.412321784537976"><ele>281.25</ele><time>2026-04-18T15:52:21.999Z</time></trkpt><trkpt lat="42.090736656659246" lon="12.412188982415277"><ele>281.0</ele><time>2026-04-18T15:52:22.999Z</time></trkpt><trkpt lat="42.09066312505528" lon="12.412047819782668"><ele>279.5</ele><time>2026-04-18T15:52:23.999Z</time></trkpt><trkpt lat="42.09058677891787" lon="12.411898217442802"><ele>278.0</ele><time>2026-04-18T15:52:24.999Z</time></trkpt><trkpt lat="42.09050722224979" lon="12.411744094285698"><ele>276.5</ele><time>2026-04-18T15:52:25.999Z</time></trkpt><trkpt lat="42.09042166055158" lon="12.411592837111913"><ele>275.0</ele><time>2026-04-18T15:52:26.999Z</time></trkpt><trkpt lat="42.0903272604184" lon="12.411441286426058"><ele>275.33333333333337</ele><time>2026-04-18T15:52:27.998Z</time></trkpt><trkpt lat="42.09022474975381" lon="12.411294743767114"><ele>275.6666666666667</ele><time>2026-04-18T15:52:28.998Z</time></trkpt><trkpt lat="42.090114091178286" lon="12.411152495300827"><ele>276.0</ele><time>2026-04-18T15:52:29.998Z</time></trkpt><trkpt lat="42.089997209411756" lon="12.411012676250644"><ele>274.0</ele><time>2026-04-18T15:52:30.998Z</time></trkpt><trkpt lat="42.08987816790757" lon="12.410869940523776"><ele>272.0</ele><time>2026-04-18T15:52:31.998Z</time></trkpt><trkpt lat="42.08975882522473" lon="12.410720102865982"><ele>270.0</ele><time>2026-04-18T15:52:32.998Z</time></trkpt><trkpt lat="42.08963913705661" lon="12.410557417879547"><ele>271.5</ele><time>2026-04-18T15:52:33.998Z</time></trkpt><trkpt lat="42.08952848029628" lon="12.410417744314163"><ele>273.0</ele><time>2026-04-18T15:52:34.998Z</time></trkpt><trkpt lat="42.08944033266518" lon="12.41030439113272"><ele>274.5</ele><time>2026-04-18T15:52:35.998Z</time></trkpt><trkpt lat="42.089349256174145" lon="12.410173577612689"><ele>276.0</ele><time>2026-04-18T15:52:36.998Z</time></trkpt><trkpt lat="42.089212050101764" lon="12.410132547319492"><ele>276.25</ele><time>2026-04-18T15:52:37.998Z</time></trkpt><trkpt lat="42.08907055102376" lon="12.41011008022847"><ele>276.5</ele><time>2026-04-18T15:52:38.998Z</time></trkpt><trkpt lat="42.0889314772874" lon="12.410130446036728"><ele>276.75</ele><time>2026-04-18T15:52:39.998Z</time></trkpt><trkpt lat="42.088792696680564" lon="12.41018102190569"><ele>277.0</ele><time>2026-04-18T15:52:40.998Z</time></trkpt><trkpt lat="42.08865815676638" lon="12.410242290781035"><ele>277.0</ele><time>2026-04-18T15:52:41.998Z</time></trkpt><trkpt lat="42.08853595550749" lon="12.410291263439255"><ele>277.0</ele><time>2026-04-18T15:52:42.998Z</time></trkpt><trkpt lat="42.088421421046185" lon="12.410310326702001"><ele>277.0</ele><time>2026-04-18T15:52:43.998Z</time></trkpt><trkpt lat="42.08832547941263" lon="12.41029354584128"><ele>277.0</ele><time>2026-04-18T15:52:44.998Z</time></trkpt><trkpt lat="42.08823903175701" lon="12.410238164152895"><ele>277.0</ele><time>2026-04-18T15:52:45.998Z</time></trkpt><trkpt lat="42.088153091782864" lon="12.410147457617123"><ele>277.25</ele><time>2026-04-18T15:52:46.998Z</time></trkpt><trkpt lat="42.0880761451657" lon="12.41002222354295"><ele>277.5</ele><time>2026-04-18T15:52:47.998Z</time></trkpt><trkpt lat="42.08799827438444" lon="12.409880621601703"><ele>277.75</ele><time>2026-04-18T15:52:48.998Z</time></trkpt><trkpt lat="42.08791470600559" lon="12.409741969314632"><ele>278.0</ele><time>2026-04-18T15:52:49.998Z</time></trkpt><trkpt lat="42.087828457936965" lon="12.409630612251549"><ele>278.0</ele><time>2026-04-18T15:52:50.998Z</time></trkpt><trkpt lat="42.08772357336771" lon="12.409550252510916"><ele>278.0</ele><time>2026-04-18T15:52:51.998Z</time></trkpt><trkpt lat="42.087602517600565" lon="12.409504942451708"><ele>278.0</ele><time>2026-04-18T15:52:53Z</time></trkpt><trkpt lat="42.08746502122414" lon="12.409528110202336"><ele>278.0</ele><time>2026-04-18T15:52:54Z</time></trkpt><trkpt lat="42.087327793622144" lon="12.409593004672313"><ele>274.6666666666667</ele><time>2026-04-18T15:52:55Z</time></trkpt><trkpt lat="42.08719176667546" lon="12.409678106515624"><ele>271.3333333333333</ele><time>2026-04-18T15:52:56Z</time></trkpt><trkpt lat="42.08705014245938" lon="12.409754452252201"><ele>268.0</ele><time>2026-04-18T15:52:57Z</time></trkpt><trkpt lat="42.08690997564275" lon="12.409833258525442"><ele>268.0</ele><time>2026-04-18T15:52:58Z</time></trkpt><trkpt lat="42.08678366321358" lon="12.409896843507921"><ele>268.0</ele><time>2026-04-18T15:52:59Z</time></trkpt><trkpt lat="42.086671587604094" lon="12.409933241141143"><ele>268.0</ele><time>2026-04-18T15:53:00Z</time></trkpt><trkpt lat="42.08657050442253" lon="12.409924786134315"><ele>268.0</ele><time>2026-04-18T15:53:01Z</time></trkpt><trkpt lat="42.08648306389697" lon="12.409861607910589"><ele>268.2</ele><time>2026-04-18T15:53:02Z</time></trkpt><trkpt lat="42.08641589665066" lon="12.409752165658853"><ele>268.4</ele><time>2026-04-18T15:53:03Z</time></trkpt><trkpt lat="42.0863564072913" lon="12.40962339815728"><ele>268.59999999999997</ele><time>2026-04-18T15:53:04Z</time></trkpt><trkpt lat="42.08627358869752" lon="12.409525575410555"><ele>268.8</ele><time>2026-04-18T15:53:05Z</time></trkpt><trkpt lat="42.086162428417275" lon="12.409477531375591"><ele>269.0</ele><time>2026-04-18T15:53:06Z</time></trkpt><trkpt lat="42.08603333329013" lon="12.409483817391605"><ele>269.0</ele><time>2026-04-18T15:53:07Z</time></trkpt><trkpt lat="42.0859070199883" lon="12.409541007001398"><ele>269.0</ele><time>2026-04-18T15:53:08Z</time></trkpt><trkpt lat="42.0857749243379" lon="12.409632770467978"><ele>269.0</ele><time>2026-04-18T15:53:09Z</time></trkpt><trkpt lat="42.08562332620764" lon="12.409733299863213"><ele>267.59999999999997</ele><time>2026-04-18T15:53:10Z</time></trkpt><trkpt lat="42.08547726690453" lon="12.409800369487208"><ele>266.2</ele><time>2026-04-18T15:53:11Z</time></trkpt><trkpt lat="42.085368617910774" lon="12.409837690298836"><ele>264.79999999999995</ele><time>2026-04-18T15:53:12Z</time></trkpt><trkpt lat="42.085293920362375" lon="12.409869082234797"><ele>263.4</ele><time>2026-04-18T15:53:13Z</time></trkpt><trkpt lat="42.085223640547504" lon="12.409903163937923"><ele>262.0</ele><time>2026-04-18T15:53:14Z</time></trkpt><trkpt lat="42.08515840527199" lon="12.409936885172563"><ele>262.0</ele><time>2026-04-18T15:53:15Z</time></trkpt><trkpt lat="42.08508922047061" lon="12.409970646603703"><ele>262.0</ele><time>2026-04-18T15:53:16Z</time></trkpt><trkpt lat="42.08502649756849" lon="12.409998539528242"><ele>262.0</ele><time>2026-04-18T15:53:17Z</time></trkpt><trkpt lat="42.084965661196755" lon="12.41002319898441"><ele>262.0</ele><time>2026-04-18T15:53:18Z</time></trkpt><trkpt lat="42.08489558135788" lon="12.41003582851311"><ele>262.0</ele><time>2026-04-18T15:53:19Z</time></trkpt><trkpt lat="42.08482208723219" lon="12.410022407970104"><ele>262.0</ele><time>2026-04-18T15:53:20Z</time></trkpt><trkpt lat="42.08474138641888" lon="12.40998439951248"><ele>262.0</ele><time>2026-04-18T15:53:21Z</time></trkpt><trkpt lat="42.08467395909219" lon="12.409914144095787"><ele>261.75</ele><time>2026-04-18T15:53:22Z</time></trkpt><trkpt lat="42.08462051279175" lon="12.40980622128319"><ele>261.5</ele><time>2026-04-18T15:53:23Z</time></trkpt><trkpt lat="42.08457783476995" lon="12.40966568742975"><ele>261.25</ele><time>2026-04-18T15:53:24Z</time></trkpt><trkpt lat="42.08452065743021" lon="12.409485848006872"><ele>261.0</ele><time>2026-04-18T15:53:25Z</time></trkpt><trkpt lat="42.0844601894469" lon="12.409272628719963"><ele>260.6666666666667</ele><time>2026-04-18T15:53:26Z</time></trkpt><trkpt lat="42.084410759596096" lon="12.409037537385405"><ele>260.33333333333337</ele><time>2026-04-18T15:53:27Z</time></trkpt><trkpt lat="42.08435726055734" lon="12.408784351047986"><ele>260.0</ele><time>2026-04-18T15:53:28Z</time></trkpt><trkpt lat="42.084297354509744" lon="12.408534791680735"><ele>258.33333333333337</ele><time>2026-04-18T15:53:29Z</time></trkpt><trkpt lat="42.08424256555629" lon="12.408306916679429"><ele>256.6666666666667</ele><time>2026-04-18T15:53:30Z</time></trkpt><trkpt lat="42.08419386794397" lon="12.408100550097277"><ele>255.0</ele><time>2026-04-18T15:53:31Z</time></trkpt><trkpt lat="42.08414668221057" lon="12.407906995388524"><ele>255.0</ele><time>2026-04-18T15:53:32Z</time></trkpt><trkpt lat="42.084097038584005" lon="12.407729814350436"><ele>255.0</ele><time>2026-04-18T15:53:33Z</time></trkpt><trkpt lat="42.08403425338611" lon="12.407587138008633"><ele>255.0</ele><time>2026-04-18T15:53:34Z</time></trkpt><trkpt lat="42.083944762354356" lon="12.407488345426826"><ele>255.0</ele><time>2026-04-18T15:53:35Z</time></trkpt><trkpt lat="42.08382911532874" lon="12.407445470313908"><ele>253.75</ele><time>2026-04-18T15:53:36Z</time></trkpt><trkpt lat="42.08369738466992" lon="12.407430817468015"><ele>252.5</ele><time>2026-04-18T15:53:37Z</time></trkpt><trkpt lat="42.083548065421155" lon="12.407432193411537"><ele>251.25</ele><time>2026-04-18T15:53:38Z</time></trkpt><trkpt lat="42.08339535053829" lon="12.407422000912613"><ele>250.0</ele><time>2026-04-18T15:53:39Z</time></trkpt><trkpt lat="42.08323759705001" lon="12.407398419805801"><ele>247.75</ele><time>2026-04-18T15:53:40Z</time></trkpt><trkpt lat="42.083092097937545" lon="12.40736728940509"><ele>245.5</ele><time>2026-04-18T15:53:41Z</time></trkpt><trkpt lat="42.08296059712444" lon="12.407327802634105"><ele>243.25</ele><time>2026-04-18T15:53:42Z</time></trkpt><trkpt lat="42.08283102248727" lon="12.407284357019586"><ele>241.0</ele><time>2026-04-18T15:53:43Z</time></trkpt><trkpt lat="42.08270091114345" lon="12.407237668934311"><ele>241.0</ele><time>2026-04-18T15:53:44Z</time></trkpt><trkpt lat="42.08257733785364" lon="12.40719502957286"><ele>241.0</ele><time>2026-04-18T15:53:45Z</time></trkpt><trkpt lat="42.08246217980607" lon="12.407155313165077"><ele>241.0</ele><time>2026-04-18T15:53:45.999Z</time></trkpt><trkpt lat="42.08234954554257" lon="12.407116467574866"><ele>241.0</ele><time>2026-04-18T15:53:46.999Z</time></trkpt><trkpt lat="42.082244641124355" lon="12.407071386459648"><ele>240.0</ele><time>2026-04-18T15:53:47.999Z</time></trkpt><trkpt lat="42.08214375427948" lon="12.407036250411538"><ele>239.00000000000003</ele><time>2026-04-18T15:53:48.999Z</time></trkpt><trkpt lat="42.08205307758192" lon="12.406997170015115"><ele>238.00000000000003</ele><time>2026-04-18T15:53:49.999Z</time></trkpt><trkpt lat="42.08196712017079" lon="12.406941357847673"><ele>237.0</ele><time>2026-04-18T15:53:50.999Z</time></trkpt><trkpt lat="42.08188758021927" lon="12.406875463174442"><ele>236.0</ele><time>2026-04-18T15:53:51.999Z</time></trkpt><trkpt lat="42.081819951638515" lon="12.406799745683491"><ele>236.0</ele><time>2026-04-18T15:53:52.999Z</time></trkpt><trkpt lat="42.08177214094921" lon="12.406699693513799"><ele>236.00000000000003</ele><time>2026-04-18T15:53:53.999Z</time></trkpt><trkpt lat="42.08174233621512" lon="12.406586268278312"><ele>236.00000000000003</ele><time>2026-04-18T15:53:54.999Z</time></trkpt><trkpt lat="42.081729516848405" lon="12.406458699077506"><ele>236.0</ele><time>2026-04-18T15:53:55.999Z</time></trkpt><trkpt lat="42.08174875402632" lon="12.406323098754452"><ele>236.0</ele><time>2026-04-18T15:53:56.999Z</time></trkpt><trkpt lat="42.08175584705955" lon="12.40617818257455"><ele>236.20000000000002</ele><time>2026-04-18T15:53:57.999Z</time></trkpt><trkpt lat="42.08176540181782" lon="12.406021022710789"><ele>236.40000000000003</ele><time>2026-04-18T15:53:58.999Z</time></trkpt><trkpt lat="42.081773458427186" lon="12.405898443275975"><ele>236.6</ele><time>2026-04-18T15:53:59.999Z</time></trkpt><trkpt lat="42.08178315279142" lon="12.405779767202862"><ele>236.8</ele><time>2026-04-18T15:54:00.999Z</time></trkpt><trkpt lat="42.08179206322112" lon="12.405669431345247"><ele>237.0</ele><time>2026-04-18T15:54:01.999Z</time></trkpt><trkpt lat="42.08180166498912" lon="12.405550534876506"><ele>237.8</ele><time>2026-04-18T15:54:02.999Z</time></trkpt><trkpt lat="42.08181422998045" lon="12.405428882962287"><ele>238.6</ele><time>2026-04-18T15:54:03.999Z</time></trkpt><trkpt lat="42.08183119224097" lon="12.405313376642118"><ele>239.40000000000003</ele><time>2026-04-18T15:54:04.999Z</time></trkpt><trkpt lat="42.08184926451484" lon="12.405186757201264"><ele>240.20000000000002</ele><time>2026-04-18T15:54:05.999Z</time></trkpt><trkpt lat="42.08187758664907" lon="12.405062216406805"><ele>241.0</ele><time>2026-04-18T15:54:06.999Z</time></trkpt><trkpt lat="42.08189132965605" lon="12.404924984459626"><ele>241.0</ele><time>2026-04-18T15:54:07.999Z</time></trkpt><trkpt lat="42.08192328417399" lon="12.404784317186845"><ele>241.00000000000003</ele><time>2026-04-18T15:54:08.999Z</time></trkpt><trkpt lat="42.08195472295286" lon="12.404655216765066"><ele>241.00000000000003</ele><time>2026-04-18T15:54:09.999Z</time></trkpt><trkpt lat="42.081999160829525" lon="12.404546772576674"><ele>241.0</ele><time>2026-04-18T15:54:10.999Z</time></trkpt><trkpt lat="42.08202791866021" lon="12.404438893641464"><ele>241.0</ele><time>2026-04-18T15:54:11.999Z</time></trkpt><trkpt lat="42.08205109198897" lon="12.40435118456759"><ele>240.66666666666666</ele><time>2026-04-18T15:54:12.999Z</time></trkpt><trkpt lat="42.082070113853405" lon="12.40426824879569"><ele>240.33333333333331</ele><time>2026-04-18T15:54:13.999Z</time></trkpt><trkpt lat="42.08207403798528" lon="12.404100943202712"><ele>240.0</ele><time>2026-04-18T15:54:15.999Z</time></trkpt><trkpt lat="42.08207015401469" lon="12.404009912537832"><ele>239.66666666666669</ele><time>2026-04-18T15:54:16.999Z</time></trkpt><trkpt lat="42.08206214645956" lon="12.403914136080443"><ele>239.33333333333334</ele><time>2026-04-18T15:54:17.999Z</time></trkpt><trkpt lat="42.0820654160227" lon="12.403821812741239"><ele>239.0</ele><time>2026-04-18T15:54:18.999Z</time></trkpt><trkpt lat="42.082054204416295" lon="12.403731838277267"><ele>239.00000000000003</ele><time>2026-04-18T15:54:19.999Z</time></trkpt><trkpt lat="42.0820469442719" lon="12.40364209244633"><ele>239.0</ele><time>2026-04-18T15:54:20.999Z</time></trkpt><trkpt lat="42.082047282158776" lon="12.4035476399472"><ele>239.00000000000003</ele><time>2026-04-18T15:54:21.999Z</time></trkpt><trkpt lat="42.082048323348594" lon="12.40345540355398"><ele>239.00000000000003</ele><time>2026-04-18T15:54:22.999Z</time></trkpt><trkpt lat="42.08205705773717" lon="12.403356379306798"><ele>239.0</ele><time>2026-04-18T15:54:23.999Z</time></trkpt><trkpt lat="42.08207696463376" lon="12.403263152547526"><ele>239.00000000000003</ele><time>2026-04-18T15:54:24.999Z</time></trkpt><trkpt lat="42.08210029574676" lon="12.403167385891113"><ele>239.00000000000003</ele><time>2026-04-18T15:54:25.999Z</time></trkpt><trkpt lat="42.08213107069641" lon="12.403075444108051"><ele>238.16666666666669</ele><time>2026-04-18T15:54:26.999Z</time></trkpt><trkpt lat="42.08215644825314" lon="12.402981823474715"><ele>237.33333333333334</ele><time>2026-04-18T15:54:27.999Z</time></trkpt><trkpt lat="42.08216814706572" lon="12.402888960108363"><ele>236.5</ele><time>2026-04-18T15:54:28.999Z</time></trkpt><trkpt lat="42.08219219923727" lon="12.402806865821109"><ele>235.66666666666669</ele><time>2026-04-18T15:54:29.999Z</time></trkpt><trkpt lat="42.082162760759736" lon="12.402724233979644"><ele>234.83333333333334</ele><time>2026-04-18T15:54:30.999Z</time></trkpt><trkpt lat="42.082105878894474" lon="12.40257949445287"><ele>234.0</ele><time>2026-04-18T15:54:32.998Z</time></trkpt><trkpt lat="42.08205739386239" lon="12.402517309471179"><ele>234.0</ele><time>2026-04-18T15:54:33.998Z</time></trkpt><trkpt lat="42.08200572381087" lon="12.402453129702637"><ele>234.0</ele><time>2026-04-18T15:54:34.998Z</time></trkpt><trkpt lat="42.08194858392166" lon="12.402394072811266"><ele>234.0</ele><time>2026-04-18T15:54:35.998Z</time></trkpt><trkpt lat="42.081885883289694" lon="12.40233894367434"><ele>234.0</ele><time>2026-04-18T15:54:36.998Z</time></trkpt><trkpt lat="42.0818174638934" lon="12.402289450837511"><ele>234.0</ele><time>2026-04-18T15:54:37.998Z</time></trkpt><trkpt lat="42.08174283221589" lon="12.402240946233228"><ele>234.0</ele><time>2026-04-18T15:54:38.998Z</time></trkpt><trkpt lat="42.08167593023267" lon="12.402191054736017"><ele>233.0</ele><time>2026-04-18T15:54:39.998Z</time></trkpt><trkpt lat="42.081613951531075" lon="12.402145308259502"><ele>232.0</ele><time>2026-04-18T15:54:40.998Z</time></trkpt><trkpt lat="42.081545138565524" lon="12.40208262066591"><ele>231.0</ele><time>2026-04-18T15:54:41.998Z</time></trkpt><trkpt lat="42.08146760361197" lon="12.4020310595186"><ele>230.0</ele><time>2026-04-18T15:54:42.998Z</time></trkpt><trkpt lat="42.081386792252744" lon="12.401975375263401"><ele>229.0</ele><time>2026-04-18T15:54:43.998Z</time></trkpt><trkpt lat="42.0813033394029" lon="12.401916545697098"><ele>228.0</ele><time>2026-04-18T15:54:44.998Z</time></trkpt><trkpt lat="42.08123377439626" lon="12.401862020054962"><ele>228.0</ele><time>2026-04-18T15:54:45.998Z</time></trkpt><trkpt lat="42.08117382303313" lon="12.401817490172638"><ele>227.99999999999997</ele><time>2026-04-18T15:54:46.998Z</time></trkpt><trkpt lat="42.08111049651642" lon="12.401761904398892"><ele>228.0</ele><time>2026-04-18T15:54:47.998Z</time></trkpt><trkpt lat="42.08104542752941" lon="12.401720692326393"><ele>228.0</ele><time>2026-04-18T15:54:48.998Z</time></trkpt><trkpt lat="42.080974721322605" lon="12.401674736718244"><ele>227.99999999999997</ele><time>2026-04-18T15:54:49.998Z</time></trkpt><trkpt lat="42.08090802360227" lon="12.401632267813559"><ele>228.0</ele><time>2026-04-18T15:54:50.998Z</time></trkpt><trkpt lat="42.08085133736051" lon="12.401591198587687"><ele>228.0</ele><time>2026-04-18T15:54:51.998Z</time></trkpt><trkpt lat="42.08079616606999" lon="12.40154541552682"><ele>227.33333333333334</ele><time>2026-04-18T15:54:52.998Z</time></trkpt><trkpt lat="42.080739385461115" lon="12.401501032498453"><ele>226.66666666666669</ele><time>2026-04-18T15:54:53.998Z</time></trkpt><trkpt lat="42.080681700812036" lon="12.401459339712805"><ele>226.0</ele><time>2026-04-18T15:54:54.998Z</time></trkpt><trkpt lat="42.080615201440445" lon="12.40141366705272"><ele>225.33333333333334</ele><time>2026-04-18T15:54:55.998Z</time></trkpt><trkpt lat="42.08054851298375" lon="12.401379213095925"><ele>224.66666666666669</ele><time>2026-04-18T15:54:56.998Z</time></trkpt><trkpt lat="42.08043045719109" lon="12.401322223738289"><ele>224.0</ele><time>2026-04-18T15:54:59Z</time></trkpt><trkpt lat="42.08034668619234" lon="12.40123063600796"><ele>224.0</ele><time>2026-04-18T15:55:01Z</time></trkpt><trkpt lat="42.08031109579521" lon="12.40110865508696"><ele>223.99999999999997</ele><time>2026-04-18T15:55:03Z</time></trkpt><trkpt lat="42.08032617720365" lon="12.400960159435547"><ele>223.99999999999997</ele><time>2026-04-18T15:55:05Z</time></trkpt><trkpt lat="42.080345884663" lon="12.400814705947822"><ele>224.0</ele><time>2026-04-18T15:55:07Z</time></trkpt><trkpt lat="42.080356887902134" lon="12.400664977527972"><ele>224.0</ele><time>2026-04-18T15:55:09Z</time></trkpt><trkpt lat="42.08037274908776" lon="12.400543011830491"><ele>222.0</ele><time>2026-04-18T15:55:11Z</time></trkpt><trkpt lat="42.080421240852345" lon="12.400423722120989"><ele>219.99999999999997</ele><time>2026-04-18T15:55:13Z</time></trkpt><trkpt lat="42.08048457951516" lon="12.40034655406521"><ele>217.99999999999997</ele><time>2026-04-18T15:55:15Z</time></trkpt><trkpt lat="42.08055751002122" lon="12.400319911258247"><ele>216.0</ele><time>2026-04-18T15:55:17Z</time></trkpt><trkpt lat="42.08062361429027" lon="12.400262618381024"><ele>214.0</ele><time>2026-04-18T15:55:19Z</time></trkpt><trkpt lat="42.080726638481536" lon="12.400209054201751"><ele>214.85714285714286</ele><time>2026-04-18T15:55:21Z</time></trkpt><trkpt lat="42.08079470848643" lon="12.400200069233227"><ele>215.71428571428572</ele><time>2026-04-18T15:55:22Z</time></trkpt><trkpt lat="42.08086156924083" lon="12.400168433944911"><ele>216.57142857142856</ele><time>2026-04-18T15:55:23Z</time></trkpt><trkpt lat="42.08092249198329" lon="12.400117009780319"><ele>217.42857142857144</ele><time>2026-04-18T15:55:24Z</time></trkpt><trkpt lat="42.080995386935925" lon="12.40008530845841"><ele>218.28571428571428</ele><time>2026-04-18T15:55:25Z</time></trkpt><trkpt lat="42.08106739241179" lon="12.400050091964792"><ele>219.14285714285714</ele><time>2026-04-18T15:55:26Z</time></trkpt><trkpt lat="42.0811339811493" lon="12.40002387255207"><ele>220.0</ele><time>2026-04-18T15:55:27Z</time></trkpt><trkpt lat="42.08123817399184" lon="12.39998126488323"><ele>219.99999999999997</ele><time>2026-04-18T15:55:29Z</time></trkpt><trkpt lat="42.081315517934094" lon="12.399942834510929"><ele>220.0</ele><time>2026-04-18T15:55:31Z</time></trkpt><trkpt lat="42.08138548588024" lon="12.399911463735727"><ele>220.0</ele><time>2026-04-18T15:55:33Z</time></trkpt><trkpt lat="42.08144475824217" lon="12.399881102752474"><ele>220.0</ele><time>2026-04-18T15:55:35Z</time></trkpt><trkpt lat="42.08151231730364" lon="12.399847630742364"><ele>219.99999999999997</ele><time>2026-04-18T15:55:37Z</time></trkpt><trkpt lat="42.08160851969271" lon="12.399816177085482"><ele>220.0</ele><time>2026-04-18T15:55:39Z</time></trkpt><trkpt lat="42.081575037059906" lon="12.399523895811216"><ele>219.49999999999997</ele><time>2026-04-18T15:55:41Z</time></trkpt><trkpt lat="42.08154915220732" lon="12.399422903775598"><ele>219.0</ele><time>2026-04-18T15:55:42Z</time></trkpt><trkpt lat="42.08151610820895" lon="12.399315846329754"><ele>218.5</ele><time>2026-04-18T15:55:43Z</time></trkpt><trkpt lat="42.081472729997756" lon="12.399211026815125"><ele>218.0</ele><time>2026-04-18T15:55:44Z</time></trkpt><trkpt lat="42.08142198050483" lon="12.399119339231687"><ele>217.49999999999997</ele><time>2026-04-18T15:55:45Z</time></trkpt><trkpt lat="42.08136913892362" lon="12.399057100481297"><ele>217.0</ele><time>2026-04-18T15:55:46Z</time></trkpt><trkpt lat="42.08130864252264" lon="12.399014955912842"><ele>217.0</ele><time>2026-04-18T15:55:47Z</time></trkpt><trkpt lat="42.08115813763785" lon="12.399055607016399"><ele>217.0</ele><time>2026-04-18T15:55:48Z</time></trkpt><trkpt lat="42.081041815182495" lon="12.399093394727474"><ele>217.0</ele><time>2026-04-18T15:55:49Z</time></trkpt><trkpt lat="42.08092962108301" lon="12.399115942585743"><ele>217.0</ele><time>2026-04-18T15:55:50Z</time></trkpt><trkpt lat="42.080833590843554" lon="12.399133938825921"><ele>217.2</ele><time>2026-04-18T15:55:50.999Z</time></trkpt><trkpt lat="42.08072864770522" lon="12.399151565433463"><ele>217.39999999999998</ele><time>2026-04-18T15:55:51.999Z</time></trkpt><trkpt lat="42.08061845562544" lon="12.399171247977959"><ele>217.60000000000002</ele><time>2026-04-18T15:55:52.999Z</time></trkpt><trkpt lat="42.08050360547553" lon="12.399188070832508"><ele>217.8</ele><time>2026-04-18T15:55:53.999Z</time></trkpt><trkpt lat="42.08039472794304" lon="12.399201559556305"><ele>218.0</ele><time>2026-04-18T15:55:54.999Z</time></trkpt><trkpt lat="42.08030535717081" lon="12.39921022431979"><ele>218.00000000000003</ele><time>2026-04-18T15:55:55.999Z</time></trkpt><trkpt lat="42.08022318508394" lon="12.39922380328863"><ele>218.0</ele><time>2026-04-18T15:55:56.999Z</time></trkpt><trkpt lat="42.0801434479878" lon="12.39923138453153"><ele>218.0</ele><time>2026-04-18T15:55:57.999Z</time></trkpt><trkpt lat="42.080074803116915" lon="12.399233369119278"><ele>218.0</ele><time>2026-04-18T15:55:58.999Z</time></trkpt><trkpt lat="42.0800081839731" lon="12.399241432232232"><ele>218.00000000000003</ele><time>2026-04-18T15:55:59.999Z</time></trkpt><trkpt lat="42.07988214206894" lon="12.39924425414083"><ele>218.0</ele><time>2026-04-18T15:56:01.999Z</time></trkpt><trkpt lat="42.07976070614144" lon="12.399240891764999"><ele>217.50000000000003</ele><time>2026-04-18T15:56:03.999Z</time></trkpt><trkpt lat="42.079636070155516" lon="12.399224854585826"><ele>217.0</ele><time>2026-04-18T15:56:05.999Z</time></trkpt><trkpt lat="42.07957209665017" lon="12.399213882502226"><ele>216.5</ele><time>2026-04-18T15:56:06.999Z</time></trkpt><trkpt lat="42.079508672753065" lon="12.39920103917999"><ele>216.0</ele><time>2026-04-18T15:56:07.999Z</time></trkpt><trkpt lat="42.079443002981115" lon="12.39918687999868"><ele>215.50000000000003</ele><time>2026-04-18T15:56:08.999Z</time></trkpt><trkpt lat="42.079375321838214" lon="12.39917324187388"><ele>215.0</ele><time>2026-04-18T15:56:09.999Z</time></trkpt><trkpt lat="42.07928221420347" lon="12.399167393067746"><ele>215.0</ele><time>2026-04-18T15:56:11.999Z</time></trkpt><trkpt lat="42.07919418321814" lon="12.399149616830874"><ele>215.0</ele><time>2026-04-18T15:56:13.999Z</time></trkpt><trkpt lat="42.07907904875537" lon="12.399135988279777"><ele>215.0</ele><time>2026-04-18T15:56:15.999Z</time></trkpt><trkpt lat="42.07901114766738" lon="12.39912834110867"><ele>215.0</ele><time>2026-04-18T15:56:16.999Z</time></trkpt><trkpt lat="42.07889809180815" lon="12.399120186831288"><ele>215.0</ele><time>2026-04-18T15:56:18.999Z</time></trkpt><trkpt lat="42.07883474193332" lon="12.39910770447464"><ele>214.2</ele><time>2026-04-18T15:56:19.999Z</time></trkpt><trkpt lat="42.0787629414738" lon="12.399106382822737"><ele>213.4</ele><time>2026-04-18T15:56:20.999Z</time></trkpt><trkpt lat="42.0786832498141" lon="12.399111693899172"><ele>212.60000000000002</ele><time>2026-04-18T15:56:21.999Z</time></trkpt><trkpt lat="42.07858404719163" lon="12.399119205025583"><ele>211.8</ele><time>2026-04-18T15:56:22.999Z</time></trkpt><trkpt lat="42.0784665311224" lon="12.399135496264098"><ele>211.0</ele><time>2026-04-18T15:56:23.999Z</time></trkpt><trkpt lat="42.07832293604512" lon="12.399162412898805"><ele>211.66666666666666</ele><time>2026-04-18T15:56:24.999Z</time></trkpt><trkpt lat="42.07816592390272" lon="12.399207405119842"><ele>212.33333333333331</ele><time>2026-04-18T15:56:25.999Z</time></trkpt><trkpt lat="42.07799986426359" lon="12.399232992406342"><ele>213.0</ele><time>2026-04-18T15:56:26.999Z</time></trkpt><trkpt lat="42.07785340876898" lon="12.399267008715727"><ele>213.0</ele><time>2026-04-18T15:56:27.999Z</time></trkpt><trkpt lat="42.07769900248284" lon="12.399293846822744"><ele>213.0</ele><time>2026-04-18T15:56:28.999Z</time></trkpt><trkpt lat="42.077542049296746" lon="12.399291424034027"><ele>213.0</ele><time>2026-04-18T15:56:29.999Z</time></trkpt><trkpt lat="42.07739567799929" lon="12.39926980790154"><ele>212.0</ele><time>2026-04-18T15:56:30.999Z</time></trkpt><trkpt lat="42.077264821148226" lon="12.399229817389243"><ele>211.0</ele><time>2026-04-18T15:56:31.999Z</time></trkpt><trkpt lat="42.07714650299476" lon="12.39917805542651"><ele>210.0</ele><time>2026-04-18T15:56:32.999Z</time></trkpt><trkpt lat="42.07702502416171" lon="12.399153355699033"><ele>209.0</ele><time>2026-04-18T15:56:33.999Z</time></trkpt><trkpt lat="42.07690257423782" lon="12.399120032749249"><ele>209.0</ele><time>2026-04-18T15:56:34.999Z</time></trkpt><trkpt lat="42.07678377169519" lon="12.39908332690379"><ele>209.0</ele><time>2026-04-18T15:56:35.999Z</time></trkpt><trkpt lat="42.076670680364046" lon="12.39904533891934"><ele>209.0</ele><time>2026-04-18T15:56:36.999Z</time></trkpt><trkpt lat="42.076567514238675" lon="12.398996349223316"><ele>209.0</ele><time>2026-04-18T15:56:37.998Z</time></trkpt><trkpt lat="42.07647353553528" lon="12.398936687978573"><ele>208.79999999999998</ele><time>2026-04-18T15:56:38.998Z</time></trkpt><trkpt lat="42.07639435103779" lon="12.398857818586263"><ele>208.6</ele><time>2026-04-18T15:56:39.998Z</time></trkpt><trkpt lat="42.07631909843033" lon="12.398767522741212"><ele>208.4</ele><time>2026-04-18T15:56:40.998Z</time></trkpt><trkpt lat="42.076251879920456" lon="12.398685536132442"><ele>208.2</ele><time>2026-04-18T15:56:41.998Z</time></trkpt><trkpt lat="42.07617769543779" lon="12.398612508675962"><ele>208.0</ele><time>2026-04-18T15:56:42.998Z</time></trkpt><trkpt lat="42.076102426047456" lon="12.398534835621154"><ele>207.99999999999997</ele><time>2026-04-18T15:56:43.998Z</time></trkpt><trkpt lat="42.076007944460805" lon="12.39847685110744"><ele>208.0</ele><time>2026-04-18T15:56:44.998Z</time></trkpt><trkpt lat="42.07591460290629" lon="12.398423362643106"><ele>208.0</ele><time>2026-04-18T15:56:45.998Z</time></trkpt><trkpt lat="42.07582476010815" lon="12.398390598771563"><ele>208.0</ele><time>2026-04-18T15:56:46.998Z</time></trkpt><trkpt lat="42.07574590572649" lon="12.39837091815108"><ele>207.99999999999997</ele><time>2026-04-18T15:56:47.998Z</time></trkpt><trkpt lat="42.07568144997368" lon="12.398340682270526"><ele>208.0</ele><time>2026-04-18T15:56:48.998Z</time></trkpt><trkpt lat="42.075611887206286" lon="12.398301427311925"><ele>207.66666666666666</ele><time>2026-04-18T15:56:49.998Z</time></trkpt><trkpt lat="42.07554879227323" lon="12.398242805901896"><ele>207.33333333333331</ele><time>2026-04-18T15:56:50.998Z</time></trkpt><trkpt lat="42.07549763114099" lon="12.398166789198855"><ele>207.0</ele><time>2026-04-18T15:56:51.998Z</time></trkpt><trkpt lat="42.07545443037329" lon="12.398087816536721"><ele>206.66666666666669</ele><time>2026-04-18T15:56:52.998Z</time></trkpt><trkpt lat="42.07541005772675" lon="12.398011763723739"><ele>206.33333333333334</ele><time>2026-04-18T15:56:53.998Z</time></trkpt><trkpt lat="42.07529599846897" lon="12.397984295900201"><ele>206.0</ele><time>2026-04-18T15:56:55.998Z</time></trkpt><trkpt lat="42.075233284800184" lon="12.398020942081699"><ele>206.00000000000003</ele><time>2026-04-18T15:56:56.998Z</time></trkpt><trkpt lat="42.07516854869967" lon="12.398063719432306"><ele>206.0</ele><time>2026-04-18T15:56:57.998Z</time></trkpt><trkpt lat="42.07509305948699" lon="12.398090883451172"><ele>206.0</ele><time>2026-04-18T15:56:58.998Z</time></trkpt><trkpt lat="42.07500267052491" lon="12.39810394730325"><ele>206.0</ele><time>2026-04-18T15:56:59.998Z</time></trkpt><trkpt lat="42.07491013328404" lon="12.398100356939633"><ele>206.00000000000003</ele><time>2026-04-18T15:57:00.998Z</time></trkpt><trkpt lat="42.07482443256991" lon="12.398088587004175"><ele>206.0</ele><time>2026-04-18T15:57:01.998Z</time></trkpt><trkpt lat="42.07475153927793" lon="12.398070656466212"><ele>206.20000000000002</ele><time>2026-04-18T15:57:02.998Z</time></trkpt><trkpt lat="42.0746791943739" lon="12.398040539189939"><ele>206.4</ele><time>2026-04-18T15:57:03.998Z</time></trkpt><trkpt lat="42.07459077106222" lon="12.39801616354703"><ele>206.6</ele><time>2026-04-18T15:57:05Z</time></trkpt><trkpt lat="42.07448754373566" lon="12.39799565019579"><ele>206.8</ele><time>2026-04-18T15:57:06Z</time></trkpt><trkpt lat="42.074371683674606" lon="12.397970836861433"><ele>207.0</ele><time>2026-04-18T15:57:07Z</time></trkpt><trkpt lat="42.07424929782938" lon="12.397941885027004"><ele>207.0</ele><time>2026-04-18T15:57:08Z</time></trkpt><trkpt lat="42.07412809836305" lon="12.397911867559364"><ele>207.0</ele><time>2026-04-18T15:57:09Z</time></trkpt><trkpt lat="42.07400283410203" lon="12.397885811216828"><ele>207.0</ele><time>2026-04-18T15:57:10Z</time></trkpt><trkpt lat="42.0738828050141" lon="12.397858706620761"><ele>207.0</ele><time>2026-04-18T15:57:11Z</time></trkpt><trkpt lat="42.073763252559296" lon="12.397836287110055"><ele>206.75</ele><time>2026-04-18T15:57:12Z</time></trkpt><trkpt lat="42.07364337240582" lon="12.39781911920334"><ele>206.5</ele><time>2026-04-18T15:57:13Z</time></trkpt><trkpt lat="42.07352350482331" lon="12.397795192697302"><ele>206.25</ele><time>2026-04-18T15:57:14Z</time></trkpt><trkpt lat="42.0734020167917" lon="12.39776995091059"><ele>206.0</ele><time>2026-04-18T15:57:15Z</time></trkpt><trkpt lat="42.07327233167956" lon="12.397747877833156"><ele>204.75</ele><time>2026-04-18T15:57:16Z</time></trkpt><trkpt lat="42.07313597692134" lon="12.39772245526583"><ele>203.5</ele><time>2026-04-18T15:57:17Z</time></trkpt><trkpt lat="42.072993020024526" lon="12.397693124714365"><ele>202.25</ele><time>2026-04-18T15:57:18Z</time></trkpt><trkpt lat="42.07284922760846" lon="12.397663263095605"><ele>201.0</ele><time>2026-04-18T15:57:19Z</time></trkpt><trkpt lat="42.072704490484625" lon="12.397635071191452"><ele>201.0</ele><time>2026-04-18T15:57:20Z</time></trkpt><trkpt lat="42.07255743756577" lon="12.397605120536788"><ele>201.0</ele><time>2026-04-18T15:57:21Z</time></trkpt><trkpt lat="42.07241318850346" lon="12.397575671643823"><ele>201.0</ele><time>2026-04-18T15:57:22Z</time></trkpt><trkpt lat="42.07228312453678" lon="12.397543504500602"><ele>201.0</ele><time>2026-04-18T15:57:23Z</time></trkpt><trkpt lat="42.072162730787646" lon="12.397519245612438"><ele>200.5</ele><time>2026-04-18T15:57:24Z</time></trkpt><trkpt lat="42.07204946644816" lon="12.397493023687048"><ele>200.0</ele><time>2026-04-18T15:57:25Z</time></trkpt><trkpt lat="42.07193409179191" lon="12.397470207589325"><ele>199.5</ele><time>2026-04-18T15:57:26Z</time></trkpt><trkpt lat="42.071813856820604" lon="12.397445786665656"><ele>199.0</ele><time>2026-04-18T15:57:27Z</time></trkpt><trkpt lat="42.071691198324" lon="12.397414363798731"><ele>198.75</ele><time>2026-04-18T15:57:28Z</time></trkpt><trkpt lat="42.071562926420704" lon="12.39738217671163"><ele>198.5</ele><time>2026-04-18T15:57:29Z</time></trkpt><trkpt lat="42.071433012266304" lon="12.397352090432213"><ele>198.25</ele><time>2026-04-18T15:57:30Z</time></trkpt><trkpt lat="42.07129494564822" lon="12.397317717679226"><ele>198.0</ele><time>2026-04-18T15:57:31Z</time></trkpt><trkpt lat="42.071152753816996" lon="12.397294938570724"><ele>198.0</ele><time>2026-04-18T15:57:32Z</time></trkpt><trkpt lat="42.071002779501455" lon="12.397290143174777"><ele>198.0</ele><time>2026-04-18T15:57:33Z</time></trkpt><trkpt lat="42.07085111235868" lon="12.397314909978155"><ele>198.0</ele><time>2026-04-18T15:57:34Z</time></trkpt><trkpt lat="42.07068928477191" lon="12.397341004879696"><ele>197.66666666666669</ele><time>2026-04-18T15:57:35Z</time></trkpt><trkpt lat="42.07052818243408" lon="12.397363497324372"><ele>197.33333333333334</ele><time>2026-04-18T15:57:36Z</time></trkpt><trkpt lat="42.070364639649746" lon="12.397390731675362"><ele>197.0</ele><time>2026-04-18T15:57:37Z</time></trkpt><trkpt lat="42.070199490883375" lon="12.397406843809515"><ele>197.0</ele><time>2026-04-18T15:57:38Z</time></trkpt><trkpt lat="42.07003417973144" lon="12.39743521452469"><ele>197.0</ele><time>2026-04-18T15:57:39Z</time></trkpt><trkpt lat="42.06987073083194" lon="12.39745907178461"><ele>197.0</ele><time>2026-04-18T15:57:40Z</time></trkpt><trkpt lat="42.069710617943144" lon="12.397481323162024"><ele>196.33333333333334</ele><time>2026-04-18T15:57:41Z</time></trkpt><trkpt lat="42.069550048380684" lon="12.397503414006177"><ele>195.66666666666669</ele><time>2026-04-18T15:57:42Z</time></trkpt><trkpt lat="42.06938901018131" lon="12.39752769590776"><ele>195.0</ele><time>2026-04-18T15:57:43Z</time></trkpt><trkpt lat="42.06923244775137" lon="12.397548084787834"><ele>193.66666666666666</ele><time>2026-04-18T15:57:44Z</time></trkpt><trkpt lat="42.06907684763178" lon="12.397565157369044"><ele>192.33333333333331</ele><time>2026-04-18T15:57:45Z</time></trkpt><trkpt lat="42.068917716405295" lon="12.397591264505584"><ele>191.0</ele><time>2026-04-18T15:57:46Z</time></trkpt><trkpt lat="42.06876517033067" lon="12.397614687307158"><ele>191.0</ele><time>2026-04-18T15:57:47Z</time></trkpt><trkpt lat="42.06860968008371" lon="12.397639788466268"><ele>191.0</ele><time>2026-04-18T15:57:48Z</time></trkpt><trkpt lat="42.0684506353936" lon="12.397672523746754"><ele>191.0</ele><time>2026-04-18T15:57:49Z</time></trkpt><trkpt lat="42.06828448280171" lon="12.397700964667997"><ele>189.66666666666666</ele><time>2026-04-18T15:57:50Z</time></trkpt><trkpt lat="42.068119122835036" lon="12.397731574153044"><ele>188.33333333333334</ele><time>2026-04-18T15:57:51Z</time></trkpt><trkpt lat="42.067940135515045" lon="12.397749908577838"><ele>187.0</ele><time>2026-04-18T15:57:52Z</time></trkpt><trkpt lat="42.06776025573772" lon="12.397768180819506"><ele>187.0</ele><time>2026-04-18T15:57:53Z</time></trkpt><trkpt lat="42.06758339282117" lon="12.397788391289785"><ele>187.0</ele><time>2026-04-18T15:57:54Z</time></trkpt><trkpt lat="42.06741596251741" lon="12.39779710442996"><ele>187.0</ele><time>2026-04-18T15:57:55Z</time></trkpt><trkpt lat="42.06724236492641" lon="12.397806345210432"><ele>187.0</ele><time>2026-04-18T15:57:55.999Z</time></trkpt><trkpt lat="42.06708172201088" lon="12.397808616074323"><ele>187.0</ele><time>2026-04-18T15:57:56.999Z</time></trkpt><trkpt lat="42.066927379222726" lon="12.39769869431486"><ele>187.0</ele><time>2026-04-18T15:57:57.999Z</time></trkpt><trkpt lat="42.06678264594649" lon="12.397700618329791"><ele>187.0</ele><time>2026-04-18T15:57:58.999Z</time></trkpt><trkpt lat="42.06661522682138" lon="12.39780173861282"><ele>187.0</ele><time>2026-04-18T15:57:59.999Z</time></trkpt><trkpt lat="42.0664540196979" lon="12.397773449396373"><ele>187.0</ele><time>2026-04-18T15:58:00.999Z</time></trkpt><trkpt lat="42.066285907987" lon="12.39772614915071"><ele>186.33333333333334</ele><time>2026-04-18T15:58:01.999Z</time></trkpt><trkpt lat="42.06611557938316" lon="12.39766617014987"><ele>185.66666666666666</ele><time>2026-04-18T15:58:02.999Z</time></trkpt><trkpt lat="42.0659456171635" lon="12.397603395071263"><ele>185.0</ele><time>2026-04-18T15:58:03.999Z</time></trkpt><trkpt lat="42.06578345753778" lon="12.397552144392106"><ele>184.66666666666666</ele><time>2026-04-18T15:58:04.999Z</time></trkpt><trkpt lat="42.0656167578352" lon="12.397516055414265"><ele>184.33333333333334</ele><time>2026-04-18T15:58:05.999Z</time></trkpt><trkpt lat="42.06544881712955" lon="12.397496149869388"><ele>184.0</ele><time>2026-04-18T15:58:06.999Z</time></trkpt><trkpt lat="42.06527951029431" lon="12.39749244935978"><ele>184.0</ele><time>2026-04-18T15:58:07.999Z</time></trkpt><trkpt lat="42.06510478301352" lon="12.397501528456964"><ele>184.0</ele><time>2026-04-18T15:58:08.999Z</time></trkpt><trkpt lat="42.06493856228306" lon="12.397513767140657"><ele>184.0</ele><time>2026-04-18T15:58:09.999Z</time></trkpt><trkpt lat="42.06477434449179" lon="12.397529977202185"><ele>182.33333333333334</ele><time>2026-04-18T15:58:10.999Z</time></trkpt><trkpt lat="42.064607363042036" lon="12.39755512488465"><ele>180.66666666666666</ele><time>2026-04-18T15:58:11.999Z</time></trkpt><trkpt lat="42.064445647958244" lon="12.397592327531775"><ele>179.0</ele><time>2026-04-18T15:58:12.999Z</time></trkpt><trkpt lat="42.064291488909085" lon="12.397631116830482"><ele>179.0</ele><time>2026-04-18T15:58:13.999Z</time></trkpt><trkpt lat="42.06414650394635" lon="12.397671809772694"><ele>179.0</ele><time>2026-04-18T15:58:14.999Z</time></trkpt><trkpt lat="42.064010618008" lon="12.397709437440517"><ele>179.0</ele><time>2026-04-18T15:58:15.999Z</time></trkpt><trkpt lat="42.06387340117995" lon="12.397744280054443"><ele>179.0</ele><time>2026-04-18T15:58:16.999Z</time></trkpt><trkpt lat="42.06373074878258" lon="12.397776400156259"><ele>178.75</ele><time>2026-04-18T15:58:17.999Z</time></trkpt><trkpt lat="42.063589156851194" lon="12.397816049611151"><ele>178.5</ele><time>2026-04-18T15:58:18.999Z</time></trkpt><trkpt lat="42.0634557938978" lon="12.397858385039495"><ele>178.25</ele><time>2026-04-18T15:58:19.999Z</time></trkpt><trkpt lat="42.06330410576887" lon="12.397891673396101"><ele>178.0</ele><time>2026-04-18T15:58:20.999Z</time></trkpt><trkpt lat="42.06313545973734" lon="12.397963547275612"><ele>176.66666666666669</ele><time>2026-04-18T15:58:21.999Z</time></trkpt><trkpt lat="42.062949087107555" lon="12.3980129673949"><ele>175.33333333333334</ele><time>2026-04-18T15:58:22.999Z</time></trkpt><trkpt lat="42.06276494016088" lon="12.398067030422906"><ele>174.0</ele><time>2026-04-18T15:58:23.999Z</time></trkpt><trkpt lat="42.06259856512881" lon="12.398117306624256"><ele>172.66666666666666</ele><time>2026-04-18T15:58:24.999Z</time></trkpt><trkpt lat="42.062436681409274" lon="12.398167245445995"><ele>171.33333333333331</ele><time>2026-04-18T15:58:25.999Z</time></trkpt><trkpt lat="42.06226905790078" lon="12.398220151236211"><ele>170.0</ele><time>2026-04-18T15:58:26.999Z</time></trkpt><trkpt lat="42.06210767493482" lon="12.39827048988393"><ele>170.0</ele><time>2026-04-18T15:58:27.999Z</time></trkpt><trkpt lat="42.06195600581408" lon="12.398313505366117"><ele>170.0</ele><time>2026-04-18T15:58:28.999Z</time></trkpt><trkpt lat="42.06180936572351" lon="12.398347318307673"><ele>170.0</ele><time>2026-04-18T15:58:29.999Z</time></trkpt><trkpt lat="42.06167119117316" lon="12.3983682326314"><ele>170.0</ele><time>2026-04-18T15:58:30.999Z</time></trkpt><trkpt lat="42.06153916744258" lon="12.398365734340265"><ele>169.8</ele><time>2026-04-18T15:58:31.999Z</time></trkpt><trkpt lat="42.06141785141624" lon="12.398354918132549"><ele>169.6</ele><time>2026-04-18T15:58:32.999Z</time></trkpt><trkpt lat="42.06131116834694" lon="12.398348663144137"><ele>169.39999999999998</ele><time>2026-04-18T15:58:33.999Z</time></trkpt><trkpt lat="42.06122174073716" lon="12.398348816975759"><ele>169.2</ele><time>2026-04-18T15:58:34.999Z</time></trkpt><trkpt lat="42.061138754229944" lon="12.398342442576524"><ele>169.0</ele><time>2026-04-18T15:58:35.999Z</time></trkpt><trkpt lat="42.06105635911104" lon="12.398305144599881"><ele>169.0</ele><time>2026-04-18T15:58:36.999Z</time></trkpt><trkpt lat="42.06096943015159" lon="12.39826671239218"><ele>169.0</ele><time>2026-04-18T15:58:37.999Z</time></trkpt><trkpt lat="42.06087915606432" lon="12.398280907371685"><ele>169.0</ele><time>2026-04-18T15:58:38.999Z</time></trkpt><trkpt lat="42.06080034830458" lon="12.398357043984593"><ele>169.0</ele><time>2026-04-18T15:58:39.999Z</time></trkpt><trkpt lat="42.060724275691115" lon="12.398457744196607"><ele>169.0</ele><time>2026-04-18T15:58:40.999Z</time></trkpt><trkpt lat="42.06062847407403" lon="12.398548956136796"><ele>167.66666666666669</ele><time>2026-04-18T15:58:41.999Z</time></trkpt><trkpt lat="42.06050137836516" lon="12.398635012353221"><ele>166.33333333333334</ele><time>2026-04-18T15:58:42.999Z</time></trkpt><trkpt lat="42.06035897504063" lon="12.398714997027257"><ele>165.0</ele><time>2026-04-18T15:58:43.998Z</time></trkpt><trkpt lat="42.06021133337696" lon="12.398774069907045"><ele>165.0</ele><time>2026-04-18T15:58:44.998Z</time></trkpt><trkpt lat="42.06004659115934" lon="12.398819824333549"><ele>165.0</ele><time>2026-04-18T15:58:45.998Z</time></trkpt><trkpt lat="42.05987419338745" lon="12.398868285615071"><ele>165.0</ele><time>2026-04-18T15:58:46.998Z</time></trkpt><trkpt lat="42.05970015118895" lon="12.398916017635639"><ele>164.0</ele><time>2026-04-18T15:58:47.998Z</time></trkpt><trkpt lat="42.059537183930445" lon="12.398950286211944"><ele>163.0</ele><time>2026-04-18T15:58:48.998Z</time></trkpt><trkpt lat="42.05936272068696" lon="12.39896909787987"><ele>162.0</ele><time>2026-04-18T15:58:49.998Z</time></trkpt><trkpt lat="42.0591833801576" lon="12.39896742174896"><ele>161.0</ele><time>2026-04-18T15:58:50.998Z</time></trkpt><trkpt lat="42.059017091081365" lon="12.39895175121549"><ele>160.0</ele><time>2026-04-18T15:58:51.998Z</time></trkpt><trkpt lat="42.058861002723155" lon="12.398934161469993"><ele>159.0</ele><time>2026-04-18T15:58:52.998Z</time></trkpt><trkpt lat="42.05870944456584" lon="12.398922102515085"><ele>159.0</ele><time>2026-04-18T15:58:53.998Z</time></trkpt><trkpt lat="42.0585583867053" lon="12.398908343822244"><ele>159.0</ele><time>2026-04-18T15:58:54.998Z</time></trkpt><trkpt lat="42.05840742779454" lon="12.398894036272795"><ele>159.0</ele><time>2026-04-18T15:58:55.998Z</time></trkpt><trkpt lat="42.058258680340394" lon="12.398870432707742"><ele>158.0</ele><time>2026-04-18T15:58:56.998Z</time></trkpt><trkpt lat="42.058113227344585" lon="12.398842230582593"><ele>157.0</ele><time>2026-04-18T15:58:57.998Z</time></trkpt><trkpt lat="42.05796584122273" lon="12.398809508250688"><ele>156.0</ele><time>2026-04-18T15:58:58.998Z</time></trkpt><trkpt lat="42.05782615889402" lon="12.398777361221121"><ele>155.0</ele><time>2026-04-18T15:58:59.998Z</time></trkpt><trkpt lat="42.05769874939104" lon="12.39874683149518"><ele>154.5</ele><time>2026-04-18T15:59:00.998Z</time></trkpt><trkpt lat="42.05757701896146" lon="12.398714740901701"><ele>154.0</ele><time>2026-04-18T15:59:01.998Z</time></trkpt><trkpt lat="42.05746489375169" lon="12.398685161462339"><ele>153.5</ele><time>2026-04-18T15:59:02.998Z</time></trkpt><trkpt lat="42.05735768623139" lon="12.398655662855093"><ele>153.0</ele><time>2026-04-18T15:59:03.998Z</time></trkpt><trkpt lat="42.05725782460417" lon="12.398624506162886"><ele>152.75</ele><time>2026-04-18T15:59:04.998Z</time></trkpt><trkpt lat="42.05715686583523" lon="12.398596395668559"><ele>152.5</ele><time>2026-04-18T15:59:05.998Z</time></trkpt><trkpt lat="42.057044193105234" lon="12.39856843793984"><ele>152.25</ele><time>2026-04-18T15:59:06.998Z</time></trkpt><trkpt lat="42.05692404974691" lon="12.398512498342084"><ele>152.0</ele><time>2026-04-18T15:59:07.998Z</time></trkpt><trkpt lat="42.056794740365056" lon="12.398473543924359"><ele>152.0</ele><time>2026-04-18T15:59:08.998Z</time></trkpt><trkpt lat="42.056660036001944" lon="12.398432964290567"><ele>152.0</ele><time>2026-04-18T15:59:10Z</time></trkpt><trkpt lat="42.056521406152484" lon="12.398391202099123"><ele>152.0</ele><time>2026-04-18T15:59:11Z</time></trkpt><trkpt lat="42.056376677887826" lon="12.398347506680464"><ele>152.0</ele><time>2026-04-18T15:59:12Z</time></trkpt><trkpt lat="42.05630481078489" lon="12.398336234753756"><ele>151.0</ele><time>2026-04-18T15:59:13Z</time></trkpt><trkpt lat="42.05618009970819" lon="12.398298995827732"><ele>150.0</ele><time>2026-04-18T15:59:14Z</time></trkpt><trkpt lat="42.05604855949879" lon="12.39826146575815"><ele>149.0</ele><time>2026-04-18T15:59:15Z</time></trkpt><trkpt lat="42.05591200404509" lon="12.398220099582938"><ele>148.0</ele><time>2026-04-18T15:59:16Z</time></trkpt><trkpt lat="42.05576776448554" lon="12.39817355555293"><ele>147.0</ele><time>2026-04-18T15:59:17Z</time></trkpt><trkpt lat="42.055635516181106" lon="12.39813793395373"><ele>146.0</ele><time>2026-04-18T15:59:18Z</time></trkpt><trkpt lat="42.0555123488287" lon="12.398107050921718"><ele>145.0</ele><time>2026-04-18T15:59:19Z</time></trkpt><trkpt lat="42.05538502855223" lon="12.398078360895946"><ele>144.0</ele><time>2026-04-18T15:59:20Z</time></trkpt><trkpt lat="42.05526870731567" lon="12.398056934118092"><ele>144.0</ele><time>2026-04-18T15:59:21Z</time></trkpt><trkpt lat="42.055157244010836" lon="12.398035191893012"><ele>144.0</ele><time>2026-04-18T15:59:22Z</time></trkpt><trkpt lat="42.05503433201512" lon="12.398014077315251"><ele>144.0</ele><time>2026-04-18T15:59:23Z</time></trkpt><trkpt lat="42.05489592448135" lon="12.397998962398276"><ele>144.0</ele><time>2026-04-18T15:59:24Z</time></trkpt><trkpt lat="42.054745117991956" lon="12.397992179804795"><ele>142.25</ele><time>2026-04-18T15:59:25Z</time></trkpt><trkpt lat="42.05461621268504" lon="12.39798845083967"><ele>140.5</ele><time>2026-04-18T15:59:26Z</time></trkpt><trkpt lat="42.05449168874299" lon="12.397989443768074"><ele>138.75</ele><time>2026-04-18T15:59:27Z</time></trkpt><trkpt lat="42.05437274661252" lon="12.397977706065022"><ele>137.0</ele><time>2026-04-18T15:59:28Z</time></trkpt><trkpt lat="42.054265617252966" lon="12.397960675786674"><ele>137.0</ele><time>2026-04-18T15:59:29Z</time></trkpt><trkpt lat="42.054156841464085" lon="12.397931767746007"><ele>137.0</ele><time>2026-04-18T15:59:30Z</time></trkpt><trkpt lat="42.0540544357653" lon="12.397840499376468"><ele>137.0</ele><time>2026-04-18T15:59:31Z</time></trkpt><trkpt lat="42.053958513918985" lon="12.397735275609778"><ele>137.0</ele><time>2026-04-18T15:59:32Z</time></trkpt><trkpt lat="42.05388462700781" lon="12.397599044287274"><ele>136.5</ele><time>2026-04-18T15:59:33Z</time></trkpt><trkpt lat="42.05380437508878" lon="12.397441796582912"><ele>136.0</ele><time>2026-04-18T15:59:34Z</time></trkpt><trkpt lat="42.0537124482674" lon="12.397269340142346"><ele>135.5</ele><time>2026-04-18T15:59:35Z</time></trkpt><trkpt lat="42.05362639046819" lon="12.397106652131473"><ele>135.0</ele><time>2026-04-18T15:59:36Z</time></trkpt><trkpt lat="42.05352234084724" lon="12.396959565922247"><ele>135.0</ele><time>2026-04-18T15:59:37Z</time></trkpt><trkpt lat="42.05341428521916" lon="12.396834834147604"><ele>135.0</ele><time>2026-04-18T15:59:38Z</time></trkpt><trkpt lat="42.053308877120635" lon="12.39672516609541"><ele>135.0</ele><time>2026-04-18T15:59:39Z</time></trkpt><trkpt lat="42.053197073780105" lon="12.396626610748173"><ele>135.0</ele><time>2026-04-18T15:59:40Z</time></trkpt><trkpt lat="42.05306483905122" lon="12.39656141192441"><ele>134.66666666666666</ele><time>2026-04-18T15:59:41Z</time></trkpt><trkpt lat="42.05292070312952" lon="12.39653511229879"><ele>134.33333333333331</ele><time>2026-04-18T15:59:42Z</time></trkpt><trkpt lat="42.052764285985575" lon="12.396564611778034"><ele>134.0</ele><time>2026-04-18T15:59:43Z</time></trkpt><trkpt lat="42.052604863037686" lon="12.396595582745984"><ele>134.25</ele><time>2026-04-18T15:59:44Z</time></trkpt><trkpt lat="42.05245379769362" lon="12.396616876553274"><ele>134.5</ele><time>2026-04-18T15:59:45Z</time></trkpt><trkpt lat="42.05231896893234" lon="12.396634715273542"><ele>134.75</ele><time>2026-04-18T15:59:46Z</time></trkpt><trkpt lat="42.052190774001296" lon="12.396646353783472"><ele>135.0</ele><time>2026-04-18T15:59:47Z</time></trkpt><trkpt lat="42.052066756979826" lon="12.396654542826791"><ele>135.0</ele><time>2026-04-18T15:59:48Z</time></trkpt><trkpt lat="42.051936726065335" lon="12.396659415921677"><ele>135.0</ele><time>2026-04-18T15:59:49Z</time></trkpt><trkpt lat="42.05180892546301" lon="12.396649006334398"><ele>135.0</ele><time>2026-04-18T15:59:50Z</time></trkpt><trkpt lat="42.051685168718016" lon="12.396640403878985"><ele>135.0</ele><time>2026-04-18T15:59:51Z</time></trkpt><trkpt lat="42.051564679547006" lon="12.396627588410512"><ele>135.25</ele><time>2026-04-18T15:59:52Z</time></trkpt><trkpt lat="42.05144272919208" lon="12.396618219889133"><ele>135.5</ele><time>2026-04-18T15:59:53Z</time></trkpt><trkpt lat="42.051318970786625" lon="12.396603895891431"><ele>135.75</ele><time>2026-04-18T15:59:54Z</time></trkpt><trkpt lat="42.05119529642267" lon="12.396584425249804"><ele>136.0</ele><time>2026-04-18T15:59:55Z</time></trkpt><trkpt lat="42.05106877170854" lon="12.396557792520975"><ele>136.0</ele><time>2026-04-18T15:59:56Z</time></trkpt><trkpt lat="42.050944072948056" lon="12.396525319586079"><ele>136.0</ele><time>2026-04-18T15:59:57Z</time></trkpt><trkpt lat="42.05081798910917" lon="12.396479718702043"><ele>136.0</ele><time>2026-04-18T15:59:57.999Z</time></trkpt><trkpt lat="42.05068711403823" lon="12.396446419543107"><ele>136.0</ele><time>2026-04-18T15:59:58.999Z</time></trkpt><trkpt lat="42.05054484745323" lon="12.3964349298336"><ele>135.33333333333334</ele><time>2026-04-18T15:59:59.999Z</time></trkpt><trkpt lat="42.05038793390275" lon="12.396452459365138"><ele>134.66666666666666</ele><time>2026-04-18T16:00:00.999Z</time></trkpt><trkpt lat="42.05022659511911" lon="12.396487722903352"><ele>134.0</ele><time>2026-04-18T16:00:01.999Z</time></trkpt><trkpt lat="42.05007741361554" lon="12.396518195598945"><ele>134.0</ele><time>2026-04-18T16:00:02.999Z</time></trkpt><trkpt lat="42.049941062011406" lon="12.39653280822424"><ele>134.0</ele><time>2026-04-18T16:00:03.999Z</time></trkpt><trkpt lat="42.04980601659019" lon="12.39652906474996"><ele>134.0</ele><time>2026-04-18T16:00:04.999Z</time></trkpt><trkpt lat="42.04966534986528" lon="12.396512309916458"><ele>134.0</ele><time>2026-04-18T16:00:05.999Z</time></trkpt><trkpt lat="42.049531617262076" lon="12.396478980648123"><ele>134.0</ele><time>2026-04-18T16:00:06.999Z</time></trkpt><trkpt lat="42.04939401567886" lon="12.396440410024109"><ele>134.0</ele><time>2026-04-18T16:00:07.999Z</time></trkpt><trkpt lat="42.04925342518004" lon="12.396404316687404"><ele>134.0</ele><time>2026-04-18T16:00:08.999Z</time></trkpt><trkpt lat="42.0491175993184" lon="12.396360807664038"><ele>134.0</ele><time>2026-04-18T16:00:09.999Z</time></trkpt><trkpt lat="42.04899274211681" lon="12.396314102153317"><ele>133.5</ele><time>2026-04-18T16:00:10.999Z</time></trkpt><trkpt lat="42.04886686954339" lon="12.396264950816716"><ele>133.0</ele><time>2026-04-18T16:00:11.999Z</time></trkpt><trkpt lat="42.048737468065" lon="12.396220878559332"><ele>132.5</ele><time>2026-04-18T16:00:12.999Z</time></trkpt><trkpt lat="42.0486209090739" lon="12.396180649509189"><ele>132.0</ele><time>2026-04-18T16:00:13.999Z</time></trkpt><trkpt lat="42.048508987315344" lon="12.396140220041357"><ele>132.0</ele><time>2026-04-18T16:00:14.999Z</time></trkpt><trkpt lat="42.04840657598451" lon="12.396108854501865"><ele>132.0</ele><time>2026-04-18T16:00:15.999Z</time></trkpt><trkpt lat="42.048306164074056" lon="12.396075504851842"><ele>132.0</ele><time>2026-04-18T16:00:16.999Z</time></trkpt><trkpt lat="42.0482035343499" lon="12.396037465699239"><ele>132.0</ele><time>2026-04-18T16:00:17.999Z</time></trkpt><trkpt lat="42.048098039985156" lon="12.395999119275652"><ele>132.0</ele><time>2026-04-18T16:00:18.999Z</time></trkpt><trkpt lat="42.04798783501297" lon="12.395943886668448"><ele>131.6</ele><time>2026-04-18T16:00:19.999Z</time></trkpt><trkpt lat="42.047887530880196" lon="12.395928281927327"><ele>131.2</ele><time>2026-04-18T16:00:20.999Z</time></trkpt><trkpt lat="42.047791383685464" lon="12.395886606485542"><ele>130.8</ele><time>2026-04-18T16:00:21.999Z</time></trkpt><trkpt lat="42.047699597618575" lon="12.395849330033503"><ele>130.4</ele><time>2026-04-18T16:00:22.999Z</time></trkpt><trkpt lat="42.04761433176274" lon="12.39581918836072"><ele>130.0</ele><time>2026-04-18T16:00:23.999Z</time></trkpt><trkpt lat="42.047534965155485" lon="12.395793154733996"><ele>130.0</ele><time>2026-04-18T16:00:24.999Z</time></trkpt><trkpt lat="42.04746457931108" lon="12.395763621118824"><ele>130.0</ele><time>2026-04-18T16:00:25.999Z</time></trkpt><trkpt lat="42.04739903710119" lon="12.395740184370839"><ele>130.0</ele><time>2026-04-18T16:00:26.999Z</time></trkpt><trkpt lat="42.047303307365276" lon="12.39569846488503"><ele>130.0</ele><time>2026-04-18T16:00:28.999Z</time></trkpt><trkpt lat="42.0472172371781" lon="12.395665069062034"><ele>130.0</ele><time>2026-04-18T16:00:30.999Z</time></trkpt><trkpt lat="42.047093824879965" lon="12.39560916799129"><ele>130.0</ele><time>2026-04-18T16:00:32.999Z</time></trkpt><trkpt lat="42.04700795939528" lon="12.395576430799528"><ele>130.0</ele><time>2026-04-18T16:00:33.999Z</time></trkpt><trkpt lat="42.046906703500184" lon="12.395545914689087"><ele>130.0</ele><time>2026-04-18T16:00:34.999Z</time></trkpt><trkpt lat="42.046791659279386" lon="12.395506976128218"><ele>130.0</ele><time>2026-04-18T16:00:35.999Z</time></trkpt><trkpt lat="42.04668765055978" lon="12.395465961532059"><ele>130.0</ele><time>2026-04-18T16:00:36.999Z</time></trkpt><trkpt lat="42.0466058660072" lon="12.395424570057202"><ele>129.2</ele><time>2026-04-18T16:00:37.999Z</time></trkpt><trkpt lat="42.04651474359892" lon="12.395382862615161"><ele>128.4</ele><time>2026-04-18T16:00:38.999Z</time></trkpt><trkpt lat="42.04642290466653" lon="12.39533282353958"><ele>127.6</ele><time>2026-04-18T16:00:39.999Z</time></trkpt><trkpt lat="42.04631624323291" lon="12.395285996117018"><ele>126.8</ele><time>2026-04-18T16:00:40.999Z</time></trkpt><trkpt lat="42.04619568418676" lon="12.395240871771799"><ele>126.0</ele><time>2026-04-18T16:00:41.999Z</time></trkpt><trkpt lat="42.04607940284544" lon="12.395189891611126"><ele>126.0</ele><time>2026-04-18T16:00:42.999Z</time></trkpt><trkpt lat="42.045953406127076" lon="12.395127896130937"><ele>126.0</ele><time>2026-04-18T16:00:43.999Z</time></trkpt><trkpt lat="42.04583468815666" lon="12.395054667730284"><ele>126.0</ele><time>2026-04-18T16:00:44.999Z</time></trkpt><trkpt lat="42.045715056873846" lon="12.394982881551313"><ele>126.0</ele><time>2026-04-18T16:00:45.999Z</time></trkpt><trkpt lat="42.045599646798856" lon="12.394921333225177"><ele>125.8</ele><time>2026-04-18T16:00:46.998Z</time></trkpt><trkpt lat="42.04548797960723" lon="12.394868485541311"><ele>125.6</ele><time>2026-04-18T16:00:47.998Z</time></trkpt><trkpt lat="42.045377898008844" lon="12.394816272690287"><ele>125.4</ele><time>2026-04-18T16:00:48.998Z</time></trkpt><trkpt lat="42.04527255835803" lon="12.394776911117642"><ele>125.2</ele><time>2026-04-18T16:00:49.998Z</time></trkpt><trkpt lat="42.04517767069602" lon="12.394757290200081"><ele>125.0</ele><time>2026-04-18T16:00:50.998Z</time></trkpt><trkpt lat="42.04508732780898" lon="12.39471775455748"><ele>125.0</ele><time>2026-04-18T16:00:51.998Z</time></trkpt><trkpt lat="42.04501139009523" lon="12.394699574664703"><ele>125.0</ele><time>2026-04-18T16:00:52.998Z</time></trkpt><trkpt lat="42.04491949686961" lon="12.394678332975085"><ele>125.0</ele><time>2026-04-18T16:00:54.998Z</time></trkpt><trkpt lat="42.04484092893202" lon="12.394660663804096"><ele>125.0</ele><time>2026-04-18T16:00:57.998Z</time></trkpt><trkpt lat="42.0447679590027" lon="12.394994460229158"><ele>124.6</ele><time>2026-04-18T16:00:59.998Z</time></trkpt><trkpt lat="42.0447605204349" lon="12.39512554859574"><ele>124.2</ele><time>2026-04-18T16:01:00.998Z</time></trkpt><trkpt lat="42.04473964157965" lon="12.395255634986954"><ele>123.80000000000001</ele><time>2026-04-18T16:01:01.998Z</time></trkpt><trkpt lat="42.044700008666624" lon="12.39538526985558"><ele>123.4</ele><time>2026-04-18T16:01:02.998Z</time></trkpt><trkpt lat="42.04466287297971" lon="12.395522710067668"><ele>123.0</ele><time>2026-04-18T16:01:03.998Z</time></trkpt><trkpt lat="42.044659681735105" lon="12.395674312300603"><ele>123.0</ele><time>2026-04-18T16:01:04.998Z</time></trkpt><trkpt lat="42.0446949768147" lon="12.395836123274707"><ele>123.0</ele><time>2026-04-18T16:01:05.998Z</time></trkpt><trkpt lat="42.04475625850669" lon="12.395992233951711"><ele>123.0</ele><time>2026-04-18T16:01:06.998Z</time></trkpt><trkpt lat="42.044835393172924" lon="12.396138895409663"><ele>123.0</ele><time>2026-04-18T16:01:07.998Z</time></trkpt><trkpt lat="42.044911522567844" lon="12.396275597952124"><ele>123.0</ele><time>2026-04-18T16:01:08.998Z</time></trkpt><trkpt lat="42.044965839449056" lon="12.396405382758182"><ele>123.00000000000001</ele><time>2026-04-18T16:01:09.998Z</time></trkpt><trkpt lat="42.04500634754189" lon="12.396544399574156"><ele>123.00000000000001</ele><time>2026-04-18T16:01:10.998Z</time></trkpt><trkpt lat="42.045029912402406" lon="12.396690064259793"><ele>123.0</ele><time>2026-04-18T16:01:11.998Z</time></trkpt><trkpt lat="42.04501981469604" lon="12.396838399557115"><ele>123.0</ele><time>2026-04-18T16:01:12.998Z</time></trkpt><trkpt lat="42.0449939925804" lon="12.396989222715272"><ele>123.0</ele><time>2026-04-18T16:01:13.998Z</time></trkpt><trkpt lat="42.04496004414708" lon="12.39715948211287"><ele>123.0</ele><time>2026-04-18T16:01:14.998Z</time></trkpt><trkpt lat="42.044925317391545" lon="12.397365568428514"><ele>123.0</ele><time>2026-04-18T16:01:16Z</time></trkpt><trkpt lat="42.04489415619574" lon="12.397589264662287"><ele>122.66666666666666</ele><time>2026-04-18T16:01:17Z</time></trkpt><trkpt lat="42.044866902331584" lon="12.397809137575084"><ele>122.33333333333333</ele><time>2026-04-18T16:01:18Z</time></trkpt><trkpt lat="42.04484176549121" lon="12.398018025259832"><ele>122.0</ele><time>2026-04-18T16:01:19Z</time></trkpt><trkpt lat="42.044818960767046" lon="12.398223077380612"><ele>122.0</ele><time>2026-04-18T16:01:20Z</time></trkpt><trkpt lat="42.044795842387195" lon="12.398429684851571"><ele>122.0</ele><time>2026-04-18T16:01:21Z</time></trkpt><trkpt lat="42.04477378659048" lon="12.398641322568935"><ele>122.0</ele><time>2026-04-18T16:01:22Z</time></trkpt><trkpt lat="42.04475478707125" lon="12.398861601181412"><ele>122.0</ele><time>2026-04-18T16:01:23Z</time></trkpt><trkpt lat="42.04473843262976" lon="12.399083353567276"><ele>122.0</ele><time>2026-04-18T16:01:24Z</time></trkpt><trkpt lat="42.044724219805396" lon="12.399311364179146"><ele>122.0</ele><time>2026-04-18T16:01:25Z</time></trkpt><trkpt lat="42.04471147209543" lon="12.399546095272258"><ele>122.66666666666666</ele><time>2026-04-18T16:01:26Z</time></trkpt><trkpt lat="42.04470234604218" lon="12.399776016293139"><ele>123.33333333333334</ele><time>2026-04-18T16:01:27Z</time></trkpt><trkpt lat="42.04469949072903" lon="12.400013433961321"><ele>124.0</ele><time>2026-04-18T16:01:28Z</time></trkpt><trkpt lat="42.04469909126934" lon="12.400249982052417"><ele>124.0</ele><time>2026-04-18T16:01:29Z</time></trkpt><trkpt lat="42.044700978535744" lon="12.400489433488884"><ele>124.0</ele><time>2026-04-18T16:01:30Z</time></trkpt><trkpt lat="42.044702737430924" lon="12.400742648756331"><ele>124.0</ele><time>2026-04-18T16:01:31Z</time></trkpt><trkpt lat="42.044703753285276" lon="12.400991615918992"><ele>123.66666666666667</ele><time>2026-04-18T16:01:32Z</time></trkpt><trkpt lat="42.04470346778005" lon="12.401252984081257"><ele>123.33333333333334</ele><time>2026-04-18T16:01:33Z</time></trkpt><trkpt lat="42.044704423362006" lon="12.401516278299246"><ele>123.0</ele><time>2026-04-18T16:01:34Z</time></trkpt><trkpt lat="42.044702803108756" lon="12.401775193239226"><ele>121.0</ele><time>2026-04-18T16:01:35Z</time></trkpt><trkpt lat="42.044704967520616" lon="12.402043491980766"><ele>119.0</ele><time>2026-04-18T16:01:36Z</time></trkpt><trkpt lat="42.04470940342035" lon="12.402307856382242"><ele>117.0</ele><time>2026-04-18T16:01:37Z</time></trkpt><trkpt lat="42.04470840245688" lon="12.402580091924422"><ele>115.0</ele><time>2026-04-18T16:01:38Z</time></trkpt><trkpt lat="42.04470139591164" lon="12.40285433521557"><ele>113.0</ele><time>2026-04-18T16:01:39Z</time></trkpt><trkpt lat="42.04469626679396" lon="12.403121329994503"><ele>111.0</ele><time>2026-04-18T16:01:40Z</time></trkpt><trkpt lat="42.044687191922925" lon="12.403393570812009"><ele>110.66666666666666</ele><time>2026-04-18T16:01:41Z</time></trkpt><trkpt lat="42.04467608607907" lon="12.403662154057438"><ele>110.33333333333333</ele><time>2026-04-18T16:01:42Z</time></trkpt><trkpt lat="42.04466147296278" lon="12.403929695569715"><ele>110.0</ele><time>2026-04-18T16:01:43Z</time></trkpt><trkpt lat="42.044647701225784" lon="12.40420360086963"><ele>112.33333333333333</ele><time>2026-04-18T16:01:44Z</time></trkpt><trkpt lat="42.04462813944495" lon="12.404479006465131"><ele>114.66666666666666</ele><time>2026-04-18T16:01:45Z</time></trkpt><trkpt lat="42.044601674076766" lon="12.40474667409878"><ele>117.0</ele><time>2026-04-18T16:01:46Z</time></trkpt><trkpt lat="42.0445802265279" lon="12.405028503132607"><ele>117.66666666666666</ele><time>2026-04-18T16:01:47Z</time></trkpt><trkpt lat="42.044556407903265" lon="12.405317286807927"><ele>118.33333333333333</ele><time>2026-04-18T16:01:48Z</time></trkpt><trkpt lat="42.0445215119474" lon="12.40559690431047"><ele>119.0</ele><time>2026-04-18T16:01:49Z</time></trkpt><trkpt lat="42.044486814611794" lon="12.405877479412675"><ele>117.33333333333333</ele><time>2026-04-18T16:01:50Z</time></trkpt><trkpt lat="42.04445278055732" lon="12.406172254650022"><ele>115.66666666666666</ele><time>2026-04-18T16:01:51Z</time></trkpt><trkpt lat="42.0444148982259" lon="12.406460452609643"><ele>114.0</ele><time>2026-04-18T16:01:52Z</time></trkpt><trkpt lat="42.04437551283623" lon="12.406752510348163"><ele>111.0</ele><time>2026-04-18T16:01:53Z</time></trkpt><trkpt lat="42.04433733075742" lon="12.407035899070832"><ele>108.0</ele><time>2026-04-18T16:01:54Z</time></trkpt><trkpt lat="42.044296307184325" lon="12.40732275711639"><ele>105.0</ele><time>2026-04-18T16:01:55Z</time></trkpt><trkpt lat="42.044253599994526" lon="12.407601374234543"><ele>105.0</ele><time>2026-04-18T16:01:56Z</time></trkpt><trkpt lat="42.04421242090901" lon="12.407883580183086"><ele>105.0</ele><time>2026-04-18T16:01:57Z</time></trkpt><trkpt lat="42.04417221722276" lon="12.408156472453966"><ele>105.0</ele><time>2026-04-18T16:01:58Z</time></trkpt><trkpt lat="42.04413661173309" lon="12.408415839755984"><ele>103.0</ele><time>2026-04-18T16:01:59Z</time></trkpt><trkpt lat="42.0441011786458" lon="12.408667088851978"><ele>101.0</ele><time>2026-04-18T16:02:00Z</time></trkpt><trkpt lat="42.04406665399287" lon="12.408919213007229"><ele>99.0</ele><time>2026-04-18T16:02:00.999Z</time></trkpt><trkpt lat="42.04403052404885" lon="12.409172231760193"><ele>99.0</ele><time>2026-04-18T16:02:01.999Z</time></trkpt><trkpt lat="42.04399191852708" lon="12.409425283111112"><ele>99.0</ele><time>2026-04-18T16:02:02.999Z</time></trkpt><trkpt lat="42.0439531403587" lon="12.409674712685304"><ele>99.0</ele><time>2026-04-18T16:02:03.999Z</time></trkpt><trkpt lat="42.043916957242715" lon="12.409921986609993"><ele>101.0</ele><time>2026-04-18T16:02:04.999Z</time></trkpt><trkpt lat="42.04388234075971" lon="12.410171554242627"><ele>103.0</ele><time>2026-04-18T16:02:05.999Z</time></trkpt><trkpt lat="42.043846433786776" lon="12.410420200542145"><ele>105.0</ele><time>2026-04-18T16:02:06.999Z</time></trkpt><trkpt lat="42.04381538851816" lon="12.410656308141736"><ele>106.0</ele><time>2026-04-18T16:02:07.999Z</time></trkpt><trkpt lat="42.0437962910192" lon="12.41090616830427"><ele>107.0</ele><time>2026-04-18T16:02:08.999Z</time></trkpt><trkpt lat="42.04376912997614" lon="12.411175940018133"><ele>108.0</ele><time>2026-04-18T16:02:09.999Z</time></trkpt><trkpt lat="42.04372749392463" lon="12.41145280762236"><ele>108.0</ele><time>2026-04-18T16:02:10.999Z</time></trkpt><trkpt lat="42.04368381933918" lon="12.411731578748281"><ele>108.0</ele><time>2026-04-18T16:02:11.999Z</time></trkpt><trkpt lat="42.04363867263737" lon="12.412026195577171"><ele>108.0</ele><time>2026-04-18T16:02:12.999Z</time></trkpt><trkpt lat="42.04359371373001" lon="12.412334995309015"><ele>107.5</ele><time>2026-04-18T16:02:13.999Z</time></trkpt><trkpt lat="42.043548574500996" lon="12.412644530480963"><ele>107.0</ele><time>2026-04-18T16:02:14.999Z</time></trkpt><trkpt lat="42.04351204977303" lon="12.412950820394459"><ele>108.5</ele><time>2026-04-18T16:02:15.999Z</time></trkpt><trkpt lat="42.0434670799008" lon="12.413256924387765"><ele>110.0</ele><time>2026-04-18T16:02:16.999Z</time></trkpt><trkpt lat="42.04342613636443" lon="12.413561957191801"><ele>109.0</ele><time>2026-04-18T16:02:17.999Z</time></trkpt><trkpt lat="42.04338348883013" lon="12.413869519832982"><ele>108.0</ele><time>2026-04-18T16:02:18.999Z</time></trkpt><trkpt lat="42.04333927759925" lon="12.414179680206155"><ele>107.5</ele><time>2026-04-18T16:02:19.999Z</time></trkpt><trkpt lat="42.04329262351648" lon="12.4144900005072"><ele>107.0</ele><time>2026-04-18T16:02:20.999Z</time></trkpt><trkpt lat="42.04324459245994" lon="12.414803631424187"><ele>107.0</ele><time>2026-04-18T16:02:21.999Z</time></trkpt><trkpt lat="42.04319574467562" lon="12.41510988755446"><ele>107.0</ele><time>2026-04-18T16:02:22.999Z</time></trkpt><trkpt lat="42.04314821893664" lon="12.415423635689857"><ele>105.0</ele><time>2026-04-18T16:02:23.999Z</time></trkpt><trkpt lat="42.04309831972957" lon="12.415735557082145"><ele>103.0</ele><time>2026-04-18T16:02:24.999Z</time></trkpt><trkpt lat="42.04303562322969" lon="12.416043820604711"><ele>103.0</ele><time>2026-04-18T16:02:25.999Z</time></trkpt><trkpt lat="42.0429685570923" lon="12.416350631851891"><ele>103.0</ele><time>2026-04-18T16:02:26.999Z</time></trkpt><trkpt lat="42.04289465689424" lon="12.416660286549678"><ele>103.0</ele><time>2026-04-18T16:02:27.999Z</time></trkpt><trkpt lat="42.04281107682979" lon="12.416979660706213"><ele>103.0</ele><time>2026-04-18T16:02:28.999Z</time></trkpt><trkpt lat="42.04271928626393" lon="12.41729891359347"><ele>101.0</ele><time>2026-04-18T16:02:29.999Z</time></trkpt><trkpt lat="42.04262223879096" lon="12.417620537237276"><ele>99.0</ele><time>2026-04-18T16:02:30.999Z</time></trkpt><trkpt lat="42.042516188582375" lon="12.417950708673624"><ele>97.0</ele><time>2026-04-18T16:02:31.999Z</time></trkpt><trkpt lat="42.04239485107565" lon="12.418288250184405"><ele>95.0</ele><time>2026-04-18T16:02:32.999Z</time></trkpt><trkpt lat="42.04225916172602" lon="12.41862346877176"><ele>94.0</ele><time>2026-04-18T16:02:33.999Z</time></trkpt><trkpt lat="42.04211182100587" lon="12.418955979470498"><ele>93.0</ele><time>2026-04-18T16:02:34.999Z</time></trkpt><trkpt lat="42.041942101189726" lon="12.419287606183829"><ele>93.0</ele><time>2026-04-18T16:02:35.999Z</time></trkpt><trkpt lat="42.041764768875204" lon="12.419618467551784"><ele>93.0</ele><time>2026-04-18T16:02:36.999Z</time></trkpt><trkpt lat="42.041588262456095" lon="12.419946914684253"><ele>92.5</ele><time>2026-04-18T16:02:37.999Z</time></trkpt><trkpt lat="42.041393057563816" lon="12.4202688265136"><ele>92.0</ele><time>2026-04-18T16:02:38.999Z</time></trkpt><trkpt lat="42.041198107639715" lon="12.420577183265749"><ele>92.0</ele><time>2026-04-18T16:02:39.999Z</time></trkpt><trkpt lat="42.040995116181826" lon="12.420879748004205"><ele>92.0</ele><time>2026-04-18T16:02:40.999Z</time></trkpt><trkpt lat="42.040788079770266" lon="12.42118215782163"><ele>92.0</ele><time>2026-04-18T16:02:41.999Z</time></trkpt><trkpt lat="42.04057907623936" lon="12.421453510520438"><ele>92.0</ele><time>2026-04-18T16:02:42.999Z</time></trkpt><trkpt lat="42.04036382012546" lon="12.421712294118269"><ele>92.0</ele><time>2026-04-18T16:02:43.999Z</time></trkpt><trkpt lat="42.04014926533062" lon="12.4219685874548"><ele>92.0</ele><time>2026-04-18T16:02:44.999Z</time></trkpt><trkpt lat="42.03993281481207" lon="12.422213295739459"><ele>90.0</ele><time>2026-04-18T16:02:45.999Z</time></trkpt><trkpt lat="42.039705426390476" lon="12.422445235378595"><ele>88.0</ele><time>2026-04-18T16:02:46.999Z</time></trkpt><trkpt lat="42.03947792430084" lon="12.42266365873135"><ele>88.0</ele><time>2026-04-18T16:02:47.999Z</time></trkpt><trkpt lat="42.03924544640955" lon="12.422871485109638"><ele>88.0</ele><time>2026-04-18T16:02:48.999Z</time></trkpt><trkpt lat="42.03901163279476" lon="12.423073401597676"><ele>86.0</ele><time>2026-04-18T16:02:49.999Z</time></trkpt><trkpt lat="42.038778782156754" lon="12.423284282063168"><ele>84.0</ele><time>2026-04-18T16:02:50.998Z</time></trkpt><trkpt lat="42.03854977028461" lon="12.423500125799048"><ele>84.0</ele><time>2026-04-18T16:02:51.998Z</time></trkpt><trkpt lat="42.0383181141417" lon="12.423736248713595"><ele>84.0</ele><time>2026-04-18T16:02:52.998Z</time></trkpt><trkpt lat="42.038082388316184" lon="12.423961383849306"><ele>84.0</ele><time>2026-04-18T16:02:53.998Z</time></trkpt><trkpt lat="42.03784707497108" lon="12.424176973955294"><ele>84.0</ele><time>2026-04-18T16:02:54.998Z</time></trkpt><trkpt lat="42.03761080422144" lon="12.42439116465687"><ele>85.5</ele><time>2026-04-18T16:02:55.998Z</time></trkpt><trkpt lat="42.03737539011081" lon="12.42460384676292"><ele>87.0</ele><time>2026-04-18T16:02:56.998Z</time></trkpt><trkpt lat="42.037137720108376" lon="12.424815861755594"><ele>88.0</ele><time>2026-04-18T16:02:57.998Z</time></trkpt><trkpt lat="42.03690481287441" lon="12.42502893616983"><ele>89.0</ele><time>2026-04-18T16:02:58.998Z</time></trkpt><trkpt lat="42.03667504486722" lon="12.425231829564636"><ele>88.0</ele><time>2026-04-18T16:02:59.998Z</time></trkpt><trkpt lat="42.036443630180216" lon="12.425441341230986"><ele>87.0</ele><time>2026-04-18T16:03:00.998Z</time></trkpt><trkpt lat="42.03620843009283" lon="12.425647039939822"><ele>88.5</ele><time>2026-04-18T16:03:01.998Z</time></trkpt><trkpt lat="42.03597650608658" lon="12.425847972888137"><ele>90.0</ele><time>2026-04-18T16:03:02.998Z</time></trkpt><trkpt lat="42.035743675059855" lon="12.42605519328549"><ele>90.0</ele><time>2026-04-18T16:03:03.998Z</time></trkpt><trkpt lat="42.03551430382784" lon="12.426264862165363"><ele>90.0</ele><time>2026-04-18T16:03:04.998Z</time></trkpt><trkpt lat="42.035285326685795" lon="12.426472839414616"><ele>89.5</ele><time>2026-04-18T16:03:05.998Z</time></trkpt><trkpt lat="42.03505640674524" lon="12.426682775333356"><ele>89.0</ele><time>2026-04-18T16:03:06.998Z</time></trkpt><trkpt lat="42.03482960103799" lon="12.426890883634883"><ele>89.0</ele><time>2026-04-18T16:03:07.998Z</time></trkpt><trkpt lat="42.034596990195915" lon="12.427102787815327"><ele>89.0</ele><time>2026-04-18T16:03:08.998Z</time></trkpt><trkpt lat="42.034367439729984" lon="12.427312005099544"><ele>90.0</ele><time>2026-04-18T16:03:09.998Z</time></trkpt><trkpt lat="42.03413840055651" lon="12.427520042121182"><ele>91.0</ele><time>2026-04-18T16:03:10.998Z</time></trkpt><trkpt lat="42.0339100528075" lon="12.427722788839846"><ele>91.0</ele><time>2026-04-18T16:03:11.998Z</time></trkpt><trkpt lat="42.03368475718889" lon="12.427926902154802"><ele>91.0</ele><time>2026-04-18T16:03:12.998Z</time></trkpt><trkpt lat="42.033460488464634" lon="12.428128503206294"><ele>92.0</ele><time>2026-04-18T16:03:13.998Z</time></trkpt><trkpt lat="42.03323718193411" lon="12.42832844481697"><ele>93.0</ele><time>2026-04-18T16:03:14.998Z</time></trkpt><trkpt lat="42.0330091510273" lon="12.428529889192104"><ele>93.0</ele><time>2026-04-18T16:03:15.998Z</time></trkpt><trkpt lat="42.03278456459276" lon="12.428732276290088"><ele>93.0</ele><time>2026-04-18T16:03:16.998Z</time></trkpt><trkpt lat="42.03255501649197" lon="12.42892891634852"><ele>95.0</ele><time>2026-04-18T16:03:17.998Z</time></trkpt><trkpt lat="42.03230641312438" lon="12.429128663867344"><ele>97.0</ele><time>2026-04-18T16:03:18.998Z</time></trkpt><trkpt lat="42.032058840721426" lon="12.429321996418176"><ele>97.0</ele><time>2026-04-18T16:03:19.998Z</time></trkpt><trkpt lat="42.03180318758976" lon="12.429514886475458"><ele>97.0</ele><time>2026-04-18T16:03:21Z</time></trkpt><trkpt lat="42.03154793893992" lon="12.42970654204193"><ele>95.0</ele><time>2026-04-18T16:03:22Z</time></trkpt><trkpt lat="42.031287747972584" lon="12.429892017242798"><ele>93.0</ele><time>2026-04-18T16:03:23Z</time></trkpt><trkpt lat="42.03102038205644" lon="12.430073234208747"><ele>88.0</ele><time>2026-04-18T16:03:24Z</time></trkpt><trkpt lat="42.030745876065005" lon="12.430244618806311"><ele>83.0</ele><time>2026-04-18T16:03:25Z</time></trkpt><trkpt lat="42.03046740039791" lon="12.430411483455494"><ele>86.5</ele><time>2026-04-18T16:03:26Z</time></trkpt><trkpt lat="42.03018415664976" lon="12.430566672705687"><ele>90.0</ele><time>2026-04-18T16:03:27Z</time></trkpt><trkpt lat="42.0298971151604" lon="12.430716401374395"><ele>90.0</ele><time>2026-04-18T16:03:28Z</time></trkpt><trkpt lat="42.02960626099925" lon="12.430860295442432"><ele>90.0</ele><time>2026-04-18T16:03:29Z</time></trkpt><trkpt lat="42.029313690692604" lon="12.430996483791422"><ele>89.0</ele><time>2026-04-18T16:03:30Z</time></trkpt><trkpt lat="42.02900864613377" lon="12.431122515659542"><ele>88.0</ele><time>2026-04-18T16:03:31Z</time></trkpt><trkpt lat="42.028708731927544" lon="12.43124241566599"><ele>91.5</ele><time>2026-04-18T16:03:32Z</time></trkpt><trkpt lat="42.028407701366945" lon="12.43135696553069"><ele>95.0</ele><time>2026-04-18T16:03:33Z</time></trkpt><trkpt lat="42.02810620865095" lon="12.431469443348597"><ele>95.0</ele><time>2026-04-18T16:03:34Z</time></trkpt><trkpt lat="42.02780257280811" lon="12.43157636867339"><ele>95.0</ele><time>2026-04-18T16:03:35Z</time></trkpt><trkpt lat="42.02749454654315" lon="12.431681484114504"><ele>96.0</ele><time>2026-04-18T16:03:36Z</time></trkpt><trkpt lat="42.02718582520168" lon="12.431785246219025"><ele>97.0</ele><time>2026-04-18T16:03:37Z</time></trkpt><trkpt lat="42.02687352338133" lon="12.431894053811176"><ele>96.0</ele><time>2026-04-18T16:03:38Z</time></trkpt><trkpt lat="42.02656381684671" lon="12.432014253827546"><ele>95.0</ele><time>2026-04-18T16:03:39Z</time></trkpt><trkpt lat="42.026249682331226" lon="12.432133766162421"><ele>94.0</ele><time>2026-04-18T16:03:40Z</time></trkpt><trkpt lat="42.02594232898723" lon="12.432246399682308"><ele>93.0</ele><time>2026-04-18T16:03:41Z</time></trkpt><trkpt lat="42.025630209655866" lon="12.432356850630317"><ele>93.0</ele><time>2026-04-18T16:03:42Z</time></trkpt><trkpt lat="42.025321824814384" lon="12.432463824319228"><ele>93.0</ele><time>2026-04-18T16:03:43Z</time></trkpt><trkpt lat="42.02501906722275" lon="12.432561250072343"><ele>91.0</ele><time>2026-04-18T16:03:44Z</time></trkpt><trkpt lat="42.024724540382614" lon="12.4326489100332"><ele>89.0</ele><time>2026-04-18T16:03:45Z</time></trkpt><trkpt lat="42.02443859783904" lon="12.432736087543422"><ele>89.0</ele><time>2026-04-18T16:03:46Z</time></trkpt><trkpt lat="42.024154884222945" lon="12.432824591478457"><ele>89.0</ele><time>2026-04-18T16:03:47Z</time></trkpt><trkpt lat="42.02387328428554" lon="12.432920047552239"><ele>91.5</ele><time>2026-04-18T16:03:48Z</time></trkpt><trkpt lat="42.023597716712935" lon="12.43301369328332"><ele>94.0</ele><time>2026-04-18T16:03:49Z</time></trkpt><trkpt lat="42.02332451249759" lon="12.43310535806884"><ele>95.0</ele><time>2026-04-18T16:03:50Z</time></trkpt><trkpt lat="42.02305381362801" lon="12.433200220248631"><ele>96.0</ele><time>2026-04-18T16:03:51Z</time></trkpt><trkpt lat="42.02278797492155" lon="12.433293428270245"><ele>96.0</ele><time>2026-04-18T16:03:52Z</time></trkpt><trkpt lat="42.022533328246865" lon="12.433375894297491"><ele>96.0</ele><time>2026-04-18T16:03:53Z</time></trkpt><trkpt lat="42.02228109579359" lon="12.433464025388888"><ele>95.5</ele><time>2026-04-18T16:03:54Z</time></trkpt><trkpt lat="42.022026441020394" lon="12.433550468982867"><ele>95.0</ele><time>2026-04-18T16:03:55Z</time></trkpt><trkpt lat="42.021773842792655" lon="12.433636794434499"><ele>93.0</ele><time>2026-04-18T16:03:56Z</time></trkpt><trkpt lat="42.021517245425436" lon="12.433722805163722"><ele>91.0</ele><time>2026-04-18T16:03:57Z</time></trkpt><trkpt lat="42.02127890729988" lon="12.433800489715624"><ele>92.0</ele><time>2026-04-18T16:03:58Z</time></trkpt><trkpt lat="42.02103943127845" lon="12.433886874949437"><ele>93.0</ele><time>2026-04-18T16:03:59Z</time></trkpt><trkpt lat="42.020797767226135" lon="12.433975445294507"><ele>93.0</ele><time>2026-04-18T16:04:00Z</time></trkpt><trkpt lat="42.0205539081153" lon="12.43406524354061"><ele>93.0</ele><time>2026-04-18T16:04:01Z</time></trkpt><trkpt lat="42.020309437679266" lon="12.43415872535366"><ele>93.0</ele><time>2026-04-18T16:04:02Z</time></trkpt><trkpt lat="42.020068408440075" lon="12.434252255603829"><ele>93.0</ele><time>2026-04-18T16:04:03Z</time></trkpt><trkpt lat="42.01982116913973" lon="12.434346481292838"><ele>91.0</ele><time>2026-04-18T16:04:04Z</time></trkpt><trkpt lat="42.019564685802486" lon="12.434443080894374"><ele>89.0</ele><time>2026-04-18T16:04:05Z</time></trkpt><trkpt lat="42.019307337915365" lon="12.434544268225576"><ele>83.5</ele><time>2026-04-18T16:04:06Z</time></trkpt><trkpt lat="42.01904381856832" lon="12.434648987762545"><ele>78.0</ele><time>2026-04-18T16:04:07Z</time></trkpt><trkpt lat="42.01878461146963" lon="12.434756045732028"><ele>78.0</ele><time>2026-04-18T16:04:08Z</time></trkpt><trkpt lat="42.01852613814313" lon="12.4348651696214"><ele>78.0</ele><time>2026-04-18T16:04:09Z</time></trkpt><trkpt lat="42.01826277324997" lon="12.434985064604158"><ele>73.5</ele><time>2026-04-18T16:04:10Z</time></trkpt><trkpt lat="42.01798207195265" lon="12.435112273621764"><ele>69.0</ele><time>2026-04-18T16:04:10.999Z</time></trkpt><trkpt lat="42.017709072617706" lon="12.435215982241996"><ele>64.5</ele><time>2026-04-18T16:04:11.999Z</time></trkpt><trkpt lat="42.01742114548706" lon="12.435331792794567"><ele>60.0</ele><time>2026-04-18T16:04:12.999Z</time></trkpt><trkpt lat="42.01713617918025" lon="12.435436591518036"><ele>61.5</ele><time>2026-04-18T16:04:13.999Z</time></trkpt><trkpt lat="42.01685436767581" lon="12.435543926216772"><ele>63.0</ele><time>2026-04-18T16:04:14.999Z</time></trkpt><trkpt lat="42.01657379980876" lon="12.435650509324603"><ele>63.0</ele><time>2026-04-18T16:04:15.999Z</time></trkpt><trkpt lat="42.01630283428362" lon="12.435756517967672"><ele>63.0</ele><time>2026-04-18T16:04:16.999Z</time></trkpt><trkpt lat="42.016029941625334" lon="12.435855704530324"><ele>55.5</ele><time>2026-04-18T16:04:17.999Z</time></trkpt><trkpt lat="42.01576136416583" lon="12.435962292293752"><ele>48.0</ele><time>2026-04-18T16:04:18.999Z</time></trkpt><trkpt lat="42.01549188469629" lon="12.436052880823596"><ele>48.0</ele><time>2026-04-18T16:04:19.999Z</time></trkpt><trkpt lat="42.01522322476693" lon="12.436150387032635"><ele>48.0</ele><time>2026-04-18T16:04:20.999Z</time></trkpt><trkpt lat="42.01495620180079" lon="12.43624740539172"><ele>49.0</ele><time>2026-04-18T16:04:21.999Z</time></trkpt><trkpt lat="42.01471088521481" lon="12.436338585148592"><ele>50.0</ele><time>2026-04-18T16:04:22.999Z</time></trkpt><trkpt lat="42.01448185175291" lon="12.436425026857831"><ele>50.0</ele><time>2026-04-18T16:04:23.999Z</time></trkpt><trkpt lat="42.01427277894948" lon="12.436502828166207"><ele>50.0</ele><time>2026-04-18T16:04:24.999Z</time></trkpt><trkpt lat="42.014073537347365" lon="12.436569383921167"><ele>50.0</ele><time>2026-04-18T16:04:25.999Z</time></trkpt><trkpt lat="42.01387124351806" lon="12.436638167638408"><ele>59.66666666666667</ele><time>2026-04-18T16:04:26.999Z</time></trkpt><trkpt lat="42.013667381387165" lon="12.43671217797909"><ele>69.33333333333333</ele><time>2026-04-18T16:04:27.999Z</time></trkpt><trkpt lat="42.013462019458956" lon="12.436786625785066"><ele>79.0</ele><time>2026-04-18T16:04:28.999Z</time></trkpt><trkpt lat="42.01325402920635" lon="12.43686624839746"><ele>79.66666666666666</ele><time>2026-04-18T16:04:29.999Z</time></trkpt><trkpt lat="42.013043401632345" lon="12.436948343333093"><ele>80.33333333333333</ele><time>2026-04-18T16:04:30.999Z</time></trkpt><trkpt lat="42.01282507739401" lon="12.43703667300034"><ele>81.0</ele><time>2026-04-18T16:04:31.999Z</time></trkpt><trkpt lat="42.01260858195112" lon="12.437122434047156"><ele>72.0</ele><time>2026-04-18T16:04:32.999Z</time></trkpt><trkpt lat="42.01239570992944" lon="12.43720788757233"><ele>63.0</ele><time>2026-04-18T16:04:33.999Z</time></trkpt><trkpt lat="42.01216587260226" lon="12.437304774011915"><ele>63.0</ele><time>2026-04-18T16:04:35.063Z</time></trkpt><trkpt lat="42.01195383280826" lon="12.437399661472414"><ele>63.0</ele><time>2026-04-18T16:04:36.062Z</time></trkpt><trkpt lat="42.0117398259125" lon="12.43749362211333"><ele>63.0</ele><time>2026-04-18T16:04:37.057Z</time></trkpt><trkpt lat="42.01119985340737" lon="12.437816245465774"><ele>54.0</ele><time>2026-04-18T16:04:38.999Z</time></trkpt><trkpt lat="42.010819581363265" lon="12.437763471732763"><ele>45.0</ele><time>2026-04-18T16:04:39.999Z</time></trkpt><trkpt lat="42.01056407736397" lon="12.437888082244662"><ele>45.0</ele><time>2026-04-18T16:04:40.999Z</time></trkpt><trkpt lat="42.01028481485351" lon="12.437967477793153"><ele>45.0</ele><time>2026-04-18T16:04:41.999Z</time></trkpt><trkpt lat="42.01002115985781" lon="12.43807417427258"><ele>41.5</ele><time>2026-04-18T16:04:42.999Z</time></trkpt><trkpt lat="42.00974543034328" lon="12.438183080991866"><ele>38.0</ele><time>2026-04-18T16:04:43.999Z</time></trkpt><trkpt lat="42.009475086114094" lon="12.4382973562719"><ele>38.0</ele><time>2026-04-18T16:04:44.999Z</time></trkpt><trkpt lat="42.0092111717389" lon="12.438406192191866"><ele>38.0</ele><time>2026-04-18T16:04:45.999Z</time></trkpt><trkpt lat="42.00894191771644" lon="12.438524758909336"><ele>35.5</ele><time>2026-04-18T16:04:46.999Z</time></trkpt><trkpt lat="42.008679368856335" lon="12.438638723283972"><ele>33.0</ele><time>2026-04-18T16:04:47.999Z</time></trkpt><trkpt lat="42.00841838339118" lon="12.438765003407921"><ele>33.5</ele><time>2026-04-18T16:04:48.999Z</time></trkpt><trkpt lat="42.008168372049624" lon="12.438907697605805"><ele>34.0</ele><time>2026-04-18T16:04:49.999Z</time></trkpt><trkpt lat="42.007915374885215" lon="12.439062629657855"><ele>34.0</ele><time>2026-04-18T16:04:50.999Z</time></trkpt><trkpt lat="42.00766844711831" lon="12.439220171964113"><ele>34.0</ele><time>2026-04-18T16:04:51.999Z</time></trkpt><trkpt lat="42.007424621739425" lon="12.439387686786118"><ele>33.5</ele><time>2026-04-18T16:04:52.999Z</time></trkpt><trkpt lat="42.00719514483522" lon="12.439560910307621"><ele>33.0</ele><time>2026-04-18T16:04:53.999Z</time></trkpt><trkpt lat="42.00697157771053" lon="12.439745669182658"><ele>34.0</ele><time>2026-04-18T16:04:54.999Z</time></trkpt><trkpt lat="42.0067544182375" lon="12.4399398250607"><ele>35.0</ele><time>2026-04-18T16:04:55.999Z</time></trkpt><trkpt lat="42.006537555718914" lon="12.440139519094341"><ele>35.0</ele><time>2026-04-18T16:04:56.999Z</time></trkpt><trkpt lat="42.006326409723094" lon="12.440340874975949"><ele>35.0</ele><time>2026-04-18T16:04:57.999Z</time></trkpt><trkpt lat="42.00611662993558" lon="12.440553381054263"><ele>35.5</ele><time>2026-04-18T16:04:58.999Z</time></trkpt><trkpt lat="42.00591116777436" lon="12.4407736828989"><ele>36.0</ele><time>2026-04-18T16:04:59.998Z</time></trkpt><trkpt lat="42.005712712697076" lon="12.441027999722289"><ele>35.0</ele><time>2026-04-18T16:05:00.998Z</time></trkpt><trkpt lat="42.00551629509939" lon="12.441283536721357"><ele>34.0</ele><time>2026-04-18T16:05:01.998Z</time></trkpt><trkpt lat="42.00532098087396" lon="12.441545179406505"><ele>34.0</ele><time>2026-04-18T16:05:02.998Z</time></trkpt><trkpt lat="42.00512318214925" lon="12.441814062079988"><ele>34.0</ele><time>2026-04-18T16:05:03.998Z</time></trkpt><trkpt lat="42.00493123930113" lon="12.442089914649218"><ele>33.5</ele><time>2026-04-18T16:05:04.998Z</time></trkpt><trkpt lat="42.00474480716645" lon="12.442380420357392"><ele>33.0</ele><time>2026-04-18T16:05:05.998Z</time></trkpt><trkpt lat="42.00456437151084" lon="12.442678683862402"><ele>34.0</ele><time>2026-04-18T16:05:06.998Z</time></trkpt><trkpt lat="42.00439123131252" lon="12.44298229725499"><ele>35.0</ele><time>2026-04-18T16:05:07.998Z</time></trkpt><trkpt lat="42.00422571407432" lon="12.443296205167474"><ele>37.5</ele><time>2026-04-18T16:05:08.998Z</time></trkpt><trkpt lat="42.004064867983125" lon="12.443611243707634"><ele>40.0</ele><time>2026-04-18T16:05:09.998Z</time></trkpt><trkpt lat="42.00391283339855" lon="12.443930246414382"><ele>40.0</ele><time>2026-04-18T16:05:10.998Z</time></trkpt><trkpt lat="42.0037600818217" lon="12.444253646187809"><ele>40.0</ele><time>2026-04-18T16:05:11.998Z</time></trkpt><trkpt lat="42.00360123116591" lon="12.444575184250334"><ele>36.5</ele><time>2026-04-18T16:05:12.998Z</time></trkpt><trkpt lat="42.003439281806685" lon="12.444890424298224"><ele>33.0</ele><time>2026-04-18T16:05:13.998Z</time></trkpt><trkpt lat="42.003278247124754" lon="12.445204706005335"><ele>32.5</ele><time>2026-04-18T16:05:14.998Z</time></trkpt><trkpt lat="42.00312150706335" lon="12.445517053891676"><ele>32.0</ele><time>2026-04-18T16:05:15.998Z</time></trkpt><trkpt lat="42.00296010903487" lon="12.445823170722864"><ele>32.0</ele><time>2026-04-18T16:05:16.998Z</time></trkpt><trkpt lat="42.002806361995226" lon="12.446128650438062"><ele>32.0</ele><time>2026-04-18T16:05:17.998Z</time></trkpt><trkpt lat="42.00264768592876" lon="12.44643383966101"><ele>32.5</ele><time>2026-04-18T16:05:18.998Z</time></trkpt><trkpt lat="42.00248969996823" lon="12.44673611106221"><ele>33.0</ele><time>2026-04-18T16:05:19.998Z</time></trkpt><trkpt lat="42.002336632686934" lon="12.447040645557685"><ele>32.5</ele><time>2026-04-18T16:05:20.998Z</time></trkpt><trkpt lat="42.00219149444949" lon="12.447337880308515"><ele>32.0</ele><time>2026-04-18T16:05:21.998Z</time></trkpt><trkpt lat="42.00203991938916" lon="12.447627256492462"><ele>32.0</ele><time>2026-04-18T16:05:22.998Z</time></trkpt><trkpt lat="42.00188673190552" lon="12.447913716189206"><ele>32.0</ele><time>2026-04-18T16:05:23.998Z</time></trkpt><trkpt lat="42.001743836503216" lon="12.448207863526024"><ele>32.0</ele><time>2026-04-18T16:05:24.998Z</time></trkpt><trkpt lat="42.0015989438371" lon="12.448500085093851"><ele>32.0</ele><time>2026-04-18T16:05:25.998Z</time></trkpt><trkpt lat="42.00144756012391" lon="12.448791227142836"><ele>32.0</ele><time>2026-04-18T16:05:27Z</time></trkpt><trkpt lat="42.00129825609315" lon="12.449078241495604"><ele>32.0</ele><time>2026-04-18T16:05:28Z</time></trkpt><trkpt lat="42.00114863386369" lon="12.449365739610442"><ele>32.5</ele><time>2026-04-18T16:05:29Z</time></trkpt><trkpt lat="42.00100007168879" lon="12.449657459911759"><ele>33.0</ele><time>2026-04-18T16:05:30Z</time></trkpt><trkpt lat="42.000853459734216" lon="12.449953733365383"><ele>33.5</ele><time>2026-04-18T16:05:31Z</time></trkpt><trkpt lat="42.000703638183516" lon="12.450244367017843"><ele>34.0</ele><time>2026-04-18T16:05:32Z</time></trkpt><trkpt lat="42.000551195993445" lon="12.450536000573587"><ele>34.0</ele><time>2026-04-18T16:05:33Z</time></trkpt><trkpt lat="42.00039505331484" lon="12.450833112244668"><ele>34.0</ele><time>2026-04-18T16:05:34Z</time></trkpt><trkpt lat="42.000242675620726" lon="12.451131920020327"><ele>34.5</ele><time>2026-04-18T16:05:35Z</time></trkpt><trkpt lat="42.000092461567064" lon="12.45143135893035"><ele>35.0</ele><time>2026-04-18T16:05:36Z</time></trkpt><trkpt lat="41.999946059022896" lon="12.451713815728295"><ele>35.0</ele><time>2026-04-18T16:05:37Z</time></trkpt><trkpt lat="41.99980869379316" lon="12.451982928160097"><ele>35.0</ele><time>2026-04-18T16:05:38Z</time></trkpt><trkpt lat="41.999667603984086" lon="12.452252229181754"><ele>33.5</ele><time>2026-04-18T16:05:39Z</time></trkpt><trkpt lat="41.99952744138701" lon="12.45252637300803"><ele>32.0</ele><time>2026-04-18T16:05:40Z</time></trkpt><trkpt lat="41.99939294996032" lon="12.452797647771696"><ele>31.5</ele><time>2026-04-18T16:05:41Z</time></trkpt><trkpt lat="41.9992626798007" lon="12.453056062079346"><ele>31.0</ele><time>2026-04-18T16:05:42Z</time></trkpt><trkpt lat="41.999134589845326" lon="12.453315578249208"><ele>31.0</ele><time>2026-04-18T16:05:43Z</time></trkpt><trkpt lat="41.9990170071281" lon="12.453576049009682"><ele>31.0</ele><time>2026-04-18T16:05:44Z</time></trkpt><trkpt lat="41.99891013248948" lon="12.45384519426424"><ele>31.5</ele><time>2026-04-18T16:05:45Z</time></trkpt><trkpt lat="41.99880496326079" lon="12.454122409455579"><ele>32.0</ele><time>2026-04-18T16:05:46Z</time></trkpt><trkpt lat="41.99869878896821" lon="12.454392755835613"><ele>32.0</ele><time>2026-04-18T16:05:47Z</time></trkpt><trkpt lat="41.9985913129554" lon="12.454678003244727"><ele>32.0</ele><time>2026-04-18T16:05:48Z</time></trkpt><trkpt lat="41.9984861115216" lon="12.454969131597968"><ele>32.0</ele><time>2026-04-18T16:05:49Z</time></trkpt><trkpt lat="41.9983774200259" lon="12.455265095317944"><ele>32.0</ele><time>2026-04-18T16:05:50Z</time></trkpt><trkpt lat="41.9982608050201" lon="12.455564150462841"><ele>31.5</ele><time>2026-04-18T16:05:51Z</time></trkpt><trkpt lat="41.99814539890034" lon="12.455857947425287"><ele>31.0</ele><time>2026-04-18T16:05:52Z</time></trkpt><trkpt lat="41.99803574105156" lon="12.45614366647535"><ele>30.0</ele><time>2026-04-18T16:05:53Z</time></trkpt><trkpt lat="41.99792700262453" lon="12.456435647503382"><ele>29.0</ele><time>2026-04-18T16:05:54Z</time></trkpt><trkpt lat="41.997814574037285" lon="12.456725982935225"><ele>29.0</ele><time>2026-04-18T16:05:55Z</time></trkpt><trkpt lat="41.99770252117399" lon="12.457020503801093"><ele>29.0</ele><time>2026-04-18T16:05:56Z</time></trkpt><trkpt lat="41.9975907991077" lon="12.457323145314058"><ele>29.5</ele><time>2026-04-18T16:05:57Z</time></trkpt><trkpt lat="41.997481269316594" lon="12.457625206100987"><ele>30.0</ele><time>2026-04-18T16:05:58Z</time></trkpt><trkpt lat="41.99737303524862" lon="12.457914016435575"><ele>30.5</ele><time>2026-04-18T16:05:59Z</time></trkpt><trkpt lat="41.99726732608491" lon="12.458197860352145"><ele>31.0</ele><time>2026-04-18T16:06:00Z</time></trkpt><trkpt lat="41.99716258219952" lon="12.458479358429468"><ele>31.0</ele><time>2026-04-18T16:06:01Z</time></trkpt><trkpt lat="41.99705961329409" lon="12.458748752810656"><ele>31.0</ele><time>2026-04-18T16:06:02Z</time></trkpt><trkpt lat="41.996963741001395" lon="12.459003438531429"><ele>31.0</ele><time>2026-04-18T16:06:03Z</time></trkpt><trkpt lat="41.99687419538098" lon="12.459236214117865"><ele>31.0</ele><time>2026-04-18T16:06:04Z</time></trkpt><trkpt lat="41.9967967044426" lon="12.459437445219022"><ele>31.0</ele><time>2026-04-18T16:06:05Z</time></trkpt><trkpt lat="41.99672810344458" lon="12.459621220156608"><ele>31.0</ele><time>2026-04-18T16:06:06Z</time></trkpt><trkpt lat="41.996661248556244" lon="12.459801523849217"><ele>30.666666666666668</ele><time>2026-04-18T16:06:07Z</time></trkpt><trkpt lat="41.99659477203653" lon="12.459975192784396"><ele>30.333333333333336</ele><time>2026-04-18T16:06:08Z</time></trkpt><trkpt lat="41.99652655299185" lon="12.460150334204238"><ele>30.0</ele><time>2026-04-18T16:06:09Z</time></trkpt><trkpt lat="41.99645740093311" lon="12.460345257577853"><ele>30.666666666666664</ele><time>2026-04-18T16:06:10Z</time></trkpt><trkpt lat="41.99638813414165" lon="12.460553179503496"><ele>31.333333333333332</ele><time>2026-04-18T16:06:11Z</time></trkpt><trkpt lat="41.996317019784364" lon="12.460775135425111"><ele>32.0</ele><time>2026-04-18T16:06:12Z</time></trkpt><trkpt lat="41.996246220816055" lon="12.461006753984435"><ele>32.0</ele><time>2026-04-18T16:06:13Z</time></trkpt><trkpt lat="41.996176360302144" lon="12.461235709723669"><ele>32.0</ele><time>2026-04-18T16:06:14Z</time></trkpt><trkpt lat="41.99610906216302" lon="12.46147400270516"><ele>32.0</ele><time>2026-04-18T16:06:15Z</time></trkpt><trkpt lat="41.99604252945148" lon="12.461715550182255"><ele>32.0</ele><time>2026-04-18T16:06:16Z</time></trkpt><trkpt lat="41.99597574448844" lon="12.461962313066936"><ele>32.0</ele><time>2026-04-18T16:06:17Z</time></trkpt><trkpt lat="41.995906883373" lon="12.4622163763328"><ele>32.0</ele><time>2026-04-18T16:06:18Z</time></trkpt><trkpt lat="41.99583457221603" lon="12.462479235823256"><ele>30.666666666666664</ele><time>2026-04-18T16:06:19Z</time></trkpt><trkpt lat="41.99576295951266" lon="12.46275725181401"><ele>29.333333333333336</ele><time>2026-04-18T16:06:20Z</time></trkpt><trkpt lat="41.99568856110604" lon="12.463041341012618"><ele>28.0</ele><time>2026-04-18T16:06:20.999Z</time></trkpt><trkpt lat="41.99561001030236" lon="12.463336925299753"><ele>28.0</ele><time>2026-04-18T16:06:21.999Z</time></trkpt><trkpt lat="41.9955288902649" lon="12.463636655345278"><ele>28.0</ele><time>2026-04-18T16:06:22.999Z</time></trkpt><trkpt lat="41.99544812175103" lon="12.463928008825938"><ele>27.0</ele><time>2026-04-18T16:06:23.999Z</time></trkpt><trkpt lat="41.99536877889795" lon="12.464208253984355"><ele>26.0</ele><time>2026-04-18T16:06:24.999Z</time></trkpt><trkpt lat="41.99528374884025" lon="12.464492168874038"><ele>27.0</ele><time>2026-04-18T16:06:25.999Z</time></trkpt><trkpt lat="41.99518430804225" lon="12.464766581276676"><ele>28.0</ele><time>2026-04-18T16:06:26.999Z</time></trkpt><trkpt lat="41.9950763323258" lon="12.465029385143692"><ele>28.333333333333336</ele><time>2026-04-18T16:06:27.999Z</time></trkpt><trkpt lat="41.99496382833974" lon="12.465269056705424"><ele>28.666666666666664</ele><time>2026-04-18T16:06:28.999Z</time></trkpt><trkpt lat="41.99484321417942" lon="12.465502032617993"><ele>29.0</ele><time>2026-04-18T16:06:29.999Z</time></trkpt><trkpt lat="41.99471678807492" lon="12.465709247935985"><ele>29.0</ele><time>2026-04-18T16:06:30.999Z</time></trkpt><trkpt lat="41.99458843924765" lon="12.465910296638791"><ele>29.0</ele><time>2026-04-18T16:06:31.999Z</time></trkpt><trkpt lat="41.99445019369622" lon="12.466102800235369"><ele>29.0</ele><time>2026-04-18T16:06:32.999Z</time></trkpt><trkpt lat="41.994306540852364" lon="12.46628180538241"><ele>28.333333333333332</ele><time>2026-04-18T16:06:33.999Z</time></trkpt><trkpt lat="41.99415734110406" lon="12.466449499397449"><ele>27.666666666666664</ele><time>2026-04-18T16:06:34.999Z</time></trkpt><trkpt lat="41.99400644003276" lon="12.46661519657736"><ele>27.0</ele><time>2026-04-18T16:06:35.999Z</time></trkpt><trkpt lat="41.99385127249832" lon="12.466778275796162"><ele>27.0</ele><time>2026-04-18T16:06:36.999Z</time></trkpt><trkpt lat="41.993696402420404" lon="12.466923111418103"><ele>27.0</ele><time>2026-04-18T16:06:37.999Z</time></trkpt><trkpt lat="41.99353380692868" lon="12.467060896355415"><ele>27.0</ele><time>2026-04-18T16:06:38.999Z</time></trkpt><trkpt lat="41.993363998140026" lon="12.4671959432857"><ele>26.666666666666664</ele><time>2026-04-18T16:06:39.999Z</time></trkpt><trkpt lat="41.99319431738622" lon="12.467321966228393"><ele>26.333333333333332</ele><time>2026-04-18T16:06:40.999Z</time></trkpt><trkpt lat="41.99301981494641" lon="12.467434240150483"><ele>26.0</ele><time>2026-04-18T16:06:41.999Z</time></trkpt><trkpt lat="41.99284121305658" lon="12.467545250732353"><ele>26.0</ele><time>2026-04-18T16:06:42.999Z</time></trkpt><trkpt lat="41.99266148751536" lon="12.467657738699458"><ele>26.0</ele><time>2026-04-18T16:06:43.999Z</time></trkpt><trkpt lat="41.99248179168613" lon="12.467774344014916"><ele>26.0</ele><time>2026-04-18T16:06:44.999Z</time></trkpt><trkpt lat="41.99229989504896" lon="12.467891290302756"><ele>26.333333333333332</ele><time>2026-04-18T16:06:45.999Z</time></trkpt><trkpt lat="41.99212420877094" lon="12.468005580411331"><ele>26.666666666666664</ele><time>2026-04-18T16:06:46.999Z</time></trkpt><trkpt lat="41.991949541752916" lon="12.468111911563415"><ele>27.0</ele><time>2026-04-18T16:06:47.999Z</time></trkpt><trkpt lat="41.99178695347596" lon="12.46821459613087"><ele>27.666666666666664</ele><time>2026-04-18T16:06:48.999Z</time></trkpt><trkpt lat="41.9916300158509" lon="12.468306736843935"><ele>28.333333333333332</ele><time>2026-04-18T16:06:49.999Z</time></trkpt><trkpt lat="41.991472142173656" lon="12.468404792689993"><ele>29.0</ele><time>2026-04-18T16:06:50.999Z</time></trkpt><trkpt lat="41.9913157004893" lon="12.468499862491177"><ele>29.0</ele><time>2026-04-18T16:06:51.999Z</time></trkpt><trkpt lat="41.99114968089626" lon="12.468609472382509"><ele>29.0</ele><time>2026-04-18T16:06:52.999Z</time></trkpt><trkpt lat="41.99097565419803" lon="12.468721441084272"><ele>29.0</ele><time>2026-04-18T16:06:53.999Z</time></trkpt><trkpt lat="41.990803149184714" lon="12.468837508464471"><ele>27.333333333333332</ele><time>2026-04-18T16:06:54.999Z</time></trkpt><trkpt lat="41.990621473299235" lon="12.468957696936506"><ele>25.666666666666664</ele><time>2026-04-18T16:06:55.999Z</time></trkpt><trkpt lat="41.990443131961555" lon="12.469075234612099"><ele>24.0</ele><time>2026-04-18T16:06:56.999Z</time></trkpt><trkpt lat="41.99026566722723" lon="12.469186994164964"><ele>24.0</ele><time>2026-04-18T16:06:57.999Z</time></trkpt><trkpt lat="41.990081933972704" lon="12.469301600937886"><ele>24.0</ele><time>2026-04-18T16:06:58.999Z</time></trkpt><trkpt lat="41.98989777208222" lon="12.469424429992458"><ele>24.0</ele><time>2026-04-18T16:06:59.999Z</time></trkpt><trkpt lat="41.989712607485345" lon="12.469547515103205"><ele>25.0</ele><time>2026-04-18T16:07:00.999Z</time></trkpt><trkpt lat="41.98951621516513" lon="12.469672797696802"><ele>26.0</ele><time>2026-04-18T16:07:01.999Z</time></trkpt><trkpt lat="41.989317452659" lon="12.469801777312872"><ele>27.0</ele><time>2026-04-18T16:07:02.999Z</time></trkpt><trkpt lat="41.98912095972933" lon="12.469937430307668"><ele>28.5</ele><time>2026-04-18T16:07:03.999Z</time></trkpt><trkpt lat="41.9889248679506" lon="12.47008997225476"><ele>30.0</ele><time>2026-04-18T16:07:04.999Z</time></trkpt><trkpt lat="41.98873185831396" lon="12.470258041582367"><ele>30.0</ele><time>2026-04-18T16:07:05.999Z</time></trkpt><trkpt lat="41.988548301841455" lon="12.47043309870805"><ele>30.0</ele><time>2026-04-18T16:07:06.999Z</time></trkpt><trkpt lat="41.988363988043965" lon="12.470621460145377"><ele>30.0</ele><time>2026-04-18T16:07:07.999Z</time></trkpt><trkpt lat="41.98818510372869" lon="12.470825767985456"><ele>30.0</ele><time>2026-04-18T16:07:08.999Z</time></trkpt><trkpt lat="41.98801635969486" lon="12.47103798421029"><ele>30.0</ele><time>2026-04-18T16:07:09.998Z</time></trkpt><trkpt lat="41.987840846682865" lon="12.471271572132178"><ele>30.0</ele><time>2026-04-18T16:07:10.998Z</time></trkpt><trkpt lat="41.987672223442516" lon="12.471513380727968"><ele>28.0</ele><time>2026-04-18T16:07:11.998Z</time></trkpt><trkpt lat="41.98751812752015" lon="12.47176402905349"><ele>26.0</ele><time>2026-04-18T16:07:12.998Z</time></trkpt><trkpt lat="41.987369484019226" lon="12.472027846137637"><ele>26.5</ele><time>2026-04-18T16:07:13.998Z</time></trkpt><trkpt lat="41.98722880517803" lon="12.472301614935676"><ele>27.0</ele><time>2026-04-18T16:07:14.998Z</time></trkpt><trkpt lat="41.98709749844811" lon="12.472582694648732"><ele>27.0</ele><time>2026-04-18T16:07:15.998Z</time></trkpt><trkpt lat="41.98698243022765" lon="12.472845848192872"><ele>27.0</ele><time>2026-04-18T16:07:16.998Z</time></trkpt><trkpt lat="41.98688081974452" lon="12.473108842581663"><ele>27.0</ele><time>2026-04-18T16:07:17.998Z</time></trkpt><trkpt lat="41.98678985803978" lon="12.47337258042178"><ele>27.0</ele><time>2026-04-18T16:07:18.998Z</time></trkpt><trkpt lat="41.986702280487336" lon="12.47363228510863"><ele>27.0</ele><time>2026-04-18T16:07:19.998Z</time></trkpt><trkpt lat="41.986616990316676" lon="12.47387878382901"><ele>27.0</ele><time>2026-04-18T16:07:20.998Z</time></trkpt><trkpt lat="41.98653076689469" lon="12.474120038593133"><ele>30.666666666666664</ele><time>2026-04-18T16:07:21.998Z</time></trkpt><trkpt lat="41.986447842510614" lon="12.474353129455118"><ele>34.33333333333333</ele><time>2026-04-18T16:07:22.998Z</time></trkpt><trkpt lat="41.98636614848856" lon="12.474591512159407"><ele>38.0</ele><time>2026-04-18T16:07:23.998Z</time></trkpt><trkpt lat="41.98628971048329" lon="12.4748126833683"><ele>38.0</ele><time>2026-04-18T16:07:24.998Z</time></trkpt><trkpt lat="41.986213599506684" lon="12.475030157538187"><ele>38.0</ele><time>2026-04-18T16:07:25.998Z</time></trkpt><trkpt lat="41.98614122811203" lon="12.475258531131583"><ele>38.0</ele><time>2026-04-18T16:07:26.998Z</time></trkpt><trkpt lat="41.98607253058362" lon="12.475489157541043"><ele>36.666666666666664</ele><time>2026-04-18T16:07:27.998Z</time></trkpt><trkpt lat="41.98601073333646" lon="12.475728633587432"><ele>35.333333333333336</ele><time>2026-04-18T16:07:28.998Z</time></trkpt><trkpt lat="41.98592736609774" lon="12.47598446885604"><ele>34.0</ele><time>2026-04-18T16:07:29.998Z</time></trkpt><trkpt lat="41.98586561145872" lon="12.47622807568261"><ele>36.0</ele><time>2026-04-18T16:07:30.998Z</time></trkpt><trkpt lat="41.985837652347925" lon="12.476496357379546"><ele>38.0</ele><time>2026-04-18T16:07:31.998Z</time></trkpt><trkpt lat="41.98580898203255" lon="12.476782973233766"><ele>40.0</ele><time>2026-04-18T16:07:33Z</time></trkpt><trkpt lat="41.98581051067999" lon="12.477072895128407"><ele>40.0</ele><time>2026-04-18T16:07:34Z</time></trkpt><trkpt lat="41.98580845372662" lon="12.477358512679688"><ele>40.0</ele><time>2026-04-18T16:07:35Z</time></trkpt><trkpt lat="41.98581440594567" lon="12.477641256966303"><ele>40.0</ele><time>2026-04-18T16:07:36Z</time></trkpt><trkpt lat="41.98582295422961" lon="12.477916521760681"><ele>35.66666666666667</ele><time>2026-04-18T16:07:37Z</time></trkpt><trkpt lat="41.98584538535237" lon="12.47817728531191"><ele>31.333333333333336</ele><time>2026-04-18T16:07:38Z</time></trkpt><trkpt lat="41.98587875250558" lon="12.478432713996511"><ele>27.0</ele><time>2026-04-18T16:07:39Z</time></trkpt><trkpt lat="41.98591655131136" lon="12.478678961502636"><ele>27.666666666666664</ele><time>2026-04-18T16:07:40Z</time></trkpt><trkpt lat="41.98595870702864" lon="12.478921340268487"><ele>28.333333333333332</ele><time>2026-04-18T16:07:41Z</time></trkpt><trkpt lat="41.98600241757998" lon="12.479158056149227"><ele>29.0</ele><time>2026-04-18T16:07:42Z</time></trkpt><trkpt lat="41.986048944324025" lon="12.479405681818156"><ele>27.666666666666664</ele><time>2026-04-18T16:07:43Z</time></trkpt><trkpt lat="41.98608761674377" lon="12.479652652141738"><ele>26.333333333333336</ele><time>2026-04-18T16:07:44Z</time></trkpt><trkpt lat="41.98611747568462" lon="12.479897224759787"><ele>25.0</ele><time>2026-04-18T16:07:45Z</time></trkpt><trkpt lat="41.98613725540042" lon="12.480124798893323"><ele>25.0</ele><time>2026-04-18T16:07:46Z</time></trkpt><trkpt lat="41.98619350684711" lon="12.480400126240195"><ele>25.0</ele><time>2026-04-18T16:07:47Z</time></trkpt><trkpt lat="41.98621625710746" lon="12.480649883811802"><ele>25.0</ele><time>2026-04-18T16:07:48Z</time></trkpt><trkpt lat="41.98622264791126" lon="12.480907028588565"><ele>24.666666666666668</ele><time>2026-04-18T16:07:49Z</time></trkpt><trkpt lat="41.9862209773303" lon="12.481162177479987"><ele>24.333333333333336</ele><time>2026-04-18T16:07:50Z</time></trkpt><trkpt lat="41.986207861163635" lon="12.481423763886323"><ele>24.0</ele><time>2026-04-18T16:07:51Z</time></trkpt><trkpt lat="41.986182829474224" lon="12.481687570485686"><ele>24.0</ele><time>2026-04-18T16:07:52Z</time></trkpt><trkpt lat="41.98615840132901" lon="12.48194772727197"><ele>24.0</ele><time>2026-04-18T16:07:53Z</time></trkpt><trkpt lat="41.98613570665736" lon="12.482198979262924"><ele>24.0</ele><time>2026-04-18T16:07:54Z</time></trkpt><trkpt lat="41.98611970360175" lon="12.482450753000403"><ele>24.0</ele><time>2026-04-18T16:07:55Z</time></trkpt><trkpt lat="41.986103218454296" lon="12.48268927604749"><ele>24.0</ele><time>2026-04-18T16:07:56Z</time></trkpt><trkpt lat="41.98608461367689" lon="12.482920005237236"><ele>24.0</ele><time>2026-04-18T16:07:57Z</time></trkpt><trkpt lat="41.98606750759735" lon="12.483150140967517"><ele>24.0</ele><time>2026-04-18T16:07:58Z</time></trkpt><trkpt lat="41.98604544915071" lon="12.483368498388039"><ele>24.0</ele><time>2026-04-18T16:07:59Z</time></trkpt><trkpt lat="41.986027078003666" lon="12.483581796727751"><ele>24.0</ele><time>2026-04-18T16:08:00Z</time></trkpt><trkpt lat="41.986005043555316" lon="12.483796269947266"><ele>23.333333333333332</ele><time>2026-04-18T16:08:01Z</time></trkpt><trkpt lat="41.985985255760184" lon="12.483998566689383"><ele>22.666666666666664</ele><time>2026-04-18T16:08:02Z</time></trkpt><trkpt lat="41.98596401597301" lon="12.484202379730194"><ele>22.0</ele><time>2026-04-18T16:08:03Z</time></trkpt><trkpt lat="41.98594267274874" lon="12.484419415233935"><ele>21.333333333333332</ele><time>2026-04-18T16:08:04Z</time></trkpt><trkpt lat="41.98591987992807" lon="12.484645850818726"><ele>20.666666666666668</ele><time>2026-04-18T16:08:05Z</time></trkpt><trkpt lat="41.985898894896025" lon="12.484857964682293"><ele>20.0</ele><time>2026-04-18T16:08:06Z</time></trkpt><trkpt lat="41.985878166705874" lon="12.485065298993618"><ele>20.0</ele><time>2026-04-18T16:08:07Z</time></trkpt><trkpt lat="41.98585321083278" lon="12.485279013735278"><ele>20.0</ele><time>2026-04-18T16:08:08Z</time></trkpt><trkpt lat="41.98582662450397" lon="12.485493852149476"><ele>20.0</ele><time>2026-04-18T16:08:09Z</time></trkpt><trkpt lat="41.985799882401075" lon="12.485713485199355"><ele>21.0</ele><time>2026-04-18T16:08:10Z</time></trkpt><trkpt lat="41.985775795054096" lon="12.485964594129051"><ele>22.0</ele><time>2026-04-18T16:08:11Z</time></trkpt><trkpt lat="41.98574938654096" lon="12.486242427506495"><ele>23.0</ele><time>2026-04-18T16:08:12Z</time></trkpt><trkpt lat="41.98571669796911" lon="12.486544154581201"><ele>23.5</ele><time>2026-04-18T16:08:13Z</time></trkpt><trkpt lat="41.98568091116835" lon="12.48683571271597"><ele>24.0</ele><time>2026-04-18T16:08:14Z</time></trkpt><trkpt lat="41.9856436603843" lon="12.48714854602757"><ele>22.5</ele><time>2026-04-18T16:08:15Z</time></trkpt><trkpt lat="41.98560362726462" lon="12.487468897021285"><ele>21.0</ele><time>2026-04-18T16:08:16Z</time></trkpt><trkpt lat="41.985569811868025" lon="12.487772843376133"><ele>21.0</ele><time>2026-04-18T16:08:17Z</time></trkpt><trkpt lat="41.98554393180808" lon="12.488056445471678"><ele>21.0</ele><time>2026-04-18T16:08:18Z</time></trkpt><trkpt lat="41.9855298438266" lon="12.488325492009789"><ele>21.0</ele><time>2026-04-18T16:08:19Z</time></trkpt><trkpt lat="41.98552295408115" lon="12.488576692346008"><ele>20.333333333333332</ele><time>2026-04-18T16:08:20Z</time></trkpt><trkpt lat="41.98551727133424" lon="12.488818856269926"><ele>19.666666666666664</ele><time>2026-04-18T16:08:21Z</time></trkpt><trkpt lat="41.98551135808736" lon="12.489033968653166"><ele>19.0</ele><time>2026-04-18T16:08:22Z</time></trkpt><trkpt lat="41.985504691281754" lon="12.48921746773115"><ele>19.0</ele><time>2026-04-18T16:08:23Z</time></trkpt><trkpt lat="41.98549782912094" lon="12.489383926495337"><ele>19.0</ele><time>2026-04-18T16:08:23.999Z</time></trkpt><trkpt lat="41.98549392303553" lon="12.489542458464857"><ele>19.0</ele><time>2026-04-18T16:08:24.999Z</time></trkpt><trkpt lat="41.985497127252046" lon="12.489679045173963"><ele>19.0</ele><time>2026-04-18T16:08:25.999Z</time></trkpt><trkpt lat="41.98550605730381" lon="12.489814369790041"><ele>19.0</ele><time>2026-04-18T16:08:26.999Z</time></trkpt><trkpt lat="41.9855129926689" lon="12.489946530741186"><ele>18.833333333333332</ele><time>2026-04-18T16:08:27.999Z</time></trkpt><trkpt lat="41.98551730899871" lon="12.490061304290133"><ele>18.666666666666664</ele><time>2026-04-18T16:08:28.999Z</time></trkpt><trkpt lat="41.985524822290486" lon="12.490181930603214"><ele>18.5</ele><time>2026-04-18T16:08:29.999Z</time></trkpt><trkpt lat="41.98553100853352" lon="12.490278989007445"><ele>18.333333333333332</ele><time>2026-04-18T16:08:30.999Z</time></trkpt><trkpt lat="41.985533952609714" lon="12.49037444132435"><ele>18.166666666666668</ele><time>2026-04-18T16:08:31.999Z</time></trkpt><trkpt lat="41.985533245989316" lon="12.490473980200754"><ele>18.0</ele><time>2026-04-18T16:08:32.999Z</time></trkpt><trkpt lat="41.98553694964903" lon="12.490577213357803"><ele>18.6</ele><time>2026-04-18T16:08:33.999Z</time></trkpt><trkpt lat="41.98552233798953" lon="12.490737174713859"><ele>19.200000000000003</ele><time>2026-04-18T16:08:35.999Z</time></trkpt><trkpt lat="41.985515850520066" lon="12.490829262804413"><ele>19.8</ele><time>2026-04-18T16:08:36.999Z</time></trkpt><trkpt lat="41.985475783650585" lon="12.490981311221073"><ele>20.400000000000002</ele><time>2026-04-18T16:08:38.999Z</time></trkpt><trkpt lat="41.985414208299744" lon="12.491141154775947"><ele>21.0</ele><time>2026-04-18T16:08:40.999Z</time></trkpt><trkpt lat="41.98535956329909" lon="12.491231880587739"><ele>21.6</ele><time>2026-04-18T16:08:41.999Z</time></trkpt><trkpt lat="41.985284512430006" lon="12.491331412710625"><ele>22.200000000000003</ele><time>2026-04-18T16:08:42.999Z</time></trkpt><trkpt lat="41.985208331099955" lon="12.491411597241127"><ele>22.799999999999997</ele><time>2026-04-18T16:08:43.999Z</time></trkpt><trkpt lat="41.985140681101264" lon="12.491486619042771"><ele>23.4</ele><time>2026-04-18T16:08:44.999Z</time></trkpt><trkpt lat="41.98508405611389" lon="12.491567723255196"><ele>24.0</ele><time>2026-04-18T16:08:45.999Z</time></trkpt><trkpt lat="41.98503277137504" lon="12.491646825093534"><ele>24.166666666666668</ele><time>2026-04-18T16:08:46.999Z</time></trkpt><trkpt lat="41.98496857406693" lon="12.491741403493588"><ele>24.333333333333336</ele><time>2026-04-18T16:08:47.999Z</time></trkpt><trkpt lat="41.9849194408269" lon="12.491825452298945"><ele>24.5</ele><time>2026-04-18T16:08:48.999Z</time></trkpt><trkpt lat="41.984890050988206" lon="12.4919219882196"><ele>24.666666666666668</ele><time>2026-04-18T16:08:49.999Z</time></trkpt><trkpt lat="41.98487462967654" lon="12.492035893388518"><ele>24.833333333333336</ele><time>2026-04-18T16:08:50.999Z</time></trkpt><trkpt lat="41.984875162688596" lon="12.492175944642002"><ele>25.0</ele><time>2026-04-18T16:08:51.999Z</time></trkpt><trkpt lat="41.98487861926699" lon="12.492326305305456"><ele>25.0</ele><time>2026-04-18T16:08:52.999Z</time></trkpt><trkpt lat="41.98487121049284" lon="12.492473404369775"><ele>25.0</ele><time>2026-04-18T16:08:53.999Z</time></trkpt><trkpt lat="41.98484459286973" lon="12.492589282323355"><ele>25.0</ele><time>2026-04-18T16:08:54.999Z</time></trkpt><trkpt lat="41.98480533235664" lon="12.492695167709018"><ele>25.0</ele><time>2026-04-18T16:08:55.999Z</time></trkpt><trkpt lat="41.98476211116467" lon="12.492788255256173"><ele>25.0</ele><time>2026-04-18T16:08:56.999Z</time></trkpt><trkpt lat="41.98470411764629" lon="12.492865899892967"><ele>25.000000000000004</ele><time>2026-04-18T16:08:58.999Z</time></trkpt><trkpt lat="41.98464911900913" lon="12.492911827921391"><ele>25.0</ele><time>2026-04-18T16:09:00.999Z</time></trkpt><trkpt lat="41.98457712829786" lon="12.492931036593529"><ele>25.0</ele><time>2026-04-18T16:09:02.999Z</time></trkpt><trkpt lat="41.98451262582718" lon="12.492940345232048"><ele>25.0</ele><time>2026-04-18T16:09:03.999Z</time></trkpt><trkpt lat="41.98443005237369" lon="12.492972811347242"><ele>25.000000000000004</ele><time>2026-04-18T16:09:04.999Z</time></trkpt><trkpt lat="41.984353744286054" lon="12.49301228546578"><ele>25.0</ele><time>2026-04-18T16:09:05.999Z</time></trkpt><trkpt lat="41.98427664132927" lon="12.493050403891678"><ele>25.000000000000004</ele><time>2026-04-18T16:09:06.999Z</time></trkpt><trkpt lat="41.984207063690285" lon="12.493081871297802"><ele>25.0</ele><time>2026-04-18T16:09:07.999Z</time></trkpt><trkpt lat="41.98414075585677" lon="12.493120891457213"><ele>25.0</ele><time>2026-04-18T16:09:08.999Z</time></trkpt><trkpt lat="41.984068100771" lon="12.493170034694405"><ele>25.0</ele><time>2026-04-18T16:09:09.999Z</time></trkpt><trkpt lat="41.98399280642336" lon="12.493218244100003"><ele>25.000000000000004</ele><time>2026-04-18T16:09:10.999Z</time></trkpt><trkpt lat="41.983904059580375" lon="12.493269904792394"><ele>25.0</ele><time>2026-04-18T16:09:12.998Z</time></trkpt><trkpt lat="41.98384381700679" lon="12.49332504498958"><ele>25.000000000000004</ele><time>2026-04-18T16:09:14.998Z</time></trkpt><trkpt lat="41.98377007748918" lon="12.493371815912026"><ele>25.0</ele><time>2026-04-18T16:09:16.998Z</time></trkpt><trkpt lat="41.983677024506534" lon="12.493409817383741"><ele>25.0</ele><time>2026-04-18T16:09:18.998Z</time></trkpt><trkpt lat="41.98359836639001" lon="12.493431493672425"><ele>25.0</ele><time>2026-04-18T16:09:19.998Z</time></trkpt><trkpt lat="41.983498983328545" lon="12.493430350161796"><ele>25.000000000000004</ele><time>2026-04-18T16:09:20.998Z</time></trkpt><trkpt lat="41.983412736219535" lon="12.493436831701523"><ele>25.0</ele><time>2026-04-18T16:09:21.998Z</time></trkpt><trkpt lat="41.98334243986046" lon="12.493448879765763"><ele>26.000000000000004</ele><time>2026-04-18T16:09:22.998Z</time></trkpt><trkpt lat="41.98322678727667" lon="12.493462168459914"><ele>27.0</ele><time>2026-04-18T16:09:24.998Z</time></trkpt><trkpt lat="41.98315584636709" lon="12.493462546551545"><ele>28.0</ele><time>2026-04-18T16:09:25.998Z</time></trkpt><trkpt lat="41.983074715017906" lon="12.493464946941923"><ele>29.0</ele><time>2026-04-18T16:09:26.998Z</time></trkpt><trkpt lat="41.98299317209173" lon="12.493468448513799"><ele>30.000000000000004</ele><time>2026-04-18T16:09:27.998Z</time></trkpt><trkpt lat="41.98291215970021" lon="12.493465774265406"><ele>31.0</ele><time>2026-04-18T16:09:28.998Z</time></trkpt><trkpt lat="41.98280980188278" lon="12.493469787318812"><ele>31.0</ele><time>2026-04-18T16:09:29.998Z</time></trkpt><trkpt lat="41.98267760793383" lon="12.49347368804601"><ele>31.0</ele><time>2026-04-18T16:09:30.998Z</time></trkpt><trkpt lat="41.98253652466477" lon="12.493451417132233"><ele>31.0</ele><time>2026-04-18T16:09:31.998Z</time></trkpt><trkpt lat="41.982375817158925" lon="12.493421374631627"><ele>31.0</ele><time>2026-04-18T16:09:32.998Z</time></trkpt><trkpt lat="41.98221739228593" lon="12.493410393276589"><ele>32.25</ele><time>2026-04-18T16:09:33.998Z</time></trkpt><trkpt lat="41.982067067009055" lon="12.49340002626877"><ele>33.5</ele><time>2026-04-18T16:09:34.998Z</time></trkpt><trkpt lat="41.98193817385579" lon="12.493378042454621"><ele>34.75</ele><time>2026-04-18T16:09:35.998Z</time></trkpt><trkpt lat="41.98180508502861" lon="12.493356754635169"><ele>36.0</ele><time>2026-04-18T16:09:36.998Z</time></trkpt><trkpt lat="41.98168329445967" lon="12.49334289520767"><ele>35.5</ele><time>2026-04-18T16:09:37.998Z</time></trkpt><trkpt lat="41.98156598811166" lon="12.4933354079524"><ele>35.0</ele><time>2026-04-18T16:09:39Z</time></trkpt><trkpt lat="41.98145031401089" lon="12.493330728753717"><ele>34.5</ele><time>2026-04-18T16:09:40Z</time></trkpt><trkpt lat="41.98134288519826" lon="12.49332638375828"><ele>34.0</ele><time>2026-04-18T16:09:41Z</time></trkpt><trkpt lat="41.98122741624535" lon="12.493329707713428"><ele>34.0</ele><time>2026-04-18T16:09:42Z</time></trkpt><trkpt lat="41.98109386509053" lon="12.49332740367273"><ele>34.0</ele><time>2026-04-18T16:09:43Z</time></trkpt><trkpt lat="41.980939386450345" lon="12.49333909166773"><ele>34.0</ele><time>2026-04-18T16:09:44Z</time></trkpt><trkpt lat="41.98079310928003" lon="12.493352628384173"><ele>34.0</ele><time>2026-04-18T16:09:45Z</time></trkpt><trkpt lat="41.9806483364003" lon="12.493358131990703"><ele>33.0</ele><time>2026-04-18T16:09:46Z</time></trkpt><trkpt lat="41.98050130977555" lon="12.493378865870474"><ele>32.0</ele><time>2026-04-18T16:09:47Z</time></trkpt><trkpt lat="41.980350326330004" lon="12.493404387884818"><ele>31.0</ele><time>2026-04-18T16:09:48Z</time></trkpt><trkpt lat="41.98018525262948" lon="12.493440061869405"><ele>32.66666666666667</ele><time>2026-04-18T16:09:49Z</time></trkpt><trkpt lat="41.98001299673581" lon="12.493482404846166"><ele>34.333333333333336</ele><time>2026-04-18T16:09:50Z</time></trkpt><trkpt lat="41.979842535259614" lon="12.493521554631075"><ele>36.0</ele><time>2026-04-18T16:09:51Z</time></trkpt><trkpt lat="41.97967674794952" lon="12.49355792384522"><ele>36.0</ele><time>2026-04-18T16:09:52Z</time></trkpt><trkpt lat="41.97951910307115" lon="12.49359261258684"><ele>36.0</ele><time>2026-04-18T16:09:53Z</time></trkpt><trkpt lat="41.97936940942021" lon="12.493622230029464"><ele>36.0</ele><time>2026-04-18T16:09:54Z</time></trkpt><trkpt lat="41.979214760694035" lon="12.493647259255338"><ele>37.0</ele><time>2026-04-18T16:09:55Z</time></trkpt><trkpt lat="41.97905913549876" lon="12.493672966267905"><ele>38.0</ele><time>2026-04-18T16:09:56Z</time></trkpt><trkpt lat="41.97890181088453" lon="12.493690951058042"><ele>39.0</ele><time>2026-04-18T16:09:57Z</time></trkpt><trkpt lat="41.97874226131789" lon="12.493703356598164"><ele>39.0</ele><time>2026-04-18T16:09:58Z</time></trkpt><trkpt lat="41.97858422760998" lon="12.493708609232957"><ele>39.0</ele><time>2026-04-18T16:09:59Z</time></trkpt><trkpt lat="41.978418076080025" lon="12.493703451802372"><ele>39.0</ele><time>2026-04-18T16:10:00Z</time></trkpt><trkpt lat="41.97825351223482" lon="12.493689181149112"><ele>38.0</ele><time>2026-04-18T16:10:01Z</time></trkpt><trkpt lat="41.97809426541389" lon="12.493663309811756"><ele>37.0</ele><time>2026-04-18T16:10:02Z</time></trkpt><trkpt lat="41.97792494573925" lon="12.493627510865341"><ele>36.0</ele><time>2026-04-18T16:10:03Z</time></trkpt><trkpt lat="41.97774671088233" lon="12.493577761416315"><ele>36.0</ele><time>2026-04-18T16:10:04Z</time></trkpt><trkpt lat="41.97756355821962" lon="12.493520551664696"><ele>36.0</ele><time>2026-04-18T16:10:05Z</time></trkpt><trkpt lat="41.97736788292611" lon="12.493444484974866"><ele>36.0</ele><time>2026-04-18T16:10:06Z</time></trkpt><trkpt lat="41.97716672813768" lon="12.493367973006759"><ele>32.333333333333336</ele><time>2026-04-18T16:10:07Z</time></trkpt><trkpt lat="41.97695988185802" lon="12.493291907437934"><ele>28.666666666666668</ele><time>2026-04-18T16:10:08Z</time></trkpt><trkpt lat="41.97674294534202" lon="12.493223566309425"><ele>25.0</ele><time>2026-04-18T16:10:09Z</time></trkpt><trkpt lat="41.976516914598704" lon="12.493156188935536"><ele>24.5</ele><time>2026-04-18T16:10:10Z</time></trkpt><trkpt lat="41.97628353534394" lon="12.493093383508612"><ele>24.0</ele><time>2026-04-18T16:10:11Z</time></trkpt><trkpt lat="41.976046717355544" lon="12.493028692485527"><ele>24.5</ele><time>2026-04-18T16:10:12Z</time></trkpt><trkpt lat="41.97582230389849" lon="12.492965543423907"><ele>25.0</ele><time>2026-04-18T16:10:13Z</time></trkpt><trkpt lat="41.97560725329575" lon="12.492900981424436"><ele>29.0</ele><time>2026-04-18T16:10:14Z</time></trkpt><trkpt lat="41.97540285694749" lon="12.492849374267976"><ele>33.0</ele><time>2026-04-18T16:10:15Z</time></trkpt><trkpt lat="41.97519685415896" lon="12.492795229242123"><ele>37.0</ele><time>2026-04-18T16:10:16Z</time></trkpt><trkpt lat="41.97499044078896" lon="12.492744676861726"><ele>37.0</ele><time>2026-04-18T16:10:17Z</time></trkpt><trkpt lat="41.974789481062516" lon="12.492699794134476"><ele>37.0</ele><time>2026-04-18T16:10:17.999Z</time></trkpt><trkpt lat="41.974601892380186" lon="12.492663681954962"><ele>37.0</ele><time>2026-04-18T16:10:18.999Z</time></trkpt><trkpt lat="41.97443431434609" lon="12.492620787807198"><ele>37.0</ele><time>2026-04-18T16:10:19.999Z</time></trkpt><trkpt lat="41.97427060062969" lon="12.492591551145035"><ele>37.0</ele><time>2026-04-18T16:10:20.999Z</time></trkpt><trkpt lat="41.97410761014368" lon="12.492558739154761"><ele>37.0</ele><time>2026-04-18T16:10:21.999Z</time></trkpt><trkpt lat="41.973953904117536" lon="12.49252485134314"><ele>35.66666666666667</ele><time>2026-04-18T16:10:22.999Z</time></trkpt><trkpt lat="41.97379741028863" lon="12.49249354054404"><ele>34.333333333333336</ele><time>2026-04-18T16:10:23.999Z</time></trkpt><trkpt lat="41.97364907984883" lon="12.492465888594547"><ele>33.0</ele><time>2026-04-18T16:10:24.999Z</time></trkpt><trkpt lat="41.973495924399685" lon="12.492440834165299"><ele>32.0</ele><time>2026-04-18T16:10:25.999Z</time></trkpt><trkpt lat="41.97334328588358" lon="12.492413273735602"><ele>31.0</ele><time>2026-04-18T16:10:26.999Z</time></trkpt><trkpt lat="41.97319683734313" lon="12.492389270012248"><ele>30.0</ele><time>2026-04-18T16:10:27.999Z</time></trkpt><trkpt lat="41.973068607848134" lon="12.492366317433707"><ele>29.0</ele><time>2026-04-18T16:10:28.999Z</time></trkpt><trkpt lat="41.972947274025316" lon="12.49234468215202"><ele>29.0</ele><time>2026-04-18T16:10:29.999Z</time></trkpt><trkpt lat="41.972834824578214" lon="12.492321053847146"><ele>29.0</ele><time>2026-04-18T16:10:30.999Z</time></trkpt><trkpt lat="41.972734068838655" lon="12.492296819306059"><ele>29.0</ele><time>2026-04-18T16:10:31.999Z</time></trkpt><trkpt lat="41.97264295503291" lon="12.492271208240867"><ele>29.0</ele><time>2026-04-18T16:10:32.999Z</time></trkpt><trkpt lat="41.97254848406216" lon="12.492248886144788"><ele>29.0</ele><time>2026-04-18T16:10:33.999Z</time></trkpt><trkpt lat="41.972455888617354" lon="12.492236474721532"><ele>28.0</ele><time>2026-04-18T16:10:34.999Z</time></trkpt><trkpt lat="41.97235997742802" lon="12.492222378539987"><ele>27.0</ele><time>2026-04-18T16:10:35.999Z</time></trkpt><trkpt lat="41.972258035431956" lon="12.492203980405595"><ele>26.0</ele><time>2026-04-18T16:10:36.999Z</time></trkpt><trkpt lat="41.97214549110304" lon="12.49218183038699"><ele>25.0</ele><time>2026-04-18T16:10:37.999Z</time></trkpt><trkpt lat="41.97202764612207" lon="12.492149446360918"><ele>24.0</ele><time>2026-04-18T16:10:38.999Z</time></trkpt><trkpt lat="41.97191155993457" lon="12.492119390444104"><ele>25.6</ele><time>2026-04-18T16:10:39.999Z</time></trkpt><trkpt lat="41.97179722656531" lon="12.492080275212116"><ele>27.2</ele><time>2026-04-18T16:10:40.999Z</time></trkpt><trkpt lat="41.97168478461933" lon="12.492030982302122"><ele>28.800000000000004</ele><time>2026-04-18T16:10:41.999Z</time></trkpt><trkpt lat="41.97159624769366" lon="12.492061903533571"><ele>30.400000000000002</ele><time>2026-04-18T16:10:42.999Z</time></trkpt><trkpt lat="41.97149263169596" lon="12.492037495615866"><ele>32.0</ele><time>2026-04-18T16:10:43.999Z</time></trkpt><trkpt lat="41.97139325982384" lon="12.492017710397725"><ele>32.0</ele><time>2026-04-18T16:10:44.999Z</time></trkpt><trkpt lat="41.97128874856237" lon="12.491996133370424"><ele>32.0</ele><time>2026-04-18T16:10:45.999Z</time></trkpt><trkpt lat="41.97116902430033" lon="12.491975749331367"><ele>32.0</ele><time>2026-04-18T16:10:46.999Z</time></trkpt><trkpt lat="41.97103954220154" lon="12.491960873961931"><ele>32.0</ele><time>2026-04-18T16:10:47.999Z</time></trkpt><trkpt lat="41.97091442804064" lon="12.491940120014698"><ele>31.400000000000002</ele><time>2026-04-18T16:10:48.999Z</time></trkpt><trkpt lat="41.97081281898225" lon="12.491911478619715"><ele>30.800000000000004</ele><time>2026-04-18T16:10:49.999Z</time></trkpt><trkpt lat="41.97071781880221" lon="12.49189013884378"><ele>30.2</ele><time>2026-04-18T16:10:50.999Z</time></trkpt><trkpt lat="41.970612674609455" lon="12.491858186079469"><ele>29.6</ele><time>2026-04-18T16:10:51.999Z</time></trkpt><trkpt lat="41.97048817899592" lon="12.491827470427726"><ele>29.0</ele><time>2026-04-18T16:10:52.999Z</time></trkpt><trkpt lat="41.970353766677704" lon="12.491788907423809"><ele>29.0</ele><time>2026-04-18T16:10:53.999Z</time></trkpt><trkpt lat="41.97022987251979" lon="12.491759662620357"><ele>29.0</ele><time>2026-04-18T16:10:54.999Z</time></trkpt><trkpt lat="41.97011831079519" lon="12.491727906071112"><ele>29.0</ele><time>2026-04-18T16:10:55.999Z</time></trkpt><trkpt lat="41.97000238926749" lon="12.491694176149425"><ele>29.0</ele><time>2026-04-18T16:10:56.999Z</time></trkpt><trkpt lat="41.96988123202444" lon="12.491653732637575"><ele>29.5</ele><time>2026-04-18T16:10:57.999Z</time></trkpt><trkpt lat="41.96975179657086" lon="12.491607740203646"><ele>30.0</ele><time>2026-04-18T16:10:58.999Z</time></trkpt><trkpt lat="41.96961608952935" lon="12.491548450473088"><ele>30.5</ele><time>2026-04-18T16:10:59.999Z</time></trkpt><trkpt lat="41.969475713377754" lon="12.49149494006433"><ele>31.0</ele><time>2026-04-18T16:11:00.999Z</time></trkpt><trkpt lat="41.96934749420106" lon="12.491443992245776"><ele>31.0</ele><time>2026-04-18T16:11:01.999Z</time></trkpt><trkpt lat="41.96922619819116" lon="12.491397280598356"><ele>31.0</ele><time>2026-04-18T16:11:02.999Z</time></trkpt><trkpt lat="41.96909972250557" lon="12.49134216585513"><ele>31.0</ele><time>2026-04-18T16:11:03.999Z</time></trkpt><trkpt lat="41.96896393351354" lon="12.491284758698555"><ele>31.0</ele><time>2026-04-18T16:11:04.999Z</time></trkpt><trkpt lat="41.968821241619594" lon="12.491234921490982"><ele>31.5</ele><time>2026-04-18T16:11:05.999Z</time></trkpt><trkpt lat="41.968683937821766" lon="12.491174621991098"><ele>32.0</ele><time>2026-04-18T16:11:06.999Z</time></trkpt><trkpt lat="41.96855617569308" lon="12.491116119816997"><ele>32.5</ele><time>2026-04-18T16:11:07.999Z</time></trkpt><trkpt lat="41.96844480165672" lon="12.491071767920445"><ele>33.0</ele><time>2026-04-18T16:11:08.999Z</time></trkpt><trkpt lat="41.96834015553673" lon="12.49104008060793"><ele>33.0</ele><time>2026-04-18T16:11:09.998Z</time></trkpt><trkpt lat="41.968239673248355" lon="12.491007361442358"><ele>33.0</ele><time>2026-04-18T16:11:10.998Z</time></trkpt><trkpt lat="41.96810827150096" lon="12.490982165091424"><ele>33.0</ele><time>2026-04-18T16:11:11.998Z</time></trkpt><trkpt lat="41.968034550392716" lon="12.490902145355777"><ele>33.0</ele><time>2026-04-18T16:11:12.998Z</time></trkpt><trkpt lat="41.9679260470833" lon="12.490859632100507"><ele>33.0</ele><time>2026-04-18T16:11:13.998Z</time></trkpt><trkpt lat="41.96780232853711" lon="12.490818617058137"><ele>33.0</ele><time>2026-04-18T16:11:14.998Z</time></trkpt><trkpt lat="41.96767594008153" lon="12.4907717716495"><ele>33.0</ele><time>2026-04-18T16:11:15.998Z</time></trkpt><trkpt lat="41.96753858298751" lon="12.490725128123731"><ele>33.0</ele><time>2026-04-18T16:11:16.998Z</time></trkpt><trkpt lat="41.96740516056456" lon="12.490655233101057"><ele>33.0</ele><time>2026-04-18T16:11:17.998Z</time></trkpt><trkpt lat="41.96727445775774" lon="12.49060216974808"><ele>34.25</ele><time>2026-04-18T16:11:18.998Z</time></trkpt><trkpt lat="41.96714386505262" lon="12.490548759092345"><ele>35.5</ele><time>2026-04-18T16:11:19.998Z</time></trkpt><trkpt lat="41.9670126255381" lon="12.49049849344284"><ele>36.75</ele><time>2026-04-18T16:11:20.998Z</time></trkpt><trkpt lat="41.96688343995565" lon="12.490444661778579"><ele>38.0</ele><time>2026-04-18T16:11:21.998Z</time></trkpt><trkpt lat="41.96675036461232" lon="12.490389101808075"><ele>34.75</ele><time>2026-04-18T16:11:22.998Z</time></trkpt><trkpt lat="41.96661813982312" lon="12.490337749913063"><ele>31.5</ele><time>2026-04-18T16:11:23.998Z</time></trkpt><trkpt lat="41.966485751147424" lon="12.490279126490039"><ele>28.25</ele><time>2026-04-18T16:11:24.998Z</time></trkpt><trkpt lat="41.96635058006468" lon="12.490221944928642"><ele>25.0</ele><time>2026-04-18T16:11:25.998Z</time></trkpt><trkpt lat="41.96621435380736" lon="12.490165731211295"><ele>25.0</ele><time>2026-04-18T16:11:26.998Z</time></trkpt><trkpt lat="41.966071587723775" lon="12.490101308670765"><ele>25.0</ele><time>2026-04-18T16:11:27.998Z</time></trkpt><trkpt lat="41.965925586429904" lon="12.490044098398783"><ele>25.0</ele><time>2026-04-18T16:11:28.998Z</time></trkpt><trkpt lat="41.9657886277944" lon="12.489991251161516"><ele>25.0</ele><time>2026-04-18T16:11:29.998Z</time></trkpt><trkpt lat="41.965646261832234" lon="12.489934058530862"><ele>24.5</ele><time>2026-04-18T16:11:30.998Z</time></trkpt><trkpt lat="41.96551916352137" lon="12.489880142599837"><ele>24.0</ele><time>2026-04-18T16:11:31.998Z</time></trkpt><trkpt lat="41.96539394629278" lon="12.489824352018255"><ele>23.5</ele><time>2026-04-18T16:11:32.998Z</time></trkpt><trkpt lat="41.96527580865265" lon="12.48977529432414"><ele>23.0</ele><time>2026-04-18T16:11:33.998Z</time></trkpt><trkpt lat="41.96515748077474" lon="12.489728309654746"><ele>23.0</ele><time>2026-04-18T16:11:34.998Z</time></trkpt><trkpt lat="41.96504500202571" lon="12.489682531711361"><ele>23.0</ele><time>2026-04-18T16:11:35.998Z</time></trkpt><trkpt lat="41.9649391710282" lon="12.489638418064244"><ele>23.0</ele><time>2026-04-18T16:11:36.998Z</time></trkpt><trkpt lat="41.96484245641698" lon="12.489593149774302"><ele>23.0</ele><time>2026-04-18T16:11:37.998Z</time></trkpt><trkpt lat="41.96474802620511" lon="12.489561515918234"><ele>23.0</ele><time>2026-04-18T16:11:38.998Z</time></trkpt><trkpt lat="41.964651417818516" lon="12.489523499903461"><ele>23.2</ele><time>2026-04-18T16:11:39.998Z</time></trkpt><trkpt lat="41.964549356367385" lon="12.48947854249614"><ele>23.4</ele><time>2026-04-18T16:11:40.998Z</time></trkpt><trkpt lat="41.96444059444395" lon="12.489435972342523"><ele>23.599999999999998</ele><time>2026-04-18T16:11:41.998Z</time></trkpt><trkpt lat="41.96433861527093" lon="12.489401233082575"><ele>23.799999999999997</ele><time>2026-04-18T16:11:42.998Z</time></trkpt><trkpt lat="41.96425246620474" lon="12.48935517369566"><ele>24.0</ele><time>2026-04-18T16:11:44Z</time></trkpt><trkpt lat="41.9641683811906" lon="12.489315063206005"><ele>24.0</ele><time>2026-04-18T16:11:45Z</time></trkpt><trkpt lat="41.964079341931104" lon="12.48928010933472"><ele>24.0</ele><time>2026-04-18T16:11:46Z</time></trkpt><trkpt lat="41.96398917961659" lon="12.489242046583756"><ele>24.0</ele><time>2026-04-18T16:11:47Z</time></trkpt><trkpt lat="41.963888484423705" lon="12.489200114970757"><ele>24.0</ele><time>2026-04-18T16:11:48Z</time></trkpt><trkpt lat="41.963786835420834" lon="12.489151910462935"><ele>24.0</ele><time>2026-04-18T16:11:49Z</time></trkpt><trkpt lat="41.96369441918738" lon="12.489124751176764"><ele>24.0</ele><time>2026-04-18T16:11:50Z</time></trkpt><trkpt lat="41.96361071068483" lon="12.48909445643445"><ele>24.0</ele><time>2026-04-18T16:11:51Z</time></trkpt><trkpt lat="41.96353661022935" lon="12.48906025675436"><ele>24.0</ele><time>2026-04-18T16:11:52Z</time></trkpt><trkpt lat="41.96346059139649" lon="12.48902618657612"><ele>24.0</ele><time>2026-04-18T16:11:53Z</time></trkpt><trkpt lat="41.96339197094279" lon="12.488992937504175"><ele>24.0</ele><time>2026-04-18T16:11:54Z</time></trkpt><trkpt lat="41.96331689073009" lon="12.488955196006241"><ele>24.0</ele><time>2026-04-18T16:11:55Z</time></trkpt><trkpt lat="41.96323448669761" lon="12.48892624958608"><ele>23.666666666666668</ele><time>2026-04-18T16:11:56Z</time></trkpt><trkpt lat="41.96314265263578" lon="12.488896326152165"><ele>23.333333333333332</ele><time>2026-04-18T16:11:57Z</time></trkpt><trkpt lat="41.96305281384008" lon="12.488862286220012"><ele>23.0</ele><time>2026-04-18T16:11:58Z</time></trkpt><trkpt lat="41.96298104449946" lon="12.488816607628907"><ele>22.666666666666664</ele><time>2026-04-18T16:11:59Z</time></trkpt><trkpt lat="41.96291165223206" lon="12.488777770756057"><ele>22.333333333333332</ele><time>2026-04-18T16:12:00Z</time></trkpt><trkpt lat="41.96284148533077" lon="12.488742641377321"><ele>22.0</ele><time>2026-04-18T16:12:01Z</time></trkpt><trkpt lat="41.96274802402269" lon="12.488695493620082"><ele>22.0</ele><time>2026-04-18T16:12:02Z</time></trkpt><trkpt lat="41.962640507446146" lon="12.488639027498389"><ele>22.0</ele><time>2026-04-18T16:12:03Z</time></trkpt><trkpt lat="41.96255058569121" lon="12.48858582927129"><ele>22.0</ele><time>2026-04-18T16:12:04Z</time></trkpt><trkpt lat="41.962460187612706" lon="12.488513443150937"><ele>22.0</ele><time>2026-04-18T16:12:05Z</time></trkpt><trkpt lat="41.9623427212861" lon="12.488417259684079"><ele>21.5</ele><time>2026-04-18T16:12:06Z</time></trkpt><trkpt lat="41.96221647023277" lon="12.48831004474515"><ele>21.0</ele><time>2026-04-18T16:12:07Z</time></trkpt><trkpt lat="41.96209709993892" lon="12.488210198225849"><ele>20.5</ele><time>2026-04-18T16:12:08Z</time></trkpt><trkpt lat="41.96198500788698" lon="12.488107696570253"><ele>20.0</ele><time>2026-04-18T16:12:09Z</time></trkpt><trkpt lat="41.96184593969105" lon="12.48798473908684"><ele>21.0</ele><time>2026-04-18T16:12:10Z</time></trkpt><trkpt lat="41.96169195548202" lon="12.48785381028771"><ele>22.0</ele><time>2026-04-18T16:12:11Z</time></trkpt><trkpt lat="41.961533105696795" lon="12.48771134903654"><ele>23.0</ele><time>2026-04-18T16:12:12Z</time></trkpt><trkpt lat="41.961378107309734" lon="12.48756970297558"><ele>23.0</ele><time>2026-04-18T16:12:13Z</time></trkpt><trkpt lat="41.96122176001773" lon="12.48743938622736"><ele>23.0</ele><time>2026-04-18T16:12:14Z</time></trkpt><trkpt lat="41.96107458455731" lon="12.487327675510569"><ele>23.0</ele><time>2026-04-18T16:12:15Z</time></trkpt><trkpt lat="41.96092987435225" lon="12.487236152735775"><ele>24.0</ele><time>2026-04-18T16:12:16Z</time></trkpt><trkpt lat="41.96077398141161" lon="12.487162266399762"><ele>25.0</ele><time>2026-04-18T16:12:17Z</time></trkpt><trkpt lat="41.960625233604894" lon="12.487075902661875"><ele>26.0</ele><time>2026-04-18T16:12:18Z</time></trkpt><trkpt lat="41.96047757160285" lon="12.48700539385832"><ele>26.0</ele><time>2026-04-18T16:12:19Z</time></trkpt><trkpt lat="41.960336068070504" lon="12.486956560761563"><ele>26.0</ele><time>2026-04-18T16:12:20Z</time></trkpt><trkpt lat="41.96019628486685" lon="12.486914772387639"><ele>26.0</ele><time>2026-04-18T16:12:20.999Z</time></trkpt><trkpt lat="41.96005297079132" lon="12.48687964678474"><ele>26.0</ele><time>2026-04-18T16:12:21.999Z</time></trkpt><trkpt lat="41.959912153411885" lon="12.486839656458054"><ele>25.8</ele><time>2026-04-18T16:12:22.999Z</time></trkpt><trkpt lat="41.95978538290536" lon="12.48679702617378"><ele>25.6</ele><time>2026-04-18T16:12:23.999Z</time></trkpt><trkpt lat="41.95967738517635" lon="12.486760120608222"><ele>25.4</ele><time>2026-04-18T16:12:24.999Z</time></trkpt><trkpt lat="41.959580708785346" lon="12.486732822953664"><ele>25.2</ele><time>2026-04-18T16:12:25.999Z</time></trkpt><trkpt lat="41.95949567615702" lon="12.486708007871536"><ele>25.0</ele><time>2026-04-18T16:12:26.999Z</time></trkpt><trkpt lat="41.95941388596392" lon="12.486686450890675"><ele>25.0</ele><time>2026-04-18T16:12:27.999Z</time></trkpt><trkpt lat="41.9593261658795" lon="12.486661074212446"><ele>25.0</ele><time>2026-04-18T16:12:28.999Z</time></trkpt><trkpt lat="41.95923690280153" lon="12.486632641116202"><ele>25.0</ele><time>2026-04-18T16:12:29.999Z</time></trkpt><trkpt lat="41.95915153527075" lon="12.486606388715051"><ele>25.0</ele><time>2026-04-18T16:12:30.999Z</time></trkpt><trkpt lat="41.95906157213975" lon="12.486577252628987"><ele>25.0</ele><time>2026-04-18T16:12:31.999Z</time></trkpt><trkpt lat="41.958969005907704" lon="12.486537391767406"><ele>24.75</ele><time>2026-04-18T16:12:32.999Z</time></trkpt><trkpt lat="41.95886907457593" lon="12.48648658524795"><ele>24.5</ele><time>2026-04-18T16:12:33.999Z</time></trkpt><trkpt lat="41.95876404282524" lon="12.486436800309217"><ele>24.25</ele><time>2026-04-18T16:12:34.999Z</time></trkpt><trkpt lat="41.95865435699149" lon="12.486380924638947"><ele>24.0</ele><time>2026-04-18T16:12:35.999Z</time></trkpt><trkpt lat="41.95854705154144" lon="12.486319717990998"><ele>23.799999999999997</ele><time>2026-04-18T16:12:36.999Z</time></trkpt><trkpt lat="41.95845065635305" lon="12.486256453581062"><ele>23.599999999999998</ele><time>2026-04-18T16:12:37.999Z</time></trkpt><trkpt lat="41.95835683276979" lon="12.486190866184065"><ele>23.4</ele><time>2026-04-18T16:12:38.999Z</time></trkpt><trkpt lat="41.95826549129332" lon="12.486116720997906"><ele>23.2</ele><time>2026-04-18T16:12:39.999Z</time></trkpt><trkpt lat="41.95817279815975" lon="12.486035525529221"><ele>23.0</ele><time>2026-04-18T16:12:40.999Z</time></trkpt><trkpt lat="41.9580739051721" lon="12.48594446793018"><ele>23.0</ele><time>2026-04-18T16:12:41.999Z</time></trkpt><trkpt lat="41.957967489964766" lon="12.48584379596572"><ele>23.0</ele><time>2026-04-18T16:12:42.999Z</time></trkpt><trkpt lat="41.95785588595464" lon="12.485732100479185"><ele>23.0</ele><time>2026-04-18T16:12:43.999Z</time></trkpt><trkpt lat="41.95773424866333" lon="12.485608002166547"><ele>23.0</ele><time>2026-04-18T16:12:44.999Z</time></trkpt><trkpt lat="41.95761165125994" lon="12.485476609117788"><ele>22.666666666666668</ele><time>2026-04-18T16:12:45.999Z</time></trkpt><trkpt lat="41.957491475520136" lon="12.485320909041615"><ele>22.333333333333332</ele><time>2026-04-18T16:12:46.999Z</time></trkpt><trkpt lat="41.957386602224716" lon="12.485162771968545"><ele>22.0</ele><time>2026-04-18T16:12:47.999Z</time></trkpt><trkpt lat="41.95728113856436" lon="12.485012900363541"><ele>22.0</ele><time>2026-04-18T16:12:48.999Z</time></trkpt><trkpt lat="41.95717226220618" lon="12.484883446791104"><ele>22.0</ele><time>2026-04-18T16:12:49.999Z</time></trkpt><trkpt lat="41.95705754000577" lon="12.48477703791407"><ele>22.0</ele><time>2026-04-18T16:12:50.999Z</time></trkpt><trkpt lat="41.95694511464161" lon="12.484679360573564"><ele>22.0</ele><time>2026-04-18T16:12:51.999Z</time></trkpt><trkpt lat="41.956834142591184" lon="12.484576993624474"><ele>22.5</ele><time>2026-04-18T16:12:52.999Z</time></trkpt><trkpt lat="41.956791142447514" lon="12.48443583724501"><ele>23.0</ele><time>2026-04-18T16:12:53.999Z</time></trkpt><trkpt lat="41.95673505402453" lon="12.484308886295176"><ele>23.5</ele><time>2026-04-18T16:12:54.999Z</time></trkpt><trkpt lat="41.95663658118868" lon="12.48407552697807"><ele>24.0</ele><time>2026-04-18T16:12:55.999Z</time></trkpt><trkpt lat="41.95660096247344" lon="12.483989863395674"><ele>24.0</ele><time>2026-04-18T16:12:56.999Z</time></trkpt><trkpt lat="41.956522977756485" lon="12.483791963563771"><ele>24.0</ele><time>2026-04-18T16:12:57.999Z</time></trkpt><trkpt lat="41.95645164721509" lon="12.48360166394366"><ele>24.0</ele><time>2026-04-18T16:12:59.999Z</time></trkpt><trkpt lat="41.956408366277735" lon="12.483478445488963"><ele>24.0</ele><time>2026-04-18T16:13:00.999Z</time></trkpt><trkpt lat="41.95637245982132" lon="12.483368271781378"><ele>25.0</ele><time>2026-04-18T16:13:01.999Z</time></trkpt><trkpt lat="41.95632377956119" lon="12.483214189161037"><ele>26.0</ele><time>2026-04-18T16:13:02.999Z</time></trkpt><trkpt lat="41.956272276048104" lon="12.483041512479474"><ele>27.0</ele><time>2026-04-18T16:13:03.999Z</time></trkpt><trkpt lat="41.95622069976537" lon="12.482865586542244"><ele>28.0</ele><time>2026-04-18T16:13:04.999Z</time></trkpt><trkpt lat="41.95616625453891" lon="12.482671318736314"><ele>28.25</ele><time>2026-04-18T16:13:05.999Z</time></trkpt><trkpt lat="41.9561169521163" lon="12.482496137237675"><ele>28.5</ele><time>2026-04-18T16:13:06.999Z</time></trkpt><trkpt lat="41.956036362604735" lon="12.482335752373396"><ele>28.75</ele><time>2026-04-18T16:13:07.999Z</time></trkpt><trkpt lat="41.955989284869204" lon="12.482270488967117"><ele>29.0</ele><time>2026-04-18T16:13:08.999Z</time></trkpt><trkpt lat="41.955201267632184" lon="12.482588785982095"><ele>27.333333333333332</ele><time>2026-04-18T16:13:09.999Z</time></trkpt><trkpt lat="41.95506004971792" lon="12.48260538216958"><ele>25.666666666666664</ele><time>2026-04-18T16:13:10.999Z</time></trkpt><trkpt lat="41.95488462406792" lon="12.482658625368252"><ele>24.0</ele><time>2026-04-18T16:13:11.999Z</time></trkpt><trkpt lat="41.954658353069505" lon="12.482816181296421"><ele>22.333333333333332</ele><time>2026-04-18T16:13:12.999Z</time></trkpt><trkpt lat="41.954483584474524" lon="12.48296106170422"><ele>20.666666666666664</ele><time>2026-04-18T16:13:13.998Z</time></trkpt><trkpt lat="41.9543248867744" lon="12.483087745012632"><ele>19.0</ele><time>2026-04-18T16:13:14.998Z</time></trkpt><trkpt lat="41.95416286705413" lon="12.48320387316201"><ele>19.0</ele><time>2026-04-18T16:13:15.998Z</time></trkpt><trkpt lat="41.95401976377908" lon="12.48328070936029"><ele>19.0</ele><time>2026-04-18T16:13:16.998Z</time></trkpt><trkpt lat="41.9538815430869" lon="12.483347663922418"><ele>19.0</ele><time>2026-04-18T16:13:17.998Z</time></trkpt><trkpt lat="41.95374776397079" lon="12.483387239508787"><ele>19.0</ele><time>2026-04-18T16:13:18.998Z</time></trkpt><trkpt lat="41.95359024090931" lon="12.48342269586989"><ele>19.0</ele><time>2026-04-18T16:13:19.998Z</time></trkpt><trkpt lat="41.95342749960793" lon="12.483438367963174"><ele>19.0</ele><time>2026-04-18T16:13:20.998Z</time></trkpt><trkpt lat="41.95325715958736" lon="12.483460550084526"><ele>19.0</ele><time>2026-04-18T16:13:21.998Z</time></trkpt><trkpt lat="41.953061699790844" lon="12.483506780570462"><ele>18.0</ele><time>2026-04-18T16:13:22.998Z</time></trkpt><trkpt lat="41.952894187692905" lon="12.48351828401983"><ele>17.0</ele><time>2026-04-18T16:13:23.998Z</time></trkpt><trkpt lat="41.95266753243602" lon="12.483584964156885"><ele>16.0</ele><time>2026-04-18T16:13:24.998Z</time></trkpt><trkpt lat="41.952504487121054" lon="12.483567355643087"><ele>18.333333333333332</ele><time>2026-04-18T16:13:25.998Z</time></trkpt><trkpt lat="41.95228431480665" lon="12.483593344941587"><ele>20.666666666666668</ele><time>2026-04-18T16:13:26.998Z</time></trkpt><trkpt lat="41.952087470103734" lon="12.483601014967457"><ele>23.0</ele><time>2026-04-18T16:13:27.998Z</time></trkpt><trkpt lat="41.951827469228526" lon="12.483710841251632"><ele>23.0</ele><time>2026-04-18T16:13:28.998Z</time></trkpt><trkpt lat="41.951536531831195" lon="12.483874091203587"><ele>23.0</ele><time>2026-04-18T16:13:29.998Z</time></trkpt><trkpt lat="41.95206234762283" lon="12.482809253471677"><ele>23.333333333333336</ele><time>2026-04-18T16:13:30.998Z</time></trkpt><trkpt lat="41.95185645887083" lon="12.48292145461812"><ele>23.666666666666668</ele><time>2026-04-18T16:13:31.998Z</time></trkpt><trkpt lat="41.95165003110514" lon="12.482984813683572"><ele>24.0</ele><time>2026-04-18T16:13:32.998Z</time></trkpt><trkpt lat="41.95137737103605" lon="12.483086744331167"><ele>24.0</ele><time>2026-04-18T16:13:33.998Z</time></trkpt><trkpt lat="41.951056179857375" lon="12.483201521888557"><ele>24.0</ele><time>2026-04-18T16:13:34.998Z</time></trkpt><trkpt lat="41.95068295718436" lon="12.48341046466553"><ele>23.0</ele><time>2026-04-18T16:13:35.998Z</time></trkpt><trkpt lat="41.95044109696596" lon="12.48348598123526"><ele>22.0</ele><time>2026-04-18T16:13:36.998Z</time></trkpt><trkpt lat="41.950288857708735" lon="12.483491954855733"><ele>21.0</ele><time>2026-04-18T16:13:37.998Z</time></trkpt><trkpt lat="41.950130916543095" lon="12.483586532987447"><ele>22.0</ele><time>2026-04-18T16:13:38.998Z</time></trkpt><trkpt lat="41.94997280473535" lon="12.483713479496627"><ele>23.0</ele><time>2026-04-18T16:13:39.998Z</time></trkpt><trkpt lat="41.94983463517002" lon="12.483823247675154"><ele>24.0</ele><time>2026-04-18T16:13:40.998Z</time></trkpt><trkpt lat="41.949656696408674" lon="12.483976434994315"><ele>24.0</ele><time>2026-04-18T16:13:41.998Z</time></trkpt><trkpt lat="41.94932964953493" lon="12.48431149274494"><ele>24.0</ele><time>2026-04-18T16:13:42.998Z</time></trkpt><trkpt lat="41.94916562662329" lon="12.484443054533651"><ele>17.0</ele><time>2026-04-18T16:13:43.998Z</time></trkpt><trkpt lat="41.94876203076166" lon="12.484863220978784"><ele>19.0</ele><time>2026-04-18T16:13:44.998Z</time></trkpt><trkpt lat="41.94836655787195" lon="12.485182878489002"><ele>19.0</ele><time>2026-04-18T16:13:45.998Z</time></trkpt><trkpt lat="41.948214620610116" lon="12.485287084963172"><ele>19.0</ele><time>2026-04-18T16:13:46.998Z</time></trkpt><trkpt lat="41.94808595351268" lon="12.485377676287317"><ele>19.0</ele><time>2026-04-18T16:13:47.998Z</time></trkpt><trkpt lat="41.94797340336195" lon="12.485455967757007"><ele>19.0</ele><time>2026-04-18T16:13:48.998Z</time></trkpt><trkpt lat="41.94786993602029" lon="12.485527941139061"><ele>18.833333333333332</ele><time>2026-04-18T16:13:50Z</time></trkpt><trkpt lat="41.947780385288084" lon="12.485590233905576"><ele>18.666666666666664</ele><time>2026-04-18T16:13:51Z</time></trkpt><trkpt lat="41.947711570987636" lon="12.485637450023573"><ele>18.5</ele><time>2026-04-18T16:13:52Z</time></trkpt><trkpt lat="41.94765033534832" lon="12.485679046415438"><ele>18.333333333333332</ele><time>2026-04-18T16:13:53Z</time></trkpt><trkpt lat="41.94756913741041" lon="12.485734202864872"><ele>18.166666666666668</ele><time>2026-04-18T16:13:55Z</time></trkpt><trkpt lat="41.94753696835093" lon="12.48582153817309"><ele>18.0</ele><time>2026-04-18T16:13:57Z</time></trkpt><trkpt lat="41.947470885815285" lon="12.485814615765715"><ele>18.333333333333332</ele><time>2026-04-18T16:14:00Z</time></trkpt><trkpt lat="41.94744996297226" lon="12.485895623375518"><ele>18.666666666666668</ele><time>2026-04-18T16:14:04Z</time></trkpt><trkpt lat="41.94739147254606" lon="12.485939023071044"><ele>19.0</ele><time>2026-04-18T16:14:07Z</time></trkpt><trkpt lat="41.94730048429953" lon="12.485990693668066"><ele>19.333333333333336</ele><time>2026-04-18T16:14:09Z</time></trkpt><trkpt lat="41.94722749854276" lon="12.486036727898664"><ele>19.666666666666668</ele><time>2026-04-18T16:14:10Z</time></trkpt><trkpt lat="41.94713467272723" lon="12.486103302180124"><ele>20.0</ele><time>2026-04-18T16:14:11Z</time></trkpt><trkpt lat="41.94703928535311" lon="12.486178009351423"><ele>20.0</ele><time>2026-04-18T16:14:12Z</time></trkpt><trkpt lat="41.94692749868521" lon="12.486241388602268"><ele>20.0</ele><time>2026-04-18T16:14:13Z</time></trkpt><trkpt lat="41.94681190704977" lon="12.48628839552759"><ele>20.0</ele><time>2026-04-18T16:14:14Z</time></trkpt><trkpt lat="41.94670945683231" lon="12.486333693279501"><ele>20.0</ele><time>2026-04-18T16:14:15Z</time></trkpt><trkpt lat="41.946611926985064" lon="12.486364004141349"><ele>20.25</ele><time>2026-04-18T16:14:16Z</time></trkpt><trkpt lat="41.94650858783313" lon="12.486375470774492"><ele>20.5</ele><time>2026-04-18T16:14:17Z</time></trkpt><trkpt lat="41.9463999046248" lon="12.486364746414301"><ele>20.75</ele><time>2026-04-18T16:14:18Z</time></trkpt><trkpt lat="41.946273311688" lon="12.486348338363616"><ele>21.0</ele><time>2026-04-18T16:14:19Z</time></trkpt><trkpt lat="41.94614242658365" lon="12.486344158454404"><ele>21.0</ele><time>2026-04-18T16:14:20Z</time></trkpt><trkpt lat="41.94600443805391" lon="12.486346358483539"><ele>21.0</ele><time>2026-04-18T16:14:21Z</time></trkpt><trkpt lat="41.94586022524712" lon="12.486362412623807"><ele>21.0</ele><time>2026-04-18T16:14:22Z</time></trkpt><trkpt lat="41.94572789857379" lon="12.486380659894893"><ele>21.0</ele><time>2026-04-18T16:14:22.999Z</time></trkpt><trkpt lat="41.94559904130518" lon="12.486406565402657"><ele>20.75</ele><time>2026-04-18T16:14:23.999Z</time></trkpt><trkpt lat="41.94546413079253" lon="12.486427596137277"><ele>20.5</ele><time>2026-04-18T16:14:24.999Z</time></trkpt><trkpt lat="41.94531729864057" lon="12.486434922193162"><ele>20.25</ele><time>2026-04-18T16:14:25.999Z</time></trkpt><trkpt lat="41.94517948354744" lon="12.486410919180711"><ele>20.0</ele><time>2026-04-18T16:14:26.999Z</time></trkpt><trkpt lat="41.94506396999299" lon="12.48635438075461"><ele>20.25</ele><time>2026-04-18T16:14:27.999Z</time></trkpt><trkpt lat="41.944965692916476" lon="12.486269671680583"><ele>20.5</ele><time>2026-04-18T16:14:28.999Z</time></trkpt><trkpt lat="41.94487321240752" lon="12.486148235864668"><ele>20.75</ele><time>2026-04-18T16:14:29.999Z</time></trkpt><trkpt lat="41.94478306689537" lon="12.486002223547326"><ele>21.0</ele><time>2026-04-18T16:14:30.999Z</time></trkpt><trkpt lat="41.94466955961928" lon="12.485873354794938"><ele>20.333333333333332</ele><time>2026-04-18T16:14:31.999Z</time></trkpt><trkpt lat="41.94457570504896" lon="12.485713429576162"><ele>19.666666666666664</ele><time>2026-04-18T16:14:32.999Z</time></trkpt><trkpt lat="41.94445767767102" lon="12.48558300268446"><ele>19.0</ele><time>2026-04-18T16:14:33.999Z</time></trkpt><trkpt lat="41.94434742659815" lon="12.485454828403018"><ele>19.0</ele><time>2026-04-18T16:14:34.999Z</time></trkpt><trkpt lat="41.944245675772116" lon="12.485334225158887"><ele>19.0</ele><time>2026-04-18T16:14:35.999Z</time></trkpt><trkpt lat="41.94414813843595" lon="12.48520844485591"><ele>19.0</ele><time>2026-04-18T16:14:36.999Z</time></trkpt><trkpt lat="41.944040316346914" lon="12.485078862890845"><ele>19.0</ele><time>2026-04-18T16:14:37.999Z</time></trkpt><trkpt lat="41.94393252921143" lon="12.484945702892212"><ele>19.25</ele><time>2026-04-18T16:14:38.999Z</time></trkpt><trkpt lat="41.94381324711668" lon="12.484811462223956"><ele>19.5</ele><time>2026-04-18T16:14:39.999Z</time></trkpt><trkpt lat="41.94370478576465" lon="12.484678890792328"><ele>19.75</ele><time>2026-04-18T16:14:40.999Z</time></trkpt><trkpt lat="41.9436048934145" lon="12.484553859648068"><ele>20.0</ele><time>2026-04-18T16:14:41.999Z</time></trkpt><trkpt lat="41.94350356621361" lon="12.484428175246949"><ele>20.0</ele><time>2026-04-18T16:14:42.999Z</time></trkpt><trkpt lat="41.943387465603514" lon="12.48432425266458"><ele>20.0</ele><time>2026-04-18T16:14:43.999Z</time></trkpt><trkpt lat="41.94329423916818" lon="12.484174684812155"><ele>20.0</ele><time>2026-04-18T16:14:44.999Z</time></trkpt><trkpt lat="41.94318413998234" lon="12.48404229029777"><ele>20.0</ele><time>2026-04-18T16:14:45.999Z</time></trkpt><trkpt lat="41.94306860847832" lon="12.48390698271477"><ele>19.666666666666668</ele><time>2026-04-18T16:14:46.999Z</time></trkpt><trkpt lat="41.942953503863755" lon="12.483768744287381"><ele>19.333333333333332</ele><time>2026-04-18T16:14:47.999Z</time></trkpt><trkpt lat="41.94283614749825" lon="12.48362770223414"><ele>19.0</ele><time>2026-04-18T16:14:48.999Z</time></trkpt><trkpt lat="41.942718652876216" lon="12.483488300490595"><ele>19.0</ele><time>2026-04-18T16:14:49.999Z</time></trkpt><trkpt lat="41.94259718672553" lon="12.483337819140324"><ele>19.0</ele><time>2026-04-18T16:14:50.999Z</time></trkpt><trkpt lat="41.94247746083059" lon="12.483187521885062"><ele>19.0</ele><time>2026-04-18T16:14:51.999Z</time></trkpt><trkpt lat="41.94235366694222" lon="12.483035515928314"><ele>18.25</ele><time>2026-04-18T16:14:52.999Z</time></trkpt><trkpt lat="41.9422370798697" lon="12.482895333839803"><ele>17.5</ele><time>2026-04-18T16:14:53.999Z</time></trkpt><trkpt lat="41.94213242251051" lon="12.482768029304076"><ele>16.75</ele><time>2026-04-18T16:14:54.999Z</time></trkpt><trkpt lat="41.94202104752144" lon="12.482635813518344"><ele>16.0</ele><time>2026-04-18T16:14:55.999Z</time></trkpt><trkpt lat="41.94191308805179" lon="12.482507666960933"><ele>16.0</ele><time>2026-04-18T16:14:56.999Z</time></trkpt><trkpt lat="41.94180732965873" lon="12.482374915424277"><ele>16.0</ele><time>2026-04-18T16:14:57.999Z</time></trkpt><trkpt lat="41.9417010575431" lon="12.482246031496548"><ele>16.0</ele><time>2026-04-18T16:14:58.999Z</time></trkpt><trkpt lat="41.94158873768668" lon="12.482115358742687"><ele>16.0</ele><time>2026-04-18T16:14:59.999Z</time></trkpt><trkpt lat="41.94148088396688" lon="12.48198955789308"><ele>16.0</ele><time>2026-04-18T16:15:00.999Z</time></trkpt><trkpt lat="41.94137877077584" lon="12.481866911957374"><ele>16.0</ele><time>2026-04-18T16:15:01.999Z</time></trkpt><trkpt lat="41.94125826862501" lon="12.48174578431297"><ele>16.0</ele><time>2026-04-18T16:15:02.999Z</time></trkpt><trkpt lat="41.941167477881706" lon="12.48161364349734"><ele>16.0</ele><time>2026-04-18T16:15:03.999Z</time></trkpt><trkpt lat="41.94107525833796" lon="12.481503724958209"><ele>16.0</ele><time>2026-04-18T16:15:04.999Z</time></trkpt><trkpt lat="41.94099295258942" lon="12.481400049601561"><ele>16.0</ele><time>2026-04-18T16:15:05.999Z</time></trkpt><trkpt lat="41.94091236242651" lon="12.481299699080168"><ele>16.0</ele><time>2026-04-18T16:15:06.999Z</time></trkpt><trkpt lat="41.94084314975164" lon="12.481214542137716"><ele>16.0</ele><time>2026-04-18T16:15:07.999Z</time></trkpt><trkpt lat="41.94078127244304" lon="12.481136227003615"><ele>16.0</ele><time>2026-04-18T16:15:08.999Z</time></trkpt><trkpt lat="41.9407271171593" lon="12.481075667473299"><ele>16.0</ele><time>2026-04-18T16:15:09.999Z</time></trkpt><trkpt lat="41.94067349359795" lon="12.481006345510622"><ele>16.0</ele><time>2026-04-18T16:15:10.999Z</time></trkpt><trkpt lat="41.94060381428255" lon="12.480958939691547"><ele>16.0</ele><time>2026-04-18T16:15:11.999Z</time></trkpt><trkpt lat="41.94054923720697" lon="12.480893936266124"><ele>16.0</ele><time>2026-04-18T16:15:12.999Z</time></trkpt><trkpt lat="41.9405936164996" lon="12.480684855662945"><ele>16.0</ele><time>2026-04-18T16:15:13.999Z</time></trkpt><trkpt lat="41.9406114835687" lon="12.480528161606838"><ele>16.25</ele><time>2026-04-18T16:15:14.999Z</time></trkpt><trkpt lat="41.940609815825184" lon="12.480344825960238"><ele>16.5</ele><time>2026-04-18T16:15:15.999Z</time></trkpt><trkpt lat="41.940608698540174" lon="12.48014343299782"><ele>16.75</ele><time>2026-04-18T16:15:16.999Z</time></trkpt><trkpt lat="41.940627655379686" lon="12.479934757620711"><ele>17.0</ele><time>2026-04-18T16:15:17.999Z</time></trkpt><trkpt lat="41.940641185981136" lon="12.47971358932646"><ele>17.333333333333336</ele><time>2026-04-18T16:15:18.999Z</time></trkpt><trkpt lat="41.94064648166734" lon="12.47948926492393"><ele>17.666666666666668</ele><time>2026-04-18T16:15:19.998Z</time></trkpt><trkpt lat="41.94065409121993" lon="12.47927688705006"><ele>18.0</ele><time>2026-04-18T16:15:20.998Z</time></trkpt><trkpt lat="41.940660760873335" lon="12.479059633043208"><ele>18.0</ele><time>2026-04-18T16:15:21.998Z</time></trkpt><trkpt lat="41.940666804035764" lon="12.478825794647909"><ele>18.0</ele><time>2026-04-18T16:15:22.998Z</time></trkpt><trkpt lat="41.94067666389382" lon="12.478599732359626"><ele>18.0</ele><time>2026-04-18T16:15:23.998Z</time></trkpt><trkpt lat="41.94068579379647" lon="12.478368559279366"><ele>17.666666666666668</ele><time>2026-04-18T16:15:24.998Z</time></trkpt><trkpt lat="41.94068776628189" lon="12.478134974502131"><ele>17.333333333333336</ele><time>2026-04-18T16:15:25.998Z</time></trkpt><trkpt lat="41.94069473035809" lon="12.477919774445535"><ele>17.0</ele><time>2026-04-18T16:15:26.998Z</time></trkpt><trkpt lat="41.94070309470323" lon="12.477700807848352"><ele>18.333333333333336</ele><time>2026-04-18T16:15:27.998Z</time></trkpt><trkpt lat="41.940721487379165" lon="12.477461636670599"><ele>19.666666666666668</ele><time>2026-04-18T16:15:28.998Z</time></trkpt><trkpt lat="41.9407322197969" lon="12.4772045563114"><ele>21.0</ele><time>2026-04-18T16:15:29.998Z</time></trkpt><trkpt lat="41.94073877342302" lon="12.476963204737695"><ele>27.333333333333336</ele><time>2026-04-18T16:15:30.998Z</time></trkpt><trkpt lat="41.940727504167825" lon="12.476748093257514"><ele>33.66666666666667</ele><time>2026-04-18T16:15:31.998Z</time></trkpt><trkpt lat="41.940725168476924" lon="12.476519217279055"><ele>40.0</ele><time>2026-04-18T16:15:32.998Z</time></trkpt><trkpt lat="41.940726391031184" lon="12.476285345786303"><ele>43.66666666666667</ele><time>2026-04-18T16:15:33.998Z</time></trkpt><trkpt lat="41.940729980250836" lon="12.476069293865102"><ele>47.333333333333336</ele><time>2026-04-18T16:15:34.998Z</time></trkpt><trkpt lat="41.94073907125943" lon="12.47582321080586"><ele>51.0</ele><time>2026-04-18T16:15:35.998Z</time></trkpt><trkpt lat="41.940750327240465" lon="12.475564831403743"><ele>52.66666666666667</ele><time>2026-04-18T16:15:36.998Z</time></trkpt><trkpt lat="41.940755994852275" lon="12.475315323323645"><ele>54.333333333333336</ele><time>2026-04-18T16:15:37.998Z</time></trkpt><trkpt lat="41.94075186100005" lon="12.475065740407429"><ele>56.0</ele><time>2026-04-18T16:15:38.998Z</time></trkpt><trkpt lat="41.9407810384581" lon="12.474829657296446"><ele>54.333333333333336</ele><time>2026-04-18T16:15:39.998Z</time></trkpt><trkpt lat="41.9407986392726" lon="12.474593160601012"><ele>52.66666666666667</ele><time>2026-04-18T16:15:40.998Z</time></trkpt><trkpt lat="41.94081289850058" lon="12.4743340756592"><ele>51.0</ele><time>2026-04-18T16:15:42.061Z</time></trkpt><trkpt lat="41.94082403406738" lon="12.474115370367215"><ele>51.0</ele><time>2026-04-18T16:15:43.052Z</time></trkpt><trkpt lat="41.94083565512205" lon="12.473877435014469"><ele>51.0</ele><time>2026-04-18T16:15:44.046Z</time></trkpt><trkpt lat="41.94061812086579" lon="12.472617218574195"><ele>46.0</ele><time>2026-04-18T16:15:49.896Z</time></trkpt><trkpt lat="41.940781363222825" lon="12.47258478332256"><ele>41.0</ele><time>2026-04-18T16:15:50.998Z</time></trkpt><trkpt lat="41.940820759335075" lon="12.472354662100773"><ele>36.0</ele><time>2026-04-18T16:15:51.998Z</time></trkpt><trkpt lat="41.9408185165726" lon="12.472120564611352"><ele>34.666666666666664</ele><time>2026-04-18T16:15:52.998Z</time></trkpt><trkpt lat="41.940821069772774" lon="12.47189862607624"><ele>33.33333333333333</ele><time>2026-04-18T16:15:53.998Z</time></trkpt><trkpt lat="41.94083043506198" lon="12.471682943409913"><ele>32.0</ele><time>2026-04-18T16:15:54.998Z</time></trkpt><trkpt lat="41.94084995184723" lon="12.471466477711502"><ele>31.0</ele><time>2026-04-18T16:15:55.999Z</time></trkpt><trkpt lat="41.94086030778448" lon="12.471240177132305"><ele>30.0</ele><time>2026-04-18T16:15:56.999Z</time></trkpt><trkpt lat="41.94087293547391" lon="12.47102282445659"><ele>29.0</ele><time>2026-04-18T16:15:57.999Z</time></trkpt><trkpt lat="41.940877957331175" lon="12.470806056498107"><ele>29.333333333333332</ele><time>2026-04-18T16:15:58.999Z</time></trkpt><trkpt lat="41.940890243002116" lon="12.470588287035834"><ele>29.666666666666664</ele><time>2026-04-18T16:15:59.999Z</time></trkpt><trkpt lat="41.94089651266061" lon="12.470376944883794"><ele>30.0</ele><time>2026-04-18T16:16:00.999Z</time></trkpt><trkpt lat="41.940903182878316" lon="12.470149046989304"><ele>30.0</ele><time>2026-04-18T16:16:01.999Z</time></trkpt><trkpt lat="41.94090859373849" lon="12.469930782436762"><ele>30.0</ele><time>2026-04-18T16:16:02.999Z</time></trkpt><trkpt lat="41.94091653867684" lon="12.469727471919644"><ele>30.0</ele><time>2026-04-18T16:16:03.999Z</time></trkpt><trkpt lat="41.94092869952664" lon="12.46952241123622"><ele>32.666666666666664</ele><time>2026-04-18T16:16:04.999Z</time></trkpt><trkpt lat="41.9409381478309" lon="12.469314209150507"><ele>35.33333333333333</ele><time>2026-04-18T16:16:06Z</time></trkpt><trkpt lat="41.94094930292002" lon="12.469096776154629"><ele>38.0</ele><time>2026-04-18T16:16:07Z</time></trkpt><trkpt lat="41.9409638298126" lon="12.468871598571443"><ele>43.666666666666664</ele><time>2026-04-18T16:16:08Z</time></trkpt><trkpt lat="41.94097822882626" lon="12.468621169029301"><ele>49.33333333333333</ele><time>2026-04-18T16:16:09Z</time></trkpt><trkpt lat="41.94099100997565" lon="12.468369217299177"><ele>55.0</ele><time>2026-04-18T16:16:10Z</time></trkpt><trkpt lat="41.94100228356364" lon="12.468122035766223"><ele>55.33333333333333</ele><time>2026-04-18T16:16:11Z</time></trkpt><trkpt lat="41.94101404516111" lon="12.467869787748915"><ele>55.66666666666667</ele><time>2026-04-18T16:16:12Z</time></trkpt><trkpt lat="41.94103014519435" lon="12.467608392054798"><ele>56.0</ele><time>2026-04-18T16:16:13Z</time></trkpt><trkpt lat="41.941040673395364" lon="12.467337110762875"><ele>54.66666666666667</ele><time>2026-04-18T16:16:14Z</time></trkpt><trkpt lat="41.94105052674729" lon="12.467077026966331"><ele>53.33333333333333</ele><time>2026-04-18T16:16:15Z</time></trkpt><trkpt lat="41.9410611963197" lon="12.46682834267807"><ele>52.0</ele><time>2026-04-18T16:16:16Z</time></trkpt><trkpt lat="41.941064695704135" lon="12.466589442125894"><ele>52.0</ele><time>2026-04-18T16:16:17Z</time></trkpt><trkpt lat="41.94106283728029" lon="12.466361730922607"><ele>52.0</ele><time>2026-04-18T16:16:18Z</time></trkpt><trkpt lat="41.941062381255804" lon="12.466131269073681"><ele>52.0</ele><time>2026-04-18T16:16:19Z</time></trkpt><trkpt lat="41.94104944070306" lon="12.465906996348513"><ele>51.666666666666664</ele><time>2026-04-18T16:16:20Z</time></trkpt><trkpt lat="41.941017554793284" lon="12.465709113799962"><ele>51.33333333333333</ele><time>2026-04-18T16:16:20.999Z</time></trkpt><trkpt lat="41.94099120767151" lon="12.465487598412754"><ele>51.0</ele><time>2026-04-18T16:16:21.999Z</time></trkpt><trkpt lat="41.940958283931366" lon="12.4652734405096"><ele>52.0</ele><time>2026-04-18T16:16:22.999Z</time></trkpt><trkpt lat="41.940920907226236" lon="12.465049796687584"><ele>53.0</ele><time>2026-04-18T16:16:23.999Z</time></trkpt><trkpt lat="41.94087675311925" lon="12.46481331971547"><ele>54.0</ele><time>2026-04-18T16:16:24.999Z</time></trkpt><trkpt lat="41.940824281483444" lon="12.464548346350211"><ele>51.0</ele><time>2026-04-18T16:16:25.999Z</time></trkpt><trkpt lat="41.940771743793874" lon="12.46431990055726"><ele>48.0</ele><time>2026-04-18T16:16:26.999Z</time></trkpt><trkpt lat="41.94070739159697" lon="12.46407672722691"><ele>45.0</ele><time>2026-04-18T16:16:27.999Z</time></trkpt><trkpt lat="41.94064081590403" lon="12.46383486081377"><ele>43.333333333333336</ele><time>2026-04-18T16:16:28.999Z</time></trkpt><trkpt lat="41.94057572077835" lon="12.463574964132093"><ele>41.66666666666667</ele><time>2026-04-18T16:16:29.999Z</time></trkpt><trkpt lat="41.94050375360229" lon="12.463320177257048"><ele>40.0</ele><time>2026-04-18T16:16:30.999Z</time></trkpt><trkpt lat="41.94043240523818" lon="12.463078780233362"><ele>38.0</ele><time>2026-04-18T16:16:31.999Z</time></trkpt><trkpt lat="41.94037804156903" lon="12.462847011251476"><ele>36.0</ele><time>2026-04-18T16:16:32.999Z</time></trkpt><trkpt lat="41.940319403881524" lon="12.462617823638436"><ele>34.0</ele><time>2026-04-18T16:16:33.999Z</time></trkpt><trkpt lat="41.940269054764975" lon="12.462413495349011"><ele>34.0</ele><time>2026-04-18T16:16:34.999Z</time></trkpt><trkpt lat="41.94021155096075" lon="12.462196163204224"><ele>34.0</ele><time>2026-04-18T16:16:35.999Z</time></trkpt><trkpt lat="41.94014530127686" lon="12.46197295263205"><ele>34.0</ele><time>2026-04-18T16:16:36.999Z</time></trkpt><trkpt lat="41.9400661978847" lon="12.461738326259256"><ele>36.66666666666667</ele><time>2026-04-18T16:16:37.999Z</time></trkpt><trkpt lat="41.93998317517155" lon="12.46149644658375"><ele>39.333333333333336</ele><time>2026-04-18T16:16:38.999Z</time></trkpt><trkpt lat="41.93990417791227" lon="12.46126777766169"><ele>42.0</ele><time>2026-04-18T16:16:39.999Z</time></trkpt><trkpt lat="41.9398277340377" lon="12.461045328854686"><ele>43.0</ele><time>2026-04-18T16:16:40.999Z</time></trkpt><trkpt lat="41.9397585702101" lon="12.460838402996352"><ele>44.0</ele><time>2026-04-18T16:16:41.999Z</time></trkpt><trkpt lat="41.939691137615085" lon="12.460630403526263"><ele>45.0</ele><time>2026-04-18T16:16:42.999Z</time></trkpt><trkpt lat="41.93961976771612" lon="12.460403436349733"><ele>45.0</ele><time>2026-04-18T16:16:43.999Z</time></trkpt><trkpt lat="41.93955639396101" lon="12.460203764641475"><ele>45.0</ele><time>2026-04-18T16:16:44.999Z</time></trkpt><trkpt lat="41.93950347652575" lon="12.460015204654571"><ele>45.0</ele><time>2026-04-18T16:16:45.999Z</time></trkpt><trkpt lat="41.93945168853364" lon="12.459818481279994"><ele>45.0</ele><time>2026-04-18T16:16:46.999Z</time></trkpt><trkpt lat="41.939407617121255" lon="12.459633752004981"><ele>45.0</ele><time>2026-04-18T16:16:47.999Z</time></trkpt><trkpt lat="41.93937047356293" lon="12.459451797490912"><ele>45.0</ele><time>2026-04-18T16:16:48.999Z</time></trkpt><trkpt lat="41.93933210435994" lon="12.459268149142574"><ele>45.0</ele><time>2026-04-18T16:16:49.999Z</time></trkpt><trkpt lat="41.93929652621255" lon="12.459079884098072"><ele>44.666666666666664</ele><time>2026-04-18T16:16:50.999Z</time></trkpt><trkpt lat="41.93925538632476" lon="12.458870375467423"><ele>44.33333333333333</ele><time>2026-04-18T16:16:51.999Z</time></trkpt><trkpt lat="41.93921825017841" lon="12.458656708443383"><ele>44.0</ele><time>2026-04-18T16:16:52.999Z</time></trkpt><trkpt lat="41.93918670615573" lon="12.458459086118769"><ele>44.0</ele><time>2026-04-18T16:16:53.999Z</time></trkpt><trkpt lat="41.93915105871154" lon="12.458243861819005"><ele>44.0</ele><time>2026-04-18T16:16:54.999Z</time></trkpt><trkpt lat="41.93909014161609" lon="12.458040519654029"><ele>44.0</ele><time>2026-04-18T16:16:55.999Z</time></trkpt><trkpt lat="41.93900801801417" lon="12.45782194756663"><ele>48.666666666666664</ele><time>2026-04-18T16:16:56.999Z</time></trkpt><trkpt lat="41.938914087751854" lon="12.457589454405904"><ele>53.33333333333333</ele><time>2026-04-18T16:16:57.999Z</time></trkpt><trkpt lat="41.938808883788965" lon="12.457349969093825"><ele>58.0</ele><time>2026-04-18T16:16:58.999Z</time></trkpt><trkpt lat="41.9386836273167" lon="12.457090924833318"><ele>56.5</ele><time>2026-04-18T16:16:59.999Z</time></trkpt><trkpt lat="41.93852689217577" lon="12.456802404709693"><ele>55.0</ele><time>2026-04-18T16:17:00.999Z</time></trkpt><trkpt lat="41.93833806959862" lon="12.456509599303786"><ele>65.5</ele><time>2026-04-18T16:17:01.999Z</time></trkpt><trkpt lat="41.93812042547875" lon="12.456212070172313"><ele>76.0</ele><time>2026-04-18T16:17:03.05Z</time></trkpt><trkpt lat="41.93853556116854" lon="12.456597274797172"><ele>44.0</ele><time>2026-04-18T16:17:04.047Z</time></trkpt><trkpt lat="41.93709662686646" lon="12.45521662917301"><ele>44.0</ele><time>2026-04-18T16:17:15.999Z</time></trkpt><trkpt lat="41.93701958178311" lon="12.45517475038594"><ele>44.0</ele><time>2026-04-18T16:17:16.999Z</time></trkpt><trkpt lat="41.93669040351686" lon="12.454948903028585"><ele>42.33333333333333</ele><time>2026-04-18T16:17:17.999Z</time></trkpt><trkpt lat="41.93662188068525" lon="12.454906581440957"><ele>40.666666666666664</ele><time>2026-04-18T16:17:19.999Z</time></trkpt><trkpt lat="41.936565625604956" lon="12.454947188580293"><ele>39.0</ele><time>2026-04-18T16:17:22.999Z</time></trkpt><trkpt lat="41.93650237687359" lon="12.454909982184091"><ele>37.333333333333336</ele><time>2026-04-18T16:17:23.999Z</time></trkpt><trkpt lat="41.936410033087526" lon="12.454880262118987"><ele>35.66666666666667</ele><time>2026-04-18T16:17:24.999Z</time></trkpt><trkpt lat="41.93630326123539" lon="12.454838768238922"><ele>34.0</ele><time>2026-04-18T16:17:25.998Z</time></trkpt><trkpt lat="41.936197424675704" lon="12.45482815322405"><ele>33.66666666666667</ele><time>2026-04-18T16:17:26.998Z</time></trkpt><trkpt lat="41.93601049734016" lon="12.454610201950475"><ele>33.333333333333336</ele><time>2026-04-18T16:17:27.998Z</time></trkpt><trkpt lat="41.935899670178856" lon="12.454439936314559"><ele>33.0</ele><time>2026-04-18T16:17:28.998Z</time></trkpt><trkpt lat="41.93579453829638" lon="12.454240043276618"><ele>33.666666666666664</ele><time>2026-04-18T16:17:29.998Z</time></trkpt><trkpt lat="41.93569221971886" lon="12.454017957358882"><ele>34.33333333333333</ele><time>2026-04-18T16:17:30.998Z</time></trkpt><trkpt lat="41.93559238759626" lon="12.453795565060076"><ele>35.0</ele><time>2026-04-18T16:17:31.998Z</time></trkpt><trkpt lat="41.93548754237046" lon="12.453566784955973"><ele>39.0</ele><time>2026-04-18T16:17:32.998Z</time></trkpt><trkpt lat="41.93538768585666" lon="12.453338271243682"><ele>43.0</ele><time>2026-04-18T16:17:33.998Z</time></trkpt><trkpt lat="41.9352807579957" lon="12.453145468058397"><ele>47.0</ele><time>2026-04-18T16:17:34.998Z</time></trkpt><trkpt lat="41.93515481750189" lon="12.452977088677933"><ele>48.33333333333333</ele><time>2026-04-18T16:17:35.998Z</time></trkpt><trkpt lat="41.93501165032672" lon="12.452849090238509"><ele>49.666666666666664</ele><time>2026-04-18T16:17:36.998Z</time></trkpt><trkpt lat="41.934857868664125" lon="12.452749863247869"><ele>51.0</ele><time>2026-04-18T16:17:37.998Z</time></trkpt><trkpt lat="41.93470518432553" lon="12.452690421395845"><ele>51.0</ele><time>2026-04-18T16:17:38.998Z</time></trkpt><trkpt lat="41.934560279698196" lon="12.452666756743747"><ele>51.0</ele><time>2026-04-18T16:17:39.998Z</time></trkpt><trkpt lat="41.934421388656965" lon="12.452667283717522"><ele>51.0</ele><time>2026-04-18T16:17:40.998Z</time></trkpt><trkpt lat="41.934282741535895" lon="12.452694108032833"><ele>51.0</ele><time>2026-04-18T16:17:41.998Z</time></trkpt><trkpt lat="41.93414306082036" lon="12.45273870950375"><ele>50.33333333333333</ele><time>2026-04-18T16:17:42.998Z</time></trkpt><trkpt lat="41.93398596017047" lon="12.452798171318499"><ele>49.666666666666664</ele><time>2026-04-18T16:17:43.998Z</time></trkpt><trkpt lat="41.93382197277423" lon="12.452858624246918"><ele>49.0</ele><time>2026-04-18T16:17:44.998Z</time></trkpt><trkpt lat="41.93364544326769" lon="12.45292525599768"><ele>47.666666666666664</ele><time>2026-04-18T16:17:45.998Z</time></trkpt><trkpt lat="41.93345845574702" lon="12.452990119665523"><ele>46.33333333333333</ele><time>2026-04-18T16:17:46.998Z</time></trkpt><trkpt lat="41.933263114540445" lon="12.453048286225913"><ele>45.0</ele><time>2026-04-18T16:17:47.998Z</time></trkpt><trkpt lat="41.93305557040934" lon="12.45310378706515"><ele>45.0</ele><time>2026-04-18T16:17:48.998Z</time></trkpt><trkpt lat="41.93284340010968" lon="12.453157724430127"><ele>45.0</ele><time>2026-04-18T16:17:49.998Z</time></trkpt><trkpt lat="41.932627384495916" lon="12.453199077514428"><ele>45.0</ele><time>2026-04-18T16:17:50.998Z</time></trkpt><trkpt lat="41.932423480040114" lon="12.453236570454326"><ele>46.0</ele><time>2026-04-18T16:17:51.998Z</time></trkpt><trkpt lat="41.932236782025534" lon="12.453272978930798"><ele>47.0</ele><time>2026-04-18T16:17:52.998Z</time></trkpt><trkpt lat="41.93206139965965" lon="12.453309234401635"><ele>48.0</ele><time>2026-04-18T16:17:53.998Z</time></trkpt><trkpt lat="41.93189543601817" lon="12.453356926755722"><ele>48.0</ele><time>2026-04-18T16:17:54.998Z</time></trkpt><trkpt lat="41.93173871643465" lon="12.453401650889866"><ele>48.0</ele><time>2026-04-18T16:17:55.998Z</time></trkpt><trkpt lat="41.93158491023058" lon="12.453429998950112"><ele>48.0</ele><time>2026-04-18T16:17:56.998Z</time></trkpt><trkpt lat="41.93144352337603" lon="12.453446140434385"><ele>47.0</ele><time>2026-04-18T16:17:57.998Z</time></trkpt><trkpt lat="41.93129384325339" lon="12.453440050063952"><ele>46.0</ele><time>2026-04-18T16:17:58.998Z</time></trkpt><trkpt lat="41.93114029963782" lon="12.453408926545256"><ele>45.0</ele><time>2026-04-18T16:17:59.998Z</time></trkpt><trkpt lat="41.930989042359094" lon="12.453386555638227"><ele>44.0</ele><time>2026-04-18T16:18:01Z</time></trkpt><trkpt lat="41.93084296411892" lon="12.453404913878485"><ele>43.0</ele><time>2026-04-18T16:18:02Z</time></trkpt><trkpt lat="41.93069673270721" lon="12.45345786565965"><ele>42.0</ele><time>2026-04-18T16:18:03Z</time></trkpt><trkpt lat="41.93056068115286" lon="12.453559428542803"><ele>42.0</ele><time>2026-04-18T16:18:04Z</time></trkpt><trkpt lat="41.93041715690189" lon="12.453698284337964"><ele>42.0</ele><time>2026-04-18T16:18:05Z</time></trkpt><trkpt lat="41.93027566348968" lon="12.453858648561603"><ele>42.0</ele><time>2026-04-18T16:18:06Z</time></trkpt><trkpt lat="41.93011193719182" lon="12.454002787147203"><ele>41.666666666666664</ele><time>2026-04-18T16:18:07Z</time></trkpt><trkpt lat="41.92994635198646" lon="12.454149109248776"><ele>41.33333333333333</ele><time>2026-04-18T16:18:08Z</time></trkpt><trkpt lat="41.929768977481956" lon="12.454287136107244"><ele>41.0</ele><time>2026-04-18T16:18:09Z</time></trkpt><trkpt lat="41.92958931288668" lon="12.4544213766301"><ele>41.0</ele><time>2026-04-18T16:18:10Z</time></trkpt><trkpt lat="41.92939908848883" lon="12.454567002582849"><ele>41.0</ele><time>2026-04-18T16:18:11Z</time></trkpt><trkpt lat="41.92921001919472" lon="12.454709929670486"><ele>41.0</ele><time>2026-04-18T16:18:12Z</time></trkpt><trkpt lat="41.929015883210994" lon="12.45485058016932"><ele>38.5</ele><time>2026-04-18T16:18:13Z</time></trkpt><trkpt lat="41.92880812350336" lon="12.45498657038639"><ele>36.0</ele><time>2026-04-18T16:18:14Z</time></trkpt><trkpt lat="41.92859508385011" lon="12.455099938861927"><ele>38.333333333333336</ele><time>2026-04-18T16:18:15Z</time></trkpt><trkpt lat="41.92837965657854" lon="12.455193098670318"><ele>40.66666666666667</ele><time>2026-04-18T16:18:16Z</time></trkpt><trkpt lat="41.928176655724684" lon="12.455270448985495"><ele>43.0</ele><time>2026-04-18T16:18:17Z</time></trkpt><trkpt lat="41.92796991226204" lon="12.455339766838001"><ele>43.0</ele><time>2026-04-18T16:18:18Z</time></trkpt><trkpt lat="41.927772981194956" lon="12.455380838854493"><ele>43.0</ele><time>2026-04-18T16:18:19Z</time></trkpt><trkpt lat="41.92758078294406" lon="12.45539221990634"><ele>43.0</ele><time>2026-04-18T16:18:20Z</time></trkpt><trkpt lat="41.92738827920042" lon="12.45539209409623"><ele>43.66666666666667</ele><time>2026-04-18T16:18:21Z</time></trkpt><trkpt lat="41.92718938065081" lon="12.45539736226756"><ele>44.333333333333336</ele><time>2026-04-18T16:18:22Z</time></trkpt><trkpt lat="41.92699954618081" lon="12.45543162791305"><ele>45.0</ele><time>2026-04-18T16:18:23Z</time></trkpt><trkpt lat="41.92681033936925" lon="12.45549256584969"><ele>40.666666666666664</ele><time>2026-04-18T16:18:24Z</time></trkpt><trkpt lat="41.92661518603686" lon="12.455589132861206"><ele>36.33333333333333</ele><time>2026-04-18T16:18:25Z</time></trkpt><trkpt lat="41.92641310473187" lon="12.455710986637438"><ele>32.0</ele><time>2026-04-18T16:18:26Z</time></trkpt><trkpt lat="41.92621591750211" lon="12.45582254229959"><ele>32.0</ele><time>2026-04-18T16:18:27Z</time></trkpt><trkpt lat="41.92603525842481" lon="12.455920459918353"><ele>32.0</ele><time>2026-04-18T16:18:28Z</time></trkpt><trkpt lat="41.92586694374155" lon="12.456015054949612"><ele>32.0</ele><time>2026-04-18T16:18:29Z</time></trkpt><trkpt lat="41.9257054207751" lon="12.45611317059276"><ele>31.333333333333332</ele><time>2026-04-18T16:18:30Z</time></trkpt><trkpt lat="41.92556043811891" lon="12.45620823694576"><ele>30.666666666666664</ele><time>2026-04-18T16:18:31Z</time></trkpt><trkpt lat="41.92542065161794" lon="12.456291826419445"><ele>30.0</ele><time>2026-04-18T16:18:32Z</time></trkpt><trkpt lat="41.9252969024763" lon="12.456375050530319"><ele>28.25</ele><time>2026-04-18T16:18:33Z</time></trkpt><trkpt lat="41.92516864778927" lon="12.456463945091814"><ele>26.5</ele><time>2026-04-18T16:18:34Z</time></trkpt><trkpt lat="41.92503874837008" lon="12.456540021253868"><ele>24.75</ele><time>2026-04-18T16:18:35Z</time></trkpt><trkpt lat="41.92491171781881" lon="12.456619668642107"><ele>23.0</ele><time>2026-04-18T16:18:36Z</time></trkpt><trkpt lat="41.92479492775348" lon="12.45670287901455"><ele>23.0</ele><time>2026-04-18T16:18:37Z</time></trkpt><trkpt lat="41.92468485522059" lon="12.456778928908019"><ele>23.0</ele><time>2026-04-18T16:18:38Z</time></trkpt><trkpt lat="41.92457791069596" lon="12.456857043319737"><ele>23.0</ele><time>2026-04-18T16:18:39Z</time></trkpt><trkpt lat="41.92447142632533" lon="12.456956636044877"><ele>23.0</ele><time>2026-04-18T16:18:40Z</time></trkpt><trkpt lat="41.92436982704574" lon="12.457067800571707"><ele>22.25</ele><time>2026-04-18T16:18:41Z</time></trkpt><trkpt lat="41.924269681587916" lon="12.457184473109312"><ele>21.5</ele><time>2026-04-18T16:18:41.999Z</time></trkpt><trkpt lat="41.924171461000526" lon="12.457296655410188"><ele>20.75</ele><time>2026-04-18T16:18:42.999Z</time></trkpt><trkpt lat="41.92407336095263" lon="12.457415936540253"><ele>20.0</ele><time>2026-04-18T16:18:43.999Z</time></trkpt><trkpt lat="41.92397990967219" lon="12.457540648544661"><ele>20.0</ele><time>2026-04-18T16:18:44.999Z</time></trkpt><trkpt lat="41.92388946183492" lon="12.457666634929096"><ele>20.0</ele><time>2026-04-18T16:18:45.999Z</time></trkpt><trkpt lat="41.92379995284151" lon="12.45777769163706"><ele>20.0</ele><time>2026-04-18T16:18:46.999Z</time></trkpt><trkpt lat="41.923715208641056" lon="12.457876368799159"><ele>20.0</ele><time>2026-04-18T16:18:47.999Z</time></trkpt><trkpt lat="41.92363659682857" lon="12.45795059705525"><ele>20.0</ele><time>2026-04-18T16:18:48.999Z</time></trkpt><trkpt lat="41.92354639413454" lon="12.458013252786563"><ele>20.0</ele><time>2026-04-18T16:18:49.999Z</time></trkpt><trkpt lat="41.92345288552995" lon="12.458055600617172"><ele>20.0</ele><time>2026-04-18T16:18:50.999Z</time></trkpt><trkpt lat="41.92335349620413" lon="12.458087249395588"><ele>20.0</ele><time>2026-04-18T16:18:51.999Z</time></trkpt><trkpt lat="41.92325961029408" lon="12.458106785270052"><ele>20.0</ele><time>2026-04-18T16:18:52.999Z</time></trkpt><trkpt lat="41.92316522881851" lon="12.458112705092104"><ele>20.0</ele><time>2026-04-18T16:18:53.999Z</time></trkpt><trkpt lat="41.92307041465574" lon="12.458104021570975"><ele>20.0</ele><time>2026-04-18T16:18:54.999Z</time></trkpt><trkpt lat="41.92297635311444" lon="12.458075113506867"><ele>20.0</ele><time>2026-04-18T16:18:55.999Z</time></trkpt><trkpt lat="41.9228951929292" lon="12.45807234142198"><ele>20.0</ele><time>2026-04-18T16:18:56.999Z</time></trkpt><trkpt lat="41.92283334307208" lon="12.45805485884507"><ele>20.0</ele><time>2026-04-18T16:18:57.999Z</time></trkpt><trkpt lat="41.922721567146276" lon="12.458018749727344"><ele>20.0</ele><time>2026-04-18T16:18:59.999Z</time></trkpt><trkpt lat="41.92262341506879" lon="12.4580327211666"><ele>20.0</ele><time>2026-04-18T16:19:01.999Z</time></trkpt><trkpt lat="41.922533156406125" lon="12.458041544572545"><ele>20.0</ele><time>2026-04-18T16:19:04.999Z</time></trkpt><trkpt lat="41.922465153111176" lon="12.458049969446334"><ele>20.0</ele><time>2026-04-18T16:19:14.999Z</time></trkpt><trkpt lat="41.922329720949165" lon="12.458041863897162"><ele>20.0</ele><time>2026-04-18T16:19:16.999Z</time></trkpt><trkpt lat="41.922241685730114" lon="12.45801983525941"><ele>21.75</ele><time>2026-04-18T16:19:17.999Z</time></trkpt><trkpt lat="41.92213301327849" lon="12.45799345627621"><ele>23.5</ele><time>2026-04-18T16:19:18.999Z</time></trkpt><trkpt lat="41.92200178551867" lon="12.45795596777175"><ele>25.25</ele><time>2026-04-18T16:19:19.999Z</time></trkpt><trkpt lat="41.92186250107834" lon="12.45791910063178"><ele>27.0</ele><time>2026-04-18T16:19:20.999Z</time></trkpt><trkpt lat="41.9217217771427" lon="12.45787863778361"><ele>27.5</ele><time>2026-04-18T16:19:21.999Z</time></trkpt><trkpt lat="41.92157731591817" lon="12.457849284115438"><ele>28.0</ele><time>2026-04-18T16:19:22.999Z</time></trkpt><trkpt lat="41.92144571135789" lon="12.457817403531246"><ele>28.5</ele><time>2026-04-18T16:19:23.999Z</time></trkpt><trkpt lat="41.921306984132706" lon="12.457784705352436"><ele>29.0</ele><time>2026-04-18T16:19:24.999Z</time></trkpt><trkpt lat="41.92116620416834" lon="12.457747554200166"><ele>29.0</ele><time>2026-04-18T16:19:25.999Z</time></trkpt><trkpt lat="41.921032154665276" lon="12.45770627176405"><ele>29.0</ele><time>2026-04-18T16:19:26.999Z</time></trkpt><trkpt lat="41.920898049731676" lon="12.457670775348507"><ele>29.0</ele><time>2026-04-18T16:19:27.999Z</time></trkpt><trkpt lat="41.92076367362175" lon="12.457618533283691"><ele>29.0</ele><time>2026-04-18T16:19:28.999Z</time></trkpt><trkpt lat="41.92062313456771" lon="12.457537787082305"><ele>30.333333333333332</ele><time>2026-04-18T16:19:29.999Z</time></trkpt><trkpt lat="41.920468266795226" lon="12.457442901585598"><ele>31.666666666666664</ele><time>2026-04-18T16:19:30.999Z</time></trkpt><trkpt lat="41.92033550588161" lon="12.457393776848697"><ele>33.0</ele><time>2026-04-18T16:19:31.999Z</time></trkpt><trkpt lat="41.92019118064299" lon="12.457262747189688"><ele>32.5</ele><time>2026-04-18T16:19:32.999Z</time></trkpt><trkpt lat="41.92003422560492" lon="12.45717663858361"><ele>32.0</ele><time>2026-04-18T16:19:33.999Z</time></trkpt><trkpt lat="41.91990661243365" lon="12.457134778269669"><ele>31.5</ele><time>2026-04-18T16:19:34.999Z</time></trkpt><trkpt lat="41.919776755318466" lon="12.457064548058604"><ele>31.0</ele><time>2026-04-18T16:19:35.999Z</time></trkpt><trkpt lat="41.91966434787818" lon="12.457010664936783"><ele>31.0</ele><time>2026-04-18T16:19:36.999Z</time></trkpt><trkpt lat="41.919545137623416" lon="12.45695106869306"><ele>31.0</ele><time>2026-04-18T16:19:37.999Z</time></trkpt><trkpt lat="41.91943101820957" lon="12.456899158739512"><ele>31.0</ele><time>2026-04-18T16:19:38.999Z</time></trkpt><trkpt lat="41.91931565044699" lon="12.456843410337699"><ele>31.0</ele><time>2026-04-18T16:19:39.999Z</time></trkpt><trkpt lat="41.9191985123722" lon="12.456781550157421"><ele>29.75</ele><time>2026-04-18T16:19:40.999Z</time></trkpt><trkpt lat="41.919078969369224" lon="12.456747234551916"><ele>28.5</ele><time>2026-04-18T16:19:41.999Z</time></trkpt><trkpt lat="41.91896110511704" lon="12.456695781505292"><ele>27.25</ele><time>2026-04-18T16:19:42.998Z</time></trkpt><trkpt lat="41.91884262647123" lon="12.456631297681001"><ele>26.0</ele><time>2026-04-18T16:19:43.998Z</time></trkpt><trkpt lat="41.91872825865001" lon="12.456598029608385"><ele>26.0</ele><time>2026-04-18T16:19:44.998Z</time></trkpt><trkpt lat="41.91861367718811" lon="12.45654977055252"><ele>26.0</ele><time>2026-04-18T16:19:45.998Z</time></trkpt><trkpt lat="41.918479973319094" lon="12.45648611752422"><ele>26.0</ele><time>2026-04-18T16:19:46.998Z</time></trkpt><trkpt lat="41.91835213588429" lon="12.456412742462685"><ele>26.0</ele><time>2026-04-18T16:19:47.998Z</time></trkpt><trkpt lat="41.91824889333946" lon="12.456338854175545"><ele>25.5</ele><time>2026-04-18T16:19:48.998Z</time></trkpt><trkpt lat="41.91818340837059" lon="12.456234472319144"><ele>25.0</ele><time>2026-04-18T16:19:49.998Z</time></trkpt><trkpt lat="41.91812289542384" lon="12.456102403533851"><ele>24.5</ele><time>2026-04-18T16:19:50.998Z</time></trkpt><trkpt lat="41.918061219845846" lon="12.455943645844005"><ele>24.0</ele><time>2026-04-18T16:19:51.998Z</time></trkpt><trkpt lat="41.917977003002356" lon="12.455764117397639"><ele>24.0</ele><time>2026-04-18T16:19:52.998Z</time></trkpt><trkpt lat="41.91788203786227" lon="12.45561564886804"><ele>24.0</ele><time>2026-04-18T16:19:53.998Z</time></trkpt><trkpt lat="41.91777662043089" lon="12.455468633323331"><ele>24.0</ele><time>2026-04-18T16:19:54.998Z</time></trkpt><trkpt lat="41.917655001013486" lon="12.455319660876937"><ele>22.0</ele><time>2026-04-18T16:19:55.998Z</time></trkpt><trkpt lat="41.91753172425481" lon="12.455166323079732"><ele>20.0</ele><time>2026-04-18T16:19:56.998Z</time></trkpt><trkpt lat="41.917409740288434" lon="12.455031678493226"><ele>18.0</ele><time>2026-04-18T16:19:57.998Z</time></trkpt><trkpt lat="41.91730201671121" lon="12.454919509133086"><ele>18.0</ele><time>2026-04-18T16:19:58.998Z</time></trkpt><trkpt lat="41.91718933269303" lon="12.454821780685917"><ele>18.0</ele><time>2026-04-18T16:19:59.998Z</time></trkpt><trkpt lat="41.91709086859035" lon="12.454721798383428"><ele>18.0</ele><time>2026-04-18T16:20:00.998Z</time></trkpt><trkpt lat="41.917007146192375" lon="12.454613392202496"><ele>18.0</ele><time>2026-04-18T16:20:01.998Z</time></trkpt><trkpt lat="41.91692464347822" lon="12.454499721002692"><ele>18.0</ele><time>2026-04-18T16:20:02.998Z</time></trkpt><trkpt lat="41.9168412988723" lon="12.454389625161323"><ele>18.0</ele><time>2026-04-18T16:20:03.998Z</time></trkpt><trkpt lat="41.9167539029325" lon="12.454283334214018"><ele>18.0</ele><time>2026-04-18T16:20:04.998Z</time></trkpt><trkpt lat="41.916661631229914" lon="12.454166590970349"><ele>18.0</ele><time>2026-04-18T16:20:05.998Z</time></trkpt><trkpt lat="41.91657515862004" lon="12.454057179120278"><ele>17.75</ele><time>2026-04-18T16:20:07Z</time></trkpt><trkpt lat="41.916489320304755" lon="12.453949830191975"><ele>17.5</ele><time>2026-04-18T16:20:08Z</time></trkpt><trkpt lat="41.91640074631093" lon="12.453842657601536"><ele>17.25</ele><time>2026-04-18T16:20:09Z</time></trkpt><trkpt lat="41.91631033798781" lon="12.4537279066816"><ele>17.0</ele><time>2026-04-18T16:20:10Z</time></trkpt><trkpt lat="41.916230865774864" lon="12.453623557336162"><ele>17.833333333333336</ele><time>2026-04-18T16:20:11Z</time></trkpt><trkpt lat="41.9161734105377" lon="12.453548504959116"><ele>18.666666666666668</ele><time>2026-04-18T16:20:12Z</time></trkpt><trkpt lat="41.91611267332384" lon="12.453487946728993"><ele>19.5</ele><time>2026-04-18T16:20:13Z</time></trkpt><trkpt lat="41.91606511317478" lon="12.453427884891793"><ele>20.333333333333332</ele><time>2026-04-18T16:20:14Z</time></trkpt><trkpt lat="41.91601515601895" lon="12.453368434352997"><ele>21.166666666666664</ele><time>2026-04-18T16:20:15Z</time></trkpt><trkpt lat="41.91594650273534" lon="12.453307023242266"><ele>22.0</ele><time>2026-04-18T16:20:16Z</time></trkpt><trkpt lat="41.91587660493475" lon="12.453251003454806"><ele>23.0</ele><time>2026-04-18T16:20:17Z</time></trkpt><trkpt lat="41.915785706966034" lon="12.453212821851562"><ele>24.0</ele><time>2026-04-18T16:20:18Z</time></trkpt><trkpt lat="41.91569249729509" lon="12.45316769694529"><ele>25.000000000000004</ele><time>2026-04-18T16:20:19Z</time></trkpt><trkpt lat="41.91560588631555" lon="12.453109053597688"><ele>26.0</ele><time>2026-04-18T16:20:20Z</time></trkpt><trkpt lat="41.91552136117424" lon="12.453043219293036"><ele>27.0</ele><time>2026-04-18T16:20:21Z</time></trkpt><trkpt lat="41.915439080143884" lon="12.452938792970931"><ele>27.0</ele><time>2026-04-18T16:20:22Z</time></trkpt><trkpt lat="41.915351851724026" lon="12.45281012460726"><ele>27.0</ele><time>2026-04-18T16:20:23Z</time></trkpt><trkpt lat="41.915258574995235" lon="12.452685891403933"><ele>27.0</ele><time>2026-04-18T16:20:24Z</time></trkpt><trkpt lat="41.915171789051755" lon="12.45259373395335"><ele>27.0</ele><time>2026-04-18T16:20:25Z</time></trkpt><trkpt lat="41.91507727933473" lon="12.452506837880222"><ele>27.333333333333332</ele><time>2026-04-18T16:20:26Z</time></trkpt><trkpt lat="41.91500488700081" lon="12.452427423927936"><ele>27.666666666666664</ele><time>2026-04-18T16:20:27Z</time></trkpt><trkpt lat="41.91493462141968" lon="12.452349456364491"><ele>28.0</ele><time>2026-04-18T16:20:28Z</time></trkpt><trkpt lat="41.91487239785507" lon="12.452273023819972"><ele>28.333333333333332</ele><time>2026-04-18T16:20:29Z</time></trkpt><trkpt lat="41.914816558453786" lon="12.452203531358562"><ele>28.666666666666664</ele><time>2026-04-18T16:20:30Z</time></trkpt><trkpt lat="41.914750895258095" lon="12.452143139581505"><ele>29.0</ele><time>2026-04-18T16:20:31Z</time></trkpt><trkpt lat="41.91467226726657" lon="12.452079191764092"><ele>27.799999999999997</ele><time>2026-04-18T16:20:32Z</time></trkpt><trkpt lat="41.91458531572712" lon="12.452018963732328"><ele>26.599999999999998</ele><time>2026-04-18T16:20:33Z</time></trkpt><trkpt lat="41.91449407263507" lon="12.451941104097468"><ele>25.4</ele><time>2026-04-18T16:20:34Z</time></trkpt><trkpt lat="41.91441306449756" lon="12.451858981190796"><ele>24.2</ele><time>2026-04-18T16:20:35Z</time></trkpt><trkpt lat="41.91435072022768" lon="12.451773893709012"><ele>23.0</ele><time>2026-04-18T16:20:36Z</time></trkpt><trkpt lat="41.9142923914752" lon="12.45169135305448"><ele>23.0</ele><time>2026-04-18T16:20:37Z</time></trkpt><trkpt lat="41.9142443339851" lon="12.451618002190324"><ele>23.0</ele><time>2026-04-18T16:20:38Z</time></trkpt><trkpt lat="41.91418872068846" lon="12.451550697434884"><ele>23.0</ele><time>2026-04-18T16:20:39Z</time></trkpt><trkpt lat="41.91413931428208" lon="12.451493346237198"><ele>23.0</ele><time>2026-04-18T16:20:40Z</time></trkpt><trkpt lat="41.91406591067825" lon="12.451396247275827"><ele>23.0</ele><time>2026-04-18T16:20:42Z</time></trkpt><trkpt lat="41.914000587797446" lon="12.45131872768853"><ele>23.0</ele><time>2026-04-18T16:20:44Z</time></trkpt><trkpt lat="41.913945889164125" lon="12.451265519973353"><ele>23.2</ele><time>2026-04-18T16:21:15.999Z</time></trkpt><trkpt lat="41.913897415030085" lon="12.451210911115629"><ele>23.4</ele><time>2026-04-18T16:21:16.999Z</time></trkpt><trkpt lat="41.9138289168657" lon="12.451136388508441"><ele>23.599999999999998</ele><time>2026-04-18T16:21:17.999Z</time></trkpt><trkpt lat="41.91375189384304" lon="12.451053131400492"><ele>23.799999999999997</ele><time>2026-04-18T16:21:18.999Z</time></trkpt><trkpt lat="41.91366138454427" lon="12.450948563190822"><ele>24.0</ele><time>2026-04-18T16:21:19.999Z</time></trkpt><trkpt lat="41.91355934421418" lon="12.450833455495859"><ele>24.0</ele><time>2026-04-18T16:21:20.999Z</time></trkpt><trkpt lat="41.913442757074925" lon="12.450712649584915"><ele>24.0</ele><time>2026-04-18T16:21:21.999Z</time></trkpt><trkpt lat="41.913324065929345" lon="12.450597732411648"><ele>24.0</ele><time>2026-04-18T16:21:22.999Z</time></trkpt><trkpt lat="41.91320254837607" lon="12.450479880161014"><ele>24.0</ele><time>2026-04-18T16:21:23.999Z</time></trkpt><trkpt lat="41.91308533613161" lon="12.450379252548657"><ele>25.5</ele><time>2026-04-18T16:21:24.999Z</time></trkpt><trkpt lat="41.91296617285613" lon="12.450289779988202"><ele>27.0</ele><time>2026-04-18T16:21:25.999Z</time></trkpt><trkpt lat="41.91288358244248" lon="12.450212274865684"><ele>28.5</ele><time>2026-04-18T16:21:26.999Z</time></trkpt><trkpt lat="41.91277066539408" lon="12.450124206618709"><ele>30.0</ele><time>2026-04-18T16:21:27.999Z</time></trkpt><trkpt lat="41.91265550696669" lon="12.450040596255016"><ele>30.5</ele><time>2026-04-18T16:21:28.999Z</time></trkpt><trkpt lat="41.91253868279054" lon="12.449957799733717"><ele>31.0</ele><time>2026-04-18T16:21:29.999Z</time></trkpt><trkpt lat="41.91242042200346" lon="12.449882264659797"><ele>31.5</ele><time>2026-04-18T16:21:30.999Z</time></trkpt><trkpt lat="41.91229922014132" lon="12.449814700850206"><ele>32.0</ele><time>2026-04-18T16:21:31.999Z</time></trkpt><trkpt lat="41.9121884563415" lon="12.44975758444325"><ele>32.0</ele><time>2026-04-18T16:21:32.999Z</time></trkpt><trkpt lat="41.912082703182904" lon="12.449708034469834"><ele>32.0</ele><time>2026-04-18T16:21:33.999Z</time></trkpt><trkpt lat="41.91197623462577" lon="12.449664699395171"><ele>32.0</ele><time>2026-04-18T16:21:34.999Z</time></trkpt><trkpt lat="41.91187204728989" lon="12.449626842691616"><ele>32.0</ele><time>2026-04-18T16:21:35.999Z</time></trkpt><trkpt lat="41.91176882617313" lon="12.44959316021733"><ele>32.0</ele><time>2026-04-18T16:21:36.999Z</time></trkpt><trkpt lat="41.91167453050476" lon="12.44956074276701"><ele>33.0</ele><time>2026-04-18T16:21:37.999Z</time></trkpt><trkpt lat="41.91158149155424" lon="12.449530659742702"><ele>34.0</ele><time>2026-04-18T16:21:38.999Z</time></trkpt><trkpt lat="41.911481325179984" lon="12.449493931261163"><ele>35.0</ele><time>2026-04-18T16:21:39.999Z</time></trkpt><trkpt lat="41.911380082187044" lon="12.449446761554945"><ele>36.0</ele><time>2026-04-18T16:21:40.999Z</time></trkpt><trkpt lat="41.911276458536065" lon="12.44940295364257"><ele>37.0</ele><time>2026-04-18T16:21:41.999Z</time></trkpt><trkpt lat="41.911170036990235" lon="12.449370518390669"><ele>37.0</ele><time>2026-04-18T16:21:42.999Z</time></trkpt><trkpt lat="41.91107389398167" lon="12.449344662431471"><ele>37.0</ele><time>2026-04-18T16:21:43.999Z</time></trkpt><trkpt lat="41.91097777911225" lon="12.449322611170821"><ele>37.0</ele><time>2026-04-18T16:21:44.999Z</time></trkpt><trkpt lat="41.91087490624582" lon="12.449310883269874"><ele>37.0</ele><time>2026-04-18T16:21:45.999Z</time></trkpt><trkpt lat="41.910753760786825" lon="12.449293952395019"><ele>37.0</ele><time>2026-04-18T16:21:46.999Z</time></trkpt><trkpt lat="41.91062935976621" lon="12.449281128715667"><ele>37.25</ele><time>2026-04-18T16:21:47.999Z</time></trkpt><trkpt lat="41.91049956403967" lon="12.44924650914049"><ele>37.5</ele><time>2026-04-18T16:21:48.999Z</time></trkpt><trkpt lat="41.91035839202602" lon="12.449208113429188"><ele>37.75</ele><time>2026-04-18T16:21:49.999Z</time></trkpt><trkpt lat="41.910213783831985" lon="12.449166617238"><ele>38.0</ele><time>2026-04-18T16:21:50.999Z</time></trkpt><trkpt lat="41.91008469055023" lon="12.44913250157174"><ele>37.25</ele><time>2026-04-18T16:21:51.999Z</time></trkpt><trkpt lat="41.909959037468006" lon="12.449103836283244"><ele>36.5</ele><time>2026-04-18T16:21:52.999Z</time></trkpt><trkpt lat="41.909834265566744" lon="12.44906721566464"><ele>35.75</ele><time>2026-04-18T16:21:53.998Z</time></trkpt><trkpt lat="41.90971667129933" lon="12.449025171562473"><ele>35.0</ele><time>2026-04-18T16:21:54.998Z</time></trkpt><trkpt lat="41.90959951776171" lon="12.448968313482432"><ele>35.0</ele><time>2026-04-18T16:21:55.998Z</time></trkpt><trkpt lat="41.90949101486268" lon="12.448892720485153"><ele>35.0</ele><time>2026-04-18T16:21:56.998Z</time></trkpt><trkpt lat="41.90939971339908" lon="12.448809310543968"><ele>35.0</ele><time>2026-04-18T16:21:57.998Z</time></trkpt><trkpt lat="41.9093082752102" lon="12.448725367750189"><ele>35.0</ele><time>2026-04-18T16:21:58.998Z</time></trkpt><trkpt lat="41.909220701441164" lon="12.448637740373128"><ele>34.0</ele><time>2026-04-18T16:21:59.998Z</time></trkpt><trkpt lat="41.90914229514408" lon="12.448556958946048"><ele>33.0</ele><time>2026-04-18T16:22:00.998Z</time></trkpt><trkpt lat="41.90906734970724" lon="12.44847400121631"><ele>32.0</ele><time>2026-04-18T16:22:01.998Z</time></trkpt><trkpt lat="41.90899684439071" lon="12.448402570260049"><ele>31.0</ele><time>2026-04-18T16:22:02.998Z</time></trkpt><trkpt lat="41.908926575886966" lon="12.448342678876635"><ele>30.0</ele><time>2026-04-18T16:22:03.998Z</time></trkpt><trkpt lat="41.908848781598174" lon="12.448293620995877"><ele>30.0</ele><time>2026-04-18T16:22:04.998Z</time></trkpt><trkpt lat="41.90876513200223" lon="12.448247039769631"><ele>30.0</ele><time>2026-04-18T16:22:05.998Z</time></trkpt><trkpt lat="41.9086747974648" lon="12.448189161174545"><ele>30.0</ele><time>2026-04-18T16:22:06.998Z</time></trkpt><trkpt lat="41.90858382627951" lon="12.448110675976736"><ele>30.0</ele><time>2026-04-18T16:22:07.998Z</time></trkpt><trkpt lat="41.90849483689332" lon="12.448028104835801"><ele>30.0</ele><time>2026-04-18T16:22:08.998Z</time></trkpt><trkpt lat="41.90839754164929" lon="12.447931177973961"><ele>30.0</ele><time>2026-04-18T16:22:09.998Z</time></trkpt><trkpt lat="41.908295506294834" lon="12.447834226901298"><ele>30.0</ele><time>2026-04-18T16:22:10.998Z</time></trkpt><trkpt lat="41.90823059728771" lon="12.447763219650662"><ele>30.0</ele><time>2026-04-18T16:22:11.998Z</time></trkpt><trkpt lat="41.908151896881435" lon="12.447681199991063"><ele>30.0</ele><time>2026-04-18T16:22:13Z</time></trkpt><trkpt lat="41.90807542324312" lon="12.447598204528315"><ele>30.0</ele><time>2026-04-18T16:22:14Z</time></trkpt><trkpt lat="41.90800247222297" lon="12.44751750021516"><ele>30.0</ele><time>2026-04-18T16:22:15Z</time></trkpt><trkpt lat="41.90794010829574" lon="12.44744872317263"><ele>30.0</ele><time>2026-04-18T16:22:16Z</time></trkpt><trkpt lat="41.90788434191872" lon="12.447387956291125"><ele>30.0</ele><time>2026-04-18T16:22:17Z</time></trkpt><trkpt lat="41.907795504315885" lon="12.44729439658086"><ele>30.0</ele><time>2026-04-18T16:22:19Z</time></trkpt><trkpt lat="41.90771068968855" lon="12.447203436178723"><ele>30.0</ele><time>2026-04-18T16:22:21Z</time></trkpt><trkpt lat="41.90762417504473" lon="12.447107186158775"><ele>30.833333333333332</ele><time>2026-04-18T16:22:23Z</time></trkpt><trkpt lat="41.90754274567617" lon="12.447018153107447"><ele>31.666666666666664</ele><time>2026-04-18T16:22:25Z</time></trkpt><trkpt lat="41.90748516016717" lon="12.446964544621673"><ele>32.5</ele><time>2026-04-18T16:22:26Z</time></trkpt><trkpt lat="41.90743686762139" lon="12.44690156307502"><ele>33.33333333333333</ele><time>2026-04-18T16:22:27Z</time></trkpt><trkpt lat="41.90737979656952" lon="12.446841022577972"><ele>34.166666666666664</ele><time>2026-04-18T16:22:28Z</time></trkpt><trkpt lat="41.907324115843345" lon="12.446786073018066"><ele>35.0</ele><time>2026-04-18T16:22:29Z</time></trkpt><trkpt lat="41.90726671940301" lon="12.446732111343763"><ele>35.0</ele><time>2026-04-18T16:22:30Z</time></trkpt><trkpt lat="41.907175640622704" lon="12.446624066327043"><ele>35.0</ele><time>2026-04-18T16:22:32Z</time></trkpt><trkpt lat="41.907087254646" lon="12.446552170901354"><ele>35.0</ele><time>2026-04-18T16:22:34Z</time></trkpt><trkpt lat="41.906995871039605" lon="12.446473253837214"><ele>35.0</ele><time>2026-04-18T16:22:36Z</time></trkpt><trkpt lat="41.9068957576743" lon="12.446360524478605"><ele>36.166666666666664</ele><time>2026-04-18T16:22:38Z</time></trkpt><trkpt lat="41.906802880367486" lon="12.446244781727716"><ele>37.33333333333333</ele><time>2026-04-18T16:22:40Z</time></trkpt><trkpt lat="41.906750882898145" lon="12.446184569534303"><ele>38.5</ele><time>2026-04-18T16:22:41Z</time></trkpt><trkpt lat="41.906693741284904" lon="12.446148433555669"><ele>39.666666666666664</ele><time>2026-04-18T16:22:42Z</time></trkpt><trkpt lat="41.906613836591184" lon="12.446075338644206"><ele>40.833333333333336</ele><time>2026-04-18T16:22:44Z</time></trkpt><trkpt lat="41.90656211784082" lon="12.445996924348334"><ele>42.0</ele><time>2026-04-18T16:22:46Z</time></trkpt><trkpt lat="41.90650337655453" lon="12.445943518994872"><ele>42.0</ele><time>2026-04-18T16:22:48Z</time></trkpt><trkpt lat="41.906370375788136" lon="12.44584863880881"><ele>42.0</ele><time>2026-04-18T16:22:51Z</time></trkpt><trkpt lat="41.906558287407094" lon="12.446088987515875"><ele>42.0</ele><time>2026-04-18T16:22:52Z</time></trkpt><trkpt lat="41.9064893409758" lon="12.446020480077628"><ele>42.0</ele><time>2026-04-18T16:22:54Z</time></trkpt><trkpt lat="41.9063582962706" lon="12.445838835029654"><ele>42.0</ele><time>2026-04-18T16:23:04.999Z</time></trkpt><trkpt lat="41.905992315377645" lon="12.44636752722746"><ele>42.400000000000006</ele><time>2026-04-18T16:23:06.999Z</time></trkpt><trkpt lat="41.90584571091589" lon="12.446272924882814"><ele>42.800000000000004</ele><time>2026-04-18T16:23:08.999Z</time></trkpt><trkpt lat="41.9057775308437" lon="12.44622820008139"><ele>43.2</ele><time>2026-04-18T16:23:09.999Z</time></trkpt><trkpt lat="41.90571346316429" lon="12.446188404274746"><ele>43.6</ele><time>2026-04-18T16:23:10.999Z</time></trkpt><trkpt lat="41.905641891042336" lon="12.446140718116629"><ele>44.0</ele><time>2026-04-18T16:23:11.999Z</time></trkpt><trkpt lat="41.905581327327255" lon="12.446079829998947"><ele>44.0</ele><time>2026-04-18T16:23:12.999Z</time></trkpt><trkpt lat="41.90551898277613" lon="12.44601623850549"><ele>44.0</ele><time>2026-04-18T16:23:13.999Z</time></trkpt><trkpt lat="41.90546555382485" lon="12.445962127788768"><ele>44.0</ele><time>2026-04-18T16:23:14.999Z</time></trkpt><trkpt lat="41.90539618516771" lon="12.445892998904457"><ele>44.0</ele><time>2026-04-18T16:23:15.999Z</time></trkpt><trkpt lat="41.90531454589846" lon="12.445809587170952"><ele>44.0</ele><time>2026-04-18T16:23:16.999Z</time></trkpt><trkpt lat="41.90521230963517" lon="12.445700651239463"><ele>44.0</ele><time>2026-04-18T16:23:17.999Z</time></trkpt><trkpt lat="41.90510026909959" lon="12.445544878374488"><ele>44.0</ele><time>2026-04-18T16:23:18.999Z</time></trkpt><trkpt lat="41.90547663590067" lon="12.444941392085212"><ele>43.33333333333333</ele><time>2026-04-18T16:23:19.999Z</time></trkpt><trkpt lat="41.905417436396526" lon="12.444860356837722"><ele>42.666666666666664</ele><time>2026-04-18T16:23:20.999Z</time></trkpt><trkpt lat="41.905353816637124" lon="12.44478155465462"><ele>42.0</ele><time>2026-04-18T16:23:21.999Z</time></trkpt><trkpt lat="41.905303568021196" lon="12.44471588940928"><ele>41.333333333333336</ele><time>2026-04-18T16:23:22.999Z</time></trkpt><trkpt lat="41.905247077707074" lon="12.444642087721812"><ele>40.66666666666667</ele><time>2026-04-18T16:23:23.999Z</time></trkpt><trkpt lat="41.90517334077027" lon="12.444541902727432"><ele>40.0</ele><time>2026-04-18T16:23:25.999Z</time></trkpt><trkpt lat="41.90512757548326" lon="12.444468556308093"><ele>40.6</ele><time>2026-04-18T16:23:26.999Z</time></trkpt><trkpt lat="41.905060804389095" lon="12.4443970451929"><ele>41.2</ele><time>2026-04-18T16:23:27.999Z</time></trkpt><trkpt lat="41.90500785340613" lon="12.44430628718257"><ele>41.8</ele><time>2026-04-18T16:23:28.999Z</time></trkpt><trkpt lat="41.90491927768118" lon="12.4442091931893"><ele>42.4</ele><time>2026-04-18T16:23:29.999Z</time></trkpt><trkpt lat="41.90482547444503" lon="12.444104384486527"><ele>43.0</ele><time>2026-04-18T16:23:30.999Z</time></trkpt><trkpt lat="41.90473089624163" lon="12.444012516742278"><ele>43.0</ele><time>2026-04-18T16:23:31.999Z</time></trkpt><trkpt lat="41.90466284633032" lon="12.443948846855946"><ele>43.0</ele><time>2026-04-18T16:23:32.999Z</time></trkpt><trkpt lat="41.90459802027009" lon="12.443884589927439"><ele>43.0</ele><time>2026-04-18T16:23:33.999Z</time></trkpt><trkpt lat="41.90453463470185" lon="12.443809258102542"><ele>43.0</ele><time>2026-04-18T16:23:34.999Z</time></trkpt><trkpt lat="41.904477821143395" lon="12.443712860840469"><ele>43.0</ele><time>2026-04-18T16:23:35.999Z</time></trkpt><trkpt lat="41.90441896174644" lon="12.443655235386084"><ele>43.0</ele><time>2026-04-18T16:23:36.999Z</time></trkpt><trkpt lat="41.90435911633311" lon="12.443587247794639"><ele>43.16666666666667</ele><time>2026-04-18T16:23:37.999Z</time></trkpt><trkpt lat="41.90429618940165" lon="12.443520822595582"><ele>43.333333333333336</ele><time>2026-04-18T16:23:38.999Z</time></trkpt><trkpt lat="41.90423739408385" lon="12.44344931906324"><ele>43.5</ele><time>2026-04-18T16:23:39.999Z</time></trkpt><trkpt lat="41.90417332847992" lon="12.443374735498164"><ele>43.666666666666664</ele><time>2026-04-18T16:23:40.999Z</time></trkpt><trkpt lat="41.90411375917223" lon="12.443307861690775"><ele>43.83333333333333</ele><time>2026-04-18T16:23:41.999Z</time></trkpt><trkpt lat="41.90405447614832" lon="12.443235849158613"><ele>44.0</ele><time>2026-04-18T16:23:42.999Z</time></trkpt><trkpt lat="41.90400442377957" lon="12.443174820965437"><ele>40.0</ele><time>2026-04-18T16:23:43.999Z</time></trkpt><trkpt lat="41.90395703639295" lon="12.443115988623696"><ele>40.0</ele><time>2026-04-18T16:23:44.999Z</time></trkpt><trkpt lat="41.90388223804206" lon="12.442998033589207"><ele>40.0</ele><time>2026-04-18T16:23:46.999Z</time></trkpt><trkpt lat="41.90386111809161" lon="12.442886634995277"><ele>44.0</ele><time>2026-04-18T16:23:48.999Z</time></trkpt><trkpt lat="41.903815256133804" lon="12.442799056135609"><ele>44.0</ele><time>2026-04-18T16:23:51.999Z</time></trkpt></trkseg></trk></gpx>